<?xml version="1.0" encoding="UTF-8" standalone="no" ?>
<gpx xmlns="http://www.topografix.com/GPX/1/1" xmlns:xsi="http://www.w3.org/2001/XMLSchema-instance" xsi:schemaLocation="http://www.topografix.com/GPX/1/1 http://www.topografix.com/GPX/1/1/gpx.xsd" version="1.1" creator="VisuGPX - https://www.visugpx.com">
  <metadata>
    <name>2016-12-08 Walk from Frontenas</name>
    <desc><![CDATA[2016-12-08 Walk from Frontenas]]></desc>
  </metadata>
  <wpt lat="45.92416" lon="4.61894">
    <ele>357</ele>
    <name><![CDATA[2016-12-08 08:48 (Start)]]></name>
  </wpt>
  <wpt lat="45.92428" lon="4.61898">
    <ele>358</ele>
    <name><![CDATA[2016-12-08 08:48 (End)]]></name>
    <desc><![CDATA[Created by Google My Tracks on Android  Name: 2016-12-08 08:48 Activity type: walking Description: - Total distance: 24.72 km (15.4 mi) Total time: 7:20:42 Moving time: 7:11:06 Average speed: 3.37 km/h (2.1 mi/h) Average moving speed: 3.44 km/h (2.1 mi/h) Max speed: 5.76 km/h (3.6 mi/h) Average pace: 17:49 min/km (28:41 min/mi) Average moving pace: 17:26 min/km (28:04 min/mi) Fastest pace: 10:25 min/km (16:46 min/mi) Max elevation: 749 m (2459 ft) Min elevation: 396 m (1298 ft) Elevation gain: 1285 m (4217 ft) Max grade: 25 % Min grade: -61 % Recorded: 08/12/2016 08:48]]></desc>
  </wpt>
  <trk>
    <name><![CDATA[2016-12-08 08:48]]></name>
    <trkseg>
      <trkpt lat="45.92416" lon="4.61894">
        <ele>357</ele>
        <time>2016-12-08T07:48:03.258Z</time>
      </trkpt>
      <trkpt lat="45.92417" lon="4.61893">
        <ele>358</ele>
        <time>2016-12-08T07:48:08.002Z</time>
      </trkpt>
      <trkpt lat="45.92417" lon="4.61877">
        <ele>359</ele>
        <time>2016-12-08T07:48:08.931Z</time>
      </trkpt>
      <trkpt lat="45.92421" lon="4.61882">
        <ele>359</ele>
        <time>2016-12-08T07:48:11.936Z</time>
      </trkpt>
      <trkpt lat="45.92424" lon="4.61894">
        <ele>358</ele>
        <time>2016-12-08T07:48:12.934Z</time>
      </trkpt>
      <trkpt lat="45.92431" lon="4.61901">
        <ele>358</ele>
        <time>2016-12-08T07:51:59Z</time>
      </trkpt>
      <trkpt lat="45.92432" lon="4.61901">
        <ele>358</ele>
        <time>2016-12-08T07:52:00Z</time>
      </trkpt>
      <trkpt lat="45.92441" lon="4.61898">
        <ele>358</ele>
        <time>2016-12-08T07:52:09Z</time>
      </trkpt>
      <trkpt lat="45.92442" lon="4.61897">
        <ele>358</ele>
        <time>2016-12-08T07:52:10Z</time>
      </trkpt>
      <trkpt lat="45.92449" lon="4.61892">
        <ele>359</ele>
        <time>2016-12-08T07:52:17Z</time>
      </trkpt>
      <trkpt lat="45.9245" lon="4.61891">
        <ele>359</ele>
        <time>2016-12-08T07:52:18Z</time>
      </trkpt>
      <trkpt lat="45.92458" lon="4.61893">
        <ele>359</ele>
        <time>2016-12-08T07:52:26Z</time>
      </trkpt>
      <trkpt lat="45.92459" lon="4.61893">
        <ele>359</ele>
        <time>2016-12-08T07:52:27Z</time>
      </trkpt>
      <trkpt lat="45.92467" lon="4.61889">
        <ele>360</ele>
        <time>2016-12-08T07:52:35Z</time>
      </trkpt>
      <trkpt lat="45.92468" lon="4.61889">
        <ele>360</ele>
        <time>2016-12-08T07:52:36Z</time>
      </trkpt>
      <trkpt lat="45.92476" lon="4.61886">
        <ele>360</ele>
        <time>2016-12-08T07:52:42Z</time>
      </trkpt>
      <trkpt lat="45.92477" lon="4.61884">
        <ele>360</ele>
        <time>2016-12-08T07:52:43Z</time>
      </trkpt>
      <trkpt lat="45.92482" lon="4.61876">
        <ele>360</ele>
        <time>2016-12-08T07:52:49Z</time>
      </trkpt>
      <trkpt lat="45.92483" lon="4.61874">
        <ele>360</ele>
        <time>2016-12-08T07:52:50Z</time>
      </trkpt>
      <trkpt lat="45.92489" lon="4.61865">
        <ele>361</ele>
        <time>2016-12-08T07:52:56Z</time>
      </trkpt>
      <trkpt lat="45.9249" lon="4.61864">
        <ele>361</ele>
        <time>2016-12-08T07:52:57Z</time>
      </trkpt>
      <trkpt lat="45.92497" lon="4.61856">
        <ele>361</ele>
        <time>2016-12-08T07:53:03Z</time>
      </trkpt>
      <trkpt lat="45.92498" lon="4.61856">
        <ele>362</ele>
        <time>2016-12-08T07:53:04Z</time>
      </trkpt>
      <trkpt lat="45.92507" lon="4.61852">
        <ele>364</ele>
        <time>2016-12-08T07:53:12Z</time>
      </trkpt>
      <trkpt lat="45.92508" lon="4.61851">
        <ele>364</ele>
        <time>2016-12-08T07:53:13Z</time>
      </trkpt>
      <trkpt lat="45.92515" lon="4.61845">
        <ele>364</ele>
        <time>2016-12-08T07:53:21Z</time>
      </trkpt>
      <trkpt lat="45.92516" lon="4.61844">
        <ele>364</ele>
        <time>2016-12-08T07:53:22Z</time>
      </trkpt>
      <trkpt lat="45.92523" lon="4.61837">
        <ele>364</ele>
        <time>2016-12-08T07:53:29Z</time>
      </trkpt>
      <trkpt lat="45.92524" lon="4.61836">
        <ele>364</ele>
        <time>2016-12-08T07:53:30Z</time>
      </trkpt>
      <trkpt lat="45.92531" lon="4.61832">
        <ele>366</ele>
        <time>2016-12-08T07:53:37Z</time>
      </trkpt>
      <trkpt lat="45.92533" lon="4.61831">
        <ele>366</ele>
        <time>2016-12-08T07:53:38Z</time>
      </trkpt>
      <trkpt lat="45.92541" lon="4.61829">
        <ele>367</ele>
        <time>2016-12-08T07:53:45Z</time>
      </trkpt>
      <trkpt lat="45.92542" lon="4.61829">
        <ele>367</ele>
        <time>2016-12-08T07:53:46Z</time>
      </trkpt>
      <trkpt lat="45.9255" lon="4.61824">
        <ele>367</ele>
        <time>2016-12-08T07:53:53Z</time>
      </trkpt>
      <trkpt lat="45.9255" lon="4.61823">
        <ele>367</ele>
        <time>2016-12-08T07:53:54Z</time>
      </trkpt>
      <trkpt lat="45.92558" lon="4.61818">
        <ele>367</ele>
        <time>2016-12-08T07:54:02Z</time>
      </trkpt>
      <trkpt lat="45.92559" lon="4.61817">
        <ele>367</ele>
        <time>2016-12-08T07:54:03Z</time>
      </trkpt>
      <trkpt lat="45.92564" lon="4.61808">
        <ele>367</ele>
        <time>2016-12-08T07:54:10Z</time>
      </trkpt>
      <trkpt lat="45.92565" lon="4.61807">
        <ele>367</ele>
        <time>2016-12-08T07:54:11Z</time>
      </trkpt>
      <trkpt lat="45.92573" lon="4.61805">
        <ele>368</ele>
        <time>2016-12-08T07:54:17Z</time>
      </trkpt>
      <trkpt lat="45.92575" lon="4.61806">
        <ele>368</ele>
        <time>2016-12-08T07:54:18Z</time>
      </trkpt>
      <trkpt lat="45.92576" lon="4.61794">
        <ele>368</ele>
        <time>2016-12-08T07:55:00Z</time>
      </trkpt>
      <trkpt lat="45.92576" lon="4.61793">
        <ele>368</ele>
        <time>2016-12-08T07:55:01Z</time>
      </trkpt>
      <trkpt lat="45.92579" lon="4.61782">
        <ele>368</ele>
        <time>2016-12-08T07:55:08Z</time>
      </trkpt>
      <trkpt lat="45.92579" lon="4.61779">
        <ele>368</ele>
        <time>2016-12-08T07:55:09Z</time>
      </trkpt>
      <trkpt lat="45.9258" lon="4.61768">
        <ele>369</ele>
        <time>2016-12-08T07:55:17Z</time>
      </trkpt>
      <trkpt lat="45.9258" lon="4.61766">
        <ele>369</ele>
        <time>2016-12-08T07:55:18Z</time>
      </trkpt>
      <trkpt lat="45.92582" lon="4.61754">
        <ele>370</ele>
        <time>2016-12-08T07:55:25Z</time>
      </trkpt>
      <trkpt lat="45.92582" lon="4.61752">
        <ele>370</ele>
        <time>2016-12-08T07:55:26Z</time>
      </trkpt>
      <trkpt lat="45.92584" lon="4.6174">
        <ele>371</ele>
        <time>2016-12-08T07:55:32Z</time>
      </trkpt>
      <trkpt lat="45.92584" lon="4.61739">
        <ele>371</ele>
        <time>2016-12-08T07:55:33Z</time>
      </trkpt>
      <trkpt lat="45.92581" lon="4.61727">
        <ele>369</ele>
        <time>2016-12-08T07:55:41Z</time>
      </trkpt>
      <trkpt lat="45.9258" lon="4.61725">
        <ele>369</ele>
        <time>2016-12-08T07:55:42Z</time>
      </trkpt>
      <trkpt lat="45.92579" lon="4.61713">
        <ele>369</ele>
        <time>2016-12-08T07:55:49Z</time>
      </trkpt>
      <trkpt lat="45.92579" lon="4.61711">
        <ele>370</ele>
        <time>2016-12-08T07:55:50Z</time>
      </trkpt>
      <trkpt lat="45.9258" lon="4.617">
        <ele>370</ele>
        <time>2016-12-08T07:55:57Z</time>
      </trkpt>
      <trkpt lat="45.9258" lon="4.61698">
        <ele>370</ele>
        <time>2016-12-08T07:55:58Z</time>
      </trkpt>
      <trkpt lat="45.9258" lon="4.61685">
        <ele>370</ele>
        <time>2016-12-08T07:56:04Z</time>
      </trkpt>
      <trkpt lat="45.9258" lon="4.61683">
        <ele>370</ele>
        <time>2016-12-08T07:56:05Z</time>
      </trkpt>
      <trkpt lat="45.9258" lon="4.61671">
        <ele>371</ele>
        <time>2016-12-08T07:56:11Z</time>
      </trkpt>
      <trkpt lat="45.9258" lon="4.61669">
        <ele>371</ele>
        <time>2016-12-08T07:56:12Z</time>
      </trkpt>
      <trkpt lat="45.92579" lon="4.61657">
        <ele>372</ele>
        <time>2016-12-08T07:56:19Z</time>
      </trkpt>
      <trkpt lat="45.92578" lon="4.61655">
        <ele>373</ele>
        <time>2016-12-08T07:56:20Z</time>
      </trkpt>
      <trkpt lat="45.92577" lon="4.61643">
        <ele>374</ele>
        <time>2016-12-08T07:56:27Z</time>
      </trkpt>
      <trkpt lat="45.92577" lon="4.61641">
        <ele>374</ele>
        <time>2016-12-08T07:56:28Z</time>
      </trkpt>
      <trkpt lat="45.92576" lon="4.61628">
        <ele>375</ele>
        <time>2016-12-08T07:56:35Z</time>
      </trkpt>
      <trkpt lat="45.92575" lon="4.61627">
        <ele>375</ele>
        <time>2016-12-08T07:56:36Z</time>
      </trkpt>
      <trkpt lat="45.92571" lon="4.61616">
        <ele>376</ele>
        <time>2016-12-08T07:56:44Z</time>
      </trkpt>
      <trkpt lat="45.9257" lon="4.61615">
        <ele>376</ele>
        <time>2016-12-08T07:56:45Z</time>
      </trkpt>
      <trkpt lat="45.92565" lon="4.61605">
        <ele>377</ele>
        <time>2016-12-08T07:56:54Z</time>
      </trkpt>
      <trkpt lat="45.92564" lon="4.61604">
        <ele>377</ele>
        <time>2016-12-08T07:56:55Z</time>
      </trkpt>
      <trkpt lat="45.92559" lon="4.61594">
        <ele>377</ele>
        <time>2016-12-08T07:57:04Z</time>
      </trkpt>
      <trkpt lat="45.92559" lon="4.61593">
        <ele>377</ele>
        <time>2016-12-08T07:57:05Z</time>
      </trkpt>
      <trkpt lat="45.92554" lon="4.61582">
        <ele>382</ele>
        <time>2016-12-08T07:57:13Z</time>
      </trkpt>
      <trkpt lat="45.92554" lon="4.6158">
        <ele>382</ele>
        <time>2016-12-08T07:57:14Z</time>
      </trkpt>
      <trkpt lat="45.92549" lon="4.61571">
        <ele>382</ele>
        <time>2016-12-08T07:57:21Z</time>
      </trkpt>
      <trkpt lat="45.92548" lon="4.61569">
        <ele>382</ele>
        <time>2016-12-08T07:57:22Z</time>
      </trkpt>
      <trkpt lat="45.92544" lon="4.61559">
        <ele>382</ele>
        <time>2016-12-08T07:57:29Z</time>
      </trkpt>
      <trkpt lat="45.92544" lon="4.61557">
        <ele>382</ele>
        <time>2016-12-08T07:57:30Z</time>
      </trkpt>
      <trkpt lat="45.92538" lon="4.61548">
        <ele>382</ele>
        <time>2016-12-08T07:57:37Z</time>
      </trkpt>
      <trkpt lat="45.92537" lon="4.61546">
        <ele>382</ele>
        <time>2016-12-08T07:57:38Z</time>
      </trkpt>
      <trkpt lat="45.92531" lon="4.61538">
        <ele>382</ele>
        <time>2016-12-08T07:57:44Z</time>
      </trkpt>
      <trkpt lat="45.9253" lon="4.61537">
        <ele>382</ele>
        <time>2016-12-08T07:57:45Z</time>
      </trkpt>
      <trkpt lat="45.92524" lon="4.61529">
        <ele>382</ele>
        <time>2016-12-08T07:57:51Z</time>
      </trkpt>
      <trkpt lat="45.92523" lon="4.61527">
        <ele>383</ele>
        <time>2016-12-08T07:57:52Z</time>
      </trkpt>
      <trkpt lat="45.92519" lon="4.61518">
        <ele>383</ele>
        <time>2016-12-08T07:57:58Z</time>
      </trkpt>
      <trkpt lat="45.92518" lon="4.61516">
        <ele>383</ele>
        <time>2016-12-08T07:57:59Z</time>
      </trkpt>
      <trkpt lat="45.92513" lon="4.61506">
        <ele>383</ele>
        <time>2016-12-08T07:58:06Z</time>
      </trkpt>
      <trkpt lat="45.92512" lon="4.61505">
        <ele>383</ele>
        <time>2016-12-08T07:58:07Z</time>
      </trkpt>
      <trkpt lat="45.92508" lon="4.61494">
        <ele>385</ele>
        <time>2016-12-08T07:58:13Z</time>
      </trkpt>
      <trkpt lat="45.92507" lon="4.61492">
        <ele>385</ele>
        <time>2016-12-08T07:58:14Z</time>
      </trkpt>
      <trkpt lat="45.92505" lon="4.6148">
        <ele>386</ele>
        <time>2016-12-08T07:58:22Z</time>
      </trkpt>
      <trkpt lat="45.92505" lon="4.61478">
        <ele>386</ele>
        <time>2016-12-08T07:58:23Z</time>
      </trkpt>
      <trkpt lat="45.92505" lon="4.61465">
        <ele>387</ele>
        <time>2016-12-08T07:58:30Z</time>
      </trkpt>
      <trkpt lat="45.92505" lon="4.61464">
        <ele>387</ele>
        <time>2016-12-08T07:58:31Z</time>
      </trkpt>
      <trkpt lat="45.92506" lon="4.61452">
        <ele>387</ele>
        <time>2016-12-08T07:58:38Z</time>
      </trkpt>
      <trkpt lat="45.92506" lon="4.6145">
        <ele>387</ele>
        <time>2016-12-08T07:58:39Z</time>
      </trkpt>
      <trkpt lat="45.92507" lon="4.61437">
        <ele>387</ele>
        <time>2016-12-08T07:58:46Z</time>
      </trkpt>
      <trkpt lat="45.92507" lon="4.61436">
        <ele>387</ele>
        <time>2016-12-08T07:58:47Z</time>
      </trkpt>
      <trkpt lat="45.92509" lon="4.61424">
        <ele>387</ele>
        <time>2016-12-08T07:58:54Z</time>
      </trkpt>
      <trkpt lat="45.92509" lon="4.61423">
        <ele>387</ele>
        <time>2016-12-08T07:58:55Z</time>
      </trkpt>
      <trkpt lat="45.92511" lon="4.61411">
        <ele>390</ele>
        <time>2016-12-08T07:59:02Z</time>
      </trkpt>
      <trkpt lat="45.92511" lon="4.61409">
        <ele>390</ele>
        <time>2016-12-08T07:59:03Z</time>
      </trkpt>
      <trkpt lat="45.9251" lon="4.61397">
        <ele>392</ele>
        <time>2016-12-08T07:59:10Z</time>
      </trkpt>
      <trkpt lat="45.9251" lon="4.61395">
        <ele>392</ele>
        <time>2016-12-08T07:59:11Z</time>
      </trkpt>
      <trkpt lat="45.92509" lon="4.61382">
        <ele>393</ele>
        <time>2016-12-08T07:59:19Z</time>
      </trkpt>
      <trkpt lat="45.92509" lon="4.61381">
        <ele>393</ele>
        <time>2016-12-08T07:59:20Z</time>
      </trkpt>
      <trkpt lat="45.92508" lon="4.61368">
        <ele>394</ele>
        <time>2016-12-08T07:59:27Z</time>
      </trkpt>
      <trkpt lat="45.92509" lon="4.61366">
        <ele>394</ele>
        <time>2016-12-08T07:59:28Z</time>
      </trkpt>
      <trkpt lat="45.92511" lon="4.61355">
        <ele>395</ele>
        <time>2016-12-08T07:59:35Z</time>
      </trkpt>
      <trkpt lat="45.92511" lon="4.61353">
        <ele>395</ele>
        <time>2016-12-08T07:59:36Z</time>
      </trkpt>
      <trkpt lat="45.92512" lon="4.61341">
        <ele>396</ele>
        <time>2016-12-08T07:59:44Z</time>
      </trkpt>
      <trkpt lat="45.92512" lon="4.61339">
        <ele>396</ele>
        <time>2016-12-08T07:59:45Z</time>
      </trkpt>
      <trkpt lat="45.92512" lon="4.61327">
        <ele>399</ele>
        <time>2016-12-08T07:59:52Z</time>
      </trkpt>
      <trkpt lat="45.92512" lon="4.61325">
        <ele>399</ele>
        <time>2016-12-08T07:59:53Z</time>
      </trkpt>
      <trkpt lat="45.92511" lon="4.61313">
        <ele>400</ele>
        <time>2016-12-08T08:00:00Z</time>
      </trkpt>
      <trkpt lat="45.92511" lon="4.61312">
        <ele>400</ele>
        <time>2016-12-08T08:00:01Z</time>
      </trkpt>
      <trkpt lat="45.92509" lon="4.613">
        <ele>401</ele>
        <time>2016-12-08T08:00:09Z</time>
      </trkpt>
      <trkpt lat="45.92509" lon="4.61298">
        <ele>401</ele>
        <time>2016-12-08T08:00:10Z</time>
      </trkpt>
      <trkpt lat="45.92509" lon="4.61287">
        <ele>402</ele>
        <time>2016-12-08T08:00:15Z</time>
      </trkpt>
      <trkpt lat="45.92508" lon="4.61285">
        <ele>402</ele>
        <time>2016-12-08T08:00:16Z</time>
      </trkpt>
      <trkpt lat="45.92507" lon="4.61273">
        <ele>402</ele>
        <time>2016-12-08T08:00:22Z</time>
      </trkpt>
      <trkpt lat="45.92507" lon="4.61271">
        <ele>402</ele>
        <time>2016-12-08T08:00:23Z</time>
      </trkpt>
      <trkpt lat="45.92504" lon="4.6126">
        <ele>403</ele>
        <time>2016-12-08T08:00:30Z</time>
      </trkpt>
      <trkpt lat="45.92503" lon="4.61259">
        <ele>403</ele>
        <time>2016-12-08T08:00:31Z</time>
      </trkpt>
      <trkpt lat="45.925" lon="4.61248">
        <ele>404</ele>
        <time>2016-12-08T08:00:39Z</time>
      </trkpt>
      <trkpt lat="45.925" lon="4.61246">
        <ele>404</ele>
        <time>2016-12-08T08:00:40Z</time>
      </trkpt>
      <trkpt lat="45.92498" lon="4.61234">
        <ele>406</ele>
        <time>2016-12-08T08:00:48Z</time>
      </trkpt>
      <trkpt lat="45.92498" lon="4.61232">
        <ele>407</ele>
        <time>2016-12-08T08:00:49Z</time>
      </trkpt>
      <trkpt lat="45.92498" lon="4.6122">
        <ele>408</ele>
        <time>2016-12-08T08:00:58Z</time>
      </trkpt>
      <trkpt lat="45.92498" lon="4.61219">
        <ele>408</ele>
        <time>2016-12-08T08:00:59Z</time>
      </trkpt>
      <trkpt lat="45.925" lon="4.61207">
        <ele>410</ele>
        <time>2016-12-08T08:01:06Z</time>
      </trkpt>
      <trkpt lat="45.925" lon="4.61206">
        <ele>410</ele>
        <time>2016-12-08T08:01:07Z</time>
      </trkpt>
      <trkpt lat="45.925" lon="4.61194">
        <ele>411</ele>
        <time>2016-12-08T08:01:18Z</time>
      </trkpt>
      <trkpt lat="45.925" lon="4.61192">
        <ele>411</ele>
        <time>2016-12-08T08:01:19Z</time>
      </trkpt>
      <trkpt lat="45.92498" lon="4.6118">
        <ele>412</ele>
        <time>2016-12-08T08:01:26Z</time>
      </trkpt>
      <trkpt lat="45.92498" lon="4.61179">
        <ele>412</ele>
        <time>2016-12-08T08:01:27Z</time>
      </trkpt>
      <trkpt lat="45.925" lon="4.61167">
        <ele>414</ele>
        <time>2016-12-08T08:01:34Z</time>
      </trkpt>
      <trkpt lat="45.925" lon="4.61165">
        <ele>414</ele>
        <time>2016-12-08T08:01:35Z</time>
      </trkpt>
      <trkpt lat="45.92501" lon="4.61153">
        <ele>415</ele>
        <time>2016-12-08T08:01:44Z</time>
      </trkpt>
      <trkpt lat="45.92501" lon="4.61152">
        <ele>415</ele>
        <time>2016-12-08T08:01:45Z</time>
      </trkpt>
      <trkpt lat="45.92508" lon="4.61144">
        <ele>416</ele>
        <time>2016-12-08T08:01:55Z</time>
      </trkpt>
      <trkpt lat="45.92509" lon="4.61144">
        <ele>416</ele>
        <time>2016-12-08T08:01:56Z</time>
      </trkpt>
      <trkpt lat="45.92518" lon="4.61141">
        <ele>416</ele>
        <time>2016-12-08T08:02:06Z</time>
      </trkpt>
      <trkpt lat="45.92519" lon="4.6114">
        <ele>416</ele>
        <time>2016-12-08T08:02:07Z</time>
      </trkpt>
      <trkpt lat="45.92526" lon="4.61135">
        <ele>417</ele>
        <time>2016-12-08T08:02:14Z</time>
      </trkpt>
      <trkpt lat="45.92527" lon="4.61135">
        <ele>417</ele>
        <time>2016-12-08T08:02:15Z</time>
      </trkpt>
      <trkpt lat="45.92535" lon="4.61133">
        <ele>417</ele>
        <time>2016-12-08T08:02:23Z</time>
      </trkpt>
      <trkpt lat="45.92536" lon="4.61133">
        <ele>417</ele>
        <time>2016-12-08T08:02:24Z</time>
      </trkpt>
      <trkpt lat="45.92545" lon="4.61131">
        <ele>417</ele>
        <time>2016-12-08T08:02:31Z</time>
      </trkpt>
      <trkpt lat="45.92546" lon="4.6113">
        <ele>417</ele>
        <time>2016-12-08T08:02:32Z</time>
      </trkpt>
      <trkpt lat="45.92553" lon="4.61124">
        <ele>417</ele>
        <time>2016-12-08T08:02:39Z</time>
      </trkpt>
      <trkpt lat="45.92554" lon="4.61123">
        <ele>417</ele>
        <time>2016-12-08T08:02:40Z</time>
      </trkpt>
      <trkpt lat="45.92562" lon="4.61119">
        <ele>417</ele>
        <time>2016-12-08T08:02:46Z</time>
      </trkpt>
      <trkpt lat="45.92563" lon="4.61118">
        <ele>417</ele>
        <time>2016-12-08T08:02:47Z</time>
      </trkpt>
      <trkpt lat="45.9257" lon="4.61112">
        <ele>418</ele>
        <time>2016-12-08T08:02:54Z</time>
      </trkpt>
      <trkpt lat="45.92571" lon="4.61111">
        <ele>418</ele>
        <time>2016-12-08T08:02:55Z</time>
      </trkpt>
      <trkpt lat="45.92579" lon="4.61104">
        <ele>418</ele>
        <time>2016-12-08T08:03:02Z</time>
      </trkpt>
      <trkpt lat="45.9258" lon="4.61103">
        <ele>418</ele>
        <time>2016-12-08T08:03:03Z</time>
      </trkpt>
      <trkpt lat="45.92585" lon="4.61093">
        <ele>420</ele>
        <time>2016-12-08T08:03:10Z</time>
      </trkpt>
      <trkpt lat="45.92586" lon="4.61092">
        <ele>420</ele>
        <time>2016-12-08T08:03:11Z</time>
      </trkpt>
      <trkpt lat="45.9259" lon="4.61081">
        <ele>421</ele>
        <time>2016-12-08T08:03:18Z</time>
      </trkpt>
      <trkpt lat="45.92591" lon="4.61079">
        <ele>421</ele>
        <time>2016-12-08T08:03:19Z</time>
      </trkpt>
      <trkpt lat="45.92599" lon="4.61076">
        <ele>422</ele>
        <time>2016-12-08T08:03:27Z</time>
      </trkpt>
      <trkpt lat="45.92599" lon="4.61076">
        <ele>422</ele>
        <time>2016-12-08T08:03:28Z</time>
      </trkpt>
      <trkpt lat="45.92608" lon="4.61076">
        <ele>422</ele>
        <time>2016-12-08T08:03:37Z</time>
      </trkpt>
      <trkpt lat="45.9261" lon="4.61076">
        <ele>422</ele>
        <time>2016-12-08T08:03:38Z</time>
      </trkpt>
      <trkpt lat="45.92618" lon="4.61077">
        <ele>423</ele>
        <time>2016-12-08T08:03:44Z</time>
      </trkpt>
      <trkpt lat="45.92619" lon="4.61078">
        <ele>423</ele>
        <time>2016-12-08T08:03:45Z</time>
      </trkpt>
      <trkpt lat="45.92626" lon="4.61081">
        <ele>423</ele>
        <time>2016-12-08T08:03:50Z</time>
      </trkpt>
      <trkpt lat="45.92628" lon="4.61082">
        <ele>423</ele>
        <time>2016-12-08T08:03:51Z</time>
      </trkpt>
      <trkpt lat="45.92634" lon="4.61089">
        <ele>423</ele>
        <time>2016-12-08T08:03:57Z</time>
      </trkpt>
      <trkpt lat="45.92635" lon="4.61091">
        <ele>423</ele>
        <time>2016-12-08T08:03:58Z</time>
      </trkpt>
      <trkpt lat="45.92642" lon="4.61097">
        <ele>423</ele>
        <time>2016-12-08T08:04:05Z</time>
      </trkpt>
      <trkpt lat="45.92643" lon="4.61098">
        <ele>423</ele>
        <time>2016-12-08T08:04:06Z</time>
      </trkpt>
      <trkpt lat="45.92648" lon="4.61107">
        <ele>423</ele>
        <time>2016-12-08T08:04:12Z</time>
      </trkpt>
      <trkpt lat="45.92649" lon="4.61108">
        <ele>423</ele>
        <time>2016-12-08T08:04:13Z</time>
      </trkpt>
      <trkpt lat="45.92656" lon="4.61116">
        <ele>423</ele>
        <time>2016-12-08T08:04:19Z</time>
      </trkpt>
      <trkpt lat="45.92657" lon="4.61117">
        <ele>423</ele>
        <time>2016-12-08T08:04:20Z</time>
      </trkpt>
      <trkpt lat="45.92664" lon="4.61122">
        <ele>423</ele>
        <time>2016-12-08T08:04:25Z</time>
      </trkpt>
      <trkpt lat="45.92666" lon="4.61123">
        <ele>423</ele>
        <time>2016-12-08T08:04:26Z</time>
      </trkpt>
      <trkpt lat="45.92672" lon="4.61129">
        <ele>429</ele>
        <time>2016-12-08T08:04:31Z</time>
      </trkpt>
      <trkpt lat="45.92673" lon="4.6113">
        <ele>429</ele>
        <time>2016-12-08T08:04:32Z</time>
      </trkpt>
      <trkpt lat="45.92681" lon="4.61136">
        <ele>429</ele>
        <time>2016-12-08T08:04:38Z</time>
      </trkpt>
      <trkpt lat="45.92682" lon="4.61137">
        <ele>429</ele>
        <time>2016-12-08T08:04:39Z</time>
      </trkpt>
      <trkpt lat="45.92688" lon="4.61146">
        <ele>429</ele>
        <time>2016-12-08T08:04:51Z</time>
      </trkpt>
      <trkpt lat="45.92689" lon="4.61147">
        <ele>429</ele>
        <time>2016-12-08T08:04:52Z</time>
      </trkpt>
      <trkpt lat="45.92695" lon="4.61155">
        <ele>430</ele>
        <time>2016-12-08T08:04:58Z</time>
      </trkpt>
      <trkpt lat="45.92697" lon="4.61157">
        <ele>430</ele>
        <time>2016-12-08T08:04:59Z</time>
      </trkpt>
      <trkpt lat="45.92704" lon="4.61163">
        <ele>431</ele>
        <time>2016-12-08T08:05:04Z</time>
      </trkpt>
      <trkpt lat="45.92706" lon="4.61164">
        <ele>431</ele>
        <time>2016-12-08T08:05:05Z</time>
      </trkpt>
      <trkpt lat="45.92714" lon="4.6117">
        <ele>428</ele>
        <time>2016-12-08T08:05:11Z</time>
      </trkpt>
      <trkpt lat="45.92715" lon="4.61171">
        <ele>428</ele>
        <time>2016-12-08T08:05:12Z</time>
      </trkpt>
      <trkpt lat="45.92721" lon="4.61178">
        <ele>429</ele>
        <time>2016-12-08T08:05:18Z</time>
      </trkpt>
      <trkpt lat="45.92722" lon="4.6118">
        <ele>429</ele>
        <time>2016-12-08T08:05:19Z</time>
      </trkpt>
      <trkpt lat="45.92727" lon="4.6119">
        <ele>429</ele>
        <time>2016-12-08T08:05:25Z</time>
      </trkpt>
      <trkpt lat="45.92728" lon="4.61191">
        <ele>429</ele>
        <time>2016-12-08T08:05:26Z</time>
      </trkpt>
      <trkpt lat="45.92735" lon="4.61197">
        <ele>428</ele>
        <time>2016-12-08T08:05:33Z</time>
      </trkpt>
      <trkpt lat="45.92736" lon="4.61198">
        <ele>429</ele>
        <time>2016-12-08T08:05:34Z</time>
      </trkpt>
      <trkpt lat="45.92744" lon="4.61203">
        <ele>428</ele>
        <time>2016-12-08T08:05:39Z</time>
      </trkpt>
      <trkpt lat="45.92745" lon="4.61204">
        <ele>428</ele>
        <time>2016-12-08T08:05:40Z</time>
      </trkpt>
      <trkpt lat="45.92751" lon="4.61211">
        <ele>434</ele>
        <time>2016-12-08T08:05:46Z</time>
      </trkpt>
      <trkpt lat="45.92752" lon="4.61213">
        <ele>433</ele>
        <time>2016-12-08T08:05:47Z</time>
      </trkpt>
      <trkpt lat="45.92757" lon="4.61221">
        <ele>433</ele>
        <time>2016-12-08T08:05:53Z</time>
      </trkpt>
      <trkpt lat="45.92758" lon="4.61222">
        <ele>433</ele>
        <time>2016-12-08T08:05:54Z</time>
      </trkpt>
      <trkpt lat="45.92766" lon="4.61227">
        <ele>433</ele>
        <time>2016-12-08T08:05:59Z</time>
      </trkpt>
      <trkpt lat="45.92766" lon="4.61228">
        <ele>432</ele>
        <time>2016-12-08T08:06:00Z</time>
      </trkpt>
      <trkpt lat="45.92773" lon="4.61235">
        <ele>432</ele>
        <time>2016-12-08T08:06:06Z</time>
      </trkpt>
      <trkpt lat="45.92775" lon="4.61236">
        <ele>432</ele>
        <time>2016-12-08T08:06:07Z</time>
      </trkpt>
      <trkpt lat="45.92782" lon="4.61241">
        <ele>433</ele>
        <time>2016-12-08T08:06:12Z</time>
      </trkpt>
      <trkpt lat="45.92783" lon="4.61242">
        <ele>433</ele>
        <time>2016-12-08T08:06:13Z</time>
      </trkpt>
      <trkpt lat="45.9279" lon="4.61248">
        <ele>433</ele>
        <time>2016-12-08T08:06:19Z</time>
      </trkpt>
      <trkpt lat="45.92792" lon="4.61249">
        <ele>433</ele>
        <time>2016-12-08T08:06:20Z</time>
      </trkpt>
      <trkpt lat="45.92799" lon="4.61254">
        <ele>427</ele>
        <time>2016-12-08T08:06:26Z</time>
      </trkpt>
      <trkpt lat="45.928" lon="4.61255">
        <ele>427</ele>
        <time>2016-12-08T08:06:27Z</time>
      </trkpt>
      <trkpt lat="45.92807" lon="4.61262">
        <ele>427</ele>
        <time>2016-12-08T08:06:34Z</time>
      </trkpt>
      <trkpt lat="45.92808" lon="4.61263">
        <ele>427</ele>
        <time>2016-12-08T08:06:35Z</time>
      </trkpt>
      <trkpt lat="45.92815" lon="4.61269">
        <ele>428</ele>
        <time>2016-12-08T08:06:41Z</time>
      </trkpt>
      <trkpt lat="45.92817" lon="4.6127">
        <ele>428</ele>
        <time>2016-12-08T08:06:42Z</time>
      </trkpt>
      <trkpt lat="45.92824" lon="4.61276">
        <ele>427</ele>
        <time>2016-12-08T08:06:48Z</time>
      </trkpt>
      <trkpt lat="45.92825" lon="4.61277">
        <ele>427</ele>
        <time>2016-12-08T08:06:49Z</time>
      </trkpt>
      <trkpt lat="45.92832" lon="4.61282">
        <ele>427</ele>
        <time>2016-12-08T08:06:55Z</time>
      </trkpt>
      <trkpt lat="45.92834" lon="4.61283">
        <ele>429</ele>
        <time>2016-12-08T08:06:56Z</time>
      </trkpt>
      <trkpt lat="45.9284" lon="4.61289">
        <ele>429</ele>
        <time>2016-12-08T08:07:02Z</time>
      </trkpt>
      <trkpt lat="45.92841" lon="4.6129">
        <ele>429</ele>
        <time>2016-12-08T08:07:03Z</time>
      </trkpt>
      <trkpt lat="45.92848" lon="4.61295">
        <ele>429</ele>
        <time>2016-12-08T08:07:08Z</time>
      </trkpt>
      <trkpt lat="45.92849" lon="4.61296">
        <ele>429</ele>
        <time>2016-12-08T08:07:09Z</time>
      </trkpt>
      <trkpt lat="45.92856" lon="4.61302">
        <ele>428</ele>
        <time>2016-12-08T08:07:14Z</time>
      </trkpt>
      <trkpt lat="45.92858" lon="4.61302">
        <ele>428</ele>
        <time>2016-12-08T08:07:15Z</time>
      </trkpt>
      <trkpt lat="45.92865" lon="4.61307">
        <ele>428</ele>
        <time>2016-12-08T08:07:20Z</time>
      </trkpt>
      <trkpt lat="45.92866" lon="4.61308">
        <ele>428</ele>
        <time>2016-12-08T08:07:21Z</time>
      </trkpt>
      <trkpt lat="45.92874" lon="4.61313">
        <ele>428</ele>
        <time>2016-12-08T08:07:26Z</time>
      </trkpt>
      <trkpt lat="45.92875" lon="4.61313">
        <ele>428</ele>
        <time>2016-12-08T08:07:27Z</time>
      </trkpt>
      <trkpt lat="45.92883" lon="4.61317">
        <ele>428</ele>
        <time>2016-12-08T08:07:32Z</time>
      </trkpt>
      <trkpt lat="45.92885" lon="4.61317">
        <ele>428</ele>
        <time>2016-12-08T08:07:33Z</time>
      </trkpt>
      <trkpt lat="45.92892" lon="4.6132">
        <ele>428</ele>
        <time>2016-12-08T08:07:38Z</time>
      </trkpt>
      <trkpt lat="45.92894" lon="4.6132">
        <ele>428</ele>
        <time>2016-12-08T08:07:39Z</time>
      </trkpt>
      <trkpt lat="45.92903" lon="4.61321">
        <ele>428</ele>
        <time>2016-12-08T08:07:45Z</time>
      </trkpt>
      <trkpt lat="45.92904" lon="4.61322">
        <ele>428</ele>
        <time>2016-12-08T08:07:46Z</time>
      </trkpt>
      <trkpt lat="45.92912" lon="4.61323">
        <ele>428</ele>
        <time>2016-12-08T08:07:51Z</time>
      </trkpt>
      <trkpt lat="45.92913" lon="4.61323">
        <ele>428</ele>
        <time>2016-12-08T08:07:52Z</time>
      </trkpt>
      <trkpt lat="45.92921" lon="4.61324">
        <ele>428</ele>
        <time>2016-12-08T08:07:57Z</time>
      </trkpt>
      <trkpt lat="45.92923" lon="4.61324">
        <ele>428</ele>
        <time>2016-12-08T08:07:58Z</time>
      </trkpt>
      <trkpt lat="45.9293" lon="4.61324">
        <ele>428</ele>
        <time>2016-12-08T08:08:03Z</time>
      </trkpt>
      <trkpt lat="45.92932" lon="4.61324">
        <ele>428</ele>
        <time>2016-12-08T08:08:04Z</time>
      </trkpt>
      <trkpt lat="45.9294" lon="4.61323">
        <ele>428</ele>
        <time>2016-12-08T08:08:09Z</time>
      </trkpt>
      <trkpt lat="45.92942" lon="4.61323">
        <ele>428</ele>
        <time>2016-12-08T08:08:10Z</time>
      </trkpt>
      <trkpt lat="45.92949" lon="4.61323">
        <ele>427</ele>
        <time>2016-12-08T08:08:15Z</time>
      </trkpt>
      <trkpt lat="45.92951" lon="4.61323">
        <ele>427</ele>
        <time>2016-12-08T08:08:16Z</time>
      </trkpt>
      <trkpt lat="45.92959" lon="4.61324">
        <ele>427</ele>
        <time>2016-12-08T08:08:21Z</time>
      </trkpt>
      <trkpt lat="45.9296" lon="4.61324">
        <ele>427</ele>
        <time>2016-12-08T08:08:22Z</time>
      </trkpt>
      <trkpt lat="45.92969" lon="4.61325">
        <ele>426</ele>
        <time>2016-12-08T08:08:28Z</time>
      </trkpt>
      <trkpt lat="45.9297" lon="4.61325">
        <ele>426</ele>
        <time>2016-12-08T08:08:29Z</time>
      </trkpt>
      <trkpt lat="45.92978" lon="4.61323">
        <ele>425</ele>
        <time>2016-12-08T08:08:35Z</time>
      </trkpt>
      <trkpt lat="45.9298" lon="4.61323">
        <ele>425</ele>
        <time>2016-12-08T08:08:36Z</time>
      </trkpt>
      <trkpt lat="45.92987" lon="4.6132">
        <ele>424</ele>
        <time>2016-12-08T08:08:42Z</time>
      </trkpt>
      <trkpt lat="45.92989" lon="4.61319">
        <ele>424</ele>
        <time>2016-12-08T08:08:43Z</time>
      </trkpt>
      <trkpt lat="45.92996" lon="4.61311">
        <ele>425</ele>
        <time>2016-12-08T08:08:49Z</time>
      </trkpt>
      <trkpt lat="45.92997" lon="4.6131">
        <ele>425</ele>
        <time>2016-12-08T08:08:50Z</time>
      </trkpt>
      <trkpt lat="45.93004" lon="4.61303">
        <ele>422</ele>
        <time>2016-12-08T08:08:56Z</time>
      </trkpt>
      <trkpt lat="45.93004" lon="4.61302">
        <ele>423</ele>
        <time>2016-12-08T08:08:57Z</time>
      </trkpt>
      <trkpt lat="45.93011" lon="4.61294">
        <ele>423</ele>
        <time>2016-12-08T08:09:03Z</time>
      </trkpt>
      <trkpt lat="45.93012" lon="4.61293">
        <ele>423</ele>
        <time>2016-12-08T08:09:04Z</time>
      </trkpt>
      <trkpt lat="45.93019" lon="4.61288">
        <ele>423</ele>
        <time>2016-12-08T08:09:10Z</time>
      </trkpt>
      <trkpt lat="45.9302" lon="4.61287">
        <ele>423</ele>
        <time>2016-12-08T08:09:11Z</time>
      </trkpt>
      <trkpt lat="45.93026" lon="4.61278">
        <ele>424</ele>
        <time>2016-12-08T08:09:18Z</time>
      </trkpt>
      <trkpt lat="45.93027" lon="4.61277">
        <ele>424</ele>
        <time>2016-12-08T08:09:19Z</time>
      </trkpt>
      <trkpt lat="45.93032" lon="4.61268">
        <ele>424</ele>
        <time>2016-12-08T08:09:26Z</time>
      </trkpt>
      <trkpt lat="45.93033" lon="4.61267">
        <ele>424</ele>
        <time>2016-12-08T08:09:27Z</time>
      </trkpt>
      <trkpt lat="45.93038" lon="4.61259">
        <ele>424</ele>
        <time>2016-12-08T08:09:34Z</time>
      </trkpt>
      <trkpt lat="45.93039" lon="4.61258">
        <ele>424</ele>
        <time>2016-12-08T08:09:35Z</time>
      </trkpt>
      <trkpt lat="45.93046" lon="4.6125">
        <ele>431</ele>
        <time>2016-12-08T08:09:41Z</time>
      </trkpt>
      <trkpt lat="45.93047" lon="4.61248">
        <ele>431</ele>
        <time>2016-12-08T08:09:42Z</time>
      </trkpt>
      <trkpt lat="45.93053" lon="4.61242">
        <ele>431</ele>
        <time>2016-12-08T08:09:48Z</time>
      </trkpt>
      <trkpt lat="45.93055" lon="4.6124">
        <ele>431</ele>
        <time>2016-12-08T08:09:49Z</time>
      </trkpt>
      <trkpt lat="45.93062" lon="4.61235">
        <ele>430</ele>
        <time>2016-12-08T08:09:55Z</time>
      </trkpt>
      <trkpt lat="45.93063" lon="4.61234">
        <ele>430</ele>
        <time>2016-12-08T08:09:56Z</time>
      </trkpt>
      <trkpt lat="45.93071" lon="4.61228">
        <ele>431</ele>
        <time>2016-12-08T08:10:02Z</time>
      </trkpt>
      <trkpt lat="45.93072" lon="4.61227">
        <ele>431</ele>
        <time>2016-12-08T08:10:03Z</time>
      </trkpt>
      <trkpt lat="45.93079" lon="4.61222">
        <ele>431</ele>
        <time>2016-12-08T08:10:09Z</time>
      </trkpt>
      <trkpt lat="45.9308" lon="4.61221">
        <ele>431</ele>
        <time>2016-12-08T08:10:10Z</time>
      </trkpt>
      <trkpt lat="45.93088" lon="4.61216">
        <ele>428</ele>
        <time>2016-12-08T08:10:16Z</time>
      </trkpt>
      <trkpt lat="45.93089" lon="4.61215">
        <ele>428</ele>
        <time>2016-12-08T08:10:17Z</time>
      </trkpt>
      <trkpt lat="45.93095" lon="4.61209">
        <ele>429</ele>
        <time>2016-12-08T08:10:22Z</time>
      </trkpt>
      <trkpt lat="45.93097" lon="4.61208">
        <ele>429</ele>
        <time>2016-12-08T08:10:23Z</time>
      </trkpt>
      <trkpt lat="45.93103" lon="4.61203">
        <ele>429</ele>
        <time>2016-12-08T08:10:28Z</time>
      </trkpt>
      <trkpt lat="45.93105" lon="4.61202">
        <ele>429</ele>
        <time>2016-12-08T08:10:29Z</time>
      </trkpt>
      <trkpt lat="45.93113" lon="4.61199">
        <ele>429</ele>
        <time>2016-12-08T08:10:35Z</time>
      </trkpt>
      <trkpt lat="45.93114" lon="4.61198">
        <ele>429</ele>
        <time>2016-12-08T08:10:36Z</time>
      </trkpt>
      <trkpt lat="45.93122" lon="4.61196">
        <ele>429</ele>
        <time>2016-12-08T08:10:42Z</time>
      </trkpt>
      <trkpt lat="45.93123" lon="4.61195">
        <ele>429</ele>
        <time>2016-12-08T08:10:43Z</time>
      </trkpt>
      <trkpt lat="45.93131" lon="4.61191">
        <ele>429</ele>
        <time>2016-12-08T08:10:49Z</time>
      </trkpt>
      <trkpt lat="45.93132" lon="4.6119">
        <ele>429</ele>
        <time>2016-12-08T08:10:50Z</time>
      </trkpt>
      <trkpt lat="45.9314" lon="4.61186">
        <ele>429</ele>
        <time>2016-12-08T08:10:55Z</time>
      </trkpt>
      <trkpt lat="45.93141" lon="4.61185">
        <ele>430</ele>
        <time>2016-12-08T08:10:56Z</time>
      </trkpt>
      <trkpt lat="45.9315" lon="4.61183">
        <ele>430</ele>
        <time>2016-12-08T08:11:02Z</time>
      </trkpt>
      <trkpt lat="45.93151" lon="4.61183">
        <ele>430</ele>
        <time>2016-12-08T08:11:03Z</time>
      </trkpt>
      <trkpt lat="45.93159" lon="4.61183">
        <ele>430</ele>
        <time>2016-12-08T08:11:09Z</time>
      </trkpt>
      <trkpt lat="45.93161" lon="4.61183">
        <ele>430</ele>
        <time>2016-12-08T08:11:10Z</time>
      </trkpt>
      <trkpt lat="45.93169" lon="4.61179">
        <ele>430</ele>
        <time>2016-12-08T08:11:17Z</time>
      </trkpt>
      <trkpt lat="45.9317" lon="4.61178">
        <ele>430</ele>
        <time>2016-12-08T08:11:18Z</time>
      </trkpt>
      <trkpt lat="45.93178" lon="4.61174">
        <ele>429</ele>
        <time>2016-12-08T08:11:25Z</time>
      </trkpt>
      <trkpt lat="45.93179" lon="4.61173">
        <ele>429</ele>
        <time>2016-12-08T08:11:26Z</time>
      </trkpt>
      <trkpt lat="45.93187" lon="4.61172">
        <ele>428</ele>
        <time>2016-12-08T08:11:32Z</time>
      </trkpt>
      <trkpt lat="45.93188" lon="4.61172">
        <ele>428</ele>
        <time>2016-12-08T08:11:33Z</time>
      </trkpt>
      <trkpt lat="45.93196" lon="4.61171">
        <ele>427</ele>
        <time>2016-12-08T08:11:39Z</time>
      </trkpt>
      <trkpt lat="45.93198" lon="4.6117">
        <ele>427</ele>
        <time>2016-12-08T08:11:40Z</time>
      </trkpt>
      <trkpt lat="45.93206" lon="4.61167">
        <ele>427</ele>
        <time>2016-12-08T08:11:46Z</time>
      </trkpt>
      <trkpt lat="45.93208" lon="4.61167">
        <ele>427</ele>
        <time>2016-12-08T08:11:47Z</time>
      </trkpt>
      <trkpt lat="45.93216" lon="4.61164">
        <ele>434</ele>
        <time>2016-12-08T08:11:53Z</time>
      </trkpt>
      <trkpt lat="45.93218" lon="4.61165">
        <ele>434</ele>
        <time>2016-12-08T08:11:54Z</time>
      </trkpt>
      <trkpt lat="45.93226" lon="4.61164">
        <ele>434</ele>
        <time>2016-12-08T08:11:59Z</time>
      </trkpt>
      <trkpt lat="45.93228" lon="4.61164">
        <ele>433</ele>
        <time>2016-12-08T08:12:00Z</time>
      </trkpt>
      <trkpt lat="45.93235" lon="4.6116">
        <ele>433</ele>
        <time>2016-12-08T08:12:05Z</time>
      </trkpt>
      <trkpt lat="45.93236" lon="4.61159">
        <ele>433</ele>
        <time>2016-12-08T08:12:06Z</time>
      </trkpt>
      <trkpt lat="45.93243" lon="4.61153">
        <ele>433</ele>
        <time>2016-12-08T08:12:11Z</time>
      </trkpt>
      <trkpt lat="45.93244" lon="4.61153">
        <ele>433</ele>
        <time>2016-12-08T08:12:12Z</time>
      </trkpt>
      <trkpt lat="45.93252" lon="4.61149">
        <ele>432</ele>
        <time>2016-12-08T08:12:18Z</time>
      </trkpt>
      <trkpt lat="45.93254" lon="4.61149">
        <ele>432</ele>
        <time>2016-12-08T08:12:19Z</time>
      </trkpt>
      <trkpt lat="45.93262" lon="4.61148">
        <ele>432</ele>
        <time>2016-12-08T08:12:25Z</time>
      </trkpt>
      <trkpt lat="45.93263" lon="4.61148">
        <ele>432</ele>
        <time>2016-12-08T08:12:26Z</time>
      </trkpt>
      <trkpt lat="45.93272" lon="4.61143">
        <ele>433</ele>
        <time>2016-12-08T08:12:32Z</time>
      </trkpt>
      <trkpt lat="45.93273" lon="4.61142">
        <ele>433</ele>
        <time>2016-12-08T08:12:33Z</time>
      </trkpt>
      <trkpt lat="45.93279" lon="4.61136">
        <ele>433</ele>
        <time>2016-12-08T08:12:38Z</time>
      </trkpt>
      <trkpt lat="45.9328" lon="4.61135">
        <ele>433</ele>
        <time>2016-12-08T08:12:39Z</time>
      </trkpt>
      <trkpt lat="45.93288" lon="4.61131">
        <ele>434</ele>
        <time>2016-12-08T08:12:45Z</time>
      </trkpt>
      <trkpt lat="45.93289" lon="4.6113">
        <ele>434</ele>
        <time>2016-12-08T08:12:46Z</time>
      </trkpt>
      <trkpt lat="45.93298" lon="4.61129">
        <ele>434</ele>
        <time>2016-12-08T08:12:52Z</time>
      </trkpt>
      <trkpt lat="45.93299" lon="4.61129">
        <ele>434</ele>
        <time>2016-12-08T08:12:53Z</time>
      </trkpt>
      <trkpt lat="45.93307" lon="4.61126">
        <ele>434</ele>
        <time>2016-12-08T08:13:00Z</time>
      </trkpt>
      <trkpt lat="45.93309" lon="4.61125">
        <ele>434</ele>
        <time>2016-12-08T08:13:01Z</time>
      </trkpt>
      <trkpt lat="45.93316" lon="4.61118">
        <ele>435</ele>
        <time>2016-12-08T08:13:07Z</time>
      </trkpt>
      <trkpt lat="45.93317" lon="4.61117">
        <ele>435</ele>
        <time>2016-12-08T08:13:08Z</time>
      </trkpt>
      <trkpt lat="45.93323" lon="4.6111">
        <ele>436</ele>
        <time>2016-12-08T08:13:14Z</time>
      </trkpt>
      <trkpt lat="45.93324" lon="4.61109">
        <ele>436</ele>
        <time>2016-12-08T08:13:15Z</time>
      </trkpt>
      <trkpt lat="45.9333" lon="4.611">
        <ele>437</ele>
        <time>2016-12-08T08:13:21Z</time>
      </trkpt>
      <trkpt lat="45.93331" lon="4.61098">
        <ele>437</ele>
        <time>2016-12-08T08:13:22Z</time>
      </trkpt>
      <trkpt lat="45.93338" lon="4.61091">
        <ele>438</ele>
        <time>2016-12-08T08:13:28Z</time>
      </trkpt>
      <trkpt lat="45.93339" lon="4.6109">
        <ele>438</ele>
        <time>2016-12-08T08:13:29Z</time>
      </trkpt>
      <trkpt lat="45.93345" lon="4.61082">
        <ele>442</ele>
        <time>2016-12-08T08:13:39Z</time>
      </trkpt>
      <trkpt lat="45.93346" lon="4.61081">
        <ele>442</ele>
        <time>2016-12-08T08:13:40Z</time>
      </trkpt>
      <trkpt lat="45.93354" lon="4.61081">
        <ele>442</ele>
        <time>2016-12-08T08:13:51Z</time>
      </trkpt>
      <trkpt lat="45.93355" lon="4.61081">
        <ele>442</ele>
        <time>2016-12-08T08:13:52Z</time>
      </trkpt>
      <trkpt lat="45.93363" lon="4.61082">
        <ele>442</ele>
        <time>2016-12-08T08:14:00Z</time>
      </trkpt>
      <trkpt lat="45.93364" lon="4.61081">
        <ele>442</ele>
        <time>2016-12-08T08:14:01Z</time>
      </trkpt>
      <trkpt lat="45.93372" lon="4.61078">
        <ele>442</ele>
        <time>2016-12-08T08:14:08Z</time>
      </trkpt>
      <trkpt lat="45.93373" lon="4.61078">
        <ele>442</ele>
        <time>2016-12-08T08:14:09Z</time>
      </trkpt>
      <trkpt lat="45.93381" lon="4.61073">
        <ele>442</ele>
        <time>2016-12-08T08:14:18Z</time>
      </trkpt>
      <trkpt lat="45.93383" lon="4.61073">
        <ele>442</ele>
        <time>2016-12-08T08:14:19Z</time>
      </trkpt>
      <trkpt lat="45.93391" lon="4.61073">
        <ele>442</ele>
        <time>2016-12-08T08:14:24Z</time>
      </trkpt>
      <trkpt lat="45.93392" lon="4.61072">
        <ele>442</ele>
        <time>2016-12-08T08:14:25Z</time>
      </trkpt>
      <trkpt lat="45.934" lon="4.61069">
        <ele>442</ele>
        <time>2016-12-08T08:14:32Z</time>
      </trkpt>
      <trkpt lat="45.93401" lon="4.61069">
        <ele>441</ele>
        <time>2016-12-08T08:14:33Z</time>
      </trkpt>
      <trkpt lat="45.9341" lon="4.61067">
        <ele>441</ele>
        <time>2016-12-08T08:14:40Z</time>
      </trkpt>
      <trkpt lat="45.93411" lon="4.61066">
        <ele>441</ele>
        <time>2016-12-08T08:14:41Z</time>
      </trkpt>
      <trkpt lat="45.93417" lon="4.6106">
        <ele>437</ele>
        <time>2016-12-08T08:14:46Z</time>
      </trkpt>
      <trkpt lat="45.93419" lon="4.6106">
        <ele>437</ele>
        <time>2016-12-08T08:14:47Z</time>
      </trkpt>
      <trkpt lat="45.93427" lon="4.61055">
        <ele>437</ele>
        <time>2016-12-08T08:14:53Z</time>
      </trkpt>
      <trkpt lat="45.93428" lon="4.61054">
        <ele>437</ele>
        <time>2016-12-08T08:14:54Z</time>
      </trkpt>
      <trkpt lat="45.93436" lon="4.61052">
        <ele>437</ele>
        <time>2016-12-08T08:15:00Z</time>
      </trkpt>
      <trkpt lat="45.93437" lon="4.61052">
        <ele>437</ele>
        <time>2016-12-08T08:15:01Z</time>
      </trkpt>
      <trkpt lat="45.93445" lon="4.61048">
        <ele>436</ele>
        <time>2016-12-08T08:15:07Z</time>
      </trkpt>
      <trkpt lat="45.93446" lon="4.61047">
        <ele>436</ele>
        <time>2016-12-08T08:15:08Z</time>
      </trkpt>
      <trkpt lat="45.93453" lon="4.61042">
        <ele>436</ele>
        <time>2016-12-08T08:15:15Z</time>
      </trkpt>
      <trkpt lat="45.93454" lon="4.6104">
        <ele>436</ele>
        <time>2016-12-08T08:15:16Z</time>
      </trkpt>
      <trkpt lat="45.9346" lon="4.61031">
        <ele>436</ele>
        <time>2016-12-08T08:15:23Z</time>
      </trkpt>
      <trkpt lat="45.93461" lon="4.61029">
        <ele>436</ele>
        <time>2016-12-08T08:15:24Z</time>
      </trkpt>
      <trkpt lat="45.93466" lon="4.61021">
        <ele>436</ele>
        <time>2016-12-08T08:15:30Z</time>
      </trkpt>
      <trkpt lat="45.93467" lon="4.6102">
        <ele>436</ele>
        <time>2016-12-08T08:15:31Z</time>
      </trkpt>
      <trkpt lat="45.93471" lon="4.6101">
        <ele>436</ele>
        <time>2016-12-08T08:15:37Z</time>
      </trkpt>
      <trkpt lat="45.93472" lon="4.61009">
        <ele>436</ele>
        <time>2016-12-08T08:15:38Z</time>
      </trkpt>
      <trkpt lat="45.93477" lon="4.61">
        <ele>436</ele>
        <time>2016-12-08T08:15:44Z</time>
      </trkpt>
      <trkpt lat="45.93478" lon="4.60999">
        <ele>440</ele>
        <time>2016-12-08T08:15:45Z</time>
      </trkpt>
      <trkpt lat="45.93484" lon="4.60991">
        <ele>439</ele>
        <time>2016-12-08T08:15:52Z</time>
      </trkpt>
      <trkpt lat="45.93485" lon="4.6099">
        <ele>439</ele>
        <time>2016-12-08T08:15:53Z</time>
      </trkpt>
      <trkpt lat="45.93487" lon="4.60979">
        <ele>440</ele>
        <time>2016-12-08T08:16:01Z</time>
      </trkpt>
      <trkpt lat="45.93487" lon="4.60977">
        <ele>440</ele>
        <time>2016-12-08T08:16:02Z</time>
      </trkpt>
      <trkpt lat="45.93491" lon="4.60966">
        <ele>441</ele>
        <time>2016-12-08T08:16:08Z</time>
      </trkpt>
      <trkpt lat="45.93491" lon="4.60964">
        <ele>441</ele>
        <time>2016-12-08T08:16:09Z</time>
      </trkpt>
      <trkpt lat="45.93492" lon="4.60951">
        <ele>441</ele>
        <time>2016-12-08T08:16:16Z</time>
      </trkpt>
      <trkpt lat="45.93492" lon="4.60949">
        <ele>441</ele>
        <time>2016-12-08T08:16:17Z</time>
      </trkpt>
      <trkpt lat="45.93492" lon="4.60937">
        <ele>440</ele>
        <time>2016-12-08T08:16:22Z</time>
      </trkpt>
      <trkpt lat="45.93492" lon="4.60934">
        <ele>440</ele>
        <time>2016-12-08T08:16:23Z</time>
      </trkpt>
      <trkpt lat="45.93493" lon="4.60922">
        <ele>439</ele>
        <time>2016-12-08T08:16:27Z</time>
      </trkpt>
      <trkpt lat="45.93494" lon="4.6092">
        <ele>439</ele>
        <time>2016-12-08T08:16:28Z</time>
      </trkpt>
      <trkpt lat="45.93495" lon="4.60908">
        <ele>440</ele>
        <time>2016-12-08T08:16:32Z</time>
      </trkpt>
      <trkpt lat="45.93495" lon="4.60906">
        <ele>440</ele>
        <time>2016-12-08T08:16:33Z</time>
      </trkpt>
      <trkpt lat="45.93494" lon="4.60894">
        <ele>442</ele>
        <time>2016-12-08T08:16:39Z</time>
      </trkpt>
      <trkpt lat="45.93494" lon="4.60893">
        <ele>442</ele>
        <time>2016-12-08T08:16:40Z</time>
      </trkpt>
      <trkpt lat="45.93496" lon="4.60881">
        <ele>443</ele>
        <time>2016-12-08T08:16:46Z</time>
      </trkpt>
      <trkpt lat="45.93496" lon="4.60879">
        <ele>443</ele>
        <time>2016-12-08T08:16:47Z</time>
      </trkpt>
      <trkpt lat="45.935" lon="4.60868">
        <ele>442</ele>
        <time>2016-12-08T08:16:52Z</time>
      </trkpt>
      <trkpt lat="45.935" lon="4.60866">
        <ele>433</ele>
        <time>2016-12-08T08:16:53Z</time>
      </trkpt>
      <trkpt lat="45.93504" lon="4.60855">
        <ele>434</ele>
        <time>2016-12-08T08:16:58Z</time>
      </trkpt>
      <trkpt lat="45.93505" lon="4.60853">
        <ele>434</ele>
        <time>2016-12-08T08:16:59Z</time>
      </trkpt>
      <trkpt lat="45.93508" lon="4.60841">
        <ele>435</ele>
        <time>2016-12-08T08:17:05Z</time>
      </trkpt>
      <trkpt lat="45.93509" lon="4.60839">
        <ele>435</ele>
        <time>2016-12-08T08:17:06Z</time>
      </trkpt>
      <trkpt lat="45.93512" lon="4.60828">
        <ele>437</ele>
        <time>2016-12-08T08:17:12Z</time>
      </trkpt>
      <trkpt lat="45.93512" lon="4.60826">
        <ele>437</ele>
        <time>2016-12-08T08:17:13Z</time>
      </trkpt>
      <trkpt lat="45.93512" lon="4.60813">
        <ele>437</ele>
        <time>2016-12-08T08:17:20Z</time>
      </trkpt>
      <trkpt lat="45.93512" lon="4.60812">
        <ele>437</ele>
        <time>2016-12-08T08:17:21Z</time>
      </trkpt>
      <trkpt lat="45.93513" lon="4.60799">
        <ele>437</ele>
        <time>2016-12-08T08:17:28Z</time>
      </trkpt>
      <trkpt lat="45.93513" lon="4.60797">
        <ele>437</ele>
        <time>2016-12-08T08:17:29Z</time>
      </trkpt>
      <trkpt lat="45.93517" lon="4.60789">
        <ele>438</ele>
        <time>2016-12-08T08:17:34Z</time>
      </trkpt>
      <trkpt lat="45.93518" lon="4.60787">
        <ele>438</ele>
        <time>2016-12-08T08:17:35Z</time>
      </trkpt>
      <trkpt lat="45.93523" lon="4.60777">
        <ele>438</ele>
        <time>2016-12-08T08:17:40Z</time>
      </trkpt>
      <trkpt lat="45.93524" lon="4.60775">
        <ele>438</ele>
        <time>2016-12-08T08:17:41Z</time>
      </trkpt>
      <trkpt lat="45.93528" lon="4.60764">
        <ele>439</ele>
        <time>2016-12-08T08:17:47Z</time>
      </trkpt>
      <trkpt lat="45.93529" lon="4.60762">
        <ele>439</ele>
        <time>2016-12-08T08:17:48Z</time>
      </trkpt>
      <trkpt lat="45.93531" lon="4.6075">
        <ele>444</ele>
        <time>2016-12-08T08:17:55Z</time>
      </trkpt>
      <trkpt lat="45.93531" lon="4.60748">
        <ele>444</ele>
        <time>2016-12-08T08:17:56Z</time>
      </trkpt>
      <trkpt lat="45.93532" lon="4.60735">
        <ele>444</ele>
        <time>2016-12-08T08:18:03Z</time>
      </trkpt>
      <trkpt lat="45.93532" lon="4.60733">
        <ele>444</ele>
        <time>2016-12-08T08:18:04Z</time>
      </trkpt>
      <trkpt lat="45.93536" lon="4.60724">
        <ele>444</ele>
        <time>2016-12-08T08:18:10Z</time>
      </trkpt>
      <trkpt lat="45.93537" lon="4.60722">
        <ele>444</ele>
        <time>2016-12-08T08:18:11Z</time>
      </trkpt>
      <trkpt lat="45.93542" lon="4.60713">
        <ele>444</ele>
        <time>2016-12-08T08:18:18Z</time>
      </trkpt>
      <trkpt lat="45.93543" lon="4.60711">
        <ele>444</ele>
        <time>2016-12-08T08:18:19Z</time>
      </trkpt>
      <trkpt lat="45.9355" lon="4.60703">
        <ele>444</ele>
        <time>2016-12-08T08:18:26Z</time>
      </trkpt>
      <trkpt lat="45.93551" lon="4.60702">
        <ele>444</ele>
        <time>2016-12-08T08:18:27Z</time>
      </trkpt>
      <trkpt lat="45.93556" lon="4.60693">
        <ele>445</ele>
        <time>2016-12-08T08:18:33Z</time>
      </trkpt>
      <trkpt lat="45.93557" lon="4.60691">
        <ele>445</ele>
        <time>2016-12-08T08:18:34Z</time>
      </trkpt>
      <trkpt lat="45.93562" lon="4.60682">
        <ele>445</ele>
        <time>2016-12-08T08:18:41Z</time>
      </trkpt>
      <trkpt lat="45.93563" lon="4.60681">
        <ele>445</ele>
        <time>2016-12-08T08:18:42Z</time>
      </trkpt>
      <trkpt lat="45.93568" lon="4.60672">
        <ele>445</ele>
        <time>2016-12-08T08:18:49Z</time>
      </trkpt>
      <trkpt lat="45.93569" lon="4.60671">
        <ele>445</ele>
        <time>2016-12-08T08:18:50Z</time>
      </trkpt>
      <trkpt lat="45.93575" lon="4.60662">
        <ele>448</ele>
        <time>2016-12-08T08:18:58Z</time>
      </trkpt>
      <trkpt lat="45.93576" lon="4.6066">
        <ele>448</ele>
        <time>2016-12-08T08:18:59Z</time>
      </trkpt>
      <trkpt lat="45.9358" lon="4.6065">
        <ele>449</ele>
        <time>2016-12-08T08:19:06Z</time>
      </trkpt>
      <trkpt lat="45.93581" lon="4.60649">
        <ele>449</ele>
        <time>2016-12-08T08:19:07Z</time>
      </trkpt>
      <trkpt lat="45.93586" lon="4.6064">
        <ele>447</ele>
        <time>2016-12-08T08:21:53Z</time>
      </trkpt>
      <trkpt lat="45.93587" lon="4.60639">
        <ele>447</ele>
        <time>2016-12-08T08:21:54Z</time>
      </trkpt>
      <trkpt lat="45.93592" lon="4.6063">
        <ele>448</ele>
        <time>2016-12-08T08:22:03Z</time>
      </trkpt>
      <trkpt lat="45.93593" lon="4.60628">
        <ele>448</ele>
        <time>2016-12-08T08:22:04Z</time>
      </trkpt>
      <trkpt lat="45.93599" lon="4.6062">
        <ele>448</ele>
        <time>2016-12-08T08:22:12Z</time>
      </trkpt>
      <trkpt lat="45.93599" lon="4.60618">
        <ele>448</ele>
        <time>2016-12-08T08:22:13Z</time>
      </trkpt>
      <trkpt lat="45.93605" lon="4.6061">
        <ele>449</ele>
        <time>2016-12-08T08:22:20Z</time>
      </trkpt>
      <trkpt lat="45.93606" lon="4.60608">
        <ele>449</ele>
        <time>2016-12-08T08:22:21Z</time>
      </trkpt>
      <trkpt lat="45.93612" lon="4.606">
        <ele>449</ele>
        <time>2016-12-08T08:22:28Z</time>
      </trkpt>
      <trkpt lat="45.93613" lon="4.60599">
        <ele>449</ele>
        <time>2016-12-08T08:22:29Z</time>
      </trkpt>
      <trkpt lat="45.9362" lon="4.6059">
        <ele>449</ele>
        <time>2016-12-08T08:22:37Z</time>
      </trkpt>
      <trkpt lat="45.9362" lon="4.60589">
        <ele>449</ele>
        <time>2016-12-08T08:22:38Z</time>
      </trkpt>
      <trkpt lat="45.93626" lon="4.60579">
        <ele>459</ele>
        <time>2016-12-08T08:22:46Z</time>
      </trkpt>
      <trkpt lat="45.93626" lon="4.60578">
        <ele>459</ele>
        <time>2016-12-08T08:22:47Z</time>
      </trkpt>
      <trkpt lat="45.93633" lon="4.60572">
        <ele>459</ele>
        <time>2016-12-08T08:22:54Z</time>
      </trkpt>
      <trkpt lat="45.93634" lon="4.60571">
        <ele>459</ele>
        <time>2016-12-08T08:22:55Z</time>
      </trkpt>
      <trkpt lat="45.93641" lon="4.60565">
        <ele>459</ele>
        <time>2016-12-08T08:23:02Z</time>
      </trkpt>
      <trkpt lat="45.93642" lon="4.60564">
        <ele>459</ele>
        <time>2016-12-08T08:23:03Z</time>
      </trkpt>
      <trkpt lat="45.93649" lon="4.60559">
        <ele>459</ele>
        <time>2016-12-08T08:23:10Z</time>
      </trkpt>
      <trkpt lat="45.9365" lon="4.60558">
        <ele>459</ele>
        <time>2016-12-08T08:23:11Z</time>
      </trkpt>
      <trkpt lat="45.93656" lon="4.6055">
        <ele>460</ele>
        <time>2016-12-08T08:23:18Z</time>
      </trkpt>
      <trkpt lat="45.93657" lon="4.60549">
        <ele>461</ele>
        <time>2016-12-08T08:23:19Z</time>
      </trkpt>
      <trkpt lat="45.93663" lon="4.6054">
        <ele>462</ele>
        <time>2016-12-08T08:23:27Z</time>
      </trkpt>
      <trkpt lat="45.93664" lon="4.60539">
        <ele>462</ele>
        <time>2016-12-08T08:23:28Z</time>
      </trkpt>
      <trkpt lat="45.93669" lon="4.60529">
        <ele>462</ele>
        <time>2016-12-08T08:23:36Z</time>
      </trkpt>
      <trkpt lat="45.9367" lon="4.60528">
        <ele>462</ele>
        <time>2016-12-08T08:23:37Z</time>
      </trkpt>
      <trkpt lat="45.93676" lon="4.6052">
        <ele>464</ele>
        <time>2016-12-08T08:23:45Z</time>
      </trkpt>
      <trkpt lat="45.93677" lon="4.60519">
        <ele>464</ele>
        <time>2016-12-08T08:23:46Z</time>
      </trkpt>
      <trkpt lat="45.93685" lon="4.60515">
        <ele>464</ele>
        <time>2016-12-08T08:23:54Z</time>
      </trkpt>
      <trkpt lat="45.93686" lon="4.60514">
        <ele>463</ele>
        <time>2016-12-08T08:23:55Z</time>
      </trkpt>
      <trkpt lat="45.93694" lon="4.60511">
        <ele>463</ele>
        <time>2016-12-08T08:24:02Z</time>
      </trkpt>
      <trkpt lat="45.93696" lon="4.6051">
        <ele>463</ele>
        <time>2016-12-08T08:24:03Z</time>
      </trkpt>
      <trkpt lat="45.93704" lon="4.60508">
        <ele>462</ele>
        <time>2016-12-08T08:24:10Z</time>
      </trkpt>
      <trkpt lat="45.93705" lon="4.60508">
        <ele>462</ele>
        <time>2016-12-08T08:24:11Z</time>
      </trkpt>
      <trkpt lat="45.93713" lon="4.60504">
        <ele>462</ele>
        <time>2016-12-08T08:24:19Z</time>
      </trkpt>
      <trkpt lat="45.93714" lon="4.60503">
        <ele>462</ele>
        <time>2016-12-08T08:24:20Z</time>
      </trkpt>
      <trkpt lat="45.93721" lon="4.60496">
        <ele>474</ele>
        <time>2016-12-08T08:24:28Z</time>
      </trkpt>
      <trkpt lat="45.93722" lon="4.60494">
        <ele>474</ele>
        <time>2016-12-08T08:24:29Z</time>
      </trkpt>
      <trkpt lat="45.93729" lon="4.60486">
        <ele>474</ele>
        <time>2016-12-08T08:24:35Z</time>
      </trkpt>
      <trkpt lat="45.9373" lon="4.60485">
        <ele>474</ele>
        <time>2016-12-08T08:24:36Z</time>
      </trkpt>
      <trkpt lat="45.93737" lon="4.6048">
        <ele>474</ele>
        <time>2016-12-08T08:24:42Z</time>
      </trkpt>
      <trkpt lat="45.93738" lon="4.60479">
        <ele>474</ele>
        <time>2016-12-08T08:24:43Z</time>
      </trkpt>
      <trkpt lat="45.93745" lon="4.60472">
        <ele>475</ele>
        <time>2016-12-08T08:24:50Z</time>
      </trkpt>
      <trkpt lat="45.93746" lon="4.60471">
        <ele>475</ele>
        <time>2016-12-08T08:24:51Z</time>
      </trkpt>
      <trkpt lat="45.93752" lon="4.60464">
        <ele>471</ele>
        <time>2016-12-08T08:24:59Z</time>
      </trkpt>
      <trkpt lat="45.93753" lon="4.60463">
        <ele>471</ele>
        <time>2016-12-08T08:25:00Z</time>
      </trkpt>
      <trkpt lat="45.93759" lon="4.60456">
        <ele>473</ele>
        <time>2016-12-08T08:25:07Z</time>
      </trkpt>
      <trkpt lat="45.9376" lon="4.60454">
        <ele>473</ele>
        <time>2016-12-08T08:25:08Z</time>
      </trkpt>
      <trkpt lat="45.93767" lon="4.60448">
        <ele>474</ele>
        <time>2016-12-08T08:25:15Z</time>
      </trkpt>
      <trkpt lat="45.93768" lon="4.60447">
        <ele>474</ele>
        <time>2016-12-08T08:25:16Z</time>
      </trkpt>
      <trkpt lat="45.93775" lon="4.60441">
        <ele>474</ele>
        <time>2016-12-08T08:25:22Z</time>
      </trkpt>
      <trkpt lat="45.93776" lon="4.6044">
        <ele>474</ele>
        <time>2016-12-08T08:25:23Z</time>
      </trkpt>
      <trkpt lat="45.93782" lon="4.60432">
        <ele>474</ele>
        <time>2016-12-08T08:25:30Z</time>
      </trkpt>
      <trkpt lat="45.93783" lon="4.60431">
        <ele>474</ele>
        <time>2016-12-08T08:25:31Z</time>
      </trkpt>
      <trkpt lat="45.93789" lon="4.60422">
        <ele>474</ele>
        <time>2016-12-08T08:25:39Z</time>
      </trkpt>
      <trkpt lat="45.9379" lon="4.60421">
        <ele>474</ele>
        <time>2016-12-08T08:25:40Z</time>
      </trkpt>
      <trkpt lat="45.93795" lon="4.60413">
        <ele>485</ele>
        <time>2016-12-08T08:25:47Z</time>
      </trkpt>
      <trkpt lat="45.93796" lon="4.60412">
        <ele>485</ele>
        <time>2016-12-08T08:25:48Z</time>
      </trkpt>
      <trkpt lat="45.93802" lon="4.60403">
        <ele>485</ele>
        <time>2016-12-08T08:25:56Z</time>
      </trkpt>
      <trkpt lat="45.93803" lon="4.60402">
        <ele>485</ele>
        <time>2016-12-08T08:25:57Z</time>
      </trkpt>
      <trkpt lat="45.93808" lon="4.60393">
        <ele>485</ele>
        <time>2016-12-08T08:26:04Z</time>
      </trkpt>
      <trkpt lat="45.93809" lon="4.60392">
        <ele>485</ele>
        <time>2016-12-08T08:26:05Z</time>
      </trkpt>
      <trkpt lat="45.93815" lon="4.60383">
        <ele>485</ele>
        <time>2016-12-08T08:26:12Z</time>
      </trkpt>
      <trkpt lat="45.93816" lon="4.60382">
        <ele>486</ele>
        <time>2016-12-08T08:26:13Z</time>
      </trkpt>
      <trkpt lat="45.93821" lon="4.60373">
        <ele>486</ele>
        <time>2016-12-08T08:26:19Z</time>
      </trkpt>
      <trkpt lat="45.93822" lon="4.60371">
        <ele>487</ele>
        <time>2016-12-08T08:26:20Z</time>
      </trkpt>
      <trkpt lat="45.93827" lon="4.60362">
        <ele>488</ele>
        <time>2016-12-08T08:26:26Z</time>
      </trkpt>
      <trkpt lat="45.93828" lon="4.6036">
        <ele>488</ele>
        <time>2016-12-08T08:26:27Z</time>
      </trkpt>
      <trkpt lat="45.93833" lon="4.60352">
        <ele>488</ele>
        <time>2016-12-08T08:26:33Z</time>
      </trkpt>
      <trkpt lat="45.93834" lon="4.60351">
        <ele>484</ele>
        <time>2016-12-08T08:26:34Z</time>
      </trkpt>
      <trkpt lat="45.93841" lon="4.60343">
        <ele>485</ele>
        <time>2016-12-08T08:26:41Z</time>
      </trkpt>
      <trkpt lat="45.93841" lon="4.60342">
        <ele>485</ele>
        <time>2016-12-08T08:26:42Z</time>
      </trkpt>
      <trkpt lat="45.93848" lon="4.60335">
        <ele>485</ele>
        <time>2016-12-08T08:26:50Z</time>
      </trkpt>
      <trkpt lat="45.93849" lon="4.60333">
        <ele>491</ele>
        <time>2016-12-08T08:26:51Z</time>
      </trkpt>
      <trkpt lat="45.93856" lon="4.60326">
        <ele>492</ele>
        <time>2016-12-08T08:26:59Z</time>
      </trkpt>
      <trkpt lat="45.93856" lon="4.60325">
        <ele>492</ele>
        <time>2016-12-08T08:27:00Z</time>
      </trkpt>
      <trkpt lat="45.93862" lon="4.60315">
        <ele>492</ele>
        <time>2016-12-08T08:27:08Z</time>
      </trkpt>
      <trkpt lat="45.93863" lon="4.60314">
        <ele>492</ele>
        <time>2016-12-08T08:27:09Z</time>
      </trkpt>
      <trkpt lat="45.93867" lon="4.60303">
        <ele>493</ele>
        <time>2016-12-08T08:27:17Z</time>
      </trkpt>
      <trkpt lat="45.93867" lon="4.60302">
        <ele>493</ele>
        <time>2016-12-08T08:27:18Z</time>
      </trkpt>
      <trkpt lat="45.93871" lon="4.6029">
        <ele>494</ele>
        <time>2016-12-08T08:27:25Z</time>
      </trkpt>
      <trkpt lat="45.93872" lon="4.60289">
        <ele>494</ele>
        <time>2016-12-08T08:27:26Z</time>
      </trkpt>
      <trkpt lat="45.93879" lon="4.60283">
        <ele>494</ele>
        <time>2016-12-08T08:27:33Z</time>
      </trkpt>
      <trkpt lat="45.9388" lon="4.60282">
        <ele>494</ele>
        <time>2016-12-08T08:27:34Z</time>
      </trkpt>
      <trkpt lat="45.93887" lon="4.60277">
        <ele>494</ele>
        <time>2016-12-08T08:27:40Z</time>
      </trkpt>
      <trkpt lat="45.93888" lon="4.60276">
        <ele>494</ele>
        <time>2016-12-08T08:27:41Z</time>
      </trkpt>
      <trkpt lat="45.93894" lon="4.60268">
        <ele>495</ele>
        <time>2016-12-08T08:27:48Z</time>
      </trkpt>
      <trkpt lat="45.93895" lon="4.60266">
        <ele>495</ele>
        <time>2016-12-08T08:27:49Z</time>
      </trkpt>
      <trkpt lat="45.939" lon="4.60257">
        <ele>495</ele>
        <time>2016-12-08T08:27:56Z</time>
      </trkpt>
      <trkpt lat="45.93901" lon="4.60255">
        <ele>496</ele>
        <time>2016-12-08T08:27:57Z</time>
      </trkpt>
      <trkpt lat="45.93907" lon="4.60248">
        <ele>500</ele>
        <time>2016-12-08T08:28:04Z</time>
      </trkpt>
      <trkpt lat="45.93908" lon="4.60248">
        <ele>500</ele>
        <time>2016-12-08T08:28:05Z</time>
      </trkpt>
      <trkpt lat="45.93917" lon="4.60244">
        <ele>499</ele>
        <time>2016-12-08T08:28:13Z</time>
      </trkpt>
      <trkpt lat="45.93918" lon="4.60243">
        <ele>498</ele>
        <time>2016-12-08T08:28:14Z</time>
      </trkpt>
      <trkpt lat="45.93925" lon="4.60238">
        <ele>499</ele>
        <time>2016-12-08T08:28:21Z</time>
      </trkpt>
      <trkpt lat="45.93926" lon="4.60238">
        <ele>499</ele>
        <time>2016-12-08T08:28:22Z</time>
      </trkpt>
      <trkpt lat="45.93933" lon="4.60231">
        <ele>500</ele>
        <time>2016-12-08T08:28:29Z</time>
      </trkpt>
      <trkpt lat="45.93934" lon="4.6023">
        <ele>500</ele>
        <time>2016-12-08T08:28:30Z</time>
      </trkpt>
      <trkpt lat="45.93941" lon="4.60225">
        <ele>500</ele>
        <time>2016-12-08T08:28:36Z</time>
      </trkpt>
      <trkpt lat="45.93942" lon="4.60224">
        <ele>500</ele>
        <time>2016-12-08T08:28:37Z</time>
      </trkpt>
      <trkpt lat="45.93949" lon="4.60217">
        <ele>501</ele>
        <time>2016-12-08T08:28:44Z</time>
      </trkpt>
      <trkpt lat="45.9395" lon="4.60216">
        <ele>501</ele>
        <time>2016-12-08T08:28:45Z</time>
      </trkpt>
      <trkpt lat="45.93957" lon="4.60209">
        <ele>501</ele>
        <time>2016-12-08T08:28:51Z</time>
      </trkpt>
      <trkpt lat="45.93958" lon="4.60208">
        <ele>501</ele>
        <time>2016-12-08T08:28:52Z</time>
      </trkpt>
      <trkpt lat="45.93964" lon="4.60199">
        <ele>501</ele>
        <time>2016-12-08T08:28:59Z</time>
      </trkpt>
      <trkpt lat="45.93965" lon="4.60197">
        <ele>501</ele>
        <time>2016-12-08T08:29:00Z</time>
      </trkpt>
      <trkpt lat="45.93971" lon="4.60191">
        <ele>501</ele>
        <time>2016-12-08T08:29:06Z</time>
      </trkpt>
      <trkpt lat="45.93972" lon="4.60189">
        <ele>502</ele>
        <time>2016-12-08T08:29:07Z</time>
      </trkpt>
      <trkpt lat="45.93978" lon="4.6018">
        <ele>502</ele>
        <time>2016-12-08T08:29:13Z</time>
      </trkpt>
      <trkpt lat="45.93979" lon="4.60178">
        <ele>502</ele>
        <time>2016-12-08T08:29:14Z</time>
      </trkpt>
      <trkpt lat="45.93986" lon="4.6017">
        <ele>502</ele>
        <time>2016-12-08T08:29:20Z</time>
      </trkpt>
      <trkpt lat="45.93987" lon="4.60169">
        <ele>502</ele>
        <time>2016-12-08T08:29:21Z</time>
      </trkpt>
      <trkpt lat="45.93994" lon="4.60164">
        <ele>502</ele>
        <time>2016-12-08T08:29:27Z</time>
      </trkpt>
      <trkpt lat="45.93995" lon="4.60163">
        <ele>502</ele>
        <time>2016-12-08T08:29:28Z</time>
      </trkpt>
      <trkpt lat="45.94002" lon="4.60158">
        <ele>502</ele>
        <time>2016-12-08T08:29:34Z</time>
      </trkpt>
      <trkpt lat="45.94004" lon="4.60157">
        <ele>501</ele>
        <time>2016-12-08T08:29:35Z</time>
      </trkpt>
      <trkpt lat="45.9401" lon="4.60149">
        <ele>501</ele>
        <time>2016-12-08T08:29:41Z</time>
      </trkpt>
      <trkpt lat="45.94011" lon="4.60148">
        <ele>501</ele>
        <time>2016-12-08T08:29:42Z</time>
      </trkpt>
      <trkpt lat="45.94016" lon="4.6014">
        <ele>501</ele>
        <time>2016-12-08T08:29:48Z</time>
      </trkpt>
      <trkpt lat="45.94017" lon="4.60138">
        <ele>501</ele>
        <time>2016-12-08T08:29:49Z</time>
      </trkpt>
      <trkpt lat="45.94023" lon="4.60128">
        <ele>501</ele>
        <time>2016-12-08T08:29:55Z</time>
      </trkpt>
      <trkpt lat="45.94024" lon="4.60127">
        <ele>501</ele>
        <time>2016-12-08T08:29:56Z</time>
      </trkpt>
      <trkpt lat="45.94031" lon="4.60122">
        <ele>501</ele>
        <time>2016-12-08T08:30:02Z</time>
      </trkpt>
      <trkpt lat="45.94032" lon="4.60121">
        <ele>501</ele>
        <time>2016-12-08T08:30:03Z</time>
      </trkpt>
      <trkpt lat="45.94038" lon="4.60114">
        <ele>501</ele>
        <time>2016-12-08T08:30:09Z</time>
      </trkpt>
      <trkpt lat="45.94039" lon="4.60113">
        <ele>501</ele>
        <time>2016-12-08T08:30:10Z</time>
      </trkpt>
      <trkpt lat="45.94047" lon="4.60106">
        <ele>500</ele>
        <time>2016-12-08T08:30:17Z</time>
      </trkpt>
      <trkpt lat="45.94048" lon="4.60105">
        <ele>500</ele>
        <time>2016-12-08T08:30:18Z</time>
      </trkpt>
      <trkpt lat="45.94055" lon="4.601">
        <ele>500</ele>
        <time>2016-12-08T08:30:25Z</time>
      </trkpt>
      <trkpt lat="45.94057" lon="4.60099">
        <ele>500</ele>
        <time>2016-12-08T08:30:26Z</time>
      </trkpt>
      <trkpt lat="45.94065" lon="4.60094">
        <ele>500</ele>
        <time>2016-12-08T08:30:32Z</time>
      </trkpt>
      <trkpt lat="45.94066" lon="4.60094">
        <ele>500</ele>
        <time>2016-12-08T08:30:33Z</time>
      </trkpt>
      <trkpt lat="45.94073" lon="4.6009">
        <ele>500</ele>
        <time>2016-12-08T08:30:38Z</time>
      </trkpt>
      <trkpt lat="45.94074" lon="4.60089">
        <ele>500</ele>
        <time>2016-12-08T08:30:39Z</time>
      </trkpt>
      <trkpt lat="45.94081" lon="4.60081">
        <ele>500</ele>
        <time>2016-12-08T08:32:57Z</time>
      </trkpt>
      <trkpt lat="45.94082" lon="4.6008">
        <ele>500</ele>
        <time>2016-12-08T08:32:58Z</time>
      </trkpt>
      <trkpt lat="45.94089" lon="4.60074">
        <ele>502</ele>
        <time>2016-12-08T08:33:05Z</time>
      </trkpt>
      <trkpt lat="45.9409" lon="4.60074">
        <ele>502</ele>
        <time>2016-12-08T08:33:06Z</time>
      </trkpt>
      <trkpt lat="45.94098" lon="4.6007">
        <ele>503</ele>
        <time>2016-12-08T08:33:14Z</time>
      </trkpt>
      <trkpt lat="45.94099" lon="4.6007">
        <ele>503</ele>
        <time>2016-12-08T08:33:15Z</time>
      </trkpt>
      <trkpt lat="45.94108" lon="4.60066">
        <ele>504</ele>
        <time>2016-12-08T08:33:22Z</time>
      </trkpt>
      <trkpt lat="45.94109" lon="4.60066">
        <ele>504</ele>
        <time>2016-12-08T08:33:23Z</time>
      </trkpt>
      <trkpt lat="45.94117" lon="4.60063">
        <ele>505</ele>
        <time>2016-12-08T08:33:29Z</time>
      </trkpt>
      <trkpt lat="45.94118" lon="4.60062">
        <ele>505</ele>
        <time>2016-12-08T08:33:30Z</time>
      </trkpt>
      <trkpt lat="45.94125" lon="4.60055">
        <ele>505</ele>
        <time>2016-12-08T08:33:36Z</time>
      </trkpt>
      <trkpt lat="45.94126" lon="4.60055">
        <ele>505</ele>
        <time>2016-12-08T08:33:37Z</time>
      </trkpt>
      <trkpt lat="45.94132" lon="4.60048">
        <ele>506</ele>
        <time>2016-12-08T08:33:44Z</time>
      </trkpt>
      <trkpt lat="45.94133" lon="4.60047">
        <ele>506</ele>
        <time>2016-12-08T08:33:45Z</time>
      </trkpt>
      <trkpt lat="45.9414" lon="4.6004">
        <ele>507</ele>
        <time>2016-12-08T08:33:52Z</time>
      </trkpt>
      <trkpt lat="45.94141" lon="4.60039">
        <ele>507</ele>
        <time>2016-12-08T08:33:53Z</time>
      </trkpt>
      <trkpt lat="45.94148" lon="4.60032">
        <ele>508</ele>
        <time>2016-12-08T08:34:00Z</time>
      </trkpt>
      <trkpt lat="45.9415" lon="4.60032">
        <ele>508</ele>
        <time>2016-12-08T08:34:01Z</time>
      </trkpt>
      <trkpt lat="45.94156" lon="4.60024">
        <ele>509</ele>
        <time>2016-12-08T08:34:08Z</time>
      </trkpt>
      <trkpt lat="45.94157" lon="4.60023">
        <ele>509</ele>
        <time>2016-12-08T08:34:09Z</time>
      </trkpt>
      <trkpt lat="45.94165" lon="4.60017">
        <ele>511</ele>
        <time>2016-12-08T08:34:17Z</time>
      </trkpt>
      <trkpt lat="45.94166" lon="4.60017">
        <ele>511</ele>
        <time>2016-12-08T08:34:18Z</time>
      </trkpt>
      <trkpt lat="45.94173" lon="4.60011">
        <ele>513</ele>
        <time>2016-12-08T08:34:25Z</time>
      </trkpt>
      <trkpt lat="45.94174" lon="4.60011">
        <ele>513</ele>
        <time>2016-12-08T08:34:26Z</time>
      </trkpt>
      <trkpt lat="45.94182" lon="4.60006">
        <ele>513</ele>
        <time>2016-12-08T08:34:34Z</time>
      </trkpt>
      <trkpt lat="45.94183" lon="4.60005">
        <ele>513</ele>
        <time>2016-12-08T08:34:35Z</time>
      </trkpt>
      <trkpt lat="45.94189" lon="4.59996">
        <ele>517</ele>
        <time>2016-12-08T08:34:42Z</time>
      </trkpt>
      <trkpt lat="45.94189" lon="4.59995">
        <ele>517</ele>
        <time>2016-12-08T08:34:43Z</time>
      </trkpt>
      <trkpt lat="45.94192" lon="4.59984">
        <ele>518</ele>
        <time>2016-12-08T08:34:50Z</time>
      </trkpt>
      <trkpt lat="45.94193" lon="4.59983">
        <ele>518</ele>
        <time>2016-12-08T08:34:51Z</time>
      </trkpt>
      <trkpt lat="45.94198" lon="4.59974">
        <ele>518</ele>
        <time>2016-12-08T08:34:58Z</time>
      </trkpt>
      <trkpt lat="45.94199" lon="4.59973">
        <ele>518</ele>
        <time>2016-12-08T08:34:59Z</time>
      </trkpt>
      <trkpt lat="45.94203" lon="4.59962">
        <ele>519</ele>
        <time>2016-12-08T08:35:06Z</time>
      </trkpt>
      <trkpt lat="45.94204" lon="4.5996">
        <ele>519</ele>
        <time>2016-12-08T08:35:07Z</time>
      </trkpt>
      <trkpt lat="45.94209" lon="4.5995">
        <ele>519</ele>
        <time>2016-12-08T08:35:14Z</time>
      </trkpt>
      <trkpt lat="45.9421" lon="4.59949">
        <ele>519</ele>
        <time>2016-12-08T08:35:15Z</time>
      </trkpt>
      <trkpt lat="45.94216" lon="4.5994">
        <ele>520</ele>
        <time>2016-12-08T08:35:22Z</time>
      </trkpt>
      <trkpt lat="45.94217" lon="4.59939">
        <ele>520</ele>
        <time>2016-12-08T08:35:23Z</time>
      </trkpt>
      <trkpt lat="45.94221" lon="4.59929">
        <ele>520</ele>
        <time>2016-12-08T08:35:30Z</time>
      </trkpt>
      <trkpt lat="45.94222" lon="4.59927">
        <ele>520</ele>
        <time>2016-12-08T08:35:31Z</time>
      </trkpt>
      <trkpt lat="45.94224" lon="4.59915">
        <ele>522</ele>
        <time>2016-12-08T08:35:38Z</time>
      </trkpt>
      <trkpt lat="45.94224" lon="4.59914">
        <ele>522</ele>
        <time>2016-12-08T08:35:39Z</time>
      </trkpt>
      <trkpt lat="45.94229" lon="4.59904">
        <ele>523</ele>
        <time>2016-12-08T08:35:46Z</time>
      </trkpt>
      <trkpt lat="45.9423" lon="4.59903">
        <ele>523</ele>
        <time>2016-12-08T08:35:47Z</time>
      </trkpt>
      <trkpt lat="45.94236" lon="4.59896">
        <ele>523</ele>
        <time>2016-12-08T08:35:54Z</time>
      </trkpt>
      <trkpt lat="45.94237" lon="4.59894">
        <ele>523</ele>
        <time>2016-12-08T08:35:55Z</time>
      </trkpt>
      <trkpt lat="45.94243" lon="4.59887">
        <ele>523</ele>
        <time>2016-12-08T08:36:01Z</time>
      </trkpt>
      <trkpt lat="45.94244" lon="4.59886">
        <ele>523</ele>
        <time>2016-12-08T08:36:02Z</time>
      </trkpt>
      <trkpt lat="45.94249" lon="4.59876">
        <ele>523</ele>
        <time>2016-12-08T08:36:09Z</time>
      </trkpt>
      <trkpt lat="45.9425" lon="4.59874">
        <ele>523</ele>
        <time>2016-12-08T08:36:10Z</time>
      </trkpt>
      <trkpt lat="45.94256" lon="4.59865">
        <ele>525</ele>
        <time>2016-12-08T08:36:17Z</time>
      </trkpt>
      <trkpt lat="45.94256" lon="4.59864">
        <ele>525</ele>
        <time>2016-12-08T08:36:18Z</time>
      </trkpt>
      <trkpt lat="45.94261" lon="4.59855">
        <ele>526</ele>
        <time>2016-12-08T08:36:26Z</time>
      </trkpt>
      <trkpt lat="45.94262" lon="4.59854">
        <ele>526</ele>
        <time>2016-12-08T08:36:27Z</time>
      </trkpt>
      <trkpt lat="45.94267" lon="4.59844">
        <ele>526</ele>
        <time>2016-12-08T08:36:34Z</time>
      </trkpt>
      <trkpt lat="45.94268" lon="4.59842">
        <ele>526</ele>
        <time>2016-12-08T08:36:35Z</time>
      </trkpt>
      <trkpt lat="45.94275" lon="4.59833">
        <ele>526</ele>
        <time>2016-12-08T08:36:41Z</time>
      </trkpt>
      <trkpt lat="45.94276" lon="4.59832">
        <ele>527</ele>
        <time>2016-12-08T08:36:42Z</time>
      </trkpt>
      <trkpt lat="45.94282" lon="4.59824">
        <ele>527</ele>
        <time>2016-12-08T08:36:48Z</time>
      </trkpt>
      <trkpt lat="45.94283" lon="4.59823">
        <ele>527</ele>
        <time>2016-12-08T08:36:49Z</time>
      </trkpt>
      <trkpt lat="45.94287" lon="4.59813">
        <ele>527</ele>
        <time>2016-12-08T08:36:56Z</time>
      </trkpt>
      <trkpt lat="45.94288" lon="4.59812">
        <ele>527</ele>
        <time>2016-12-08T08:36:57Z</time>
      </trkpt>
      <trkpt lat="45.94292" lon="4.598">
        <ele>527</ele>
        <time>2016-12-08T08:37:04Z</time>
      </trkpt>
      <trkpt lat="45.94293" lon="4.59798">
        <ele>527</ele>
        <time>2016-12-08T08:37:05Z</time>
      </trkpt>
      <trkpt lat="45.94297" lon="4.59788">
        <ele>528</ele>
        <time>2016-12-08T08:37:11Z</time>
      </trkpt>
      <trkpt lat="45.94297" lon="4.59786">
        <ele>528</ele>
        <time>2016-12-08T08:37:12Z</time>
      </trkpt>
      <trkpt lat="45.94302" lon="4.59776">
        <ele>528</ele>
        <time>2016-12-08T08:37:18Z</time>
      </trkpt>
      <trkpt lat="45.94303" lon="4.59774">
        <ele>528</ele>
        <time>2016-12-08T08:37:19Z</time>
      </trkpt>
      <trkpt lat="45.94307" lon="4.59764">
        <ele>528</ele>
        <time>2016-12-08T08:37:25Z</time>
      </trkpt>
      <trkpt lat="45.94307" lon="4.59763">
        <ele>528</ele>
        <time>2016-12-08T08:37:26Z</time>
      </trkpt>
      <trkpt lat="45.9431" lon="4.59752">
        <ele>528</ele>
        <time>2016-12-08T08:37:32Z</time>
      </trkpt>
      <trkpt lat="45.94311" lon="4.5975">
        <ele>529</ele>
        <time>2016-12-08T08:37:33Z</time>
      </trkpt>
      <trkpt lat="45.94312" lon="4.59738">
        <ele>529</ele>
        <time>2016-12-08T08:37:38Z</time>
      </trkpt>
      <trkpt lat="45.94312" lon="4.59736">
        <ele>529</ele>
        <time>2016-12-08T08:37:39Z</time>
      </trkpt>
      <trkpt lat="45.94316" lon="4.59726">
        <ele>529</ele>
        <time>2016-12-08T08:37:45Z</time>
      </trkpt>
      <trkpt lat="45.94316" lon="4.59724">
        <ele>529</ele>
        <time>2016-12-08T08:37:46Z</time>
      </trkpt>
      <trkpt lat="45.9432" lon="4.59714">
        <ele>529</ele>
        <time>2016-12-08T08:37:52Z</time>
      </trkpt>
      <trkpt lat="45.9432" lon="4.59712">
        <ele>529</ele>
        <time>2016-12-08T08:37:53Z</time>
      </trkpt>
      <trkpt lat="45.94325" lon="4.59701">
        <ele>529</ele>
        <time>2016-12-08T08:38:01Z</time>
      </trkpt>
      <trkpt lat="45.94325" lon="4.597">
        <ele>529</ele>
        <time>2016-12-08T08:38:02Z</time>
      </trkpt>
      <trkpt lat="45.94327" lon="4.59688">
        <ele>529</ele>
        <time>2016-12-08T08:38:10Z</time>
      </trkpt>
      <trkpt lat="45.94327" lon="4.59686">
        <ele>529</ele>
        <time>2016-12-08T08:38:11Z</time>
      </trkpt>
      <trkpt lat="45.94332" lon="4.59676">
        <ele>529</ele>
        <time>2016-12-08T08:38:17Z</time>
      </trkpt>
      <trkpt lat="45.94333" lon="4.59674">
        <ele>529</ele>
        <time>2016-12-08T08:38:18Z</time>
      </trkpt>
      <trkpt lat="45.94337" lon="4.59663">
        <ele>528</ele>
        <time>2016-12-08T08:38:24Z</time>
      </trkpt>
      <trkpt lat="45.94337" lon="4.59661">
        <ele>528</ele>
        <time>2016-12-08T08:38:25Z</time>
      </trkpt>
      <trkpt lat="45.94342" lon="4.59651">
        <ele>527</ele>
        <time>2016-12-08T08:38:31Z</time>
      </trkpt>
      <trkpt lat="45.94343" lon="4.59649">
        <ele>527</ele>
        <time>2016-12-08T08:38:32Z</time>
      </trkpt>
      <trkpt lat="45.94349" lon="4.59642">
        <ele>527</ele>
        <time>2016-12-08T08:38:38Z</time>
      </trkpt>
      <trkpt lat="45.9435" lon="4.5964">
        <ele>527</ele>
        <time>2016-12-08T08:38:39Z</time>
      </trkpt>
      <trkpt lat="45.94356" lon="4.59633">
        <ele>526</ele>
        <time>2016-12-08T08:38:45Z</time>
      </trkpt>
      <trkpt lat="45.94357" lon="4.59631">
        <ele>526</ele>
        <time>2016-12-08T08:38:46Z</time>
      </trkpt>
      <trkpt lat="45.94363" lon="4.59624">
        <ele>526</ele>
        <time>2016-12-08T08:38:52Z</time>
      </trkpt>
      <trkpt lat="45.94364" lon="4.59623">
        <ele>526</ele>
        <time>2016-12-08T08:38:53Z</time>
      </trkpt>
      <trkpt lat="45.9437" lon="4.59615">
        <ele>526</ele>
        <time>2016-12-08T08:38:59Z</time>
      </trkpt>
      <trkpt lat="45.94371" lon="4.59614">
        <ele>526</ele>
        <time>2016-12-08T08:39:00Z</time>
      </trkpt>
      <trkpt lat="45.94377" lon="4.59605">
        <ele>526</ele>
        <time>2016-12-08T08:39:06Z</time>
      </trkpt>
      <trkpt lat="45.94378" lon="4.59603">
        <ele>525</ele>
        <time>2016-12-08T08:39:07Z</time>
      </trkpt>
      <trkpt lat="45.94383" lon="4.59595">
        <ele>525</ele>
        <time>2016-12-08T08:39:12Z</time>
      </trkpt>
      <trkpt lat="45.94384" lon="4.59594">
        <ele>525</ele>
        <time>2016-12-08T08:39:13Z</time>
      </trkpt>
      <trkpt lat="45.9439" lon="4.59586">
        <ele>525</ele>
        <time>2016-12-08T08:39:19Z</time>
      </trkpt>
      <trkpt lat="45.94392" lon="4.59585">
        <ele>525</ele>
        <time>2016-12-08T08:39:20Z</time>
      </trkpt>
      <trkpt lat="45.94398" lon="4.59578">
        <ele>523</ele>
        <time>2016-12-08T08:39:27Z</time>
      </trkpt>
      <trkpt lat="45.94399" lon="4.59576">
        <ele>523</ele>
        <time>2016-12-08T08:39:28Z</time>
      </trkpt>
      <trkpt lat="45.94404" lon="4.59567">
        <ele>523</ele>
        <time>2016-12-08T08:39:34Z</time>
      </trkpt>
      <trkpt lat="45.94404" lon="4.59566">
        <ele>523</ele>
        <time>2016-12-08T08:39:35Z</time>
      </trkpt>
      <trkpt lat="45.94411" lon="4.59558">
        <ele>523</ele>
        <time>2016-12-08T08:39:41Z</time>
      </trkpt>
      <trkpt lat="45.94412" lon="4.59556">
        <ele>523</ele>
        <time>2016-12-08T08:39:42Z</time>
      </trkpt>
      <trkpt lat="45.94419" lon="4.59549">
        <ele>522</ele>
        <time>2016-12-08T08:39:48Z</time>
      </trkpt>
      <trkpt lat="45.9442" lon="4.59548">
        <ele>522</ele>
        <time>2016-12-08T08:39:49Z</time>
      </trkpt>
      <trkpt lat="45.94426" lon="4.59542">
        <ele>522</ele>
        <time>2016-12-08T08:39:54Z</time>
      </trkpt>
      <trkpt lat="45.94428" lon="4.59541">
        <ele>521</ele>
        <time>2016-12-08T08:39:55Z</time>
      </trkpt>
      <trkpt lat="45.94435" lon="4.59537">
        <ele>521</ele>
        <time>2016-12-08T08:40:01Z</time>
      </trkpt>
      <trkpt lat="45.94437" lon="4.59536">
        <ele>521</ele>
        <time>2016-12-08T08:40:02Z</time>
      </trkpt>
      <trkpt lat="45.94445" lon="4.59532">
        <ele>521</ele>
        <time>2016-12-08T08:40:09Z</time>
      </trkpt>
      <trkpt lat="45.94446" lon="4.59532">
        <ele>522</ele>
        <time>2016-12-08T08:40:10Z</time>
      </trkpt>
      <trkpt lat="45.94454" lon="4.59528">
        <ele>522</ele>
        <time>2016-12-08T08:40:17Z</time>
      </trkpt>
      <trkpt lat="45.94456" lon="4.59527">
        <ele>522</ele>
        <time>2016-12-08T08:40:18Z</time>
      </trkpt>
      <trkpt lat="45.94464" lon="4.59524">
        <ele>522</ele>
        <time>2016-12-08T08:40:24Z</time>
      </trkpt>
      <trkpt lat="45.94465" lon="4.59523">
        <ele>522</ele>
        <time>2016-12-08T08:40:25Z</time>
      </trkpt>
      <trkpt lat="45.94474" lon="4.59522">
        <ele>522</ele>
        <time>2016-12-08T08:40:31Z</time>
      </trkpt>
      <trkpt lat="45.94475" lon="4.59521">
        <ele>522</ele>
        <time>2016-12-08T08:40:32Z</time>
      </trkpt>
      <trkpt lat="45.94482" lon="4.59516">
        <ele>522</ele>
        <time>2016-12-08T08:40:38Z</time>
      </trkpt>
      <trkpt lat="45.94483" lon="4.59515">
        <ele>522</ele>
        <time>2016-12-08T08:40:39Z</time>
      </trkpt>
      <trkpt lat="45.94491" lon="4.59512">
        <ele>523</ele>
        <time>2016-12-08T08:40:45Z</time>
      </trkpt>
      <trkpt lat="45.94492" lon="4.59511">
        <ele>523</ele>
        <time>2016-12-08T08:40:46Z</time>
      </trkpt>
      <trkpt lat="45.94499" lon="4.59505">
        <ele>524</ele>
        <time>2016-12-08T08:40:52Z</time>
      </trkpt>
      <trkpt lat="45.94501" lon="4.59504">
        <ele>524</ele>
        <time>2016-12-08T08:40:53Z</time>
      </trkpt>
      <trkpt lat="45.94508" lon="4.59498">
        <ele>524</ele>
        <time>2016-12-08T08:40:59Z</time>
      </trkpt>
      <trkpt lat="45.94509" lon="4.59498">
        <ele>524</ele>
        <time>2016-12-08T08:41:00Z</time>
      </trkpt>
      <trkpt lat="45.94517" lon="4.59494">
        <ele>524</ele>
        <time>2016-12-08T08:41:06Z</time>
      </trkpt>
      <trkpt lat="45.94519" lon="4.59494">
        <ele>524</ele>
        <time>2016-12-08T08:41:07Z</time>
      </trkpt>
      <trkpt lat="45.94527" lon="4.59491">
        <ele>524</ele>
        <time>2016-12-08T08:41:13Z</time>
      </trkpt>
      <trkpt lat="45.94528" lon="4.5949">
        <ele>524</ele>
        <time>2016-12-08T08:41:14Z</time>
      </trkpt>
      <trkpt lat="45.94535" lon="4.59484">
        <ele>524</ele>
        <time>2016-12-08T08:41:21Z</time>
      </trkpt>
      <trkpt lat="45.94536" lon="4.59483">
        <ele>524</ele>
        <time>2016-12-08T08:41:22Z</time>
      </trkpt>
      <trkpt lat="45.94543" lon="4.59478">
        <ele>524</ele>
        <time>2016-12-08T08:41:28Z</time>
      </trkpt>
      <trkpt lat="45.94544" lon="4.59477">
        <ele>524</ele>
        <time>2016-12-08T08:41:29Z</time>
      </trkpt>
      <trkpt lat="45.9455" lon="4.5947">
        <ele>524</ele>
        <time>2016-12-08T08:41:34Z</time>
      </trkpt>
      <trkpt lat="45.94551" lon="4.59469">
        <ele>524</ele>
        <time>2016-12-08T08:41:35Z</time>
      </trkpt>
      <trkpt lat="45.94558" lon="4.59461">
        <ele>524</ele>
        <time>2016-12-08T08:41:41Z</time>
      </trkpt>
      <trkpt lat="45.94559" lon="4.5946">
        <ele>524</ele>
        <time>2016-12-08T08:41:42Z</time>
      </trkpt>
      <trkpt lat="45.94565" lon="4.59453">
        <ele>524</ele>
        <time>2016-12-08T08:41:49Z</time>
      </trkpt>
      <trkpt lat="45.94566" lon="4.59452">
        <ele>524</ele>
        <time>2016-12-08T08:41:50Z</time>
      </trkpt>
      <trkpt lat="45.94574" lon="4.59447">
        <ele>525</ele>
        <time>2016-12-08T08:41:57Z</time>
      </trkpt>
      <trkpt lat="45.94575" lon="4.59446">
        <ele>525</ele>
        <time>2016-12-08T08:41:58Z</time>
      </trkpt>
      <trkpt lat="45.94583" lon="4.59442">
        <ele>525</ele>
        <time>2016-12-08T08:42:04Z</time>
      </trkpt>
      <trkpt lat="45.94585" lon="4.59441">
        <ele>526</ele>
        <time>2016-12-08T08:42:05Z</time>
      </trkpt>
      <trkpt lat="45.94592" lon="4.59437">
        <ele>526</ele>
        <time>2016-12-08T08:42:11Z</time>
      </trkpt>
      <trkpt lat="45.94593" lon="4.59436">
        <ele>526</ele>
        <time>2016-12-08T08:42:12Z</time>
      </trkpt>
      <trkpt lat="45.946" lon="4.59431">
        <ele>527</ele>
        <time>2016-12-08T08:42:18Z</time>
      </trkpt>
      <trkpt lat="45.94601" lon="4.5943">
        <ele>527</ele>
        <time>2016-12-08T08:42:19Z</time>
      </trkpt>
      <trkpt lat="45.94607" lon="4.59423">
        <ele>527</ele>
        <time>2016-12-08T08:42:25Z</time>
      </trkpt>
      <trkpt lat="45.94609" lon="4.59421">
        <ele>527</ele>
        <time>2016-12-08T08:42:26Z</time>
      </trkpt>
      <trkpt lat="45.94616" lon="4.59415">
        <ele>526</ele>
        <time>2016-12-08T08:42:32Z</time>
      </trkpt>
      <trkpt lat="45.94617" lon="4.59414">
        <ele>526</ele>
        <time>2016-12-08T08:42:33Z</time>
      </trkpt>
      <trkpt lat="45.94624" lon="4.59409">
        <ele>526</ele>
        <time>2016-12-08T08:42:39Z</time>
      </trkpt>
      <trkpt lat="45.94625" lon="4.59409">
        <ele>526</ele>
        <time>2016-12-08T08:42:40Z</time>
      </trkpt>
      <trkpt lat="45.94633" lon="4.59408">
        <ele>526</ele>
        <time>2016-12-08T08:42:45Z</time>
      </trkpt>
      <trkpt lat="45.94634" lon="4.59407">
        <ele>526</ele>
        <time>2016-12-08T08:42:46Z</time>
      </trkpt>
      <trkpt lat="45.94642" lon="4.59404">
        <ele>527</ele>
        <time>2016-12-08T08:42:52Z</time>
      </trkpt>
      <trkpt lat="45.94644" lon="4.59403">
        <ele>527</ele>
        <time>2016-12-08T08:42:53Z</time>
      </trkpt>
      <trkpt lat="45.94652" lon="4.59401">
        <ele>527</ele>
        <time>2016-12-08T08:42:59Z</time>
      </trkpt>
      <trkpt lat="45.94653" lon="4.594">
        <ele>527</ele>
        <time>2016-12-08T08:43:00Z</time>
      </trkpt>
      <trkpt lat="45.94661" lon="4.59395">
        <ele>527</ele>
        <time>2016-12-08T08:43:07Z</time>
      </trkpt>
      <trkpt lat="45.94662" lon="4.59394">
        <ele>527</ele>
        <time>2016-12-08T08:43:08Z</time>
      </trkpt>
      <trkpt lat="45.9467" lon="4.5939">
        <ele>530</ele>
        <time>2016-12-08T08:43:14Z</time>
      </trkpt>
      <trkpt lat="45.94671" lon="4.59389">
        <ele>530</ele>
        <time>2016-12-08T08:43:15Z</time>
      </trkpt>
      <trkpt lat="45.94679" lon="4.59385">
        <ele>530</ele>
        <time>2016-12-08T08:43:21Z</time>
      </trkpt>
      <trkpt lat="45.9468" lon="4.59385">
        <ele>530</ele>
        <time>2016-12-08T08:43:22Z</time>
      </trkpt>
      <trkpt lat="45.94689" lon="4.59382">
        <ele>530</ele>
        <time>2016-12-08T08:43:29Z</time>
      </trkpt>
      <trkpt lat="45.9469" lon="4.59381">
        <ele>530</ele>
        <time>2016-12-08T08:43:30Z</time>
      </trkpt>
      <trkpt lat="45.94698" lon="4.5938">
        <ele>531</ele>
        <time>2016-12-08T08:43:36Z</time>
      </trkpt>
      <trkpt lat="45.947" lon="4.59379">
        <ele>531</ele>
        <time>2016-12-08T08:43:37Z</time>
      </trkpt>
      <trkpt lat="45.94708" lon="4.59377">
        <ele>531</ele>
        <time>2016-12-08T08:43:43Z</time>
      </trkpt>
      <trkpt lat="45.94709" lon="4.59377">
        <ele>531</ele>
        <time>2016-12-08T08:43:44Z</time>
      </trkpt>
      <trkpt lat="45.94718" lon="4.5938">
        <ele>532</ele>
        <time>2016-12-08T08:47:03Z</time>
      </trkpt>
      <trkpt lat="45.94718" lon="4.59381">
        <ele>532</ele>
        <time>2016-12-08T08:47:04Z</time>
      </trkpt>
      <trkpt lat="45.94726" lon="4.59384">
        <ele>532</ele>
        <time>2016-12-08T08:47:16Z</time>
      </trkpt>
      <trkpt lat="45.94727" lon="4.59385">
        <ele>532</ele>
        <time>2016-12-08T08:47:17Z</time>
      </trkpt>
      <trkpt lat="45.94734" lon="4.5939">
        <ele>532</ele>
        <time>2016-12-08T08:47:25Z</time>
      </trkpt>
      <trkpt lat="45.94736" lon="4.5939">
        <ele>533</ele>
        <time>2016-12-08T08:47:26Z</time>
      </trkpt>
      <trkpt lat="45.94744" lon="4.5939">
        <ele>533</ele>
        <time>2016-12-08T08:47:35Z</time>
      </trkpt>
      <trkpt lat="45.94745" lon="4.59389">
        <ele>533</ele>
        <time>2016-12-08T08:47:36Z</time>
      </trkpt>
      <trkpt lat="45.94749" lon="4.59378">
        <ele>533</ele>
        <time>2016-12-08T08:47:45Z</time>
      </trkpt>
      <trkpt lat="45.94749" lon="4.59377">
        <ele>533</ele>
        <time>2016-12-08T08:47:46Z</time>
      </trkpt>
      <trkpt lat="45.94755" lon="4.59368">
        <ele>540</ele>
        <time>2016-12-08T08:47:57Z</time>
      </trkpt>
      <trkpt lat="45.94755" lon="4.59367">
        <ele>540</ele>
        <time>2016-12-08T08:47:58Z</time>
      </trkpt>
      <trkpt lat="45.94763" lon="4.59362">
        <ele>540</ele>
        <time>2016-12-08T08:48:08Z</time>
      </trkpt>
      <trkpt lat="45.94764" lon="4.59362">
        <ele>540</ele>
        <time>2016-12-08T08:48:09Z</time>
      </trkpt>
      <trkpt lat="45.94773" lon="4.59361">
        <ele>541</ele>
        <time>2016-12-08T08:48:19Z</time>
      </trkpt>
      <trkpt lat="45.94774" lon="4.5936">
        <ele>541</ele>
        <time>2016-12-08T08:48:20Z</time>
      </trkpt>
      <trkpt lat="45.94782" lon="4.59359">
        <ele>541</ele>
        <time>2016-12-08T08:48:30Z</time>
      </trkpt>
      <trkpt lat="45.94783" lon="4.59358">
        <ele>542</ele>
        <time>2016-12-08T08:48:31Z</time>
      </trkpt>
      <trkpt lat="45.9479" lon="4.5935">
        <ele>542</ele>
        <time>2016-12-08T08:48:40Z</time>
      </trkpt>
      <trkpt lat="45.9479" lon="4.5935">
        <ele>542</ele>
        <time>2016-12-08T08:48:41Z</time>
      </trkpt>
      <trkpt lat="45.94799" lon="4.59347">
        <ele>544</ele>
        <time>2016-12-08T08:48:51Z</time>
      </trkpt>
      <trkpt lat="45.948" lon="4.59347">
        <ele>544</ele>
        <time>2016-12-08T08:48:52Z</time>
      </trkpt>
      <trkpt lat="45.94808" lon="4.59345">
        <ele>545</ele>
        <time>2016-12-08T08:49:01Z</time>
      </trkpt>
      <trkpt lat="45.94809" lon="4.59345">
        <ele>545</ele>
        <time>2016-12-08T08:49:02Z</time>
      </trkpt>
      <trkpt lat="45.94818" lon="4.59345">
        <ele>547</ele>
        <time>2016-12-08T08:49:11Z</time>
      </trkpt>
      <trkpt lat="45.94819" lon="4.59345">
        <ele>547</ele>
        <time>2016-12-08T08:49:12Z</time>
      </trkpt>
      <trkpt lat="45.94827" lon="4.59345">
        <ele>548</ele>
        <time>2016-12-08T08:49:20Z</time>
      </trkpt>
      <trkpt lat="45.94828" lon="4.59345">
        <ele>548</ele>
        <time>2016-12-08T08:49:21Z</time>
      </trkpt>
      <trkpt lat="45.94836" lon="4.59348">
        <ele>553</ele>
        <time>2016-12-08T08:49:30Z</time>
      </trkpt>
      <trkpt lat="45.94837" lon="4.59348">
        <ele>553</ele>
        <time>2016-12-08T08:49:31Z</time>
      </trkpt>
      <trkpt lat="45.94845" lon="4.59348">
        <ele>554</ele>
        <time>2016-12-08T08:49:39Z</time>
      </trkpt>
      <trkpt lat="45.94846" lon="4.59349">
        <ele>554</ele>
        <time>2016-12-08T08:49:40Z</time>
      </trkpt>
      <trkpt lat="45.94855" lon="4.5935">
        <ele>554</ele>
        <time>2016-12-08T08:49:48Z</time>
      </trkpt>
      <trkpt lat="45.94856" lon="4.5935">
        <ele>554</ele>
        <time>2016-12-08T08:49:49Z</time>
      </trkpt>
      <trkpt lat="45.94864" lon="4.59353">
        <ele>555</ele>
        <time>2016-12-08T08:49:57Z</time>
      </trkpt>
      <trkpt lat="45.94865" lon="4.59354">
        <ele>555</ele>
        <time>2016-12-08T08:49:58Z</time>
      </trkpt>
      <trkpt lat="45.94873" lon="4.59357">
        <ele>556</ele>
        <time>2016-12-08T08:50:06Z</time>
      </trkpt>
      <trkpt lat="45.94874" lon="4.59357">
        <ele>556</ele>
        <time>2016-12-08T08:50:07Z</time>
      </trkpt>
      <trkpt lat="45.94882" lon="4.59359">
        <ele>556</ele>
        <time>2016-12-08T08:50:15Z</time>
      </trkpt>
      <trkpt lat="45.94882" lon="4.5936">
        <ele>556</ele>
        <time>2016-12-08T08:50:16Z</time>
      </trkpt>
      <trkpt lat="45.9489" lon="4.59363">
        <ele>557</ele>
        <time>2016-12-08T08:50:24Z</time>
      </trkpt>
      <trkpt lat="45.94891" lon="4.59363">
        <ele>557</ele>
        <time>2016-12-08T08:50:25Z</time>
      </trkpt>
      <trkpt lat="45.94899" lon="4.59362">
        <ele>557</ele>
        <time>2016-12-08T08:50:32Z</time>
      </trkpt>
      <trkpt lat="45.94901" lon="4.59363">
        <ele>558</ele>
        <time>2016-12-08T08:50:33Z</time>
      </trkpt>
      <trkpt lat="45.94908" lon="4.59366">
        <ele>558</ele>
        <time>2016-12-08T08:50:40Z</time>
      </trkpt>
      <trkpt lat="45.94909" lon="4.59367">
        <ele>558</ele>
        <time>2016-12-08T08:50:41Z</time>
      </trkpt>
      <trkpt lat="45.94918" lon="4.59366">
        <ele>565</ele>
        <time>2016-12-08T08:50:49Z</time>
      </trkpt>
      <trkpt lat="45.94919" lon="4.59366">
        <ele>565</ele>
        <time>2016-12-08T08:50:50Z</time>
      </trkpt>
      <trkpt lat="45.94928" lon="4.59365">
        <ele>565</ele>
        <time>2016-12-08T08:50:58Z</time>
      </trkpt>
      <trkpt lat="45.94929" lon="4.59365">
        <ele>565</ele>
        <time>2016-12-08T08:50:59Z</time>
      </trkpt>
      <trkpt lat="45.94937" lon="4.59366">
        <ele>566</ele>
        <time>2016-12-08T08:51:07Z</time>
      </trkpt>
      <trkpt lat="45.94938" lon="4.59365">
        <ele>566</ele>
        <time>2016-12-08T08:51:08Z</time>
      </trkpt>
      <trkpt lat="45.94946" lon="4.59362">
        <ele>566</ele>
        <time>2016-12-08T08:51:39Z</time>
      </trkpt>
      <trkpt lat="45.94947" lon="4.59362">
        <ele>566</ele>
        <time>2016-12-08T08:51:40Z</time>
      </trkpt>
      <trkpt lat="45.94955" lon="4.59359">
        <ele>567</ele>
        <time>2016-12-08T08:51:48Z</time>
      </trkpt>
      <trkpt lat="45.94957" lon="4.59359">
        <ele>567</ele>
        <time>2016-12-08T08:51:49Z</time>
      </trkpt>
      <trkpt lat="45.94965" lon="4.5936">
        <ele>568</ele>
        <time>2016-12-08T08:51:55Z</time>
      </trkpt>
      <trkpt lat="45.94966" lon="4.59359">
        <ele>568</ele>
        <time>2016-12-08T08:51:56Z</time>
      </trkpt>
      <trkpt lat="45.94974" lon="4.59356">
        <ele>569</ele>
        <time>2016-12-08T08:52:03Z</time>
      </trkpt>
      <trkpt lat="45.94975" lon="4.59355">
        <ele>569</ele>
        <time>2016-12-08T08:52:04Z</time>
      </trkpt>
      <trkpt lat="45.94982" lon="4.59354">
        <ele>570</ele>
        <time>2016-12-08T08:52:10Z</time>
      </trkpt>
      <trkpt lat="45.94984" lon="4.59353">
        <ele>570</ele>
        <time>2016-12-08T08:52:11Z</time>
      </trkpt>
      <trkpt lat="45.94993" lon="4.59353">
        <ele>571</ele>
        <time>2016-12-08T08:52:18Z</time>
      </trkpt>
      <trkpt lat="45.94994" lon="4.59353">
        <ele>571</ele>
        <time>2016-12-08T08:52:19Z</time>
      </trkpt>
      <trkpt lat="45.95002" lon="4.59355">
        <ele>577</ele>
        <time>2016-12-08T08:52:27Z</time>
      </trkpt>
      <trkpt lat="45.95003" lon="4.59355">
        <ele>577</ele>
        <time>2016-12-08T08:52:28Z</time>
      </trkpt>
      <trkpt lat="45.95012" lon="4.59353">
        <ele>577</ele>
        <time>2016-12-08T08:52:36Z</time>
      </trkpt>
      <trkpt lat="45.95013" lon="4.59352">
        <ele>577</ele>
        <time>2016-12-08T08:52:37Z</time>
      </trkpt>
      <trkpt lat="45.95021" lon="4.59349">
        <ele>578</ele>
        <time>2016-12-08T08:52:44Z</time>
      </trkpt>
      <trkpt lat="45.95022" lon="4.59349">
        <ele>578</ele>
        <time>2016-12-08T08:52:45Z</time>
      </trkpt>
      <trkpt lat="45.9503" lon="4.59348">
        <ele>578</ele>
        <time>2016-12-08T08:52:52Z</time>
      </trkpt>
      <trkpt lat="45.95031" lon="4.59348">
        <ele>578</ele>
        <time>2016-12-08T08:52:53Z</time>
      </trkpt>
      <trkpt lat="45.9504" lon="4.59348">
        <ele>579</ele>
        <time>2016-12-08T08:53:01Z</time>
      </trkpt>
      <trkpt lat="45.95041" lon="4.59348">
        <ele>579</ele>
        <time>2016-12-08T08:53:02Z</time>
      </trkpt>
      <trkpt lat="45.95049" lon="4.59343">
        <ele>580</ele>
        <time>2016-12-08T08:53:10Z</time>
      </trkpt>
      <trkpt lat="45.9505" lon="4.59342">
        <ele>580</ele>
        <time>2016-12-08T08:53:11Z</time>
      </trkpt>
      <trkpt lat="45.95059" lon="4.59341">
        <ele>581</ele>
        <time>2016-12-08T08:53:19Z</time>
      </trkpt>
      <trkpt lat="45.9506" lon="4.59341">
        <ele>582</ele>
        <time>2016-12-08T08:53:20Z</time>
      </trkpt>
      <trkpt lat="45.95068" lon="4.59337">
        <ele>583</ele>
        <time>2016-12-08T08:53:28Z</time>
      </trkpt>
      <trkpt lat="45.95069" lon="4.59336">
        <ele>583</ele>
        <time>2016-12-08T08:53:29Z</time>
      </trkpt>
      <trkpt lat="45.95077" lon="4.59335">
        <ele>585</ele>
        <time>2016-12-08T08:53:37Z</time>
      </trkpt>
      <trkpt lat="45.95078" lon="4.59335">
        <ele>585</ele>
        <time>2016-12-08T08:53:38Z</time>
      </trkpt>
      <trkpt lat="45.95087" lon="4.5933">
        <ele>588</ele>
        <time>2016-12-08T08:53:46Z</time>
      </trkpt>
      <trkpt lat="45.95088" lon="4.5933">
        <ele>588</ele>
        <time>2016-12-08T08:53:47Z</time>
      </trkpt>
      <trkpt lat="45.95096" lon="4.59329">
        <ele>590</ele>
        <time>2016-12-08T08:53:55Z</time>
      </trkpt>
      <trkpt lat="45.95098" lon="4.59329">
        <ele>590</ele>
        <time>2016-12-08T08:53:56Z</time>
      </trkpt>
      <trkpt lat="45.95106" lon="4.5933">
        <ele>591</ele>
        <time>2016-12-08T08:54:03Z</time>
      </trkpt>
      <trkpt lat="45.95107" lon="4.5933">
        <ele>591</ele>
        <time>2016-12-08T08:54:04Z</time>
      </trkpt>
      <trkpt lat="45.95115" lon="4.59324">
        <ele>592</ele>
        <time>2016-12-08T08:54:11Z</time>
      </trkpt>
      <trkpt lat="45.95116" lon="4.59324">
        <ele>592</ele>
        <time>2016-12-08T08:54:12Z</time>
      </trkpt>
      <trkpt lat="45.95124" lon="4.59323">
        <ele>593</ele>
        <time>2016-12-08T08:54:19Z</time>
      </trkpt>
      <trkpt lat="45.95126" lon="4.59323">
        <ele>593</ele>
        <time>2016-12-08T08:54:20Z</time>
      </trkpt>
      <trkpt lat="45.95134" lon="4.59324">
        <ele>594</ele>
        <time>2016-12-08T08:54:27Z</time>
      </trkpt>
      <trkpt lat="45.95135" lon="4.59325">
        <ele>594</ele>
        <time>2016-12-08T08:54:28Z</time>
      </trkpt>
      <trkpt lat="45.95143" lon="4.59324">
        <ele>595</ele>
        <time>2016-12-08T08:54:35Z</time>
      </trkpt>
      <trkpt lat="45.95144" lon="4.59324">
        <ele>595</ele>
        <time>2016-12-08T08:54:36Z</time>
      </trkpt>
      <trkpt lat="45.95153" lon="4.59321">
        <ele>596</ele>
        <time>2016-12-08T08:54:45Z</time>
      </trkpt>
      <trkpt lat="45.95154" lon="4.59322">
        <ele>596</ele>
        <time>2016-12-08T08:54:46Z</time>
      </trkpt>
      <trkpt lat="45.95162" lon="4.59322">
        <ele>597</ele>
        <time>2016-12-08T08:54:54Z</time>
      </trkpt>
      <trkpt lat="45.95163" lon="4.59322">
        <ele>597</ele>
        <time>2016-12-08T08:54:55Z</time>
      </trkpt>
      <trkpt lat="45.95171" lon="4.59319">
        <ele>601</ele>
        <time>2016-12-08T08:55:04Z</time>
      </trkpt>
      <trkpt lat="45.95172" lon="4.5932">
        <ele>601</ele>
        <time>2016-12-08T08:55:05Z</time>
      </trkpt>
      <trkpt lat="45.9518" lon="4.5932">
        <ele>601</ele>
        <time>2016-12-08T08:55:13Z</time>
      </trkpt>
      <trkpt lat="45.95181" lon="4.59319">
        <ele>601</ele>
        <time>2016-12-08T08:55:14Z</time>
      </trkpt>
      <trkpt lat="45.9519" lon="4.59318">
        <ele>602</ele>
        <time>2016-12-08T08:55:23Z</time>
      </trkpt>
      <trkpt lat="45.95191" lon="4.59319">
        <ele>602</ele>
        <time>2016-12-08T08:55:24Z</time>
      </trkpt>
      <trkpt lat="45.95193" lon="4.5933">
        <ele>602</ele>
        <time>2016-12-08T08:55:47Z</time>
      </trkpt>
      <trkpt lat="45.95193" lon="4.59331">
        <ele>602</ele>
        <time>2016-12-08T08:55:48Z</time>
      </trkpt>
      <trkpt lat="45.95192" lon="4.59343">
        <ele>603</ele>
        <time>2016-12-08T08:55:56Z</time>
      </trkpt>
      <trkpt lat="45.95192" lon="4.59345">
        <ele>603</ele>
        <time>2016-12-08T08:55:57Z</time>
      </trkpt>
      <trkpt lat="45.95189" lon="4.59356">
        <ele>603</ele>
        <time>2016-12-08T08:56:03Z</time>
      </trkpt>
      <trkpt lat="45.95189" lon="4.59358">
        <ele>603</ele>
        <time>2016-12-08T08:56:04Z</time>
      </trkpt>
      <trkpt lat="45.95187" lon="4.59369">
        <ele>603</ele>
        <time>2016-12-08T08:56:10Z</time>
      </trkpt>
      <trkpt lat="45.95187" lon="4.59371">
        <ele>603</ele>
        <time>2016-12-08T08:56:11Z</time>
      </trkpt>
      <trkpt lat="45.95187" lon="4.59383">
        <ele>603</ele>
        <time>2016-12-08T08:56:18Z</time>
      </trkpt>
      <trkpt lat="45.95187" lon="4.59385">
        <ele>603</ele>
        <time>2016-12-08T08:56:19Z</time>
      </trkpt>
      <trkpt lat="45.95187" lon="4.59397">
        <ele>603</ele>
        <time>2016-12-08T08:56:26Z</time>
      </trkpt>
      <trkpt lat="45.95187" lon="4.59398">
        <ele>603</ele>
        <time>2016-12-08T08:56:27Z</time>
      </trkpt>
      <trkpt lat="45.95187" lon="4.5941">
        <ele>602</ele>
        <time>2016-12-08T08:56:34Z</time>
      </trkpt>
      <trkpt lat="45.95187" lon="4.59411">
        <ele>602</ele>
        <time>2016-12-08T08:56:35Z</time>
      </trkpt>
      <trkpt lat="45.95187" lon="4.59423">
        <ele>603</ele>
        <time>2016-12-08T08:56:42Z</time>
      </trkpt>
      <trkpt lat="45.95187" lon="4.59424">
        <ele>603</ele>
        <time>2016-12-08T08:56:43Z</time>
      </trkpt>
      <trkpt lat="45.95187" lon="4.59436">
        <ele>604</ele>
        <time>2016-12-08T08:56:50Z</time>
      </trkpt>
      <trkpt lat="45.95188" lon="4.59438">
        <ele>604</ele>
        <time>2016-12-08T08:56:51Z</time>
      </trkpt>
      <trkpt lat="45.95189" lon="4.5945">
        <ele>605</ele>
        <time>2016-12-08T08:56:57Z</time>
      </trkpt>
      <trkpt lat="45.95189" lon="4.59452">
        <ele>605</ele>
        <time>2016-12-08T08:56:58Z</time>
      </trkpt>
      <trkpt lat="45.95189" lon="4.59463">
        <ele>605</ele>
        <time>2016-12-08T08:57:04Z</time>
      </trkpt>
      <trkpt lat="45.95189" lon="4.59465">
        <ele>605</ele>
        <time>2016-12-08T08:57:05Z</time>
      </trkpt>
      <trkpt lat="45.95187" lon="4.59476">
        <ele>605</ele>
        <time>2016-12-08T08:57:11Z</time>
      </trkpt>
      <trkpt lat="45.95187" lon="4.59478">
        <ele>605</ele>
        <time>2016-12-08T08:57:12Z</time>
      </trkpt>
      <trkpt lat="45.95185" lon="4.59489">
        <ele>604</ele>
        <time>2016-12-08T08:57:19Z</time>
      </trkpt>
      <trkpt lat="45.95185" lon="4.5949">
        <ele>604</ele>
        <time>2016-12-08T08:57:20Z</time>
      </trkpt>
      <trkpt lat="45.95184" lon="4.59503">
        <ele>605</ele>
        <time>2016-12-08T08:57:28Z</time>
      </trkpt>
      <trkpt lat="45.95185" lon="4.59505">
        <ele>605</ele>
        <time>2016-12-08T08:57:29Z</time>
      </trkpt>
      <trkpt lat="45.95188" lon="4.59515">
        <ele>607</ele>
        <time>2016-12-08T08:57:36Z</time>
      </trkpt>
      <trkpt lat="45.95189" lon="4.59516">
        <ele>607</ele>
        <time>2016-12-08T08:57:37Z</time>
      </trkpt>
      <trkpt lat="45.95192" lon="4.59528">
        <ele>608</ele>
        <time>2016-12-08T08:57:46Z</time>
      </trkpt>
      <trkpt lat="45.95193" lon="4.59529">
        <ele>608</ele>
        <time>2016-12-08T08:57:47Z</time>
      </trkpt>
      <trkpt lat="45.95197" lon="4.59539">
        <ele>609</ele>
        <time>2016-12-08T08:57:56Z</time>
      </trkpt>
      <trkpt lat="45.95197" lon="4.5954">
        <ele>610</ele>
        <time>2016-12-08T08:57:57Z</time>
      </trkpt>
      <trkpt lat="45.95201" lon="4.5955">
        <ele>610</ele>
        <time>2016-12-08T08:58:06Z</time>
      </trkpt>
      <trkpt lat="45.95202" lon="4.59551">
        <ele>610</ele>
        <time>2016-12-08T08:58:07Z</time>
      </trkpt>
      <trkpt lat="45.95204" lon="4.59562">
        <ele>611</ele>
        <time>2016-12-08T08:58:16Z</time>
      </trkpt>
      <trkpt lat="45.95205" lon="4.59564">
        <ele>611</ele>
        <time>2016-12-08T08:58:17Z</time>
      </trkpt>
      <trkpt lat="45.9521" lon="4.59573">
        <ele>612</ele>
        <time>2016-12-08T08:58:28Z</time>
      </trkpt>
      <trkpt lat="45.95211" lon="4.59573">
        <ele>613</ele>
        <time>2016-12-08T08:58:29Z</time>
      </trkpt>
      <trkpt lat="45.95218" lon="4.59566">
        <ele>614</ele>
        <time>2016-12-08T08:58:39Z</time>
      </trkpt>
      <trkpt lat="45.95219" lon="4.59565">
        <ele>614</ele>
        <time>2016-12-08T08:58:40Z</time>
      </trkpt>
      <trkpt lat="45.95225" lon="4.59557">
        <ele>615</ele>
        <time>2016-12-08T08:58:51Z</time>
      </trkpt>
      <trkpt lat="45.95226" lon="4.59557">
        <ele>615</ele>
        <time>2016-12-08T08:58:52Z</time>
      </trkpt>
      <trkpt lat="45.95232" lon="4.59549">
        <ele>615</ele>
        <time>2016-12-08T08:59:04Z</time>
      </trkpt>
      <trkpt lat="45.95233" lon="4.59549">
        <ele>615</ele>
        <time>2016-12-08T08:59:05Z</time>
      </trkpt>
      <trkpt lat="45.95241" lon="4.59543">
        <ele>616</ele>
        <time>2016-12-08T08:59:18Z</time>
      </trkpt>
      <trkpt lat="45.95241" lon="4.59543">
        <ele>616</ele>
        <time>2016-12-08T08:59:19Z</time>
      </trkpt>
      <trkpt lat="45.95249" lon="4.59537">
        <ele>616</ele>
        <time>2016-12-08T08:59:30Z</time>
      </trkpt>
      <trkpt lat="45.95249" lon="4.59536">
        <ele>616</ele>
        <time>2016-12-08T08:59:31Z</time>
      </trkpt>
      <trkpt lat="45.95253" lon="4.59547">
        <ele>630</ele>
        <time>2016-12-08T08:59:47Z</time>
      </trkpt>
      <trkpt lat="45.95253" lon="4.59548">
        <ele>630</ele>
        <time>2016-12-08T08:59:48Z</time>
      </trkpt>
      <trkpt lat="45.95256" lon="4.5956">
        <ele>630</ele>
        <time>2016-12-08T08:59:58Z</time>
      </trkpt>
      <trkpt lat="45.95256" lon="4.59561">
        <ele>630</ele>
        <time>2016-12-08T08:59:59Z</time>
      </trkpt>
      <trkpt lat="45.9526" lon="4.59572">
        <ele>630</ele>
        <time>2016-12-08T09:00:13Z</time>
      </trkpt>
      <trkpt lat="45.9526" lon="4.59572">
        <ele>630</ele>
        <time>2016-12-08T09:00:14Z</time>
      </trkpt>
      <trkpt lat="45.95263" lon="4.59584">
        <ele>632</ele>
        <time>2016-12-08T09:00:27Z</time>
      </trkpt>
      <trkpt lat="45.95263" lon="4.59585">
        <ele>632</ele>
        <time>2016-12-08T09:00:28Z</time>
      </trkpt>
      <trkpt lat="45.95268" lon="4.59594">
        <ele>634</ele>
        <time>2016-12-08T09:00:38Z</time>
      </trkpt>
      <trkpt lat="45.95269" lon="4.59595">
        <ele>634</ele>
        <time>2016-12-08T09:00:39Z</time>
      </trkpt>
      <trkpt lat="45.95278" lon="4.59594">
        <ele>636</ele>
        <time>2016-12-08T09:00:53Z</time>
      </trkpt>
      <trkpt lat="45.95278" lon="4.59593">
        <ele>636</ele>
        <time>2016-12-08T09:00:54Z</time>
      </trkpt>
      <trkpt lat="45.95286" lon="4.59588">
        <ele>637</ele>
        <time>2016-12-08T09:01:06Z</time>
      </trkpt>
      <trkpt lat="45.95287" lon="4.59588">
        <ele>637</ele>
        <time>2016-12-08T09:01:07Z</time>
      </trkpt>
      <trkpt lat="45.95295" lon="4.59585">
        <ele>638</ele>
        <time>2016-12-08T09:02:34Z</time>
      </trkpt>
      <trkpt lat="45.95296" lon="4.59584">
        <ele>638</ele>
        <time>2016-12-08T09:02:35Z</time>
      </trkpt>
      <trkpt lat="45.95299" lon="4.59573">
        <ele>635</ele>
        <time>2016-12-08T09:02:43Z</time>
      </trkpt>
      <trkpt lat="45.953" lon="4.59571">
        <ele>635</ele>
        <time>2016-12-08T09:02:44Z</time>
      </trkpt>
      <trkpt lat="45.95304" lon="4.5956">
        <ele>635</ele>
        <time>2016-12-08T09:02:52Z</time>
      </trkpt>
      <trkpt lat="45.95304" lon="4.59558">
        <ele>635</ele>
        <time>2016-12-08T09:02:53Z</time>
      </trkpt>
      <trkpt lat="45.95309" lon="4.59549">
        <ele>635</ele>
        <time>2016-12-08T09:03:02Z</time>
      </trkpt>
      <trkpt lat="45.9531" lon="4.59548">
        <ele>635</ele>
        <time>2016-12-08T09:03:03Z</time>
      </trkpt>
      <trkpt lat="45.95318" lon="4.59551">
        <ele>636</ele>
        <time>2016-12-08T09:03:12Z</time>
      </trkpt>
      <trkpt lat="45.95319" lon="4.59552">
        <ele>636</ele>
        <time>2016-12-08T09:03:13Z</time>
      </trkpt>
      <trkpt lat="45.95327" lon="4.59556">
        <ele>637</ele>
        <time>2016-12-08T09:03:22Z</time>
      </trkpt>
      <trkpt lat="45.95328" lon="4.59557">
        <ele>637</ele>
        <time>2016-12-08T09:03:23Z</time>
      </trkpt>
      <trkpt lat="45.95334" lon="4.59565">
        <ele>644</ele>
        <time>2016-12-08T09:03:31Z</time>
      </trkpt>
      <trkpt lat="45.95336" lon="4.59565">
        <ele>644</ele>
        <time>2016-12-08T09:03:32Z</time>
      </trkpt>
      <trkpt lat="45.95344" lon="4.59567">
        <ele>645</ele>
        <time>2016-12-08T09:03:39Z</time>
      </trkpt>
      <trkpt lat="45.95345" lon="4.59567">
        <ele>645</ele>
        <time>2016-12-08T09:03:40Z</time>
      </trkpt>
      <trkpt lat="45.95354" lon="4.59563">
        <ele>645</ele>
        <time>2016-12-08T09:03:48Z</time>
      </trkpt>
      <trkpt lat="45.95355" lon="4.59562">
        <ele>644</ele>
        <time>2016-12-08T09:03:49Z</time>
      </trkpt>
      <trkpt lat="45.95358" lon="4.59551">
        <ele>644</ele>
        <time>2016-12-08T09:03:57Z</time>
      </trkpt>
      <trkpt lat="45.95358" lon="4.5955">
        <ele>644</ele>
        <time>2016-12-08T09:03:58Z</time>
      </trkpt>
      <trkpt lat="45.95366" lon="4.59544">
        <ele>644</ele>
        <time>2016-12-08T09:04:09Z</time>
      </trkpt>
      <trkpt lat="45.95367" lon="4.59544">
        <ele>644</ele>
        <time>2016-12-08T09:04:10Z</time>
      </trkpt>
      <trkpt lat="45.95375" lon="4.5954">
        <ele>644</ele>
        <time>2016-12-08T09:04:24Z</time>
      </trkpt>
      <trkpt lat="45.95376" lon="4.59539">
        <ele>644</ele>
        <time>2016-12-08T09:04:25Z</time>
      </trkpt>
      <trkpt lat="45.95381" lon="4.5953">
        <ele>645</ele>
        <time>2016-12-08T09:04:34Z</time>
      </trkpt>
      <trkpt lat="45.95382" lon="4.59529">
        <ele>645</ele>
        <time>2016-12-08T09:04:35Z</time>
      </trkpt>
      <trkpt lat="45.95388" lon="4.5952">
        <ele>645</ele>
        <time>2016-12-08T09:04:43Z</time>
      </trkpt>
      <trkpt lat="45.95388" lon="4.59518">
        <ele>645</ele>
        <time>2016-12-08T09:04:44Z</time>
      </trkpt>
      <trkpt lat="45.95395" lon="4.5951">
        <ele>645</ele>
        <time>2016-12-08T09:04:51Z</time>
      </trkpt>
      <trkpt lat="45.95396" lon="4.5951">
        <ele>645</ele>
        <time>2016-12-08T09:04:52Z</time>
      </trkpt>
      <trkpt lat="45.95403" lon="4.59504">
        <ele>646</ele>
        <time>2016-12-08T09:04:58Z</time>
      </trkpt>
      <trkpt lat="45.95404" lon="4.59503">
        <ele>646</ele>
        <time>2016-12-08T09:04:59Z</time>
      </trkpt>
      <trkpt lat="45.95411" lon="4.59496">
        <ele>645</ele>
        <time>2016-12-08T09:05:06Z</time>
      </trkpt>
      <trkpt lat="45.95412" lon="4.59495">
        <ele>645</ele>
        <time>2016-12-08T09:05:07Z</time>
      </trkpt>
      <trkpt lat="45.9542" lon="4.5949">
        <ele>647</ele>
        <time>2016-12-08T09:05:16Z</time>
      </trkpt>
      <trkpt lat="45.95421" lon="4.59489">
        <ele>647</ele>
        <time>2016-12-08T09:05:17Z</time>
      </trkpt>
      <trkpt lat="45.95428" lon="4.59481">
        <ele>647</ele>
        <time>2016-12-08T09:05:26Z</time>
      </trkpt>
      <trkpt lat="45.95429" lon="4.5948">
        <ele>647</ele>
        <time>2016-12-08T09:05:27Z</time>
      </trkpt>
      <trkpt lat="45.95434" lon="4.59472">
        <ele>647</ele>
        <time>2016-12-08T09:05:34Z</time>
      </trkpt>
      <trkpt lat="45.95436" lon="4.59471">
        <ele>647</ele>
        <time>2016-12-08T09:05:35Z</time>
      </trkpt>
      <trkpt lat="45.95444" lon="4.59467">
        <ele>647</ele>
        <time>2016-12-08T09:05:42Z</time>
      </trkpt>
      <trkpt lat="45.95445" lon="4.59466">
        <ele>647</ele>
        <time>2016-12-08T09:05:43Z</time>
      </trkpt>
      <trkpt lat="45.95451" lon="4.59458">
        <ele>647</ele>
        <time>2016-12-08T09:05:51Z</time>
      </trkpt>
      <trkpt lat="45.95452" lon="4.59457">
        <ele>647</ele>
        <time>2016-12-08T09:05:52Z</time>
      </trkpt>
      <trkpt lat="45.95458" lon="4.59449">
        <ele>647</ele>
        <time>2016-12-08T09:05:59Z</time>
      </trkpt>
      <trkpt lat="45.95459" lon="4.59448">
        <ele>647</ele>
        <time>2016-12-08T09:06:00Z</time>
      </trkpt>
      <trkpt lat="45.95464" lon="4.59439">
        <ele>647</ele>
        <time>2016-12-08T09:06:07Z</time>
      </trkpt>
      <trkpt lat="45.95465" lon="4.59439">
        <ele>647</ele>
        <time>2016-12-08T09:06:08Z</time>
      </trkpt>
      <trkpt lat="45.95473" lon="4.59434">
        <ele>647</ele>
        <time>2016-12-08T09:06:15Z</time>
      </trkpt>
      <trkpt lat="45.95474" lon="4.59433">
        <ele>647</ele>
        <time>2016-12-08T09:06:16Z</time>
      </trkpt>
      <trkpt lat="45.95482" lon="4.59426">
        <ele>648</ele>
        <time>2016-12-08T09:06:23Z</time>
      </trkpt>
      <trkpt lat="45.95483" lon="4.59425">
        <ele>648</ele>
        <time>2016-12-08T09:06:24Z</time>
      </trkpt>
      <trkpt lat="45.95491" lon="4.5942">
        <ele>648</ele>
        <time>2016-12-08T09:06:32Z</time>
      </trkpt>
      <trkpt lat="45.95492" lon="4.59419">
        <ele>648</ele>
        <time>2016-12-08T09:06:33Z</time>
      </trkpt>
      <trkpt lat="45.95499" lon="4.59412">
        <ele>648</ele>
        <time>2016-12-08T09:06:41Z</time>
      </trkpt>
      <trkpt lat="45.955" lon="4.59411">
        <ele>648</ele>
        <time>2016-12-08T09:06:42Z</time>
      </trkpt>
      <trkpt lat="45.95507" lon="4.59403">
        <ele>647</ele>
        <time>2016-12-08T09:06:49Z</time>
      </trkpt>
      <trkpt lat="45.95508" lon="4.59403">
        <ele>647</ele>
        <time>2016-12-08T09:06:50Z</time>
      </trkpt>
      <trkpt lat="45.95515" lon="4.59396">
        <ele>647</ele>
        <time>2016-12-08T09:06:59Z</time>
      </trkpt>
      <trkpt lat="45.95516" lon="4.59395">
        <ele>647</ele>
        <time>2016-12-08T09:07:00Z</time>
      </trkpt>
      <trkpt lat="45.95524" lon="4.59391">
        <ele>646</ele>
        <time>2016-12-08T09:07:18Z</time>
      </trkpt>
      <trkpt lat="45.95525" lon="4.59391">
        <ele>646</ele>
        <time>2016-12-08T09:07:19Z</time>
      </trkpt>
      <trkpt lat="45.95533" lon="4.59386">
        <ele>646</ele>
        <time>2016-12-08T09:07:28Z</time>
      </trkpt>
      <trkpt lat="45.95534" lon="4.59385">
        <ele>646</ele>
        <time>2016-12-08T09:07:29Z</time>
      </trkpt>
      <trkpt lat="45.95542" lon="4.5938">
        <ele>646</ele>
        <time>2016-12-08T09:09:53Z</time>
      </trkpt>
      <trkpt lat="45.95542" lon="4.5938">
        <ele>646</ele>
        <time>2016-12-08T09:09:54Z</time>
      </trkpt>
      <trkpt lat="45.95549" lon="4.59373">
        <ele>645</ele>
        <time>2016-12-08T09:10:06Z</time>
      </trkpt>
      <trkpt lat="45.9555" lon="4.59373">
        <ele>645</ele>
        <time>2016-12-08T09:10:07Z</time>
      </trkpt>
      <trkpt lat="45.95557" lon="4.59367">
        <ele>645</ele>
        <time>2016-12-08T09:10:15Z</time>
      </trkpt>
      <trkpt lat="45.95559" lon="4.59367">
        <ele>645</ele>
        <time>2016-12-08T09:10:16Z</time>
      </trkpt>
      <trkpt lat="45.95566" lon="4.59363">
        <ele>645</ele>
        <time>2016-12-08T09:10:23Z</time>
      </trkpt>
      <trkpt lat="45.95567" lon="4.59362">
        <ele>645</ele>
        <time>2016-12-08T09:10:24Z</time>
      </trkpt>
      <trkpt lat="45.95575" lon="4.59359">
        <ele>645</ele>
        <time>2016-12-08T09:10:31Z</time>
      </trkpt>
      <trkpt lat="45.95576" lon="4.59359">
        <ele>645</ele>
        <time>2016-12-08T09:10:32Z</time>
      </trkpt>
      <trkpt lat="45.95584" lon="4.59357">
        <ele>644</ele>
        <time>2016-12-08T09:10:39Z</time>
      </trkpt>
      <trkpt lat="45.95585" lon="4.59357">
        <ele>644</ele>
        <time>2016-12-08T09:10:40Z</time>
      </trkpt>
      <trkpt lat="45.95593" lon="4.59352">
        <ele>644</ele>
        <time>2016-12-08T09:10:47Z</time>
      </trkpt>
      <trkpt lat="45.95594" lon="4.59351">
        <ele>644</ele>
        <time>2016-12-08T09:10:48Z</time>
      </trkpt>
      <trkpt lat="45.95602" lon="4.59344">
        <ele>644</ele>
        <time>2016-12-08T09:10:55Z</time>
      </trkpt>
      <trkpt lat="45.95603" lon="4.59343">
        <ele>644</ele>
        <time>2016-12-08T09:10:56Z</time>
      </trkpt>
      <trkpt lat="45.9561" lon="4.59338">
        <ele>644</ele>
        <time>2016-12-08T09:11:02Z</time>
      </trkpt>
      <trkpt lat="45.95612" lon="4.59338">
        <ele>644</ele>
        <time>2016-12-08T09:11:03Z</time>
      </trkpt>
      <trkpt lat="45.9562" lon="4.59336">
        <ele>644</ele>
        <time>2016-12-08T09:11:10Z</time>
      </trkpt>
      <trkpt lat="45.95622" lon="4.59336">
        <ele>644</ele>
        <time>2016-12-08T09:11:11Z</time>
      </trkpt>
      <trkpt lat="45.9563" lon="4.59336">
        <ele>644</ele>
        <time>2016-12-08T09:11:17Z</time>
      </trkpt>
      <trkpt lat="45.95631" lon="4.59336">
        <ele>644</ele>
        <time>2016-12-08T09:11:18Z</time>
      </trkpt>
      <trkpt lat="45.95638" lon="4.59332">
        <ele>639</ele>
        <time>2016-12-08T09:11:24Z</time>
      </trkpt>
      <trkpt lat="45.9564" lon="4.59331">
        <ele>639</ele>
        <time>2016-12-08T09:11:25Z</time>
      </trkpt>
      <trkpt lat="45.95647" lon="4.59325">
        <ele>639</ele>
        <time>2016-12-08T09:11:32Z</time>
      </trkpt>
      <trkpt lat="45.95648" lon="4.59325">
        <ele>639</ele>
        <time>2016-12-08T09:11:33Z</time>
      </trkpt>
      <trkpt lat="45.95655" lon="4.59319">
        <ele>639</ele>
        <time>2016-12-08T09:11:39Z</time>
      </trkpt>
      <trkpt lat="45.95656" lon="4.59318">
        <ele>639</ele>
        <time>2016-12-08T09:11:40Z</time>
      </trkpt>
      <trkpt lat="45.95662" lon="4.59311">
        <ele>639</ele>
        <time>2016-12-08T09:11:46Z</time>
      </trkpt>
      <trkpt lat="45.95663" lon="4.5931">
        <ele>638</ele>
        <time>2016-12-08T09:11:47Z</time>
      </trkpt>
      <trkpt lat="45.9567" lon="4.59305">
        <ele>637</ele>
        <time>2016-12-08T09:11:53Z</time>
      </trkpt>
      <trkpt lat="45.95672" lon="4.59304">
        <ele>637</ele>
        <time>2016-12-08T09:11:54Z</time>
      </trkpt>
      <trkpt lat="45.9568" lon="4.59299">
        <ele>637</ele>
        <time>2016-12-08T09:12:00Z</time>
      </trkpt>
      <trkpt lat="45.95681" lon="4.59299">
        <ele>637</ele>
        <time>2016-12-08T09:12:01Z</time>
      </trkpt>
      <trkpt lat="45.95689" lon="4.59297">
        <ele>636</ele>
        <time>2016-12-08T09:12:08Z</time>
      </trkpt>
      <trkpt lat="45.9569" lon="4.59296">
        <ele>636</ele>
        <time>2016-12-08T09:12:09Z</time>
      </trkpt>
      <trkpt lat="45.95698" lon="4.59295">
        <ele>636</ele>
        <time>2016-12-08T09:12:16Z</time>
      </trkpt>
      <trkpt lat="45.95699" lon="4.59295">
        <ele>636</ele>
        <time>2016-12-08T09:12:17Z</time>
      </trkpt>
      <trkpt lat="45.95707" lon="4.59292">
        <ele>636</ele>
        <time>2016-12-08T09:12:23Z</time>
      </trkpt>
      <trkpt lat="45.95708" lon="4.59292">
        <ele>636</ele>
        <time>2016-12-08T09:12:24Z</time>
      </trkpt>
      <trkpt lat="45.95715" lon="4.59286">
        <ele>636</ele>
        <time>2016-12-08T09:12:30Z</time>
      </trkpt>
      <trkpt lat="45.95717" lon="4.59286">
        <ele>636</ele>
        <time>2016-12-08T09:12:31Z</time>
      </trkpt>
      <trkpt lat="45.95725" lon="4.59282">
        <ele>635</ele>
        <time>2016-12-08T09:12:38Z</time>
      </trkpt>
      <trkpt lat="45.95726" lon="4.59282">
        <ele>635</ele>
        <time>2016-12-08T09:12:39Z</time>
      </trkpt>
      <trkpt lat="45.95735" lon="4.59278">
        <ele>635</ele>
        <time>2016-12-08T09:12:46Z</time>
      </trkpt>
      <trkpt lat="45.95736" lon="4.59278">
        <ele>635</ele>
        <time>2016-12-08T09:12:47Z</time>
      </trkpt>
      <trkpt lat="45.95743" lon="4.59275">
        <ele>635</ele>
        <time>2016-12-08T09:12:53Z</time>
      </trkpt>
      <trkpt lat="45.95745" lon="4.59274">
        <ele>635</ele>
        <time>2016-12-08T09:12:54Z</time>
      </trkpt>
      <trkpt lat="45.95752" lon="4.59269">
        <ele>634</ele>
        <time>2016-12-08T09:13:00Z</time>
      </trkpt>
      <trkpt lat="45.95753" lon="4.59268">
        <ele>634</ele>
        <time>2016-12-08T09:13:01Z</time>
      </trkpt>
      <trkpt lat="45.9576" lon="4.59264">
        <ele>634</ele>
        <time>2016-12-08T09:13:07Z</time>
      </trkpt>
      <trkpt lat="45.95762" lon="4.59263">
        <ele>634</ele>
        <time>2016-12-08T09:13:08Z</time>
      </trkpt>
      <trkpt lat="45.9577" lon="4.59258">
        <ele>633</ele>
        <time>2016-12-08T09:13:15Z</time>
      </trkpt>
      <trkpt lat="45.9577" lon="4.59257">
        <ele>633</ele>
        <time>2016-12-08T09:13:16Z</time>
      </trkpt>
      <trkpt lat="45.95778" lon="4.59252">
        <ele>633</ele>
        <time>2016-12-08T09:13:24Z</time>
      </trkpt>
      <trkpt lat="45.95779" lon="4.59251">
        <ele>633</ele>
        <time>2016-12-08T09:13:25Z</time>
      </trkpt>
      <trkpt lat="45.95787" lon="4.59245">
        <ele>631</ele>
        <time>2016-12-08T09:13:32Z</time>
      </trkpt>
      <trkpt lat="45.95788" lon="4.59245">
        <ele>631</ele>
        <time>2016-12-08T09:13:33Z</time>
      </trkpt>
      <trkpt lat="45.95796" lon="4.59241">
        <ele>631</ele>
        <time>2016-12-08T09:13:39Z</time>
      </trkpt>
      <trkpt lat="45.95797" lon="4.59241">
        <ele>631</ele>
        <time>2016-12-08T09:13:40Z</time>
      </trkpt>
      <trkpt lat="45.95806" lon="4.59242">
        <ele>631</ele>
        <time>2016-12-08T09:13:47Z</time>
      </trkpt>
      <trkpt lat="45.95807" lon="4.59242">
        <ele>631</ele>
        <time>2016-12-08T09:13:48Z</time>
      </trkpt>
      <trkpt lat="45.95815" lon="4.5924">
        <ele>631</ele>
        <time>2016-12-08T09:13:55Z</time>
      </trkpt>
      <trkpt lat="45.95816" lon="4.5924">
        <ele>631</ele>
        <time>2016-12-08T09:13:56Z</time>
      </trkpt>
      <trkpt lat="45.95825" lon="4.59241">
        <ele>631</ele>
        <time>2016-12-08T09:14:03Z</time>
      </trkpt>
      <trkpt lat="45.95826" lon="4.5924">
        <ele>631</ele>
        <time>2016-12-08T09:14:04Z</time>
      </trkpt>
      <trkpt lat="45.95835" lon="4.59238">
        <ele>631</ele>
        <time>2016-12-08T09:14:11Z</time>
      </trkpt>
      <trkpt lat="45.95836" lon="4.59237">
        <ele>631</ele>
        <time>2016-12-08T09:14:12Z</time>
      </trkpt>
      <trkpt lat="45.95844" lon="4.59233">
        <ele>631</ele>
        <time>2016-12-08T09:14:19Z</time>
      </trkpt>
      <trkpt lat="45.95846" lon="4.59233">
        <ele>631</ele>
        <time>2016-12-08T09:14:20Z</time>
      </trkpt>
      <trkpt lat="45.95854" lon="4.59229">
        <ele>631</ele>
        <time>2016-12-08T09:14:28Z</time>
      </trkpt>
      <trkpt lat="45.95855" lon="4.59229">
        <ele>631</ele>
        <time>2016-12-08T09:14:29Z</time>
      </trkpt>
      <trkpt lat="45.95862" lon="4.59225">
        <ele>631</ele>
        <time>2016-12-08T09:14:35Z</time>
      </trkpt>
      <trkpt lat="45.95863" lon="4.59224">
        <ele>631</ele>
        <time>2016-12-08T09:14:36Z</time>
      </trkpt>
      <trkpt lat="45.9587" lon="4.59218">
        <ele>631</ele>
        <time>2016-12-08T09:14:41Z</time>
      </trkpt>
      <trkpt lat="45.95871" lon="4.59217">
        <ele>631</ele>
        <time>2016-12-08T09:14:42Z</time>
      </trkpt>
      <trkpt lat="45.95878" lon="4.59212">
        <ele>631</ele>
        <time>2016-12-08T09:14:47Z</time>
      </trkpt>
      <trkpt lat="45.95879" lon="4.59211">
        <ele>631</ele>
        <time>2016-12-08T09:14:48Z</time>
      </trkpt>
      <trkpt lat="45.95887" lon="4.59206">
        <ele>631</ele>
        <time>2016-12-08T09:14:54Z</time>
      </trkpt>
      <trkpt lat="45.95888" lon="4.59205">
        <ele>631</ele>
        <time>2016-12-08T09:14:55Z</time>
      </trkpt>
      <trkpt lat="45.95896" lon="4.59201">
        <ele>631</ele>
        <time>2016-12-08T09:15:02Z</time>
      </trkpt>
      <trkpt lat="45.95897" lon="4.592">
        <ele>631</ele>
        <time>2016-12-08T09:15:03Z</time>
      </trkpt>
      <trkpt lat="45.95905" lon="4.59195">
        <ele>630</ele>
        <time>2016-12-08T09:15:10Z</time>
      </trkpt>
      <trkpt lat="45.95906" lon="4.59194">
        <ele>630</ele>
        <time>2016-12-08T09:15:11Z</time>
      </trkpt>
      <trkpt lat="45.95912" lon="4.59186">
        <ele>630</ele>
        <time>2016-12-08T09:15:18Z</time>
      </trkpt>
      <trkpt lat="45.95913" lon="4.59185">
        <ele>630</ele>
        <time>2016-12-08T09:15:19Z</time>
      </trkpt>
      <trkpt lat="45.9592" lon="4.5918">
        <ele>631</ele>
        <time>2016-12-08T09:15:24Z</time>
      </trkpt>
      <trkpt lat="45.95921" lon="4.59179">
        <ele>630</ele>
        <time>2016-12-08T09:15:25Z</time>
      </trkpt>
      <trkpt lat="45.95929" lon="4.59175">
        <ele>631</ele>
        <time>2016-12-08T09:15:31Z</time>
      </trkpt>
      <trkpt lat="45.9593" lon="4.59174">
        <ele>631</ele>
        <time>2016-12-08T09:15:32Z</time>
      </trkpt>
      <trkpt lat="45.95938" lon="4.59169">
        <ele>631</ele>
        <time>2016-12-08T09:15:39Z</time>
      </trkpt>
      <trkpt lat="45.95939" lon="4.59168">
        <ele>631</ele>
        <time>2016-12-08T09:15:40Z</time>
      </trkpt>
      <trkpt lat="45.95945" lon="4.59162">
        <ele>629</ele>
        <time>2016-12-08T09:15:46Z</time>
      </trkpt>
      <trkpt lat="45.95947" lon="4.59161">
        <ele>629</ele>
        <time>2016-12-08T09:15:47Z</time>
      </trkpt>
      <trkpt lat="45.95954" lon="4.59157">
        <ele>629</ele>
        <time>2016-12-08T09:15:54Z</time>
      </trkpt>
      <trkpt lat="45.95955" lon="4.59156">
        <ele>629</ele>
        <time>2016-12-08T09:15:55Z</time>
      </trkpt>
      <trkpt lat="45.95961" lon="4.59147">
        <ele>629</ele>
        <time>2016-12-08T09:16:18Z</time>
      </trkpt>
      <trkpt lat="45.95962" lon="4.59146">
        <ele>629</ele>
        <time>2016-12-08T09:16:19Z</time>
      </trkpt>
      <trkpt lat="45.9597" lon="4.59143">
        <ele>629</ele>
        <time>2016-12-08T09:16:27Z</time>
      </trkpt>
      <trkpt lat="45.95971" lon="4.59142">
        <ele>629</ele>
        <time>2016-12-08T09:16:28Z</time>
      </trkpt>
      <trkpt lat="45.95979" lon="4.59137">
        <ele>629</ele>
        <time>2016-12-08T09:16:36Z</time>
      </trkpt>
      <trkpt lat="45.9598" lon="4.59136">
        <ele>629</ele>
        <time>2016-12-08T09:16:37Z</time>
      </trkpt>
      <trkpt lat="45.95988" lon="4.5913">
        <ele>629</ele>
        <time>2016-12-08T09:16:45Z</time>
      </trkpt>
      <trkpt lat="45.95989" lon="4.5913">
        <ele>629</ele>
        <time>2016-12-08T09:16:46Z</time>
      </trkpt>
      <trkpt lat="45.95997" lon="4.59125">
        <ele>629</ele>
        <time>2016-12-08T09:16:54Z</time>
      </trkpt>
      <trkpt lat="45.95998" lon="4.59125">
        <ele>629</ele>
        <time>2016-12-08T09:16:55Z</time>
      </trkpt>
      <trkpt lat="45.96005" lon="4.59118">
        <ele>630</ele>
        <time>2016-12-08T09:17:02Z</time>
      </trkpt>
      <trkpt lat="45.96006" lon="4.59117">
        <ele>630</ele>
        <time>2016-12-08T09:17:03Z</time>
      </trkpt>
      <trkpt lat="45.96013" lon="4.5911">
        <ele>629</ele>
        <time>2016-12-08T09:17:10Z</time>
      </trkpt>
      <trkpt lat="45.96014" lon="4.59109">
        <ele>629</ele>
        <time>2016-12-08T09:17:11Z</time>
      </trkpt>
      <trkpt lat="45.9602" lon="4.59101">
        <ele>629</ele>
        <time>2016-12-08T09:17:18Z</time>
      </trkpt>
      <trkpt lat="45.96021" lon="4.591">
        <ele>629</ele>
        <time>2016-12-08T09:17:19Z</time>
      </trkpt>
      <trkpt lat="45.96028" lon="4.59096">
        <ele>629</ele>
        <time>2016-12-08T09:17:26Z</time>
      </trkpt>
      <trkpt lat="45.9603" lon="4.59096">
        <ele>629</ele>
        <time>2016-12-08T09:17:27Z</time>
      </trkpt>
      <trkpt lat="45.96037" lon="4.59089">
        <ele>628</ele>
        <time>2016-12-08T09:17:34Z</time>
      </trkpt>
      <trkpt lat="45.96038" lon="4.59088">
        <ele>628</ele>
        <time>2016-12-08T09:17:35Z</time>
      </trkpt>
      <trkpt lat="45.96046" lon="4.59085">
        <ele>628</ele>
        <time>2016-12-08T09:17:42Z</time>
      </trkpt>
      <trkpt lat="45.96047" lon="4.59085">
        <ele>628</ele>
        <time>2016-12-08T09:17:43Z</time>
      </trkpt>
      <trkpt lat="45.96055" lon="4.59082">
        <ele>622</ele>
        <time>2016-12-08T09:17:50Z</time>
      </trkpt>
      <trkpt lat="45.96056" lon="4.59081">
        <ele>622</ele>
        <time>2016-12-08T09:17:51Z</time>
      </trkpt>
      <trkpt lat="45.96063" lon="4.59075">
        <ele>622</ele>
        <time>2016-12-08T09:18:05Z</time>
      </trkpt>
      <trkpt lat="45.96064" lon="4.59074">
        <ele>622</ele>
        <time>2016-12-08T09:18:06Z</time>
      </trkpt>
      <trkpt lat="45.96071" lon="4.59067">
        <ele>621</ele>
        <time>2016-12-08T09:18:13Z</time>
      </trkpt>
      <trkpt lat="45.96072" lon="4.59066">
        <ele>621</ele>
        <time>2016-12-08T09:18:14Z</time>
      </trkpt>
      <trkpt lat="45.9608" lon="4.5906">
        <ele>621</ele>
        <time>2016-12-08T09:18:20Z</time>
      </trkpt>
      <trkpt lat="45.96081" lon="4.59059">
        <ele>621</ele>
        <time>2016-12-08T09:18:21Z</time>
      </trkpt>
      <trkpt lat="45.96089" lon="4.59051">
        <ele>617</ele>
        <time>2016-12-08T09:18:27Z</time>
      </trkpt>
      <trkpt lat="45.9609" lon="4.5905">
        <ele>617</ele>
        <time>2016-12-08T09:18:28Z</time>
      </trkpt>
      <trkpt lat="45.96097" lon="4.59043">
        <ele>616</ele>
        <time>2016-12-08T09:18:34Z</time>
      </trkpt>
      <trkpt lat="45.96098" lon="4.59042">
        <ele>616</ele>
        <time>2016-12-08T09:18:35Z</time>
      </trkpt>
      <trkpt lat="45.96105" lon="4.59035">
        <ele>615</ele>
        <time>2016-12-08T09:18:42Z</time>
      </trkpt>
      <trkpt lat="45.96106" lon="4.59035">
        <ele>615</ele>
        <time>2016-12-08T09:18:43Z</time>
      </trkpt>
      <trkpt lat="45.96115" lon="4.5903">
        <ele>614</ele>
        <time>2016-12-08T09:18:50Z</time>
      </trkpt>
      <trkpt lat="45.96116" lon="4.5903">
        <ele>614</ele>
        <time>2016-12-08T09:18:51Z</time>
      </trkpt>
      <trkpt lat="45.96124" lon="4.59025">
        <ele>614</ele>
        <time>2016-12-08T09:19:00Z</time>
      </trkpt>
      <trkpt lat="45.96125" lon="4.59024">
        <ele>614</ele>
        <time>2016-12-08T09:19:01Z</time>
      </trkpt>
      <trkpt lat="45.96132" lon="4.59019">
        <ele>613</ele>
        <time>2016-12-08T09:19:07Z</time>
      </trkpt>
      <trkpt lat="45.96133" lon="4.59019">
        <ele>613</ele>
        <time>2016-12-08T09:19:08Z</time>
      </trkpt>
      <trkpt lat="45.96141" lon="4.59014">
        <ele>613</ele>
        <time>2016-12-08T09:19:16Z</time>
      </trkpt>
      <trkpt lat="45.96142" lon="4.59013">
        <ele>613</ele>
        <time>2016-12-08T09:19:17Z</time>
      </trkpt>
      <trkpt lat="45.96147" lon="4.59004">
        <ele>612</ele>
        <time>2016-12-08T09:19:24Z</time>
      </trkpt>
      <trkpt lat="45.96147" lon="4.59002">
        <ele>612</ele>
        <time>2016-12-08T09:19:25Z</time>
      </trkpt>
      <trkpt lat="45.9615" lon="4.58991">
        <ele>606</ele>
        <time>2016-12-08T09:19:33Z</time>
      </trkpt>
      <trkpt lat="45.9615" lon="4.58989">
        <ele>606</ele>
        <time>2016-12-08T09:19:34Z</time>
      </trkpt>
      <trkpt lat="45.96152" lon="4.58977">
        <ele>606</ele>
        <time>2016-12-08T09:19:41Z</time>
      </trkpt>
      <trkpt lat="45.96153" lon="4.58976">
        <ele>606</ele>
        <time>2016-12-08T09:19:42Z</time>
      </trkpt>
      <trkpt lat="45.96154" lon="4.58964">
        <ele>605</ele>
        <time>2016-12-08T09:19:48Z</time>
      </trkpt>
      <trkpt lat="45.96155" lon="4.58963">
        <ele>605</ele>
        <time>2016-12-08T09:19:49Z</time>
      </trkpt>
      <trkpt lat="45.96163" lon="4.58958">
        <ele>605</ele>
        <time>2016-12-08T09:19:56Z</time>
      </trkpt>
      <trkpt lat="45.96164" lon="4.58957">
        <ele>605</ele>
        <time>2016-12-08T09:19:57Z</time>
      </trkpt>
      <trkpt lat="45.96172" lon="4.58954">
        <ele>606</ele>
        <time>2016-12-08T09:20:03Z</time>
      </trkpt>
      <trkpt lat="45.96173" lon="4.58953">
        <ele>606</ele>
        <time>2016-12-08T09:20:04Z</time>
      </trkpt>
      <trkpt lat="45.96181" lon="4.58952">
        <ele>606</ele>
        <time>2016-12-08T09:20:10Z</time>
      </trkpt>
      <trkpt lat="45.96182" lon="4.58952">
        <ele>606</ele>
        <time>2016-12-08T09:20:11Z</time>
      </trkpt>
      <trkpt lat="45.9619" lon="4.5895">
        <ele>606</ele>
        <time>2016-12-08T09:20:18Z</time>
      </trkpt>
      <trkpt lat="45.96191" lon="4.58949">
        <ele>606</ele>
        <time>2016-12-08T09:20:19Z</time>
      </trkpt>
      <trkpt lat="45.962" lon="4.58946">
        <ele>606</ele>
        <time>2016-12-08T09:20:27Z</time>
      </trkpt>
      <trkpt lat="45.96201" lon="4.58946">
        <ele>606</ele>
        <time>2016-12-08T09:20:28Z</time>
      </trkpt>
      <trkpt lat="45.96209" lon="4.58945">
        <ele>606</ele>
        <time>2016-12-08T09:20:36Z</time>
      </trkpt>
      <trkpt lat="45.9621" lon="4.58944">
        <ele>606</ele>
        <time>2016-12-08T09:20:37Z</time>
      </trkpt>
      <trkpt lat="45.96218" lon="4.58941">
        <ele>606</ele>
        <time>2016-12-08T09:20:44Z</time>
      </trkpt>
      <trkpt lat="45.96219" lon="4.5894">
        <ele>606</ele>
        <time>2016-12-08T09:20:45Z</time>
      </trkpt>
      <trkpt lat="45.96228" lon="4.58936">
        <ele>606</ele>
        <time>2016-12-08T09:20:52Z</time>
      </trkpt>
      <trkpt lat="45.96229" lon="4.58936">
        <ele>606</ele>
        <time>2016-12-08T09:20:53Z</time>
      </trkpt>
      <trkpt lat="45.96237" lon="4.58933">
        <ele>606</ele>
        <time>2016-12-08T09:21:00Z</time>
      </trkpt>
      <trkpt lat="45.96238" lon="4.58932">
        <ele>606</ele>
        <time>2016-12-08T09:21:01Z</time>
      </trkpt>
      <trkpt lat="45.96245" lon="4.58928">
        <ele>606</ele>
        <time>2016-12-08T09:21:07Z</time>
      </trkpt>
      <trkpt lat="45.96247" lon="4.58927">
        <ele>606</ele>
        <time>2016-12-08T09:21:08Z</time>
      </trkpt>
      <trkpt lat="45.96255" lon="4.58922">
        <ele>607</ele>
        <time>2016-12-08T09:21:15Z</time>
      </trkpt>
      <trkpt lat="45.96256" lon="4.58921">
        <ele>607</ele>
        <time>2016-12-08T09:21:16Z</time>
      </trkpt>
      <trkpt lat="45.96263" lon="4.58916">
        <ele>605</ele>
        <time>2016-12-08T09:21:23Z</time>
      </trkpt>
      <trkpt lat="45.96265" lon="4.58915">
        <ele>605</ele>
        <time>2016-12-08T09:21:24Z</time>
      </trkpt>
      <trkpt lat="45.96272" lon="4.58909">
        <ele>605</ele>
        <time>2016-12-08T09:21:30Z</time>
      </trkpt>
      <trkpt lat="45.96273" lon="4.58908">
        <ele>605</ele>
        <time>2016-12-08T09:21:31Z</time>
      </trkpt>
      <trkpt lat="45.9628" lon="4.58902">
        <ele>605</ele>
        <time>2016-12-08T09:21:37Z</time>
      </trkpt>
      <trkpt lat="45.96282" lon="4.58902">
        <ele>605</ele>
        <time>2016-12-08T09:21:38Z</time>
      </trkpt>
      <trkpt lat="45.96288" lon="4.58897">
        <ele>605</ele>
        <time>2016-12-08T09:21:43Z</time>
      </trkpt>
      <trkpt lat="45.9629" lon="4.58896">
        <ele>605</ele>
        <time>2016-12-08T09:21:44Z</time>
      </trkpt>
      <trkpt lat="45.96298" lon="4.58892">
        <ele>605</ele>
        <time>2016-12-08T09:21:50Z</time>
      </trkpt>
      <trkpt lat="45.96299" lon="4.58892">
        <ele>605</ele>
        <time>2016-12-08T09:21:51Z</time>
      </trkpt>
      <trkpt lat="45.96307" lon="4.5889">
        <ele>605</ele>
        <time>2016-12-08T09:21:57Z</time>
      </trkpt>
      <trkpt lat="45.96309" lon="4.58889">
        <ele>605</ele>
        <time>2016-12-08T09:21:58Z</time>
      </trkpt>
      <trkpt lat="45.96316" lon="4.58886">
        <ele>605</ele>
        <time>2016-12-08T09:22:04Z</time>
      </trkpt>
      <trkpt lat="45.96317" lon="4.58885">
        <ele>605</ele>
        <time>2016-12-08T09:22:05Z</time>
      </trkpt>
      <trkpt lat="45.96324" lon="4.5888">
        <ele>605</ele>
        <time>2016-12-08T09:22:10Z</time>
      </trkpt>
      <trkpt lat="45.96326" lon="4.58879">
        <ele>605</ele>
        <time>2016-12-08T09:22:11Z</time>
      </trkpt>
      <trkpt lat="45.96334" lon="4.58875">
        <ele>605</ele>
        <time>2016-12-08T09:22:17Z</time>
      </trkpt>
      <trkpt lat="45.96335" lon="4.58874">
        <ele>605</ele>
        <time>2016-12-08T09:22:18Z</time>
      </trkpt>
      <trkpt lat="45.96344" lon="4.58874">
        <ele>605</ele>
        <time>2016-12-08T09:22:24Z</time>
      </trkpt>
      <trkpt lat="45.96346" lon="4.58873">
        <ele>605</ele>
        <time>2016-12-08T09:22:25Z</time>
      </trkpt>
      <trkpt lat="45.96353" lon="4.5887">
        <ele>605</ele>
        <time>2016-12-08T09:22:30Z</time>
      </trkpt>
      <trkpt lat="45.96354" lon="4.5887">
        <ele>605</ele>
        <time>2016-12-08T09:22:31Z</time>
      </trkpt>
      <trkpt lat="45.96362" lon="4.58868">
        <ele>605</ele>
        <time>2016-12-08T09:22:36Z</time>
      </trkpt>
      <trkpt lat="45.96363" lon="4.58867">
        <ele>605</ele>
        <time>2016-12-08T09:22:37Z</time>
      </trkpt>
      <trkpt lat="45.96372" lon="4.58865">
        <ele>605</ele>
        <time>2016-12-08T09:22:43Z</time>
      </trkpt>
      <trkpt lat="45.96373" lon="4.58865">
        <ele>605</ele>
        <time>2016-12-08T09:22:44Z</time>
      </trkpt>
      <trkpt lat="45.96381" lon="4.58863">
        <ele>605</ele>
        <time>2016-12-08T09:22:50Z</time>
      </trkpt>
      <trkpt lat="45.96382" lon="4.58862">
        <ele>605</ele>
        <time>2016-12-08T09:22:51Z</time>
      </trkpt>
      <trkpt lat="45.9639" lon="4.58861">
        <ele>605</ele>
        <time>2016-12-08T09:22:57Z</time>
      </trkpt>
      <trkpt lat="45.96391" lon="4.58861">
        <ele>605</ele>
        <time>2016-12-08T09:22:58Z</time>
      </trkpt>
      <trkpt lat="45.964" lon="4.58862">
        <ele>605</ele>
        <time>2016-12-08T09:23:04Z</time>
      </trkpt>
      <trkpt lat="45.96401" lon="4.58863">
        <ele>605</ele>
        <time>2016-12-08T09:23:05Z</time>
      </trkpt>
      <trkpt lat="45.9641" lon="4.58865">
        <ele>605</ele>
        <time>2016-12-08T09:23:12Z</time>
      </trkpt>
      <trkpt lat="45.96411" lon="4.58865">
        <ele>605</ele>
        <time>2016-12-08T09:23:13Z</time>
      </trkpt>
      <trkpt lat="45.96419" lon="4.58864">
        <ele>605</ele>
        <time>2016-12-08T09:23:19Z</time>
      </trkpt>
      <trkpt lat="45.9642" lon="4.58864">
        <ele>605</ele>
        <time>2016-12-08T09:23:20Z</time>
      </trkpt>
      <trkpt lat="45.96428" lon="4.58863">
        <ele>605</ele>
        <time>2016-12-08T09:23:26Z</time>
      </trkpt>
      <trkpt lat="45.9643" lon="4.58863">
        <ele>605</ele>
        <time>2016-12-08T09:23:27Z</time>
      </trkpt>
      <trkpt lat="45.96438" lon="4.58861">
        <ele>605</ele>
        <time>2016-12-08T09:23:33Z</time>
      </trkpt>
      <trkpt lat="45.96439" lon="4.58861">
        <ele>605</ele>
        <time>2016-12-08T09:23:34Z</time>
      </trkpt>
      <trkpt lat="45.96448" lon="4.58859">
        <ele>605</ele>
        <time>2016-12-08T09:23:40Z</time>
      </trkpt>
      <trkpt lat="45.96449" lon="4.58858">
        <ele>605</ele>
        <time>2016-12-08T09:23:41Z</time>
      </trkpt>
      <trkpt lat="45.96457" lon="4.58855">
        <ele>605</ele>
        <time>2016-12-08T09:23:47Z</time>
      </trkpt>
      <trkpt lat="45.96458" lon="4.58855">
        <ele>605</ele>
        <time>2016-12-08T09:23:48Z</time>
      </trkpt>
      <trkpt lat="45.96467" lon="4.58857">
        <ele>605</ele>
        <time>2016-12-08T09:23:55Z</time>
      </trkpt>
      <trkpt lat="45.96468" lon="4.58857">
        <ele>605</ele>
        <time>2016-12-08T09:23:56Z</time>
      </trkpt>
      <trkpt lat="45.96476" lon="4.5886">
        <ele>606</ele>
        <time>2016-12-08T09:24:03Z</time>
      </trkpt>
      <trkpt lat="45.96478" lon="4.58861">
        <ele>606</ele>
        <time>2016-12-08T09:24:04Z</time>
      </trkpt>
      <trkpt lat="45.96485" lon="4.58865">
        <ele>606</ele>
        <time>2016-12-08T09:24:10Z</time>
      </trkpt>
      <trkpt lat="45.96487" lon="4.58865">
        <ele>606</ele>
        <time>2016-12-08T09:24:11Z</time>
      </trkpt>
      <trkpt lat="45.96494" lon="4.58867">
        <ele>606</ele>
        <time>2016-12-08T09:24:16Z</time>
      </trkpt>
      <trkpt lat="45.96496" lon="4.58867">
        <ele>606</ele>
        <time>2016-12-08T09:24:17Z</time>
      </trkpt>
      <trkpt lat="45.96504" lon="4.58868">
        <ele>605</ele>
        <time>2016-12-08T09:24:23Z</time>
      </trkpt>
      <trkpt lat="45.96505" lon="4.58869">
        <ele>605</ele>
        <time>2016-12-08T09:24:24Z</time>
      </trkpt>
      <trkpt lat="45.96513" lon="4.58873">
        <ele>605</ele>
        <time>2016-12-08T09:24:31Z</time>
      </trkpt>
      <trkpt lat="45.96514" lon="4.58873">
        <ele>605</ele>
        <time>2016-12-08T09:24:32Z</time>
      </trkpt>
      <trkpt lat="45.96522" lon="4.58875">
        <ele>605</ele>
        <time>2016-12-08T09:24:38Z</time>
      </trkpt>
      <trkpt lat="45.96524" lon="4.58875">
        <ele>605</ele>
        <time>2016-12-08T09:24:39Z</time>
      </trkpt>
      <trkpt lat="45.96531" lon="4.58879">
        <ele>605</ele>
        <time>2016-12-08T09:24:44Z</time>
      </trkpt>
      <trkpt lat="45.96533" lon="4.58879">
        <ele>605</ele>
        <time>2016-12-08T09:24:45Z</time>
      </trkpt>
      <trkpt lat="45.9654" lon="4.58882">
        <ele>605</ele>
        <time>2016-12-08T09:24:51Z</time>
      </trkpt>
      <trkpt lat="45.96542" lon="4.58883">
        <ele>605</ele>
        <time>2016-12-08T09:24:52Z</time>
      </trkpt>
      <trkpt lat="45.96551" lon="4.58884">
        <ele>604</ele>
        <time>2016-12-08T09:24:58Z</time>
      </trkpt>
      <trkpt lat="45.96552" lon="4.58884">
        <ele>604</ele>
        <time>2016-12-08T09:24:59Z</time>
      </trkpt>
      <trkpt lat="45.96561" lon="4.58884">
        <ele>604</ele>
        <time>2016-12-08T09:25:05Z</time>
      </trkpt>
      <trkpt lat="45.96562" lon="4.58884">
        <ele>604</ele>
        <time>2016-12-08T09:25:06Z</time>
      </trkpt>
      <trkpt lat="45.9657" lon="4.58884">
        <ele>604</ele>
        <time>2016-12-08T09:25:12Z</time>
      </trkpt>
      <trkpt lat="45.96571" lon="4.58884">
        <ele>604</ele>
        <time>2016-12-08T09:25:13Z</time>
      </trkpt>
      <trkpt lat="45.96579" lon="4.58883">
        <ele>604</ele>
        <time>2016-12-08T09:25:19Z</time>
      </trkpt>
      <trkpt lat="45.9658" lon="4.58883">
        <ele>604</ele>
        <time>2016-12-08T09:25:20Z</time>
      </trkpt>
      <trkpt lat="45.96589" lon="4.58882">
        <ele>602</ele>
        <time>2016-12-08T09:25:26Z</time>
      </trkpt>
      <trkpt lat="45.9659" lon="4.58882">
        <ele>602</ele>
        <time>2016-12-08T09:25:27Z</time>
      </trkpt>
      <trkpt lat="45.96598" lon="4.58883">
        <ele>602</ele>
        <time>2016-12-08T09:25:33Z</time>
      </trkpt>
      <trkpt lat="45.96599" lon="4.58883">
        <ele>602</ele>
        <time>2016-12-08T09:25:34Z</time>
      </trkpt>
      <trkpt lat="45.96607" lon="4.58882">
        <ele>602</ele>
        <time>2016-12-08T09:25:40Z</time>
      </trkpt>
      <trkpt lat="45.96609" lon="4.58882">
        <ele>602</ele>
        <time>2016-12-08T09:25:41Z</time>
      </trkpt>
      <trkpt lat="45.96617" lon="4.58881">
        <ele>601</ele>
        <time>2016-12-08T09:25:48Z</time>
      </trkpt>
      <trkpt lat="45.96619" lon="4.58881">
        <ele>601</ele>
        <time>2016-12-08T09:25:49Z</time>
      </trkpt>
      <trkpt lat="45.96627" lon="4.5888">
        <ele>601</ele>
        <time>2016-12-08T09:25:56Z</time>
      </trkpt>
      <trkpt lat="45.96628" lon="4.58879">
        <ele>601</ele>
        <time>2016-12-08T09:25:57Z</time>
      </trkpt>
      <trkpt lat="45.96635" lon="4.58873">
        <ele>601</ele>
        <time>2016-12-08T09:26:03Z</time>
      </trkpt>
      <trkpt lat="45.96637" lon="4.58872">
        <ele>601</ele>
        <time>2016-12-08T09:26:04Z</time>
      </trkpt>
      <trkpt lat="45.96645" lon="4.58868">
        <ele>600</ele>
        <time>2016-12-08T09:26:11Z</time>
      </trkpt>
      <trkpt lat="45.96646" lon="4.58867">
        <ele>600</ele>
        <time>2016-12-08T09:26:12Z</time>
      </trkpt>
      <trkpt lat="45.96653" lon="4.58861">
        <ele>600</ele>
        <time>2016-12-08T09:26:19Z</time>
      </trkpt>
      <trkpt lat="45.96655" lon="4.5886">
        <ele>600</ele>
        <time>2016-12-08T09:26:20Z</time>
      </trkpt>
      <trkpt lat="45.96662" lon="4.58854">
        <ele>599</ele>
        <time>2016-12-08T09:26:26Z</time>
      </trkpt>
      <trkpt lat="45.96663" lon="4.58853">
        <ele>599</ele>
        <time>2016-12-08T09:26:27Z</time>
      </trkpt>
      <trkpt lat="45.9667" lon="4.58847">
        <ele>598</ele>
        <time>2016-12-08T09:26:33Z</time>
      </trkpt>
      <trkpt lat="45.96671" lon="4.58846">
        <ele>598</ele>
        <time>2016-12-08T09:26:34Z</time>
      </trkpt>
      <trkpt lat="45.96678" lon="4.58838">
        <ele>598</ele>
        <time>2016-12-08T09:26:41Z</time>
      </trkpt>
      <trkpt lat="45.96679" lon="4.58837">
        <ele>598</ele>
        <time>2016-12-08T09:26:42Z</time>
      </trkpt>
      <trkpt lat="45.96686" lon="4.58832">
        <ele>595</ele>
        <time>2016-12-08T09:26:48Z</time>
      </trkpt>
      <trkpt lat="45.96687" lon="4.58831">
        <ele>594</ele>
        <time>2016-12-08T09:26:49Z</time>
      </trkpt>
      <trkpt lat="45.96695" lon="4.58825">
        <ele>594</ele>
        <time>2016-12-08T09:26:56Z</time>
      </trkpt>
      <trkpt lat="45.96696" lon="4.58824">
        <ele>594</ele>
        <time>2016-12-08T09:26:57Z</time>
      </trkpt>
      <trkpt lat="45.96704" lon="4.5882">
        <ele>593</ele>
        <time>2016-12-08T09:27:08Z</time>
      </trkpt>
      <trkpt lat="45.96705" lon="4.5882">
        <ele>593</ele>
        <time>2016-12-08T09:27:09Z</time>
      </trkpt>
      <trkpt lat="45.96713" lon="4.58815">
        <ele>593</ele>
        <time>2016-12-08T09:27:14Z</time>
      </trkpt>
      <trkpt lat="45.96715" lon="4.58814">
        <ele>593</ele>
        <time>2016-12-08T09:27:15Z</time>
      </trkpt>
      <trkpt lat="45.96723" lon="4.58811">
        <ele>593</ele>
        <time>2016-12-08T09:27:21Z</time>
      </trkpt>
      <trkpt lat="45.96724" lon="4.58812">
        <ele>593</ele>
        <time>2016-12-08T09:27:22Z</time>
      </trkpt>
      <trkpt lat="45.96731" lon="4.58809">
        <ele>593</ele>
        <time>2016-12-08T09:27:29Z</time>
      </trkpt>
      <trkpt lat="45.96732" lon="4.58808">
        <ele>593</ele>
        <time>2016-12-08T09:27:30Z</time>
      </trkpt>
      <trkpt lat="45.96741" lon="4.58804">
        <ele>592</ele>
        <time>2016-12-08T09:27:40Z</time>
      </trkpt>
      <trkpt lat="45.96742" lon="4.58803">
        <ele>592</ele>
        <time>2016-12-08T09:27:41Z</time>
      </trkpt>
      <trkpt lat="45.96749" lon="4.58798">
        <ele>592</ele>
        <time>2016-12-08T09:27:46Z</time>
      </trkpt>
      <trkpt lat="45.9675" lon="4.58797">
        <ele>591</ele>
        <time>2016-12-08T09:27:47Z</time>
      </trkpt>
      <trkpt lat="45.96757" lon="4.58791">
        <ele>590</ele>
        <time>2016-12-08T09:27:52Z</time>
      </trkpt>
      <trkpt lat="45.96759" lon="4.5879">
        <ele>590</ele>
        <time>2016-12-08T09:27:53Z</time>
      </trkpt>
      <trkpt lat="45.96767" lon="4.58784">
        <ele>590</ele>
        <time>2016-12-08T09:27:58Z</time>
      </trkpt>
      <trkpt lat="45.96768" lon="4.58783">
        <ele>590</ele>
        <time>2016-12-08T09:27:59Z</time>
      </trkpt>
      <trkpt lat="45.96775" lon="4.58778">
        <ele>590</ele>
        <time>2016-12-08T09:28:03Z</time>
      </trkpt>
      <trkpt lat="45.96776" lon="4.58776">
        <ele>590</ele>
        <time>2016-12-08T09:28:04Z</time>
      </trkpt>
      <trkpt lat="45.96783" lon="4.58771">
        <ele>590</ele>
        <time>2016-12-08T09:28:09Z</time>
      </trkpt>
      <trkpt lat="45.96784" lon="4.5877">
        <ele>590</ele>
        <time>2016-12-08T09:28:10Z</time>
      </trkpt>
      <trkpt lat="45.96793" lon="4.58766">
        <ele>589</ele>
        <time>2016-12-08T09:28:16Z</time>
      </trkpt>
      <trkpt lat="45.96794" lon="4.58765">
        <ele>589</ele>
        <time>2016-12-08T09:28:17Z</time>
      </trkpt>
      <trkpt lat="45.96802" lon="4.58762">
        <ele>589</ele>
        <time>2016-12-08T09:28:23Z</time>
      </trkpt>
      <trkpt lat="45.96803" lon="4.58762">
        <ele>589</ele>
        <time>2016-12-08T09:28:24Z</time>
      </trkpt>
      <trkpt lat="45.96811" lon="4.58757">
        <ele>589</ele>
        <time>2016-12-08T09:28:29Z</time>
      </trkpt>
      <trkpt lat="45.96813" lon="4.58756">
        <ele>589</ele>
        <time>2016-12-08T09:28:30Z</time>
      </trkpt>
      <trkpt lat="45.96821" lon="4.5875">
        <ele>588</ele>
        <time>2016-12-08T09:28:35Z</time>
      </trkpt>
      <trkpt lat="45.96822" lon="4.58749">
        <ele>585</ele>
        <time>2016-12-08T09:28:36Z</time>
      </trkpt>
      <trkpt lat="45.96825" lon="4.58738">
        <ele>585</ele>
        <time>2016-12-08T09:28:44Z</time>
      </trkpt>
      <trkpt lat="45.96825" lon="4.58737">
        <ele>584</ele>
        <time>2016-12-08T09:28:45Z</time>
      </trkpt>
      <trkpt lat="45.96834" lon="4.58738">
        <ele>587</ele>
        <time>2016-12-08T09:29:42Z</time>
      </trkpt>
      <trkpt lat="45.96835" lon="4.58739">
        <ele>587</ele>
        <time>2016-12-08T09:29:43Z</time>
      </trkpt>
      <trkpt lat="45.96843" lon="4.58742">
        <ele>587</ele>
        <time>2016-12-08T09:29:52Z</time>
      </trkpt>
      <trkpt lat="45.96844" lon="4.58742">
        <ele>587</ele>
        <time>2016-12-08T09:29:53Z</time>
      </trkpt>
      <trkpt lat="45.96852" lon="4.58737">
        <ele>587</ele>
        <time>2016-12-08T09:30:01Z</time>
      </trkpt>
      <trkpt lat="45.96853" lon="4.58736">
        <ele>587</ele>
        <time>2016-12-08T09:30:02Z</time>
      </trkpt>
      <trkpt lat="45.9686" lon="4.5873">
        <ele>587</ele>
        <time>2016-12-08T09:30:09Z</time>
      </trkpt>
      <trkpt lat="45.96861" lon="4.58729">
        <ele>587</ele>
        <time>2016-12-08T09:30:10Z</time>
      </trkpt>
      <trkpt lat="45.96869" lon="4.58723">
        <ele>588</ele>
        <time>2016-12-08T09:30:17Z</time>
      </trkpt>
      <trkpt lat="45.9687" lon="4.58722">
        <ele>588</ele>
        <time>2016-12-08T09:30:18Z</time>
      </trkpt>
      <trkpt lat="45.96877" lon="4.58715">
        <ele>588</ele>
        <time>2016-12-08T09:30:24Z</time>
      </trkpt>
      <trkpt lat="45.96878" lon="4.58714">
        <ele>588</ele>
        <time>2016-12-08T09:30:25Z</time>
      </trkpt>
      <trkpt lat="45.96885" lon="4.58707">
        <ele>588</ele>
        <time>2016-12-08T09:30:31Z</time>
      </trkpt>
      <trkpt lat="45.96887" lon="4.58706">
        <ele>588</ele>
        <time>2016-12-08T09:30:32Z</time>
      </trkpt>
      <trkpt lat="45.96894" lon="4.58701">
        <ele>588</ele>
        <time>2016-12-08T09:30:38Z</time>
      </trkpt>
      <trkpt lat="45.96895" lon="4.58701">
        <ele>588</ele>
        <time>2016-12-08T09:30:39Z</time>
      </trkpt>
      <trkpt lat="45.96903" lon="4.58696">
        <ele>588</ele>
        <time>2016-12-08T09:30:46Z</time>
      </trkpt>
      <trkpt lat="45.96903" lon="4.58695">
        <ele>588</ele>
        <time>2016-12-08T09:30:47Z</time>
      </trkpt>
      <trkpt lat="45.96911" lon="4.58692">
        <ele>589</ele>
        <time>2016-12-08T09:30:53Z</time>
      </trkpt>
      <trkpt lat="45.96912" lon="4.58692">
        <ele>589</ele>
        <time>2016-12-08T09:30:54Z</time>
      </trkpt>
      <trkpt lat="45.9692" lon="4.58688">
        <ele>591</ele>
        <time>2016-12-08T09:31:00Z</time>
      </trkpt>
      <trkpt lat="45.96921" lon="4.58687">
        <ele>591</ele>
        <time>2016-12-08T09:31:01Z</time>
      </trkpt>
      <trkpt lat="45.96929" lon="4.58683">
        <ele>591</ele>
        <time>2016-12-08T09:31:07Z</time>
      </trkpt>
      <trkpt lat="45.9693" lon="4.58682">
        <ele>591</ele>
        <time>2016-12-08T09:31:08Z</time>
      </trkpt>
      <trkpt lat="45.96936" lon="4.58675">
        <ele>590</ele>
        <time>2016-12-08T09:31:13Z</time>
      </trkpt>
      <trkpt lat="45.96937" lon="4.58674">
        <ele>590</ele>
        <time>2016-12-08T09:31:14Z</time>
      </trkpt>
      <trkpt lat="45.96945" lon="4.58667">
        <ele>590</ele>
        <time>2016-12-08T09:31:20Z</time>
      </trkpt>
      <trkpt lat="45.96946" lon="4.58666">
        <ele>590</ele>
        <time>2016-12-08T09:31:21Z</time>
      </trkpt>
      <trkpt lat="45.96954" lon="4.58662">
        <ele>590</ele>
        <time>2016-12-08T09:31:29Z</time>
      </trkpt>
      <trkpt lat="45.96955" lon="4.58663">
        <ele>590</ele>
        <time>2016-12-08T09:31:30Z</time>
      </trkpt>
      <trkpt lat="45.96962" lon="4.58656">
        <ele>590</ele>
        <time>2016-12-08T09:35:10Z</time>
      </trkpt>
      <trkpt lat="45.96963" lon="4.58656">
        <ele>590</ele>
        <time>2016-12-08T09:35:11Z</time>
      </trkpt>
      <trkpt lat="45.96971" lon="4.5865">
        <ele>590</ele>
        <time>2016-12-08T09:35:22Z</time>
      </trkpt>
      <trkpt lat="45.96972" lon="4.58649">
        <ele>590</ele>
        <time>2016-12-08T09:35:23Z</time>
      </trkpt>
      <trkpt lat="45.96978" lon="4.58641">
        <ele>590</ele>
        <time>2016-12-08T09:35:32Z</time>
      </trkpt>
      <trkpt lat="45.96979" lon="4.5864">
        <ele>590</ele>
        <time>2016-12-08T09:35:33Z</time>
      </trkpt>
      <trkpt lat="45.96985" lon="4.58633">
        <ele>590</ele>
        <time>2016-12-08T09:35:41Z</time>
      </trkpt>
      <trkpt lat="45.96986" lon="4.58631">
        <ele>590</ele>
        <time>2016-12-08T09:35:42Z</time>
      </trkpt>
      <trkpt lat="45.96993" lon="4.58625">
        <ele>591</ele>
        <time>2016-12-08T09:35:50Z</time>
      </trkpt>
      <trkpt lat="45.96994" lon="4.58624">
        <ele>591</ele>
        <time>2016-12-08T09:35:51Z</time>
      </trkpt>
      <trkpt lat="45.97" lon="4.58618">
        <ele>590</ele>
        <time>2016-12-08T09:35:59Z</time>
      </trkpt>
      <trkpt lat="45.97001" lon="4.58616">
        <ele>590</ele>
        <time>2016-12-08T09:36:00Z</time>
      </trkpt>
      <trkpt lat="45.97006" lon="4.58607">
        <ele>590</ele>
        <time>2016-12-08T09:36:06Z</time>
      </trkpt>
      <trkpt lat="45.97007" lon="4.58606">
        <ele>590</ele>
        <time>2016-12-08T09:36:07Z</time>
      </trkpt>
      <trkpt lat="45.97013" lon="4.58598">
        <ele>590</ele>
        <time>2016-12-08T09:36:14Z</time>
      </trkpt>
      <trkpt lat="45.97014" lon="4.58597">
        <ele>590</ele>
        <time>2016-12-08T09:36:15Z</time>
      </trkpt>
      <trkpt lat="45.9702" lon="4.58588">
        <ele>590</ele>
        <time>2016-12-08T09:36:21Z</time>
      </trkpt>
      <trkpt lat="45.97021" lon="4.58587">
        <ele>590</ele>
        <time>2016-12-08T09:36:22Z</time>
      </trkpt>
      <trkpt lat="45.97029" lon="4.58581">
        <ele>593</ele>
        <time>2016-12-08T09:36:29Z</time>
      </trkpt>
      <trkpt lat="45.9703" lon="4.5858">
        <ele>593</ele>
        <time>2016-12-08T09:36:30Z</time>
      </trkpt>
      <trkpt lat="45.97037" lon="4.58575">
        <ele>593</ele>
        <time>2016-12-08T09:36:37Z</time>
      </trkpt>
      <trkpt lat="45.97038" lon="4.58574">
        <ele>593</ele>
        <time>2016-12-08T09:36:38Z</time>
      </trkpt>
      <trkpt lat="45.97043" lon="4.58564">
        <ele>593</ele>
        <time>2016-12-08T09:36:45Z</time>
      </trkpt>
      <trkpt lat="45.97043" lon="4.58562">
        <ele>593</ele>
        <time>2016-12-08T09:36:46Z</time>
      </trkpt>
      <trkpt lat="45.97046" lon="4.58552">
        <ele>594</ele>
        <time>2016-12-08T09:36:53Z</time>
      </trkpt>
      <trkpt lat="45.97047" lon="4.5855">
        <ele>594</ele>
        <time>2016-12-08T09:36:54Z</time>
      </trkpt>
      <trkpt lat="45.97053" lon="4.58541">
        <ele>594</ele>
        <time>2016-12-08T09:37:01Z</time>
      </trkpt>
      <trkpt lat="45.97053" lon="4.5854">
        <ele>594</ele>
        <time>2016-12-08T09:37:02Z</time>
      </trkpt>
      <trkpt lat="45.97058" lon="4.58529">
        <ele>594</ele>
        <time>2016-12-08T09:37:12Z</time>
      </trkpt>
      <trkpt lat="45.97059" lon="4.58528">
        <ele>594</ele>
        <time>2016-12-08T09:37:13Z</time>
      </trkpt>
      <trkpt lat="45.97064" lon="4.58518">
        <ele>595</ele>
        <time>2016-12-08T09:37:20Z</time>
      </trkpt>
      <trkpt lat="45.97065" lon="4.58517">
        <ele>595</ele>
        <time>2016-12-08T09:37:21Z</time>
      </trkpt>
      <trkpt lat="45.9707" lon="4.58507">
        <ele>595</ele>
        <time>2016-12-08T09:37:27Z</time>
      </trkpt>
      <trkpt lat="45.97071" lon="4.58506">
        <ele>595</ele>
        <time>2016-12-08T09:37:28Z</time>
      </trkpt>
      <trkpt lat="45.97077" lon="4.58498">
        <ele>597</ele>
        <time>2016-12-08T09:37:34Z</time>
      </trkpt>
      <trkpt lat="45.97078" lon="4.58496">
        <ele>597</ele>
        <time>2016-12-08T09:37:35Z</time>
      </trkpt>
      <trkpt lat="45.97086" lon="4.58491">
        <ele>596</ele>
        <time>2016-12-08T09:37:42Z</time>
      </trkpt>
      <trkpt lat="45.97087" lon="4.5849">
        <ele>596</ele>
        <time>2016-12-08T09:37:43Z</time>
      </trkpt>
      <trkpt lat="45.97093" lon="4.58484">
        <ele>596</ele>
        <time>2016-12-08T09:37:49Z</time>
      </trkpt>
      <trkpt lat="45.97095" lon="4.58483">
        <ele>596</ele>
        <time>2016-12-08T09:37:50Z</time>
      </trkpt>
      <trkpt lat="45.97102" lon="4.58477">
        <ele>596</ele>
        <time>2016-12-08T09:37:57Z</time>
      </trkpt>
      <trkpt lat="45.97102" lon="4.58475">
        <ele>596</ele>
        <time>2016-12-08T09:37:58Z</time>
      </trkpt>
      <trkpt lat="45.9711" lon="4.58469">
        <ele>596</ele>
        <time>2016-12-08T09:38:05Z</time>
      </trkpt>
      <trkpt lat="45.97111" lon="4.58469">
        <ele>596</ele>
        <time>2016-12-08T09:38:06Z</time>
      </trkpt>
      <trkpt lat="45.97117" lon="4.58462">
        <ele>596</ele>
        <time>2016-12-08T09:38:13Z</time>
      </trkpt>
      <trkpt lat="45.97118" lon="4.58461">
        <ele>596</ele>
        <time>2016-12-08T09:38:14Z</time>
      </trkpt>
      <trkpt lat="45.97126" lon="4.58457">
        <ele>596</ele>
        <time>2016-12-08T09:38:22Z</time>
      </trkpt>
      <trkpt lat="45.97127" lon="4.58456">
        <ele>596</ele>
        <time>2016-12-08T09:38:23Z</time>
      </trkpt>
      <trkpt lat="45.97132" lon="4.58447">
        <ele>596</ele>
        <time>2016-12-08T09:38:30Z</time>
      </trkpt>
      <trkpt lat="45.97133" lon="4.58446">
        <ele>596</ele>
        <time>2016-12-08T09:38:31Z</time>
      </trkpt>
      <trkpt lat="45.9714" lon="4.58439">
        <ele>596</ele>
        <time>2016-12-08T09:38:39Z</time>
      </trkpt>
      <trkpt lat="45.97141" lon="4.58438">
        <ele>596</ele>
        <time>2016-12-08T09:38:40Z</time>
      </trkpt>
      <trkpt lat="45.97147" lon="4.58432">
        <ele>596</ele>
        <time>2016-12-08T09:38:46Z</time>
      </trkpt>
      <trkpt lat="45.97149" lon="4.58431">
        <ele>596</ele>
        <time>2016-12-08T09:38:47Z</time>
      </trkpt>
      <trkpt lat="45.97157" lon="4.58428">
        <ele>596</ele>
        <time>2016-12-08T09:38:54Z</time>
      </trkpt>
      <trkpt lat="45.97158" lon="4.58428">
        <ele>596</ele>
        <time>2016-12-08T09:38:55Z</time>
      </trkpt>
      <trkpt lat="45.97166" lon="4.58428">
        <ele>596</ele>
        <time>2016-12-08T09:39:01Z</time>
      </trkpt>
      <trkpt lat="45.97167" lon="4.58428">
        <ele>595</ele>
        <time>2016-12-08T09:39:02Z</time>
      </trkpt>
      <trkpt lat="45.97175" lon="4.58424">
        <ele>595</ele>
        <time>2016-12-08T09:39:09Z</time>
      </trkpt>
      <trkpt lat="45.97176" lon="4.58424">
        <ele>595</ele>
        <time>2016-12-08T09:39:10Z</time>
      </trkpt>
      <trkpt lat="45.97184" lon="4.58421">
        <ele>594</ele>
        <time>2016-12-08T09:39:17Z</time>
      </trkpt>
      <trkpt lat="45.97185" lon="4.58421">
        <ele>594</ele>
        <time>2016-12-08T09:39:18Z</time>
      </trkpt>
      <trkpt lat="45.97193" lon="4.58417">
        <ele>594</ele>
        <time>2016-12-08T09:39:47Z</time>
      </trkpt>
      <trkpt lat="45.97193" lon="4.58416">
        <ele>594</ele>
        <time>2016-12-08T09:39:48Z</time>
      </trkpt>
      <trkpt lat="45.97202" lon="4.58416">
        <ele>594</ele>
        <time>2016-12-08T09:39:55Z</time>
      </trkpt>
      <trkpt lat="45.97203" lon="4.58416">
        <ele>594</ele>
        <time>2016-12-08T09:39:56Z</time>
      </trkpt>
      <trkpt lat="45.97211" lon="4.58413">
        <ele>594</ele>
        <time>2016-12-08T09:40:02Z</time>
      </trkpt>
      <trkpt lat="45.97212" lon="4.58412">
        <ele>594</ele>
        <time>2016-12-08T09:40:03Z</time>
      </trkpt>
      <trkpt lat="45.9722" lon="4.58408">
        <ele>593</ele>
        <time>2016-12-08T09:40:09Z</time>
      </trkpt>
      <trkpt lat="45.97221" lon="4.58407">
        <ele>593</ele>
        <time>2016-12-08T09:40:10Z</time>
      </trkpt>
      <trkpt lat="45.97228" lon="4.58402">
        <ele>593</ele>
        <time>2016-12-08T09:40:15Z</time>
      </trkpt>
      <trkpt lat="45.9723" lon="4.58402">
        <ele>593</ele>
        <time>2016-12-08T09:40:16Z</time>
      </trkpt>
      <trkpt lat="45.97238" lon="4.58401">
        <ele>593</ele>
        <time>2016-12-08T09:40:22Z</time>
      </trkpt>
      <trkpt lat="45.9724" lon="4.58401">
        <ele>593</ele>
        <time>2016-12-08T09:40:23Z</time>
      </trkpt>
      <trkpt lat="45.97249" lon="4.58401">
        <ele>593</ele>
        <time>2016-12-08T09:40:29Z</time>
      </trkpt>
      <trkpt lat="45.9725" lon="4.58401">
        <ele>593</ele>
        <time>2016-12-08T09:40:30Z</time>
      </trkpt>
      <trkpt lat="45.97258" lon="4.58398">
        <ele>592</ele>
        <time>2016-12-08T09:40:36Z</time>
      </trkpt>
      <trkpt lat="45.97259" lon="4.58397">
        <ele>592</ele>
        <time>2016-12-08T09:40:37Z</time>
      </trkpt>
      <trkpt lat="45.97267" lon="4.58395">
        <ele>591</ele>
        <time>2016-12-08T09:40:42Z</time>
      </trkpt>
      <trkpt lat="45.97268" lon="4.58395">
        <ele>591</ele>
        <time>2016-12-08T09:40:43Z</time>
      </trkpt>
      <trkpt lat="45.97276" lon="4.58398">
        <ele>591</ele>
        <time>2016-12-08T09:40:48Z</time>
      </trkpt>
      <trkpt lat="45.97277" lon="4.58398">
        <ele>591</ele>
        <time>2016-12-08T09:40:49Z</time>
      </trkpt>
      <trkpt lat="45.97285" lon="4.58396">
        <ele>591</ele>
        <time>2016-12-08T09:40:55Z</time>
      </trkpt>
      <trkpt lat="45.97287" lon="4.58395">
        <ele>591</ele>
        <time>2016-12-08T09:40:56Z</time>
      </trkpt>
      <trkpt lat="45.97294" lon="4.5839">
        <ele>590</ele>
        <time>2016-12-08T09:41:02Z</time>
      </trkpt>
      <trkpt lat="45.97295" lon="4.5839">
        <ele>590</ele>
        <time>2016-12-08T09:41:03Z</time>
      </trkpt>
      <trkpt lat="45.97304" lon="4.58386">
        <ele>590</ele>
        <time>2016-12-08T09:41:10Z</time>
      </trkpt>
      <trkpt lat="45.97305" lon="4.58386">
        <ele>590</ele>
        <time>2016-12-08T09:41:11Z</time>
      </trkpt>
      <trkpt lat="45.97313" lon="4.58384">
        <ele>590</ele>
        <time>2016-12-08T09:41:17Z</time>
      </trkpt>
      <trkpt lat="45.97314" lon="4.58384">
        <ele>590</ele>
        <time>2016-12-08T09:41:18Z</time>
      </trkpt>
      <trkpt lat="45.97322" lon="4.58382">
        <ele>590</ele>
        <time>2016-12-08T09:41:24Z</time>
      </trkpt>
      <trkpt lat="45.97323" lon="4.58381">
        <ele>589</ele>
        <time>2016-12-08T09:41:25Z</time>
      </trkpt>
      <trkpt lat="45.9733" lon="4.58374">
        <ele>589</ele>
        <time>2016-12-08T09:41:31Z</time>
      </trkpt>
      <trkpt lat="45.97331" lon="4.58373">
        <ele>589</ele>
        <time>2016-12-08T09:41:32Z</time>
      </trkpt>
      <trkpt lat="45.97335" lon="4.58362">
        <ele>585</ele>
        <time>2016-12-08T09:41:38Z</time>
      </trkpt>
      <trkpt lat="45.97336" lon="4.5836">
        <ele>585</ele>
        <time>2016-12-08T09:41:39Z</time>
      </trkpt>
      <trkpt lat="45.97344" lon="4.58356">
        <ele>585</ele>
        <time>2016-12-08T09:41:45Z</time>
      </trkpt>
      <trkpt lat="45.97345" lon="4.58356">
        <ele>585</ele>
        <time>2016-12-08T09:41:46Z</time>
      </trkpt>
      <trkpt lat="45.97353" lon="4.58356">
        <ele>585</ele>
        <time>2016-12-08T09:41:52Z</time>
      </trkpt>
      <trkpt lat="45.97355" lon="4.58356">
        <ele>585</ele>
        <time>2016-12-08T09:41:53Z</time>
      </trkpt>
      <trkpt lat="45.97363" lon="4.5836">
        <ele>585</ele>
        <time>2016-12-08T09:41:59Z</time>
      </trkpt>
      <trkpt lat="45.97365" lon="4.5836">
        <ele>585</ele>
        <time>2016-12-08T09:42:00Z</time>
      </trkpt>
      <trkpt lat="45.97373" lon="4.5836">
        <ele>584</ele>
        <time>2016-12-08T09:42:06Z</time>
      </trkpt>
      <trkpt lat="45.97374" lon="4.5836">
        <ele>584</ele>
        <time>2016-12-08T09:42:07Z</time>
      </trkpt>
      <trkpt lat="45.97383" lon="4.58361">
        <ele>584</ele>
        <time>2016-12-08T09:42:13Z</time>
      </trkpt>
      <trkpt lat="45.97384" lon="4.58361">
        <ele>584</ele>
        <time>2016-12-08T09:42:14Z</time>
      </trkpt>
      <trkpt lat="45.97393" lon="4.5836">
        <ele>584</ele>
        <time>2016-12-08T09:42:20Z</time>
      </trkpt>
      <trkpt lat="45.97394" lon="4.5836">
        <ele>584</ele>
        <time>2016-12-08T09:42:21Z</time>
      </trkpt>
      <trkpt lat="45.97403" lon="4.58362">
        <ele>583</ele>
        <time>2016-12-08T09:42:28Z</time>
      </trkpt>
      <trkpt lat="45.97404" lon="4.58362">
        <ele>583</ele>
        <time>2016-12-08T09:42:29Z</time>
      </trkpt>
      <trkpt lat="45.97411" lon="4.58366">
        <ele>583</ele>
        <time>2016-12-08T09:42:35Z</time>
      </trkpt>
      <trkpt lat="45.97413" lon="4.58367">
        <ele>583</ele>
        <time>2016-12-08T09:42:36Z</time>
      </trkpt>
      <trkpt lat="45.97419" lon="4.58374">
        <ele>579</ele>
        <time>2016-12-08T09:42:42Z</time>
      </trkpt>
      <trkpt lat="45.97421" lon="4.58375">
        <ele>579</ele>
        <time>2016-12-08T09:42:43Z</time>
      </trkpt>
      <trkpt lat="45.97428" lon="4.58381">
        <ele>579</ele>
        <time>2016-12-08T09:42:50Z</time>
      </trkpt>
      <trkpt lat="45.97429" lon="4.58382">
        <ele>579</ele>
        <time>2016-12-08T09:42:51Z</time>
      </trkpt>
      <trkpt lat="45.97437" lon="4.58384">
        <ele>578</ele>
        <time>2016-12-08T09:42:57Z</time>
      </trkpt>
      <trkpt lat="45.97439" lon="4.58384">
        <ele>578</ele>
        <time>2016-12-08T09:42:58Z</time>
      </trkpt>
      <trkpt lat="45.97446" lon="4.58387">
        <ele>578</ele>
        <time>2016-12-08T09:43:05Z</time>
      </trkpt>
      <trkpt lat="45.97448" lon="4.58387">
        <ele>578</ele>
        <time>2016-12-08T09:43:06Z</time>
      </trkpt>
      <trkpt lat="45.97456" lon="4.58389">
        <ele>577</ele>
        <time>2016-12-08T09:43:12Z</time>
      </trkpt>
      <trkpt lat="45.97457" lon="4.58389">
        <ele>577</ele>
        <time>2016-12-08T09:43:13Z</time>
      </trkpt>
      <trkpt lat="45.97465" lon="4.58389">
        <ele>577</ele>
        <time>2016-12-08T09:43:20Z</time>
      </trkpt>
      <trkpt lat="45.97466" lon="4.58389">
        <ele>577</ele>
        <time>2016-12-08T09:43:21Z</time>
      </trkpt>
      <trkpt lat="45.97474" lon="4.58392">
        <ele>576</ele>
        <time>2016-12-08T09:43:28Z</time>
      </trkpt>
      <trkpt lat="45.97475" lon="4.58393">
        <ele>576</ele>
        <time>2016-12-08T09:43:29Z</time>
      </trkpt>
      <trkpt lat="45.97482" lon="4.58398">
        <ele>576</ele>
        <time>2016-12-08T09:43:35Z</time>
      </trkpt>
      <trkpt lat="45.97484" lon="4.58398">
        <ele>576</ele>
        <time>2016-12-08T09:43:36Z</time>
      </trkpt>
      <trkpt lat="45.97492" lon="4.58397">
        <ele>576</ele>
        <time>2016-12-08T09:43:43Z</time>
      </trkpt>
      <trkpt lat="45.97493" lon="4.58396">
        <ele>576</ele>
        <time>2016-12-08T09:43:44Z</time>
      </trkpt>
      <trkpt lat="45.97501" lon="4.58393">
        <ele>572</ele>
        <time>2016-12-08T09:43:50Z</time>
      </trkpt>
      <trkpt lat="45.97502" lon="4.58393">
        <ele>572</ele>
        <time>2016-12-08T09:43:51Z</time>
      </trkpt>
      <trkpt lat="45.9751" lon="4.58396">
        <ele>572</ele>
        <time>2016-12-08T09:43:58Z</time>
      </trkpt>
      <trkpt lat="45.97512" lon="4.58396">
        <ele>572</ele>
        <time>2016-12-08T09:43:59Z</time>
      </trkpt>
      <trkpt lat="45.97519" lon="4.58399">
        <ele>571</ele>
        <time>2016-12-08T09:44:06Z</time>
      </trkpt>
      <trkpt lat="45.9752" lon="4.584">
        <ele>571</ele>
        <time>2016-12-08T09:44:07Z</time>
      </trkpt>
      <trkpt lat="45.97529" lon="4.58402">
        <ele>571</ele>
        <time>2016-12-08T09:44:14Z</time>
      </trkpt>
      <trkpt lat="45.9753" lon="4.58401">
        <ele>571</ele>
        <time>2016-12-08T09:44:15Z</time>
      </trkpt>
      <trkpt lat="45.97538" lon="4.584">
        <ele>571</ele>
        <time>2016-12-08T09:44:21Z</time>
      </trkpt>
      <trkpt lat="45.97539" lon="4.584">
        <ele>571</ele>
        <time>2016-12-08T09:44:22Z</time>
      </trkpt>
      <trkpt lat="45.97547" lon="4.584">
        <ele>570</ele>
        <time>2016-12-08T09:44:29Z</time>
      </trkpt>
      <trkpt lat="45.97548" lon="4.58401">
        <ele>570</ele>
        <time>2016-12-08T09:44:30Z</time>
      </trkpt>
      <trkpt lat="45.97557" lon="4.58401">
        <ele>570</ele>
        <time>2016-12-08T09:44:38Z</time>
      </trkpt>
      <trkpt lat="45.97558" lon="4.584">
        <ele>570</ele>
        <time>2016-12-08T09:44:39Z</time>
      </trkpt>
      <trkpt lat="45.97565" lon="4.58396">
        <ele>570</ele>
        <time>2016-12-08T09:44:46Z</time>
      </trkpt>
      <trkpt lat="45.97566" lon="4.58396">
        <ele>570</ele>
        <time>2016-12-08T09:44:47Z</time>
      </trkpt>
      <trkpt lat="45.97574" lon="4.58392">
        <ele>569</ele>
        <time>2016-12-08T09:44:53Z</time>
      </trkpt>
      <trkpt lat="45.97575" lon="4.58392">
        <ele>569</ele>
        <time>2016-12-08T09:44:54Z</time>
      </trkpt>
      <trkpt lat="45.97583" lon="4.58389">
        <ele>569</ele>
        <time>2016-12-08T09:45:01Z</time>
      </trkpt>
      <trkpt lat="45.97584" lon="4.58389">
        <ele>566</ele>
        <time>2016-12-08T09:45:02Z</time>
      </trkpt>
      <trkpt lat="45.97592" lon="4.58387">
        <ele>566</ele>
        <time>2016-12-08T09:45:08Z</time>
      </trkpt>
      <trkpt lat="45.97594" lon="4.58387">
        <ele>566</ele>
        <time>2016-12-08T09:45:09Z</time>
      </trkpt>
      <trkpt lat="45.97602" lon="4.58386">
        <ele>566</ele>
        <time>2016-12-08T09:45:15Z</time>
      </trkpt>
      <trkpt lat="45.97604" lon="4.58386">
        <ele>566</ele>
        <time>2016-12-08T09:45:16Z</time>
      </trkpt>
      <trkpt lat="45.97612" lon="4.58388">
        <ele>565</ele>
        <time>2016-12-08T09:45:22Z</time>
      </trkpt>
      <trkpt lat="45.97614" lon="4.58389">
        <ele>565</ele>
        <time>2016-12-08T09:45:23Z</time>
      </trkpt>
      <trkpt lat="45.97622" lon="4.58392">
        <ele>565</ele>
        <time>2016-12-08T09:45:30Z</time>
      </trkpt>
      <trkpt lat="45.97623" lon="4.58392">
        <ele>565</ele>
        <time>2016-12-08T09:45:31Z</time>
      </trkpt>
      <trkpt lat="45.97632" lon="4.58394">
        <ele>565</ele>
        <time>2016-12-08T09:45:39Z</time>
      </trkpt>
      <trkpt lat="45.97632" lon="4.58394">
        <ele>564</ele>
        <time>2016-12-08T09:45:40Z</time>
      </trkpt>
      <trkpt lat="45.97641" lon="4.58392">
        <ele>564</ele>
        <time>2016-12-08T09:45:49Z</time>
      </trkpt>
      <trkpt lat="45.97642" lon="4.58392">
        <ele>564</ele>
        <time>2016-12-08T09:45:50Z</time>
      </trkpt>
      <trkpt lat="45.9765" lon="4.5839">
        <ele>564</ele>
        <time>2016-12-08T09:45:57Z</time>
      </trkpt>
      <trkpt lat="45.97651" lon="4.58389">
        <ele>564</ele>
        <time>2016-12-08T09:45:58Z</time>
      </trkpt>
      <trkpt lat="45.9766" lon="4.5839">
        <ele>564</ele>
        <time>2016-12-08T09:46:05Z</time>
      </trkpt>
      <trkpt lat="45.97661" lon="4.5839">
        <ele>564</ele>
        <time>2016-12-08T09:46:06Z</time>
      </trkpt>
      <trkpt lat="45.9767" lon="4.5839">
        <ele>559</ele>
        <time>2016-12-08T09:46:13Z</time>
      </trkpt>
      <trkpt lat="45.97671" lon="4.5839">
        <ele>559</ele>
        <time>2016-12-08T09:46:14Z</time>
      </trkpt>
      <trkpt lat="45.9768" lon="4.5839">
        <ele>558</ele>
        <time>2016-12-08T09:46:22Z</time>
      </trkpt>
      <trkpt lat="45.97681" lon="4.5839">
        <ele>558</ele>
        <time>2016-12-08T09:46:23Z</time>
      </trkpt>
      <trkpt lat="45.97689" lon="4.58387">
        <ele>558</ele>
        <time>2016-12-08T09:46:30Z</time>
      </trkpt>
      <trkpt lat="45.9769" lon="4.58386">
        <ele>557</ele>
        <time>2016-12-08T09:46:31Z</time>
      </trkpt>
      <trkpt lat="45.97698" lon="4.58382">
        <ele>557</ele>
        <time>2016-12-08T09:46:38Z</time>
      </trkpt>
      <trkpt lat="45.97699" lon="4.58382">
        <ele>557</ele>
        <time>2016-12-08T09:46:39Z</time>
      </trkpt>
      <trkpt lat="45.97708" lon="4.58382">
        <ele>556</ele>
        <time>2016-12-08T09:46:47Z</time>
      </trkpt>
      <trkpt lat="45.97708" lon="4.58381">
        <ele>556</ele>
        <time>2016-12-08T09:46:48Z</time>
      </trkpt>
      <trkpt lat="45.97716" lon="4.58378">
        <ele>556</ele>
        <time>2016-12-08T09:46:55Z</time>
      </trkpt>
      <trkpt lat="45.97717" lon="4.58377">
        <ele>556</ele>
        <time>2016-12-08T09:46:56Z</time>
      </trkpt>
      <trkpt lat="45.97724" lon="4.58371">
        <ele>555</ele>
        <time>2016-12-08T09:47:04Z</time>
      </trkpt>
      <trkpt lat="45.97725" lon="4.5837">
        <ele>555</ele>
        <time>2016-12-08T09:47:05Z</time>
      </trkpt>
      <trkpt lat="45.97732" lon="4.58365">
        <ele>555</ele>
        <time>2016-12-08T09:47:12Z</time>
      </trkpt>
      <trkpt lat="45.97733" lon="4.58365">
        <ele>555</ele>
        <time>2016-12-08T09:47:13Z</time>
      </trkpt>
      <trkpt lat="45.9774" lon="4.58358">
        <ele>554</ele>
        <time>2016-12-08T09:47:20Z</time>
      </trkpt>
      <trkpt lat="45.97741" lon="4.58357">
        <ele>554</ele>
        <time>2016-12-08T09:47:21Z</time>
      </trkpt>
      <trkpt lat="45.97747" lon="4.58348">
        <ele>553</ele>
        <time>2016-12-08T09:47:28Z</time>
      </trkpt>
      <trkpt lat="45.97748" lon="4.58347">
        <ele>553</ele>
        <time>2016-12-08T09:47:29Z</time>
      </trkpt>
      <trkpt lat="45.97755" lon="4.58341">
        <ele>551</ele>
        <time>2016-12-08T09:47:36Z</time>
      </trkpt>
      <trkpt lat="45.97756" lon="4.58341">
        <ele>551</ele>
        <time>2016-12-08T09:47:37Z</time>
      </trkpt>
      <trkpt lat="45.97765" lon="4.5834">
        <ele>551</ele>
        <time>2016-12-08T09:47:44Z</time>
      </trkpt>
      <trkpt lat="45.97766" lon="4.5834">
        <ele>551</ele>
        <time>2016-12-08T09:47:45Z</time>
      </trkpt>
      <trkpt lat="45.97774" lon="4.5834">
        <ele>551</ele>
        <time>2016-12-08T09:47:51Z</time>
      </trkpt>
      <trkpt lat="45.97775" lon="4.58341">
        <ele>551</ele>
        <time>2016-12-08T09:47:52Z</time>
      </trkpt>
      <trkpt lat="45.97783" lon="4.58344">
        <ele>551</ele>
        <time>2016-12-08T09:47:58Z</time>
      </trkpt>
      <trkpt lat="45.97784" lon="4.58344">
        <ele>551</ele>
        <time>2016-12-08T09:47:59Z</time>
      </trkpt>
      <trkpt lat="45.97793" lon="4.58346">
        <ele>551</ele>
        <time>2016-12-08T09:48:06Z</time>
      </trkpt>
      <trkpt lat="45.97794" lon="4.58346">
        <ele>551</ele>
        <time>2016-12-08T09:48:07Z</time>
      </trkpt>
      <trkpt lat="45.97802" lon="4.58347">
        <ele>551</ele>
        <time>2016-12-08T09:48:13Z</time>
      </trkpt>
      <trkpt lat="45.97803" lon="4.58347">
        <ele>551</ele>
        <time>2016-12-08T09:48:14Z</time>
      </trkpt>
      <trkpt lat="45.97811" lon="4.58345">
        <ele>551</ele>
        <time>2016-12-08T09:48:23Z</time>
      </trkpt>
      <trkpt lat="45.97812" lon="4.58344">
        <ele>551</ele>
        <time>2016-12-08T09:48:24Z</time>
      </trkpt>
      <trkpt lat="45.97819" lon="4.58336">
        <ele>551</ele>
        <time>2016-12-08T09:48:36Z</time>
      </trkpt>
      <trkpt lat="45.97819" lon="4.58335">
        <ele>551</ele>
        <time>2016-12-08T09:48:37Z</time>
      </trkpt>
      <trkpt lat="45.97823" lon="4.58325">
        <ele>551</ele>
        <time>2016-12-08T09:48:51Z</time>
      </trkpt>
      <trkpt lat="45.97824" lon="4.58323">
        <ele>551</ele>
        <time>2016-12-08T09:48:52Z</time>
      </trkpt>
      <trkpt lat="45.97829" lon="4.58313">
        <ele>551</ele>
        <time>2016-12-08T09:48:59Z</time>
      </trkpt>
      <trkpt lat="45.9783" lon="4.58311">
        <ele>551</ele>
        <time>2016-12-08T09:49:00Z</time>
      </trkpt>
      <trkpt lat="45.97834" lon="4.58301">
        <ele>552</ele>
        <time>2016-12-08T09:49:07Z</time>
      </trkpt>
      <trkpt lat="45.97834" lon="4.583">
        <ele>552</ele>
        <time>2016-12-08T09:49:08Z</time>
      </trkpt>
      <trkpt lat="45.97842" lon="4.58296">
        <ele>552</ele>
        <time>2016-12-08T09:49:15Z</time>
      </trkpt>
      <trkpt lat="45.97843" lon="4.58295">
        <ele>552</ele>
        <time>2016-12-08T09:49:16Z</time>
      </trkpt>
      <trkpt lat="45.97849" lon="4.58288">
        <ele>552</ele>
        <time>2016-12-08T09:49:23Z</time>
      </trkpt>
      <trkpt lat="45.9785" lon="4.58287">
        <ele>552</ele>
        <time>2016-12-08T09:49:24Z</time>
      </trkpt>
      <trkpt lat="45.97857" lon="4.58281">
        <ele>552</ele>
        <time>2016-12-08T09:49:30Z</time>
      </trkpt>
      <trkpt lat="45.97858" lon="4.5828">
        <ele>552</ele>
        <time>2016-12-08T09:49:31Z</time>
      </trkpt>
      <trkpt lat="45.97866" lon="4.58277">
        <ele>553</ele>
        <time>2016-12-08T09:49:38Z</time>
      </trkpt>
      <trkpt lat="45.97867" lon="4.58276">
        <ele>553</ele>
        <time>2016-12-08T09:49:39Z</time>
      </trkpt>
      <trkpt lat="45.97874" lon="4.58272">
        <ele>553</ele>
        <time>2016-12-08T09:49:45Z</time>
      </trkpt>
      <trkpt lat="45.97875" lon="4.58271">
        <ele>553</ele>
        <time>2016-12-08T09:49:46Z</time>
      </trkpt>
      <trkpt lat="45.97882" lon="4.58263">
        <ele>553</ele>
        <time>2016-12-08T09:49:53Z</time>
      </trkpt>
      <trkpt lat="45.97883" lon="4.58262">
        <ele>553</ele>
        <time>2016-12-08T09:49:54Z</time>
      </trkpt>
      <trkpt lat="45.97889" lon="4.58254">
        <ele>554</ele>
        <time>2016-12-08T09:50:00Z</time>
      </trkpt>
      <trkpt lat="45.9789" lon="4.58253">
        <ele>554</ele>
        <time>2016-12-08T09:50:01Z</time>
      </trkpt>
      <trkpt lat="45.97898" lon="4.58248">
        <ele>554</ele>
        <time>2016-12-08T09:50:07Z</time>
      </trkpt>
      <trkpt lat="45.97899" lon="4.58247">
        <ele>554</ele>
        <time>2016-12-08T09:50:08Z</time>
      </trkpt>
      <trkpt lat="45.97907" lon="4.58245">
        <ele>555</ele>
        <time>2016-12-08T09:50:15Z</time>
      </trkpt>
      <trkpt lat="45.97908" lon="4.58245">
        <ele>555</ele>
        <time>2016-12-08T09:50:16Z</time>
      </trkpt>
      <trkpt lat="45.97917" lon="4.58241">
        <ele>557</ele>
        <time>2016-12-08T09:50:23Z</time>
      </trkpt>
      <trkpt lat="45.97918" lon="4.5824">
        <ele>558</ele>
        <time>2016-12-08T09:50:24Z</time>
      </trkpt>
      <trkpt lat="45.97925" lon="4.58235">
        <ele>558</ele>
        <time>2016-12-08T09:50:32Z</time>
      </trkpt>
      <trkpt lat="45.97926" lon="4.58234">
        <ele>559</ele>
        <time>2016-12-08T09:50:33Z</time>
      </trkpt>
      <trkpt lat="45.97935" lon="4.58231">
        <ele>559</ele>
        <time>2016-12-08T09:50:40Z</time>
      </trkpt>
      <trkpt lat="45.97936" lon="4.58231">
        <ele>559</ele>
        <time>2016-12-08T09:50:41Z</time>
      </trkpt>
      <trkpt lat="45.97944" lon="4.58232">
        <ele>560</ele>
        <time>2016-12-08T09:50:48Z</time>
      </trkpt>
      <trkpt lat="45.97945" lon="4.58232">
        <ele>560</ele>
        <time>2016-12-08T09:50:49Z</time>
      </trkpt>
      <trkpt lat="45.97954" lon="4.58232">
        <ele>560</ele>
        <time>2016-12-08T09:50:56Z</time>
      </trkpt>
      <trkpt lat="45.97955" lon="4.58232">
        <ele>561</ele>
        <time>2016-12-08T09:50:57Z</time>
      </trkpt>
      <trkpt lat="45.97963" lon="4.58229">
        <ele>561</ele>
        <time>2016-12-08T09:51:04Z</time>
      </trkpt>
      <trkpt lat="45.97964" lon="4.58229">
        <ele>561</ele>
        <time>2016-12-08T09:51:05Z</time>
      </trkpt>
      <trkpt lat="45.97971" lon="4.58226">
        <ele>562</ele>
        <time>2016-12-08T09:51:11Z</time>
      </trkpt>
      <trkpt lat="45.97973" lon="4.58226">
        <ele>562</ele>
        <time>2016-12-08T09:51:12Z</time>
      </trkpt>
      <trkpt lat="45.97981" lon="4.58225">
        <ele>562</ele>
        <time>2016-12-08T09:51:19Z</time>
      </trkpt>
      <trkpt lat="45.97982" lon="4.58225">
        <ele>562</ele>
        <time>2016-12-08T09:51:20Z</time>
      </trkpt>
      <trkpt lat="45.9799" lon="4.58225">
        <ele>562</ele>
        <time>2016-12-08T09:51:27Z</time>
      </trkpt>
      <trkpt lat="45.97991" lon="4.58225">
        <ele>562</ele>
        <time>2016-12-08T09:51:28Z</time>
      </trkpt>
      <trkpt lat="45.98" lon="4.58224">
        <ele>563</ele>
        <time>2016-12-08T09:51:35Z</time>
      </trkpt>
      <trkpt lat="45.98001" lon="4.58224">
        <ele>566</ele>
        <time>2016-12-08T09:51:36Z</time>
      </trkpt>
      <trkpt lat="45.98009" lon="4.5822">
        <ele>567</ele>
        <time>2016-12-08T09:51:44Z</time>
      </trkpt>
      <trkpt lat="45.98011" lon="4.5822">
        <ele>567</ele>
        <time>2016-12-08T09:51:45Z</time>
      </trkpt>
      <trkpt lat="45.98018" lon="4.58217">
        <ele>567</ele>
        <time>2016-12-08T09:51:51Z</time>
      </trkpt>
      <trkpt lat="45.98019" lon="4.58217">
        <ele>567</ele>
        <time>2016-12-08T09:51:52Z</time>
      </trkpt>
      <trkpt lat="45.98028" lon="4.58219">
        <ele>567</ele>
        <time>2016-12-08T09:52:00Z</time>
      </trkpt>
      <trkpt lat="45.98029" lon="4.58219">
        <ele>567</ele>
        <time>2016-12-08T09:52:01Z</time>
      </trkpt>
      <trkpt lat="45.98021" lon="4.58215">
        <ele>567</ele>
        <time>2016-12-08T09:52:39Z</time>
      </trkpt>
      <trkpt lat="45.9802" lon="4.58214">
        <ele>567</ele>
        <time>2016-12-08T09:52:40Z</time>
      </trkpt>
      <trkpt lat="45.98013" lon="4.58206">
        <ele>568</ele>
        <time>2016-12-08T09:52:49Z</time>
      </trkpt>
      <trkpt lat="45.98013" lon="4.58205">
        <ele>568</ele>
        <time>2016-12-08T09:52:50Z</time>
      </trkpt>
      <trkpt lat="45.9802" lon="4.58199">
        <ele>568</ele>
        <time>2016-12-08T09:55:09Z</time>
      </trkpt>
      <trkpt lat="45.98021" lon="4.58199">
        <ele>568</ele>
        <time>2016-12-08T09:55:10Z</time>
      </trkpt>
      <trkpt lat="45.9803" lon="4.58195">
        <ele>569</ele>
        <time>2016-12-08T09:55:20Z</time>
      </trkpt>
      <trkpt lat="45.98031" lon="4.58194">
        <ele>569</ele>
        <time>2016-12-08T09:55:21Z</time>
      </trkpt>
      <trkpt lat="45.98038" lon="4.5819">
        <ele>569</ele>
        <time>2016-12-08T09:55:30Z</time>
      </trkpt>
      <trkpt lat="45.98039" lon="4.5819">
        <ele>569</ele>
        <time>2016-12-08T09:55:31Z</time>
      </trkpt>
      <trkpt lat="45.98047" lon="4.58184">
        <ele>570</ele>
        <time>2016-12-08T09:55:40Z</time>
      </trkpt>
      <trkpt lat="45.98047" lon="4.58183">
        <ele>570</ele>
        <time>2016-12-08T09:55:41Z</time>
      </trkpt>
      <trkpt lat="45.98054" lon="4.58175">
        <ele>571</ele>
        <time>2016-12-08T09:55:50Z</time>
      </trkpt>
      <trkpt lat="45.98055" lon="4.58175">
        <ele>571</ele>
        <time>2016-12-08T09:55:51Z</time>
      </trkpt>
      <trkpt lat="45.98062" lon="4.58168">
        <ele>572</ele>
        <time>2016-12-08T09:56:01Z</time>
      </trkpt>
      <trkpt lat="45.98063" lon="4.58167">
        <ele>572</ele>
        <time>2016-12-08T09:56:02Z</time>
      </trkpt>
      <trkpt lat="45.98071" lon="4.58163">
        <ele>575</ele>
        <time>2016-12-08T09:56:12Z</time>
      </trkpt>
      <trkpt lat="45.98072" lon="4.58163">
        <ele>575</ele>
        <time>2016-12-08T09:56:13Z</time>
      </trkpt>
      <trkpt lat="45.98079" lon="4.58156">
        <ele>575</ele>
        <time>2016-12-08T09:56:22Z</time>
      </trkpt>
      <trkpt lat="45.9808" lon="4.58156">
        <ele>575</ele>
        <time>2016-12-08T09:56:23Z</time>
      </trkpt>
      <trkpt lat="45.98088" lon="4.58151">
        <ele>579</ele>
        <time>2016-12-08T09:56:32Z</time>
      </trkpt>
      <trkpt lat="45.98089" lon="4.5815">
        <ele>579</ele>
        <time>2016-12-08T09:56:33Z</time>
      </trkpt>
      <trkpt lat="45.98096" lon="4.58144">
        <ele>580</ele>
        <time>2016-12-08T09:56:41Z</time>
      </trkpt>
      <trkpt lat="45.98096" lon="4.58143">
        <ele>580</ele>
        <time>2016-12-08T09:56:42Z</time>
      </trkpt>
      <trkpt lat="45.98104" lon="4.58139">
        <ele>580</ele>
        <time>2016-12-08T09:56:51Z</time>
      </trkpt>
      <trkpt lat="45.98105" lon="4.58139">
        <ele>580</ele>
        <time>2016-12-08T09:56:52Z</time>
      </trkpt>
      <trkpt lat="45.98113" lon="4.58135">
        <ele>581</ele>
        <time>2016-12-08T09:57:01Z</time>
      </trkpt>
      <trkpt lat="45.98114" lon="4.58134">
        <ele>581</ele>
        <time>2016-12-08T09:57:02Z</time>
      </trkpt>
      <trkpt lat="45.98121" lon="4.58129">
        <ele>581</ele>
        <time>2016-12-08T09:57:10Z</time>
      </trkpt>
      <trkpt lat="45.98122" lon="4.58129">
        <ele>582</ele>
        <time>2016-12-08T09:57:11Z</time>
      </trkpt>
      <trkpt lat="45.98131" lon="4.58124">
        <ele>582</ele>
        <time>2016-12-08T09:57:20Z</time>
      </trkpt>
      <trkpt lat="45.98131" lon="4.58123">
        <ele>582</ele>
        <time>2016-12-08T09:57:21Z</time>
      </trkpt>
      <trkpt lat="45.9814" lon="4.58121">
        <ele>583</ele>
        <time>2016-12-08T09:57:31Z</time>
      </trkpt>
      <trkpt lat="45.98141" lon="4.5812">
        <ele>583</ele>
        <time>2016-12-08T09:57:32Z</time>
      </trkpt>
      <trkpt lat="45.98148" lon="4.58116">
        <ele>583</ele>
        <time>2016-12-08T09:57:42Z</time>
      </trkpt>
      <trkpt lat="45.98149" lon="4.58116">
        <ele>583</ele>
        <time>2016-12-08T09:57:43Z</time>
      </trkpt>
      <trkpt lat="45.98157" lon="4.58112">
        <ele>584</ele>
        <time>2016-12-08T09:57:53Z</time>
      </trkpt>
      <trkpt lat="45.98158" lon="4.58112">
        <ele>584</ele>
        <time>2016-12-08T09:57:54Z</time>
      </trkpt>
      <trkpt lat="45.98167" lon="4.58109">
        <ele>585</ele>
        <time>2016-12-08T09:58:04Z</time>
      </trkpt>
      <trkpt lat="45.98168" lon="4.5811">
        <ele>589</ele>
        <time>2016-12-08T09:58:05Z</time>
      </trkpt>
      <trkpt lat="45.98176" lon="4.58107">
        <ele>589</ele>
        <time>2016-12-08T09:58:16Z</time>
      </trkpt>
      <trkpt lat="45.98177" lon="4.58106">
        <ele>589</ele>
        <time>2016-12-08T09:58:17Z</time>
      </trkpt>
      <trkpt lat="45.98185" lon="4.58104">
        <ele>589</ele>
        <time>2016-12-08T09:58:27Z</time>
      </trkpt>
      <trkpt lat="45.98186" lon="4.58103">
        <ele>589</ele>
        <time>2016-12-08T09:58:28Z</time>
      </trkpt>
      <trkpt lat="45.98194" lon="4.581">
        <ele>590</ele>
        <time>2016-12-08T09:58:38Z</time>
      </trkpt>
      <trkpt lat="45.98195" lon="4.581">
        <ele>590</ele>
        <time>2016-12-08T09:58:39Z</time>
      </trkpt>
      <trkpt lat="45.98204" lon="4.58098">
        <ele>590</ele>
        <time>2016-12-08T09:58:50Z</time>
      </trkpt>
      <trkpt lat="45.98204" lon="4.58098">
        <ele>590</ele>
        <time>2016-12-08T09:58:51Z</time>
      </trkpt>
      <trkpt lat="45.98213" lon="4.58094">
        <ele>591</ele>
        <time>2016-12-08T09:59:02Z</time>
      </trkpt>
      <trkpt lat="45.98213" lon="4.58094">
        <ele>591</ele>
        <time>2016-12-08T09:59:03Z</time>
      </trkpt>
      <trkpt lat="45.98222" lon="4.58091">
        <ele>592</ele>
        <time>2016-12-08T09:59:14Z</time>
      </trkpt>
      <trkpt lat="45.98222" lon="4.58091">
        <ele>592</ele>
        <time>2016-12-08T09:59:15Z</time>
      </trkpt>
      <trkpt lat="45.98229" lon="4.58083">
        <ele>598</ele>
        <time>2016-12-08T09:59:26Z</time>
      </trkpt>
      <trkpt lat="45.9823" lon="4.58082">
        <ele>598</ele>
        <time>2016-12-08T09:59:27Z</time>
      </trkpt>
      <trkpt lat="45.98237" lon="4.58078">
        <ele>598</ele>
        <time>2016-12-08T09:59:35Z</time>
      </trkpt>
      <trkpt lat="45.98238" lon="4.58077">
        <ele>598</ele>
        <time>2016-12-08T09:59:36Z</time>
      </trkpt>
      <trkpt lat="45.98245" lon="4.58071">
        <ele>599</ele>
        <time>2016-12-08T09:59:46Z</time>
      </trkpt>
      <trkpt lat="45.98246" lon="4.5807">
        <ele>599</ele>
        <time>2016-12-08T09:59:47Z</time>
      </trkpt>
      <trkpt lat="45.98253" lon="4.58063">
        <ele>601</ele>
        <time>2016-12-08T09:59:58Z</time>
      </trkpt>
      <trkpt lat="45.98254" lon="4.58062">
        <ele>601</ele>
        <time>2016-12-08T09:59:59Z</time>
      </trkpt>
      <trkpt lat="45.98259" lon="4.58054">
        <ele>602</ele>
        <time>2016-12-08T10:00:07Z</time>
      </trkpt>
      <trkpt lat="45.9826" lon="4.58053">
        <ele>602</ele>
        <time>2016-12-08T10:00:08Z</time>
      </trkpt>
      <trkpt lat="45.98267" lon="4.58046">
        <ele>602</ele>
        <time>2016-12-08T10:00:17Z</time>
      </trkpt>
      <trkpt lat="45.98268" lon="4.58045">
        <ele>602</ele>
        <time>2016-12-08T10:00:18Z</time>
      </trkpt>
      <trkpt lat="45.98274" lon="4.58037">
        <ele>603</ele>
        <time>2016-12-08T10:00:27Z</time>
      </trkpt>
      <trkpt lat="45.98275" lon="4.58036">
        <ele>603</ele>
        <time>2016-12-08T10:00:28Z</time>
      </trkpt>
      <trkpt lat="45.98282" lon="4.5803">
        <ele>603</ele>
        <time>2016-12-08T10:00:36Z</time>
      </trkpt>
      <trkpt lat="45.98283" lon="4.58029">
        <ele>603</ele>
        <time>2016-12-08T10:00:37Z</time>
      </trkpt>
      <trkpt lat="45.9829" lon="4.58022">
        <ele>604</ele>
        <time>2016-12-08T10:00:45Z</time>
      </trkpt>
      <trkpt lat="45.98291" lon="4.58021">
        <ele>604</ele>
        <time>2016-12-08T10:00:46Z</time>
      </trkpt>
      <trkpt lat="45.98297" lon="4.58014">
        <ele>604</ele>
        <time>2016-12-08T10:00:54Z</time>
      </trkpt>
      <trkpt lat="45.98298" lon="4.58013">
        <ele>604</ele>
        <time>2016-12-08T10:00:55Z</time>
      </trkpt>
      <trkpt lat="45.98305" lon="4.58006">
        <ele>604</ele>
        <time>2016-12-08T10:01:04Z</time>
      </trkpt>
      <trkpt lat="45.98306" lon="4.58005">
        <ele>604</ele>
        <time>2016-12-08T10:01:05Z</time>
      </trkpt>
      <trkpt lat="45.98312" lon="4.57994">
        <ele>610</ele>
        <time>2016-12-08T10:01:21Z</time>
      </trkpt>
      <trkpt lat="45.98312" lon="4.57993">
        <ele>610</ele>
        <time>2016-12-08T10:01:22Z</time>
      </trkpt>
      <trkpt lat="45.98316" lon="4.57983">
        <ele>610</ele>
        <time>2016-12-08T10:01:29Z</time>
      </trkpt>
      <trkpt lat="45.98316" lon="4.57982">
        <ele>610</ele>
        <time>2016-12-08T10:01:30Z</time>
      </trkpt>
      <trkpt lat="45.98319" lon="4.5797">
        <ele>611</ele>
        <time>2016-12-08T10:01:37Z</time>
      </trkpt>
      <trkpt lat="45.98319" lon="4.57968">
        <ele>611</ele>
        <time>2016-12-08T10:01:38Z</time>
      </trkpt>
      <trkpt lat="45.98321" lon="4.57956">
        <ele>612</ele>
        <time>2016-12-08T10:01:46Z</time>
      </trkpt>
      <trkpt lat="45.98322" lon="4.57955">
        <ele>612</ele>
        <time>2016-12-08T10:01:47Z</time>
      </trkpt>
      <trkpt lat="45.98326" lon="4.57944">
        <ele>614</ele>
        <time>2016-12-08T10:01:55Z</time>
      </trkpt>
      <trkpt lat="45.98326" lon="4.57943">
        <ele>614</ele>
        <time>2016-12-08T10:01:56Z</time>
      </trkpt>
      <trkpt lat="45.98329" lon="4.57931">
        <ele>615</ele>
        <time>2016-12-08T10:02:05Z</time>
      </trkpt>
      <trkpt lat="45.9833" lon="4.5793">
        <ele>615</ele>
        <time>2016-12-08T10:02:06Z</time>
      </trkpt>
      <trkpt lat="45.98334" lon="4.5792">
        <ele>617</ele>
        <time>2016-12-08T10:02:14Z</time>
      </trkpt>
      <trkpt lat="45.98335" lon="4.57919">
        <ele>617</ele>
        <time>2016-12-08T10:02:15Z</time>
      </trkpt>
      <trkpt lat="45.9834" lon="4.57909">
        <ele>618</ele>
        <time>2016-12-08T10:02:22Z</time>
      </trkpt>
      <trkpt lat="45.9834" lon="4.57908">
        <ele>618</ele>
        <time>2016-12-08T10:02:23Z</time>
      </trkpt>
      <trkpt lat="45.98344" lon="4.57897">
        <ele>619</ele>
        <time>2016-12-08T10:02:30Z</time>
      </trkpt>
      <trkpt lat="45.98345" lon="4.57895">
        <ele>619</ele>
        <time>2016-12-08T10:02:31Z</time>
      </trkpt>
      <trkpt lat="45.98349" lon="4.57884">
        <ele>619</ele>
        <time>2016-12-08T10:02:41Z</time>
      </trkpt>
      <trkpt lat="45.9835" lon="4.57883">
        <ele>619</ele>
        <time>2016-12-08T10:02:42Z</time>
      </trkpt>
      <trkpt lat="45.98355" lon="4.57873">
        <ele>620</ele>
        <time>2016-12-08T10:02:51Z</time>
      </trkpt>
      <trkpt lat="45.98355" lon="4.57872">
        <ele>620</ele>
        <time>2016-12-08T10:02:52Z</time>
      </trkpt>
      <trkpt lat="45.98361" lon="4.57863">
        <ele>621</ele>
        <time>2016-12-08T10:03:02Z</time>
      </trkpt>
      <trkpt lat="45.98362" lon="4.57862">
        <ele>621</ele>
        <time>2016-12-08T10:03:03Z</time>
      </trkpt>
      <trkpt lat="45.98368" lon="4.57852">
        <ele>621</ele>
        <time>2016-12-08T10:03:12Z</time>
      </trkpt>
      <trkpt lat="45.98368" lon="4.57851">
        <ele>621</ele>
        <time>2016-12-08T10:03:13Z</time>
      </trkpt>
      <trkpt lat="45.98374" lon="4.57841">
        <ele>621</ele>
        <time>2016-12-08T10:03:23Z</time>
      </trkpt>
      <trkpt lat="45.98374" lon="4.5784">
        <ele>621</ele>
        <time>2016-12-08T10:03:24Z</time>
      </trkpt>
      <trkpt lat="45.9838" lon="4.5783">
        <ele>630</ele>
        <time>2016-12-08T10:03:35Z</time>
      </trkpt>
      <trkpt lat="45.98381" lon="4.5783">
        <ele>630</ele>
        <time>2016-12-08T10:03:36Z</time>
      </trkpt>
      <trkpt lat="45.98388" lon="4.57823">
        <ele>629</ele>
        <time>2016-12-08T10:03:48Z</time>
      </trkpt>
      <trkpt lat="45.98389" lon="4.57822">
        <ele>629</ele>
        <time>2016-12-08T10:03:49Z</time>
      </trkpt>
      <trkpt lat="45.98395" lon="4.57814">
        <ele>630</ele>
        <time>2016-12-08T10:03:58Z</time>
      </trkpt>
      <trkpt lat="45.98396" lon="4.57813">
        <ele>630</ele>
        <time>2016-12-08T10:03:59Z</time>
      </trkpt>
      <trkpt lat="45.98402" lon="4.57804">
        <ele>630</ele>
        <time>2016-12-08T10:04:11Z</time>
      </trkpt>
      <trkpt lat="45.98403" lon="4.57803">
        <ele>630</ele>
        <time>2016-12-08T10:04:12Z</time>
      </trkpt>
      <trkpt lat="45.98409" lon="4.57794">
        <ele>632</ele>
        <time>2016-12-08T10:04:22Z</time>
      </trkpt>
      <trkpt lat="45.9841" lon="4.57794">
        <ele>632</ele>
        <time>2016-12-08T10:04:23Z</time>
      </trkpt>
      <trkpt lat="45.98416" lon="4.57785">
        <ele>633</ele>
        <time>2016-12-08T10:04:31Z</time>
      </trkpt>
      <trkpt lat="45.98417" lon="4.57784">
        <ele>626</ele>
        <time>2016-12-08T10:04:32Z</time>
      </trkpt>
      <trkpt lat="45.98422" lon="4.57774">
        <ele>628</ele>
        <time>2016-12-08T10:04:41Z</time>
      </trkpt>
      <trkpt lat="45.98423" lon="4.57772">
        <ele>628</ele>
        <time>2016-12-08T10:04:42Z</time>
      </trkpt>
      <trkpt lat="45.98428" lon="4.57762">
        <ele>630</ele>
        <time>2016-12-08T10:04:50Z</time>
      </trkpt>
      <trkpt lat="45.98428" lon="4.57761">
        <ele>631</ele>
        <time>2016-12-08T10:04:51Z</time>
      </trkpt>
      <trkpt lat="45.98433" lon="4.5775">
        <ele>631</ele>
        <time>2016-12-08T10:05:02Z</time>
      </trkpt>
      <trkpt lat="45.98434" lon="4.57749">
        <ele>639</ele>
        <time>2016-12-08T10:05:03Z</time>
      </trkpt>
      <trkpt lat="45.98439" lon="4.5774">
        <ele>639</ele>
        <time>2016-12-08T10:05:13Z</time>
      </trkpt>
      <trkpt lat="45.9844" lon="4.57739">
        <ele>639</ele>
        <time>2016-12-08T10:05:14Z</time>
      </trkpt>
      <trkpt lat="45.98445" lon="4.57729">
        <ele>639</ele>
        <time>2016-12-08T10:05:21Z</time>
      </trkpt>
      <trkpt lat="45.98446" lon="4.57726">
        <ele>639</ele>
        <time>2016-12-08T10:05:22Z</time>
      </trkpt>
      <trkpt lat="45.98451" lon="4.57717">
        <ele>640</ele>
        <time>2016-12-08T10:05:29Z</time>
      </trkpt>
      <trkpt lat="45.98452" lon="4.57715">
        <ele>640</ele>
        <time>2016-12-08T10:05:30Z</time>
      </trkpt>
      <trkpt lat="45.98457" lon="4.57706">
        <ele>640</ele>
        <time>2016-12-08T10:05:41Z</time>
      </trkpt>
      <trkpt lat="45.98458" lon="4.57705">
        <ele>640</ele>
        <time>2016-12-08T10:05:42Z</time>
      </trkpt>
      <trkpt lat="45.98462" lon="4.57695">
        <ele>641</ele>
        <time>2016-12-08T10:05:53Z</time>
      </trkpt>
      <trkpt lat="45.98463" lon="4.57694">
        <ele>641</ele>
        <time>2016-12-08T10:05:54Z</time>
      </trkpt>
      <trkpt lat="45.98469" lon="4.57685">
        <ele>642</ele>
        <time>2016-12-08T10:06:04Z</time>
      </trkpt>
      <trkpt lat="45.9847" lon="4.57684">
        <ele>642</ele>
        <time>2016-12-08T10:06:05Z</time>
      </trkpt>
      <trkpt lat="45.98476" lon="4.57675">
        <ele>642</ele>
        <time>2016-12-08T10:06:13Z</time>
      </trkpt>
      <trkpt lat="45.98477" lon="4.57674">
        <ele>642</ele>
        <time>2016-12-08T10:06:14Z</time>
      </trkpt>
      <trkpt lat="45.98482" lon="4.57664">
        <ele>651</ele>
        <time>2016-12-08T10:06:25Z</time>
      </trkpt>
      <trkpt lat="45.98483" lon="4.57661">
        <ele>651</ele>
        <time>2016-12-08T10:06:26Z</time>
      </trkpt>
      <trkpt lat="45.98488" lon="4.57652">
        <ele>651</ele>
        <time>2016-12-08T10:06:37Z</time>
      </trkpt>
      <trkpt lat="45.98488" lon="4.57651">
        <ele>651</ele>
        <time>2016-12-08T10:06:38Z</time>
      </trkpt>
      <trkpt lat="45.98494" lon="4.57641">
        <ele>653</ele>
        <time>2016-12-08T10:06:49Z</time>
      </trkpt>
      <trkpt lat="45.98494" lon="4.5764">
        <ele>653</ele>
        <time>2016-12-08T10:06:50Z</time>
      </trkpt>
      <trkpt lat="45.985" lon="4.57631">
        <ele>654</ele>
        <time>2016-12-08T10:07:01Z</time>
      </trkpt>
      <trkpt lat="45.985" lon="4.5763">
        <ele>641</ele>
        <time>2016-12-08T10:07:02Z</time>
      </trkpt>
      <trkpt lat="45.98504" lon="4.57619">
        <ele>642</ele>
        <time>2016-12-08T10:07:16Z</time>
      </trkpt>
      <trkpt lat="45.98505" lon="4.57619">
        <ele>642</ele>
        <time>2016-12-08T10:07:17Z</time>
      </trkpt>
      <trkpt lat="45.98507" lon="4.57608">
        <ele>645</ele>
        <time>2016-12-08T10:07:28Z</time>
      </trkpt>
      <trkpt lat="45.98507" lon="4.57606">
        <ele>645</ele>
        <time>2016-12-08T10:07:29Z</time>
      </trkpt>
      <trkpt lat="45.98509" lon="4.57595">
        <ele>649</ele>
        <time>2016-12-08T10:07:36Z</time>
      </trkpt>
      <trkpt lat="45.98509" lon="4.57593">
        <ele>649</ele>
        <time>2016-12-08T10:07:37Z</time>
      </trkpt>
      <trkpt lat="45.98509" lon="4.57581">
        <ele>654</ele>
        <time>2016-12-08T10:07:46Z</time>
      </trkpt>
      <trkpt lat="45.98509" lon="4.57579">
        <ele>654</ele>
        <time>2016-12-08T10:07:47Z</time>
      </trkpt>
      <trkpt lat="45.98512" lon="4.57568">
        <ele>650</ele>
        <time>2016-12-08T10:08:01Z</time>
      </trkpt>
      <trkpt lat="45.98512" lon="4.57566">
        <ele>650</ele>
        <time>2016-12-08T10:08:02Z</time>
      </trkpt>
      <trkpt lat="45.98514" lon="4.57554">
        <ele>648</ele>
        <time>2016-12-08T10:08:11Z</time>
      </trkpt>
      <trkpt lat="45.98514" lon="4.57551">
        <ele>648</ele>
        <time>2016-12-08T10:08:12Z</time>
      </trkpt>
      <trkpt lat="45.98516" lon="4.5754">
        <ele>648</ele>
        <time>2016-12-08T10:08:16Z</time>
      </trkpt>
      <trkpt lat="45.98516" lon="4.57537">
        <ele>648</ele>
        <time>2016-12-08T10:08:17Z</time>
      </trkpt>
      <trkpt lat="45.98517" lon="4.57526">
        <ele>649</ele>
        <time>2016-12-08T10:08:22Z</time>
      </trkpt>
      <trkpt lat="45.98517" lon="4.57524">
        <ele>649</ele>
        <time>2016-12-08T10:08:23Z</time>
      </trkpt>
      <trkpt lat="45.98519" lon="4.57512">
        <ele>651</ele>
        <time>2016-12-08T10:08:36Z</time>
      </trkpt>
      <trkpt lat="45.98519" lon="4.57511">
        <ele>651</ele>
        <time>2016-12-08T10:08:37Z</time>
      </trkpt>
      <trkpt lat="45.98521" lon="4.57501">
        <ele>651</ele>
        <time>2016-12-08T10:08:43Z</time>
      </trkpt>
      <trkpt lat="45.98522" lon="4.57498">
        <ele>653</ele>
        <time>2016-12-08T10:08:44Z</time>
      </trkpt>
      <trkpt lat="45.98522" lon="4.57486">
        <ele>652</ele>
        <time>2016-12-08T10:08:49Z</time>
      </trkpt>
      <trkpt lat="45.98522" lon="4.57483">
        <ele>652</ele>
        <time>2016-12-08T10:08:50Z</time>
      </trkpt>
      <trkpt lat="45.98523" lon="4.57471">
        <ele>651</ele>
        <time>2016-12-08T10:08:55Z</time>
      </trkpt>
      <trkpt lat="45.98523" lon="4.57468">
        <ele>651</ele>
        <time>2016-12-08T10:08:56Z</time>
      </trkpt>
      <trkpt lat="45.98522" lon="4.57456">
        <ele>651</ele>
        <time>2016-12-08T10:09:03Z</time>
      </trkpt>
      <trkpt lat="45.98523" lon="4.57455">
        <ele>651</ele>
        <time>2016-12-08T10:09:04Z</time>
      </trkpt>
      <trkpt lat="45.98525" lon="4.57443">
        <ele>651</ele>
        <time>2016-12-08T10:09:12Z</time>
      </trkpt>
      <trkpt lat="45.98525" lon="4.57441">
        <ele>651</ele>
        <time>2016-12-08T10:09:13Z</time>
      </trkpt>
      <trkpt lat="45.98528" lon="4.57429">
        <ele>651</ele>
        <time>2016-12-08T10:09:19Z</time>
      </trkpt>
      <trkpt lat="45.98528" lon="4.57427">
        <ele>651</ele>
        <time>2016-12-08T10:09:20Z</time>
      </trkpt>
      <trkpt lat="45.98531" lon="4.57416">
        <ele>657</ele>
        <time>2016-12-08T10:09:25Z</time>
      </trkpt>
      <trkpt lat="45.98532" lon="4.57414">
        <ele>657</ele>
        <time>2016-12-08T10:09:26Z</time>
      </trkpt>
      <trkpt lat="45.98536" lon="4.57404">
        <ele>656</ele>
        <time>2016-12-08T10:09:33Z</time>
      </trkpt>
      <trkpt lat="45.98537" lon="4.57402">
        <ele>656</ele>
        <time>2016-12-08T10:09:34Z</time>
      </trkpt>
      <trkpt lat="45.9854" lon="4.5739">
        <ele>656</ele>
        <time>2016-12-08T10:09:41Z</time>
      </trkpt>
      <trkpt lat="45.98541" lon="4.57387">
        <ele>656</ele>
        <time>2016-12-08T10:09:42Z</time>
      </trkpt>
      <trkpt lat="45.98546" lon="4.57378">
        <ele>656</ele>
        <time>2016-12-08T10:09:47Z</time>
      </trkpt>
      <trkpt lat="45.98546" lon="4.57376">
        <ele>656</ele>
        <time>2016-12-08T10:09:48Z</time>
      </trkpt>
      <trkpt lat="45.98549" lon="4.57365">
        <ele>657</ele>
        <time>2016-12-08T10:09:54Z</time>
      </trkpt>
      <trkpt lat="45.98549" lon="4.57363">
        <ele>657</ele>
        <time>2016-12-08T10:09:55Z</time>
      </trkpt>
      <trkpt lat="45.98554" lon="4.57353">
        <ele>657</ele>
        <time>2016-12-08T10:10:00Z</time>
      </trkpt>
      <trkpt lat="45.98555" lon="4.57351">
        <ele>656</ele>
        <time>2016-12-08T10:10:01Z</time>
      </trkpt>
      <trkpt lat="45.9856" lon="4.57341">
        <ele>655</ele>
        <time>2016-12-08T10:10:08Z</time>
      </trkpt>
      <trkpt lat="45.9856" lon="4.5734">
        <ele>655</ele>
        <time>2016-12-08T10:10:09Z</time>
      </trkpt>
      <trkpt lat="45.98566" lon="4.5733">
        <ele>662</ele>
        <time>2016-12-08T10:10:18Z</time>
      </trkpt>
      <trkpt lat="45.98566" lon="4.57329">
        <ele>662</ele>
        <time>2016-12-08T10:10:19Z</time>
      </trkpt>
      <trkpt lat="45.98569" lon="4.57318">
        <ele>664</ele>
        <time>2016-12-08T10:10:27Z</time>
      </trkpt>
      <trkpt lat="45.9857" lon="4.57316">
        <ele>664</ele>
        <time>2016-12-08T10:10:28Z</time>
      </trkpt>
      <trkpt lat="45.98573" lon="4.57304">
        <ele>667</ele>
        <time>2016-12-08T10:10:34Z</time>
      </trkpt>
      <trkpt lat="45.98573" lon="4.57303">
        <ele>667</ele>
        <time>2016-12-08T10:10:35Z</time>
      </trkpt>
      <trkpt lat="45.98577" lon="4.57292">
        <ele>669</ele>
        <time>2016-12-08T10:10:43Z</time>
      </trkpt>
      <trkpt lat="45.98577" lon="4.57291">
        <ele>669</ele>
        <time>2016-12-08T10:10:44Z</time>
      </trkpt>
      <trkpt lat="45.98583" lon="4.57282">
        <ele>670</ele>
        <time>2016-12-08T10:11:09Z</time>
      </trkpt>
      <trkpt lat="45.98584" lon="4.57281">
        <ele>659</ele>
        <time>2016-12-08T10:11:10Z</time>
      </trkpt>
      <trkpt lat="45.98591" lon="4.57274">
        <ele>660</ele>
        <time>2016-12-08T10:11:16Z</time>
      </trkpt>
      <trkpt lat="45.98592" lon="4.57273">
        <ele>660</ele>
        <time>2016-12-08T10:11:17Z</time>
      </trkpt>
      <trkpt lat="45.986" lon="4.57267">
        <ele>661</ele>
        <time>2016-12-08T10:11:24Z</time>
      </trkpt>
      <trkpt lat="45.98601" lon="4.57267">
        <ele>660</ele>
        <time>2016-12-08T10:11:25Z</time>
      </trkpt>
      <trkpt lat="45.98608" lon="4.57264">
        <ele>660</ele>
        <time>2016-12-08T10:11:32Z</time>
      </trkpt>
      <trkpt lat="45.9861" lon="4.57264">
        <ele>660</ele>
        <time>2016-12-08T10:11:33Z</time>
      </trkpt>
      <trkpt lat="45.98617" lon="4.57262">
        <ele>660</ele>
        <time>2016-12-08T10:11:41Z</time>
      </trkpt>
      <trkpt lat="45.98618" lon="4.57261">
        <ele>660</ele>
        <time>2016-12-08T10:11:42Z</time>
      </trkpt>
      <trkpt lat="45.98627" lon="4.57258">
        <ele>660</ele>
        <time>2016-12-08T10:11:50Z</time>
      </trkpt>
      <trkpt lat="45.98628" lon="4.57259">
        <ele>660</ele>
        <time>2016-12-08T10:11:51Z</time>
      </trkpt>
      <trkpt lat="45.98633" lon="4.57269">
        <ele>659</ele>
        <time>2016-12-08T10:11:58Z</time>
      </trkpt>
      <trkpt lat="45.98634" lon="4.57269">
        <ele>659</ele>
        <time>2016-12-08T10:11:59Z</time>
      </trkpt>
      <trkpt lat="45.98642" lon="4.57271">
        <ele>659</ele>
        <time>2016-12-08T10:12:05Z</time>
      </trkpt>
      <trkpt lat="45.98643" lon="4.57271">
        <ele>659</ele>
        <time>2016-12-08T10:12:06Z</time>
      </trkpt>
      <trkpt lat="45.98652" lon="4.57273">
        <ele>659</ele>
        <time>2016-12-08T10:12:12Z</time>
      </trkpt>
      <trkpt lat="45.98653" lon="4.57273">
        <ele>659</ele>
        <time>2016-12-08T10:12:13Z</time>
      </trkpt>
      <trkpt lat="45.9866" lon="4.57267">
        <ele>660</ele>
        <time>2016-12-08T10:12:20Z</time>
      </trkpt>
      <trkpt lat="45.98662" lon="4.57267">
        <ele>660</ele>
        <time>2016-12-08T10:12:21Z</time>
      </trkpt>
      <trkpt lat="45.98671" lon="4.57265">
        <ele>660</ele>
        <time>2016-12-08T10:12:29Z</time>
      </trkpt>
      <trkpt lat="45.98672" lon="4.57265">
        <ele>660</ele>
        <time>2016-12-08T10:12:30Z</time>
      </trkpt>
      <trkpt lat="45.9868" lon="4.57264">
        <ele>660</ele>
        <time>2016-12-08T10:12:39Z</time>
      </trkpt>
      <trkpt lat="45.98681" lon="4.57264">
        <ele>660</ele>
        <time>2016-12-08T10:12:40Z</time>
      </trkpt>
      <trkpt lat="45.98688" lon="4.57257">
        <ele>660</ele>
        <time>2016-12-08T10:12:47Z</time>
      </trkpt>
      <trkpt lat="45.98689" lon="4.57256">
        <ele>660</ele>
        <time>2016-12-08T10:12:48Z</time>
      </trkpt>
      <trkpt lat="45.98697" lon="4.57253">
        <ele>659</ele>
        <time>2016-12-08T10:12:57Z</time>
      </trkpt>
      <trkpt lat="45.98698" lon="4.57253">
        <ele>659</ele>
        <time>2016-12-08T10:12:58Z</time>
      </trkpt>
      <trkpt lat="45.98706" lon="4.57251">
        <ele>659</ele>
        <time>2016-12-08T10:13:07Z</time>
      </trkpt>
      <trkpt lat="45.98708" lon="4.5725">
        <ele>659</ele>
        <time>2016-12-08T10:13:08Z</time>
      </trkpt>
      <trkpt lat="45.98716" lon="4.5725">
        <ele>659</ele>
        <time>2016-12-08T10:13:16Z</time>
      </trkpt>
      <trkpt lat="45.98717" lon="4.57251">
        <ele>659</ele>
        <time>2016-12-08T10:13:17Z</time>
      </trkpt>
      <trkpt lat="45.98726" lon="4.57247">
        <ele>668</ele>
        <time>2016-12-08T10:13:24Z</time>
      </trkpt>
      <trkpt lat="45.98727" lon="4.57247">
        <ele>668</ele>
        <time>2016-12-08T10:13:25Z</time>
      </trkpt>
      <trkpt lat="45.98735" lon="4.57247">
        <ele>667</ele>
        <time>2016-12-08T10:13:37Z</time>
      </trkpt>
      <trkpt lat="45.98736" lon="4.57247">
        <ele>667</ele>
        <time>2016-12-08T10:13:38Z</time>
      </trkpt>
      <trkpt lat="45.98744" lon="4.57242">
        <ele>666</ele>
        <time>2016-12-08T10:13:46Z</time>
      </trkpt>
      <trkpt lat="45.98745" lon="4.57241">
        <ele>666</ele>
        <time>2016-12-08T10:13:47Z</time>
      </trkpt>
      <trkpt lat="45.98753" lon="4.5724">
        <ele>662</ele>
        <time>2016-12-08T10:13:54Z</time>
      </trkpt>
      <trkpt lat="45.98754" lon="4.5724">
        <ele>662</ele>
        <time>2016-12-08T10:13:55Z</time>
      </trkpt>
      <trkpt lat="45.98762" lon="4.57235">
        <ele>661</ele>
        <time>2016-12-08T10:14:03Z</time>
      </trkpt>
      <trkpt lat="45.98762" lon="4.57234">
        <ele>661</ele>
        <time>2016-12-08T10:14:04Z</time>
      </trkpt>
      <trkpt lat="45.9876" lon="4.57223">
        <ele>661</ele>
        <time>2016-12-08T10:14:13Z</time>
      </trkpt>
      <trkpt lat="45.9876" lon="4.57221">
        <ele>661</ele>
        <time>2016-12-08T10:14:14Z</time>
      </trkpt>
      <trkpt lat="45.98758" lon="4.57209">
        <ele>661</ele>
        <time>2016-12-08T10:14:51Z</time>
      </trkpt>
      <trkpt lat="45.98757" lon="4.57208">
        <ele>661</ele>
        <time>2016-12-08T10:14:52Z</time>
      </trkpt>
      <trkpt lat="45.98752" lon="4.57198">
        <ele>662</ele>
        <time>2016-12-08T10:15:01Z</time>
      </trkpt>
      <trkpt lat="45.98752" lon="4.57197">
        <ele>662</ele>
        <time>2016-12-08T10:15:02Z</time>
      </trkpt>
      <trkpt lat="45.98747" lon="4.57187">
        <ele>671</ele>
        <time>2016-12-08T10:15:10Z</time>
      </trkpt>
      <trkpt lat="45.98747" lon="4.57185">
        <ele>671</ele>
        <time>2016-12-08T10:15:11Z</time>
      </trkpt>
      <trkpt lat="45.98742" lon="4.57175">
        <ele>672</ele>
        <time>2016-12-08T10:15:22Z</time>
      </trkpt>
      <trkpt lat="45.98742" lon="4.57174">
        <ele>672</ele>
        <time>2016-12-08T10:15:23Z</time>
      </trkpt>
      <trkpt lat="45.98739" lon="4.57162">
        <ele>674</ele>
        <time>2016-12-08T10:15:31Z</time>
      </trkpt>
      <trkpt lat="45.98739" lon="4.57162">
        <ele>674</ele>
        <time>2016-12-08T10:15:32Z</time>
      </trkpt>
      <trkpt lat="45.98735" lon="4.57151">
        <ele>675</ele>
        <time>2016-12-08T10:15:42Z</time>
      </trkpt>
      <trkpt lat="45.98735" lon="4.57149">
        <ele>676</ele>
        <time>2016-12-08T10:15:43Z</time>
      </trkpt>
      <trkpt lat="45.98731" lon="4.57139">
        <ele>676</ele>
        <time>2016-12-08T10:15:55Z</time>
      </trkpt>
      <trkpt lat="45.98731" lon="4.57137">
        <ele>676</ele>
        <time>2016-12-08T10:15:56Z</time>
      </trkpt>
      <trkpt lat="45.98725" lon="4.57127">
        <ele>677</ele>
        <time>2016-12-08T10:16:03Z</time>
      </trkpt>
      <trkpt lat="45.98724" lon="4.57126">
        <ele>677</ele>
        <time>2016-12-08T10:16:04Z</time>
      </trkpt>
      <trkpt lat="45.9872" lon="4.57116">
        <ele>677</ele>
        <time>2016-12-08T10:16:09Z</time>
      </trkpt>
      <trkpt lat="45.98719" lon="4.57114">
        <ele>677</ele>
        <time>2016-12-08T10:16:10Z</time>
      </trkpt>
      <trkpt lat="45.98715" lon="4.57105">
        <ele>678</ele>
        <time>2016-12-08T10:16:15Z</time>
      </trkpt>
      <trkpt lat="45.98714" lon="4.57103">
        <ele>678</ele>
        <time>2016-12-08T10:16:16Z</time>
      </trkpt>
      <trkpt lat="45.9871" lon="4.57093">
        <ele>678</ele>
        <time>2016-12-08T10:16:22Z</time>
      </trkpt>
      <trkpt lat="45.9871" lon="4.57092">
        <ele>678</ele>
        <time>2016-12-08T10:16:23Z</time>
      </trkpt>
      <trkpt lat="45.98706" lon="4.57081">
        <ele>677</ele>
        <time>2016-12-08T10:16:29Z</time>
      </trkpt>
      <trkpt lat="45.98705" lon="4.57079">
        <ele>678</ele>
        <time>2016-12-08T10:16:30Z</time>
      </trkpt>
      <trkpt lat="45.98701" lon="4.57069">
        <ele>678</ele>
        <time>2016-12-08T10:16:35Z</time>
      </trkpt>
      <trkpt lat="45.987" lon="4.57067">
        <ele>678</ele>
        <time>2016-12-08T10:16:36Z</time>
      </trkpt>
      <trkpt lat="45.98698" lon="4.57055">
        <ele>678</ele>
        <time>2016-12-08T10:16:42Z</time>
      </trkpt>
      <trkpt lat="45.98697" lon="4.57053">
        <ele>678</ele>
        <time>2016-12-08T10:16:43Z</time>
      </trkpt>
      <trkpt lat="45.98693" lon="4.57042">
        <ele>678</ele>
        <time>2016-12-08T10:16:49Z</time>
      </trkpt>
      <trkpt lat="45.98692" lon="4.57041">
        <ele>678</ele>
        <time>2016-12-08T10:16:50Z</time>
      </trkpt>
      <trkpt lat="45.98687" lon="4.57031">
        <ele>679</ele>
        <time>2016-12-08T10:16:57Z</time>
      </trkpt>
      <trkpt lat="45.98687" lon="4.57029">
        <ele>679</ele>
        <time>2016-12-08T10:16:58Z</time>
      </trkpt>
      <trkpt lat="45.98684" lon="4.57017">
        <ele>680</ele>
        <time>2016-12-08T10:17:07Z</time>
      </trkpt>
      <trkpt lat="45.98683" lon="4.57015">
        <ele>680</ele>
        <time>2016-12-08T10:17:08Z</time>
      </trkpt>
      <trkpt lat="45.98681" lon="4.57004">
        <ele>681</ele>
        <time>2016-12-08T10:17:13Z</time>
      </trkpt>
      <trkpt lat="45.98681" lon="4.57002">
        <ele>682</ele>
        <time>2016-12-08T10:17:14Z</time>
      </trkpt>
      <trkpt lat="45.98679" lon="4.56991">
        <ele>682</ele>
        <time>2016-12-08T10:17:19Z</time>
      </trkpt>
      <trkpt lat="45.98679" lon="4.56989">
        <ele>681</ele>
        <time>2016-12-08T10:17:20Z</time>
      </trkpt>
      <trkpt lat="45.98677" lon="4.56977">
        <ele>681</ele>
        <time>2016-12-08T10:17:28Z</time>
      </trkpt>
      <trkpt lat="45.98677" lon="4.56976">
        <ele>680</ele>
        <time>2016-12-08T10:17:29Z</time>
      </trkpt>
      <trkpt lat="45.98676" lon="4.56964">
        <ele>680</ele>
        <time>2016-12-08T10:17:40Z</time>
      </trkpt>
      <trkpt lat="45.98676" lon="4.56962">
        <ele>680</ele>
        <time>2016-12-08T10:17:41Z</time>
      </trkpt>
      <trkpt lat="45.98675" lon="4.5695">
        <ele>682</ele>
        <time>2016-12-08T10:17:47Z</time>
      </trkpt>
      <trkpt lat="45.98675" lon="4.56948">
        <ele>682</ele>
        <time>2016-12-08T10:17:48Z</time>
      </trkpt>
      <trkpt lat="45.98674" lon="4.56935">
        <ele>685</ele>
        <time>2016-12-08T10:17:54Z</time>
      </trkpt>
      <trkpt lat="45.98674" lon="4.56933">
        <ele>685</ele>
        <time>2016-12-08T10:17:55Z</time>
      </trkpt>
      <trkpt lat="45.98675" lon="4.56922">
        <ele>689</ele>
        <time>2016-12-08T10:18:02Z</time>
      </trkpt>
      <trkpt lat="45.98675" lon="4.5692">
        <ele>689</ele>
        <time>2016-12-08T10:18:03Z</time>
      </trkpt>
      <trkpt lat="45.98675" lon="4.56908">
        <ele>691</ele>
        <time>2016-12-08T10:18:10Z</time>
      </trkpt>
      <trkpt lat="45.98675" lon="4.56907">
        <ele>691</ele>
        <time>2016-12-08T10:18:11Z</time>
      </trkpt>
      <trkpt lat="45.9868" lon="4.56897">
        <ele>689</ele>
        <time>2016-12-08T10:18:21Z</time>
      </trkpt>
      <trkpt lat="45.98681" lon="4.56896">
        <ele>689</ele>
        <time>2016-12-08T10:18:22Z</time>
      </trkpt>
      <trkpt lat="45.98687" lon="4.56887">
        <ele>688</ele>
        <time>2016-12-08T10:18:32Z</time>
      </trkpt>
      <trkpt lat="45.98688" lon="4.56886">
        <ele>688</ele>
        <time>2016-12-08T10:18:33Z</time>
      </trkpt>
      <trkpt lat="45.98692" lon="4.56875">
        <ele>688</ele>
        <time>2016-12-08T10:18:41Z</time>
      </trkpt>
      <trkpt lat="45.98693" lon="4.56874">
        <ele>688</ele>
        <time>2016-12-08T10:18:42Z</time>
      </trkpt>
      <trkpt lat="45.98697" lon="4.56863">
        <ele>688</ele>
        <time>2016-12-08T10:18:49Z</time>
      </trkpt>
      <trkpt lat="45.98697" lon="4.56861">
        <ele>688</ele>
        <time>2016-12-08T10:18:50Z</time>
      </trkpt>
      <trkpt lat="45.98702" lon="4.56851">
        <ele>688</ele>
        <time>2016-12-08T10:19:00Z</time>
      </trkpt>
      <trkpt lat="45.98703" lon="4.5685">
        <ele>688</ele>
        <time>2016-12-08T10:19:01Z</time>
      </trkpt>
      <trkpt lat="45.98707" lon="4.5684">
        <ele>687</ele>
        <time>2016-12-08T10:19:10Z</time>
      </trkpt>
      <trkpt lat="45.98707" lon="4.56839">
        <ele>687</ele>
        <time>2016-12-08T10:19:11Z</time>
      </trkpt>
      <trkpt lat="45.9871" lon="4.56828">
        <ele>694</ele>
        <time>2016-12-08T10:19:18Z</time>
      </trkpt>
      <trkpt lat="45.9871" lon="4.56826">
        <ele>694</ele>
        <time>2016-12-08T10:19:19Z</time>
      </trkpt>
      <trkpt lat="45.98711" lon="4.56815">
        <ele>695</ele>
        <time>2016-12-08T10:19:27Z</time>
      </trkpt>
      <trkpt lat="45.98711" lon="4.56813">
        <ele>695</ele>
        <time>2016-12-08T10:19:28Z</time>
      </trkpt>
      <trkpt lat="45.98713" lon="4.56802">
        <ele>695</ele>
        <time>2016-12-08T10:19:35Z</time>
      </trkpt>
      <trkpt lat="45.98714" lon="4.568">
        <ele>695</ele>
        <time>2016-12-08T10:19:36Z</time>
      </trkpt>
      <trkpt lat="45.98717" lon="4.56791">
        <ele>695</ele>
        <time>2016-12-08T10:19:42Z</time>
      </trkpt>
      <trkpt lat="45.98718" lon="4.56788">
        <ele>696</ele>
        <time>2016-12-08T10:19:43Z</time>
      </trkpt>
      <trkpt lat="45.98723" lon="4.56778">
        <ele>695</ele>
        <time>2016-12-08T10:19:54Z</time>
      </trkpt>
      <trkpt lat="45.98724" lon="4.56777">
        <ele>695</ele>
        <time>2016-12-08T10:19:55Z</time>
      </trkpt>
      <trkpt lat="45.98725" lon="4.56766">
        <ele>695</ele>
        <time>2016-12-08T10:20:05Z</time>
      </trkpt>
      <trkpt lat="45.98725" lon="4.56764">
        <ele>695</ele>
        <time>2016-12-08T10:20:06Z</time>
      </trkpt>
      <trkpt lat="45.98729" lon="4.56753">
        <ele>695</ele>
        <time>2016-12-08T10:20:15Z</time>
      </trkpt>
      <trkpt lat="45.98729" lon="4.56751">
        <ele>695</ele>
        <time>2016-12-08T10:20:16Z</time>
      </trkpt>
      <trkpt lat="45.98731" lon="4.56739">
        <ele>703</ele>
        <time>2016-12-08T10:20:21Z</time>
      </trkpt>
      <trkpt lat="45.98732" lon="4.56737">
        <ele>704</ele>
        <time>2016-12-08T10:20:22Z</time>
      </trkpt>
      <trkpt lat="45.98737" lon="4.56727">
        <ele>705</ele>
        <time>2016-12-08T10:20:27Z</time>
      </trkpt>
      <trkpt lat="45.98739" lon="4.56725">
        <ele>705</ele>
        <time>2016-12-08T10:20:28Z</time>
      </trkpt>
      <trkpt lat="45.98744" lon="4.56719">
        <ele>706</ele>
        <time>2016-12-08T10:20:32Z</time>
      </trkpt>
      <trkpt lat="45.98746" lon="4.56717">
        <ele>707</ele>
        <time>2016-12-08T10:20:33Z</time>
      </trkpt>
      <trkpt lat="45.98752" lon="4.56709">
        <ele>695</ele>
        <time>2016-12-08T10:20:37Z</time>
      </trkpt>
      <trkpt lat="45.98753" lon="4.56707">
        <ele>695</ele>
        <time>2016-12-08T10:20:38Z</time>
      </trkpt>
      <trkpt lat="45.9876" lon="4.56702">
        <ele>696</ele>
        <time>2016-12-08T10:20:43Z</time>
      </trkpt>
      <trkpt lat="45.98761" lon="4.567">
        <ele>696</ele>
        <time>2016-12-08T10:20:44Z</time>
      </trkpt>
      <trkpt lat="45.98768" lon="4.56694">
        <ele>697</ele>
        <time>2016-12-08T10:20:51Z</time>
      </trkpt>
      <trkpt lat="45.98769" lon="4.56694">
        <ele>697</ele>
        <time>2016-12-08T10:20:52Z</time>
      </trkpt>
      <trkpt lat="45.98777" lon="4.56691">
        <ele>696</ele>
        <time>2016-12-08T10:21:00Z</time>
      </trkpt>
      <trkpt lat="45.98778" lon="4.56691">
        <ele>696</ele>
        <time>2016-12-08T10:21:01Z</time>
      </trkpt>
      <trkpt lat="45.98786" lon="4.56688">
        <ele>695</ele>
        <time>2016-12-08T10:21:09Z</time>
      </trkpt>
      <trkpt lat="45.98788" lon="4.56688">
        <ele>695</ele>
        <time>2016-12-08T10:21:10Z</time>
      </trkpt>
      <trkpt lat="45.98796" lon="4.56685">
        <ele>695</ele>
        <time>2016-12-08T10:21:17Z</time>
      </trkpt>
      <trkpt lat="45.98797" lon="4.56684">
        <ele>695</ele>
        <time>2016-12-08T10:21:18Z</time>
      </trkpt>
      <trkpt lat="45.98804" lon="4.56678">
        <ele>695</ele>
        <time>2016-12-08T10:21:25Z</time>
      </trkpt>
      <trkpt lat="45.98805" lon="4.56676">
        <ele>695</ele>
        <time>2016-12-08T10:21:26Z</time>
      </trkpt>
      <trkpt lat="45.98811" lon="4.56669">
        <ele>695</ele>
        <time>2016-12-08T10:21:33Z</time>
      </trkpt>
      <trkpt lat="45.98812" lon="4.56667">
        <ele>695</ele>
        <time>2016-12-08T10:21:34Z</time>
      </trkpt>
      <trkpt lat="45.98819" lon="4.5666">
        <ele>704</ele>
        <time>2016-12-08T10:21:44Z</time>
      </trkpt>
      <trkpt lat="45.98819" lon="4.56658">
        <ele>704</ele>
        <time>2016-12-08T10:21:45Z</time>
      </trkpt>
      <trkpt lat="45.98825" lon="4.5665">
        <ele>705</ele>
        <time>2016-12-08T10:21:52Z</time>
      </trkpt>
      <trkpt lat="45.98826" lon="4.56648">
        <ele>705</ele>
        <time>2016-12-08T10:21:53Z</time>
      </trkpt>
      <trkpt lat="45.98834" lon="4.56642">
        <ele>702</ele>
        <time>2016-12-08T10:22:01Z</time>
      </trkpt>
      <trkpt lat="45.98834" lon="4.56641">
        <ele>702</ele>
        <time>2016-12-08T10:22:02Z</time>
      </trkpt>
      <trkpt lat="45.9884" lon="4.56632">
        <ele>704</ele>
        <time>2016-12-08T10:22:10Z</time>
      </trkpt>
      <trkpt lat="45.98841" lon="4.56631">
        <ele>704</ele>
        <time>2016-12-08T10:22:11Z</time>
      </trkpt>
      <trkpt lat="45.98846" lon="4.56621">
        <ele>705</ele>
        <time>2016-12-08T10:22:19Z</time>
      </trkpt>
      <trkpt lat="45.98846" lon="4.56621">
        <ele>705</ele>
        <time>2016-12-08T10:22:20Z</time>
      </trkpt>
      <trkpt lat="45.98851" lon="4.5661">
        <ele>706</ele>
        <time>2016-12-08T10:22:31Z</time>
      </trkpt>
      <trkpt lat="45.98852" lon="4.56609">
        <ele>707</ele>
        <time>2016-12-08T10:22:32Z</time>
      </trkpt>
      <trkpt lat="45.98859" lon="4.56602">
        <ele>707</ele>
        <time>2016-12-08T10:22:39Z</time>
      </trkpt>
      <trkpt lat="45.9886" lon="4.56602">
        <ele>707</ele>
        <time>2016-12-08T10:22:40Z</time>
      </trkpt>
      <trkpt lat="45.98867" lon="4.56597">
        <ele>707</ele>
        <time>2016-12-08T10:22:47Z</time>
      </trkpt>
      <trkpt lat="45.98868" lon="4.56596">
        <ele>707</ele>
        <time>2016-12-08T10:22:48Z</time>
      </trkpt>
      <trkpt lat="45.98877" lon="4.56595">
        <ele>707</ele>
        <time>2016-12-08T10:23:05Z</time>
      </trkpt>
      <trkpt lat="45.98878" lon="4.56595">
        <ele>707</ele>
        <time>2016-12-08T10:23:06Z</time>
      </trkpt>
      <trkpt lat="45.98886" lon="4.56598">
        <ele>707</ele>
        <time>2016-12-08T10:23:14Z</time>
      </trkpt>
      <trkpt lat="45.98887" lon="4.56599">
        <ele>707</ele>
        <time>2016-12-08T10:23:15Z</time>
      </trkpt>
      <trkpt lat="45.98896" lon="4.56602">
        <ele>707</ele>
        <time>2016-12-08T10:23:45Z</time>
      </trkpt>
      <trkpt lat="45.98896" lon="4.56602">
        <ele>707</ele>
        <time>2016-12-08T10:23:46Z</time>
      </trkpt>
      <trkpt lat="45.98896" lon="4.56589">
        <ele>708</ele>
        <time>2016-12-08T10:25:03Z</time>
      </trkpt>
      <trkpt lat="45.98895" lon="4.56588">
        <ele>708</ele>
        <time>2016-12-08T10:25:04Z</time>
      </trkpt>
      <trkpt lat="45.98893" lon="4.56577">
        <ele>712</ele>
        <time>2016-12-08T10:25:14Z</time>
      </trkpt>
      <trkpt lat="45.98892" lon="4.56576">
        <ele>712</ele>
        <time>2016-12-08T10:25:15Z</time>
      </trkpt>
      <trkpt lat="45.98892" lon="4.56564">
        <ele>712</ele>
        <time>2016-12-08T10:25:25Z</time>
      </trkpt>
      <trkpt lat="45.98892" lon="4.56563">
        <ele>712</ele>
        <time>2016-12-08T10:25:26Z</time>
      </trkpt>
      <trkpt lat="45.98888" lon="4.56552">
        <ele>712</ele>
        <time>2016-12-08T10:25:35Z</time>
      </trkpt>
      <trkpt lat="45.98888" lon="4.5655">
        <ele>712</ele>
        <time>2016-12-08T10:25:36Z</time>
      </trkpt>
      <trkpt lat="45.98883" lon="4.5654">
        <ele>711</ele>
        <time>2016-12-08T10:25:43Z</time>
      </trkpt>
      <trkpt lat="45.98882" lon="4.56539">
        <ele>711</ele>
        <time>2016-12-08T10:25:44Z</time>
      </trkpt>
      <trkpt lat="45.98879" lon="4.56527">
        <ele>711</ele>
        <time>2016-12-08T10:25:52Z</time>
      </trkpt>
      <trkpt lat="45.98879" lon="4.56525">
        <ele>711</ele>
        <time>2016-12-08T10:25:53Z</time>
      </trkpt>
      <trkpt lat="45.98876" lon="4.56514">
        <ele>711</ele>
        <time>2016-12-08T10:26:01Z</time>
      </trkpt>
      <trkpt lat="45.98876" lon="4.56513">
        <ele>711</ele>
        <time>2016-12-08T10:26:02Z</time>
      </trkpt>
      <trkpt lat="45.98868" lon="4.56507">
        <ele>711</ele>
        <time>2016-12-08T10:27:07Z</time>
      </trkpt>
      <trkpt lat="45.98867" lon="4.56507">
        <ele>711</ele>
        <time>2016-12-08T10:27:08Z</time>
      </trkpt>
      <trkpt lat="45.98863" lon="4.56498">
        <ele>709</ele>
        <time>2016-12-08T10:27:47Z</time>
      </trkpt>
      <trkpt lat="45.98863" lon="4.56496">
        <ele>709</ele>
        <time>2016-12-08T10:27:48Z</time>
      </trkpt>
      <trkpt lat="45.98861" lon="4.56484">
        <ele>708</ele>
        <time>2016-12-08T10:27:55Z</time>
      </trkpt>
      <trkpt lat="45.9886" lon="4.56482">
        <ele>708</ele>
        <time>2016-12-08T10:27:56Z</time>
      </trkpt>
      <trkpt lat="45.98859" lon="4.56469">
        <ele>708</ele>
        <time>2016-12-08T10:28:04Z</time>
      </trkpt>
      <trkpt lat="45.98858" lon="4.56468">
        <ele>708</ele>
        <time>2016-12-08T10:28:05Z</time>
      </trkpt>
      <trkpt lat="45.98855" lon="4.56457">
        <ele>707</ele>
        <time>2016-12-08T10:28:11Z</time>
      </trkpt>
      <trkpt lat="45.98855" lon="4.56456">
        <ele>707</ele>
        <time>2016-12-08T10:28:12Z</time>
      </trkpt>
      <trkpt lat="45.98852" lon="4.56444">
        <ele>706</ele>
        <time>2016-12-08T10:28:19Z</time>
      </trkpt>
      <trkpt lat="45.98852" lon="4.56442">
        <ele>706</ele>
        <time>2016-12-08T10:28:20Z</time>
      </trkpt>
      <trkpt lat="45.98851" lon="4.5643">
        <ele>706</ele>
        <time>2016-12-08T10:28:27Z</time>
      </trkpt>
      <trkpt lat="45.9885" lon="4.56429">
        <ele>705</ele>
        <time>2016-12-08T10:28:28Z</time>
      </trkpt>
      <trkpt lat="45.98846" lon="4.56417">
        <ele>705</ele>
        <time>2016-12-08T10:28:36Z</time>
      </trkpt>
      <trkpt lat="45.98846" lon="4.56416">
        <ele>701</ele>
        <time>2016-12-08T10:28:37Z</time>
      </trkpt>
      <trkpt lat="45.98851" lon="4.56405">
        <ele>699</ele>
        <time>2016-12-08T10:28:49Z</time>
      </trkpt>
      <trkpt lat="45.98852" lon="4.56404">
        <ele>699</ele>
        <time>2016-12-08T10:28:50Z</time>
      </trkpt>
      <trkpt lat="45.9886" lon="4.56399">
        <ele>698</ele>
        <time>2016-12-08T10:28:58Z</time>
      </trkpt>
      <trkpt lat="45.98861" lon="4.56399">
        <ele>698</ele>
        <time>2016-12-08T10:28:59Z</time>
      </trkpt>
      <trkpt lat="45.98869" lon="4.56394">
        <ele>697</ele>
        <time>2016-12-08T10:29:06Z</time>
      </trkpt>
      <trkpt lat="45.9887" lon="4.56394">
        <ele>697</ele>
        <time>2016-12-08T10:29:07Z</time>
      </trkpt>
      <trkpt lat="45.98878" lon="4.5639">
        <ele>696</ele>
        <time>2016-12-08T10:29:14Z</time>
      </trkpt>
      <trkpt lat="45.98879" lon="4.56389">
        <ele>696</ele>
        <time>2016-12-08T10:29:15Z</time>
      </trkpt>
      <trkpt lat="45.98886" lon="4.56384">
        <ele>696</ele>
        <time>2016-12-08T10:29:22Z</time>
      </trkpt>
      <trkpt lat="45.98887" lon="4.56383">
        <ele>696</ele>
        <time>2016-12-08T10:29:23Z</time>
      </trkpt>
      <trkpt lat="45.98894" lon="4.56377">
        <ele>695</ele>
        <time>2016-12-08T10:29:29Z</time>
      </trkpt>
      <trkpt lat="45.98895" lon="4.56375">
        <ele>695</ele>
        <time>2016-12-08T10:29:30Z</time>
      </trkpt>
      <trkpt lat="45.98901" lon="4.56368">
        <ele>694</ele>
        <time>2016-12-08T10:29:36Z</time>
      </trkpt>
      <trkpt lat="45.98902" lon="4.56367">
        <ele>694</ele>
        <time>2016-12-08T10:29:37Z</time>
      </trkpt>
      <trkpt lat="45.98909" lon="4.5636">
        <ele>693</ele>
        <time>2016-12-08T10:29:44Z</time>
      </trkpt>
      <trkpt lat="45.9891" lon="4.56359">
        <ele>692</ele>
        <time>2016-12-08T10:29:45Z</time>
      </trkpt>
      <trkpt lat="45.98918" lon="4.56352">
        <ele>695</ele>
        <time>2016-12-08T10:29:53Z</time>
      </trkpt>
      <trkpt lat="45.98919" lon="4.56352">
        <ele>695</ele>
        <time>2016-12-08T10:29:54Z</time>
      </trkpt>
      <trkpt lat="45.98925" lon="4.56343">
        <ele>693</ele>
        <time>2016-12-08T10:30:01Z</time>
      </trkpt>
      <trkpt lat="45.98926" lon="4.56342">
        <ele>693</ele>
        <time>2016-12-08T10:30:02Z</time>
      </trkpt>
      <trkpt lat="45.98931" lon="4.56332">
        <ele>687</ele>
        <time>2016-12-08T10:30:09Z</time>
      </trkpt>
      <trkpt lat="45.98932" lon="4.5633">
        <ele>687</ele>
        <time>2016-12-08T10:30:10Z</time>
      </trkpt>
      <trkpt lat="45.98936" lon="4.56321">
        <ele>687</ele>
        <time>2016-12-08T10:30:16Z</time>
      </trkpt>
      <trkpt lat="45.98937" lon="4.56319">
        <ele>687</ele>
        <time>2016-12-08T10:30:17Z</time>
      </trkpt>
      <trkpt lat="45.9894" lon="4.56308">
        <ele>686</ele>
        <time>2016-12-08T10:30:24Z</time>
      </trkpt>
      <trkpt lat="45.98941" lon="4.56306">
        <ele>686</ele>
        <time>2016-12-08T10:30:25Z</time>
      </trkpt>
      <trkpt lat="45.98945" lon="4.56296">
        <ele>686</ele>
        <time>2016-12-08T10:30:32Z</time>
      </trkpt>
      <trkpt lat="45.98946" lon="4.56294">
        <ele>686</ele>
        <time>2016-12-08T10:30:33Z</time>
      </trkpt>
      <trkpt lat="45.98953" lon="4.56286">
        <ele>685</ele>
        <time>2016-12-08T10:30:41Z</time>
      </trkpt>
      <trkpt lat="45.98954" lon="4.56285">
        <ele>685</ele>
        <time>2016-12-08T10:30:42Z</time>
      </trkpt>
      <trkpt lat="45.98958" lon="4.56275">
        <ele>685</ele>
        <time>2016-12-08T10:30:50Z</time>
      </trkpt>
      <trkpt lat="45.98959" lon="4.56274">
        <ele>685</ele>
        <time>2016-12-08T10:30:51Z</time>
      </trkpt>
      <trkpt lat="45.98964" lon="4.56264">
        <ele>685</ele>
        <time>2016-12-08T10:30:58Z</time>
      </trkpt>
      <trkpt lat="45.98964" lon="4.56263">
        <ele>685</ele>
        <time>2016-12-08T10:30:59Z</time>
      </trkpt>
      <trkpt lat="45.98968" lon="4.56251">
        <ele>685</ele>
        <time>2016-12-08T10:31:06Z</time>
      </trkpt>
      <trkpt lat="45.98969" lon="4.5625">
        <ele>675</ele>
        <time>2016-12-08T10:31:07Z</time>
      </trkpt>
      <trkpt lat="45.98973" lon="4.56241">
        <ele>676</ele>
        <time>2016-12-08T10:31:12Z</time>
      </trkpt>
      <trkpt lat="45.98974" lon="4.56239">
        <ele>675</ele>
        <time>2016-12-08T10:31:13Z</time>
      </trkpt>
      <trkpt lat="45.9898" lon="4.56231">
        <ele>676</ele>
        <time>2016-12-08T10:31:19Z</time>
      </trkpt>
      <trkpt lat="45.98981" lon="4.5623">
        <ele>676</ele>
        <time>2016-12-08T10:31:20Z</time>
      </trkpt>
      <trkpt lat="45.98987" lon="4.56221">
        <ele>675</ele>
        <time>2016-12-08T10:31:26Z</time>
      </trkpt>
      <trkpt lat="45.98988" lon="4.5622">
        <ele>675</ele>
        <time>2016-12-08T10:31:27Z</time>
      </trkpt>
      <trkpt lat="45.98995" lon="4.56213">
        <ele>674</ele>
        <time>2016-12-08T10:31:33Z</time>
      </trkpt>
      <trkpt lat="45.98995" lon="4.56212">
        <ele>674</ele>
        <time>2016-12-08T10:31:34Z</time>
      </trkpt>
      <trkpt lat="45.99" lon="4.56202">
        <ele>685</ele>
        <time>2016-12-08T10:31:41Z</time>
      </trkpt>
      <trkpt lat="45.99001" lon="4.562">
        <ele>684</ele>
        <time>2016-12-08T10:31:42Z</time>
      </trkpt>
      <trkpt lat="45.99005" lon="4.56189">
        <ele>682</ele>
        <time>2016-12-08T10:31:49Z</time>
      </trkpt>
      <trkpt lat="45.99006" lon="4.56188">
        <ele>682</ele>
        <time>2016-12-08T10:31:50Z</time>
      </trkpt>
      <trkpt lat="45.99011" lon="4.5618">
        <ele>681</ele>
        <time>2016-12-08T10:31:56Z</time>
      </trkpt>
      <trkpt lat="45.99012" lon="4.56179">
        <ele>681</ele>
        <time>2016-12-08T10:31:57Z</time>
      </trkpt>
      <trkpt lat="45.99018" lon="4.56169">
        <ele>681</ele>
        <time>2016-12-08T10:32:04Z</time>
      </trkpt>
      <trkpt lat="45.99019" lon="4.56168">
        <ele>681</ele>
        <time>2016-12-08T10:32:05Z</time>
      </trkpt>
      <trkpt lat="45.99024" lon="4.56159">
        <ele>674</ele>
        <time>2016-12-08T10:32:11Z</time>
      </trkpt>
      <trkpt lat="45.99025" lon="4.56157">
        <ele>674</ele>
        <time>2016-12-08T10:32:12Z</time>
      </trkpt>
      <trkpt lat="45.99028" lon="4.56146">
        <ele>674</ele>
        <time>2016-12-08T10:32:19Z</time>
      </trkpt>
      <trkpt lat="45.99029" lon="4.56144">
        <ele>674</ele>
        <time>2016-12-08T10:32:20Z</time>
      </trkpt>
      <trkpt lat="45.99033" lon="4.56135">
        <ele>673</ele>
        <time>2016-12-08T10:32:26Z</time>
      </trkpt>
      <trkpt lat="45.99034" lon="4.56134">
        <ele>673</ele>
        <time>2016-12-08T10:32:27Z</time>
      </trkpt>
      <trkpt lat="45.99039" lon="4.56124">
        <ele>673</ele>
        <time>2016-12-08T10:32:33Z</time>
      </trkpt>
      <trkpt lat="45.9904" lon="4.56122">
        <ele>673</ele>
        <time>2016-12-08T10:32:34Z</time>
      </trkpt>
      <trkpt lat="45.99044" lon="4.56112">
        <ele>673</ele>
        <time>2016-12-08T10:32:40Z</time>
      </trkpt>
      <trkpt lat="45.99045" lon="4.56111">
        <ele>673</ele>
        <time>2016-12-08T10:32:41Z</time>
      </trkpt>
      <trkpt lat="45.9905" lon="4.56101">
        <ele>673</ele>
        <time>2016-12-08T10:32:48Z</time>
      </trkpt>
      <trkpt lat="45.99051" lon="4.56099">
        <ele>673</ele>
        <time>2016-12-08T10:32:49Z</time>
      </trkpt>
      <trkpt lat="45.99042" lon="4.56101">
        <ele>672</ele>
        <time>2016-12-08T10:33:10Z</time>
      </trkpt>
      <trkpt lat="45.99041" lon="4.56101">
        <ele>671</ele>
        <time>2016-12-08T10:33:11Z</time>
      </trkpt>
      <trkpt lat="45.99032" lon="4.56099">
        <ele>670</ele>
        <time>2016-12-08T10:33:18Z</time>
      </trkpt>
      <trkpt lat="45.99031" lon="4.56099">
        <ele>670</ele>
        <time>2016-12-08T10:33:19Z</time>
      </trkpt>
      <trkpt lat="45.99023" lon="4.561">
        <ele>668</ele>
        <time>2016-12-08T10:33:25Z</time>
      </trkpt>
      <trkpt lat="45.99022" lon="4.56101">
        <ele>668</ele>
        <time>2016-12-08T10:33:26Z</time>
      </trkpt>
      <trkpt lat="45.99015" lon="4.56107">
        <ele>668</ele>
        <time>2016-12-08T10:33:32Z</time>
      </trkpt>
      <trkpt lat="45.99014" lon="4.56108">
        <ele>668</ele>
        <time>2016-12-08T10:33:33Z</time>
      </trkpt>
      <trkpt lat="45.99006" lon="4.56112">
        <ele>668</ele>
        <time>2016-12-08T10:33:39Z</time>
      </trkpt>
      <trkpt lat="45.99004" lon="4.56112">
        <ele>668</ele>
        <time>2016-12-08T10:33:40Z</time>
      </trkpt>
      <trkpt lat="45.98996" lon="4.56115">
        <ele>657</ele>
        <time>2016-12-08T10:33:48Z</time>
      </trkpt>
      <trkpt lat="45.98995" lon="4.56115">
        <ele>657</ele>
        <time>2016-12-08T10:33:49Z</time>
      </trkpt>
      <trkpt lat="45.98986" lon="4.56114">
        <ele>657</ele>
        <time>2016-12-08T10:33:56Z</time>
      </trkpt>
      <trkpt lat="45.98985" lon="4.56115">
        <ele>657</ele>
        <time>2016-12-08T10:33:57Z</time>
      </trkpt>
      <trkpt lat="45.98978" lon="4.5612">
        <ele>657</ele>
        <time>2016-12-08T10:34:08Z</time>
      </trkpt>
      <trkpt lat="45.98977" lon="4.5612">
        <ele>657</ele>
        <time>2016-12-08T10:34:09Z</time>
      </trkpt>
      <trkpt lat="45.98968" lon="4.56123">
        <ele>656</ele>
        <time>2016-12-08T10:34:16Z</time>
      </trkpt>
      <trkpt lat="45.98967" lon="4.56122">
        <ele>656</ele>
        <time>2016-12-08T10:34:17Z</time>
      </trkpt>
      <trkpt lat="45.98959" lon="4.56125">
        <ele>655</ele>
        <time>2016-12-08T10:34:25Z</time>
      </trkpt>
      <trkpt lat="45.98958" lon="4.56126">
        <ele>655</ele>
        <time>2016-12-08T10:34:26Z</time>
      </trkpt>
      <trkpt lat="45.9895" lon="4.56124">
        <ele>654</ele>
        <time>2016-12-08T10:34:33Z</time>
      </trkpt>
      <trkpt lat="45.98948" lon="4.56125">
        <ele>654</ele>
        <time>2016-12-08T10:34:34Z</time>
      </trkpt>
      <trkpt lat="45.98939" lon="4.56125">
        <ele>653</ele>
        <time>2016-12-08T10:34:41Z</time>
      </trkpt>
      <trkpt lat="45.98938" lon="4.56125">
        <ele>653</ele>
        <time>2016-12-08T10:34:42Z</time>
      </trkpt>
      <trkpt lat="45.98929" lon="4.56127">
        <ele>653</ele>
        <time>2016-12-08T10:34:49Z</time>
      </trkpt>
      <trkpt lat="45.98928" lon="4.56127">
        <ele>653</ele>
        <time>2016-12-08T10:34:50Z</time>
      </trkpt>
      <trkpt lat="45.98919" lon="4.5613">
        <ele>652</ele>
        <time>2016-12-08T10:34:56Z</time>
      </trkpt>
      <trkpt lat="45.98918" lon="4.56131">
        <ele>652</ele>
        <time>2016-12-08T10:34:57Z</time>
      </trkpt>
      <trkpt lat="45.9891" lon="4.56138">
        <ele>647</ele>
        <time>2016-12-08T10:35:04Z</time>
      </trkpt>
      <trkpt lat="45.9891" lon="4.56139">
        <ele>648</ele>
        <time>2016-12-08T10:35:05Z</time>
      </trkpt>
      <trkpt lat="45.98904" lon="4.56147">
        <ele>648</ele>
        <time>2016-12-08T10:35:13Z</time>
      </trkpt>
      <trkpt lat="45.98903" lon="4.56148">
        <ele>648</ele>
        <time>2016-12-08T10:35:14Z</time>
      </trkpt>
      <trkpt lat="45.98895" lon="4.56149">
        <ele>648</ele>
        <time>2016-12-08T10:35:20Z</time>
      </trkpt>
      <trkpt lat="45.98894" lon="4.56149">
        <ele>648</ele>
        <time>2016-12-08T10:35:21Z</time>
      </trkpt>
      <trkpt lat="45.98885" lon="4.56144">
        <ele>647</ele>
        <time>2016-12-08T10:35:27Z</time>
      </trkpt>
      <trkpt lat="45.98884" lon="4.56144">
        <ele>647</ele>
        <time>2016-12-08T10:35:28Z</time>
      </trkpt>
      <trkpt lat="45.98877" lon="4.56138">
        <ele>647</ele>
        <time>2016-12-08T10:35:33Z</time>
      </trkpt>
      <trkpt lat="45.98876" lon="4.56137">
        <ele>647</ele>
        <time>2016-12-08T10:35:34Z</time>
      </trkpt>
      <trkpt lat="45.98869" lon="4.5613">
        <ele>646</ele>
        <time>2016-12-08T10:35:40Z</time>
      </trkpt>
      <trkpt lat="45.98867" lon="4.56128">
        <ele>646</ele>
        <time>2016-12-08T10:35:41Z</time>
      </trkpt>
      <trkpt lat="45.98863" lon="4.56119">
        <ele>645</ele>
        <time>2016-12-08T10:35:47Z</time>
      </trkpt>
      <trkpt lat="45.98862" lon="4.56118">
        <ele>645</ele>
        <time>2016-12-08T10:35:48Z</time>
      </trkpt>
      <trkpt lat="45.98855" lon="4.56109">
        <ele>643</ele>
        <time>2016-12-08T10:35:54Z</time>
      </trkpt>
      <trkpt lat="45.98854" lon="4.56108">
        <ele>643</ele>
        <time>2016-12-08T10:35:55Z</time>
      </trkpt>
      <trkpt lat="45.98847" lon="4.56101">
        <ele>641</ele>
        <time>2016-12-08T10:36:01Z</time>
      </trkpt>
      <trkpt lat="45.98845" lon="4.56099">
        <ele>641</ele>
        <time>2016-12-08T10:36:02Z</time>
      </trkpt>
      <trkpt lat="45.98838" lon="4.56092">
        <ele>639</ele>
        <time>2016-12-08T10:36:08Z</time>
      </trkpt>
      <trkpt lat="45.98837" lon="4.56091">
        <ele>638</ele>
        <time>2016-12-08T10:36:09Z</time>
      </trkpt>
      <trkpt lat="45.9883" lon="4.56083">
        <ele>635</ele>
        <time>2016-12-08T10:36:16Z</time>
      </trkpt>
      <trkpt lat="45.98829" lon="4.56081">
        <ele>635</ele>
        <time>2016-12-08T10:36:17Z</time>
      </trkpt>
      <trkpt lat="45.98822" lon="4.56074">
        <ele>635</ele>
        <time>2016-12-08T10:36:25Z</time>
      </trkpt>
      <trkpt lat="45.98821" lon="4.56073">
        <ele>635</ele>
        <time>2016-12-08T10:36:26Z</time>
      </trkpt>
      <trkpt lat="45.98816" lon="4.56064">
        <ele>635</ele>
        <time>2016-12-08T10:36:34Z</time>
      </trkpt>
      <trkpt lat="45.98814" lon="4.56063">
        <ele>635</ele>
        <time>2016-12-08T10:36:35Z</time>
      </trkpt>
      <trkpt lat="45.98808" lon="4.56055">
        <ele>634</ele>
        <time>2016-12-08T10:36:41Z</time>
      </trkpt>
      <trkpt lat="45.98807" lon="4.56054">
        <ele>634</ele>
        <time>2016-12-08T10:36:42Z</time>
      </trkpt>
      <trkpt lat="45.988" lon="4.56046">
        <ele>634</ele>
        <time>2016-12-08T10:36:48Z</time>
      </trkpt>
      <trkpt lat="45.98799" lon="4.56045">
        <ele>634</ele>
        <time>2016-12-08T10:36:49Z</time>
      </trkpt>
      <trkpt lat="45.98792" lon="4.56038">
        <ele>634</ele>
        <time>2016-12-08T10:36:55Z</time>
      </trkpt>
      <trkpt lat="45.98791" lon="4.56037">
        <ele>634</ele>
        <time>2016-12-08T10:36:56Z</time>
      </trkpt>
      <trkpt lat="45.98784" lon="4.5603">
        <ele>634</ele>
        <time>2016-12-08T10:37:02Z</time>
      </trkpt>
      <trkpt lat="45.98783" lon="4.56029">
        <ele>634</ele>
        <time>2016-12-08T10:37:03Z</time>
      </trkpt>
      <trkpt lat="45.98777" lon="4.5602">
        <ele>634</ele>
        <time>2016-12-08T10:37:09Z</time>
      </trkpt>
      <trkpt lat="45.98776" lon="4.56019">
        <ele>634</ele>
        <time>2016-12-08T10:37:10Z</time>
      </trkpt>
      <trkpt lat="45.9877" lon="4.56013">
        <ele>634</ele>
        <time>2016-12-08T10:37:16Z</time>
      </trkpt>
      <trkpt lat="45.98768" lon="4.56012">
        <ele>634</ele>
        <time>2016-12-08T10:37:17Z</time>
      </trkpt>
      <trkpt lat="45.98761" lon="4.56004">
        <ele>633</ele>
        <time>2016-12-08T10:37:24Z</time>
      </trkpt>
      <trkpt lat="45.9876" lon="4.56003">
        <ele>633</ele>
        <time>2016-12-08T10:37:25Z</time>
      </trkpt>
      <trkpt lat="45.98754" lon="4.55997">
        <ele>630</ele>
        <time>2016-12-08T10:37:31Z</time>
      </trkpt>
      <trkpt lat="45.98753" lon="4.55996">
        <ele>630</ele>
        <time>2016-12-08T10:37:32Z</time>
      </trkpt>
      <trkpt lat="45.98747" lon="4.55987">
        <ele>631</ele>
        <time>2016-12-08T10:37:38Z</time>
      </trkpt>
      <trkpt lat="45.98746" lon="4.55986">
        <ele>631</ele>
        <time>2016-12-08T10:37:39Z</time>
      </trkpt>
      <trkpt lat="45.98741" lon="4.55977">
        <ele>630</ele>
        <time>2016-12-08T10:37:45Z</time>
      </trkpt>
      <trkpt lat="45.9874" lon="4.55975">
        <ele>629</ele>
        <time>2016-12-08T10:37:46Z</time>
      </trkpt>
      <trkpt lat="45.98735" lon="4.55966">
        <ele>629</ele>
        <time>2016-12-08T10:37:51Z</time>
      </trkpt>
      <trkpt lat="45.98734" lon="4.55965">
        <ele>628</ele>
        <time>2016-12-08T10:37:52Z</time>
      </trkpt>
      <trkpt lat="45.98728" lon="4.55956">
        <ele>628</ele>
        <time>2016-12-08T10:37:58Z</time>
      </trkpt>
      <trkpt lat="45.98727" lon="4.55955">
        <ele>627</ele>
        <time>2016-12-08T10:37:59Z</time>
      </trkpt>
      <trkpt lat="45.98721" lon="4.55945">
        <ele>627</ele>
        <time>2016-12-08T10:38:05Z</time>
      </trkpt>
      <trkpt lat="45.9872" lon="4.55944">
        <ele>627</ele>
        <time>2016-12-08T10:38:06Z</time>
      </trkpt>
      <trkpt lat="45.98714" lon="4.55936">
        <ele>626</ele>
        <time>2016-12-08T10:38:12Z</time>
      </trkpt>
      <trkpt lat="45.98713" lon="4.55934">
        <ele>626</ele>
        <time>2016-12-08T10:38:13Z</time>
      </trkpt>
      <trkpt lat="45.98706" lon="4.55927">
        <ele>626</ele>
        <time>2016-12-08T10:38:20Z</time>
      </trkpt>
      <trkpt lat="45.98705" lon="4.55926">
        <ele>626</ele>
        <time>2016-12-08T10:38:21Z</time>
      </trkpt>
      <trkpt lat="45.98698" lon="4.5592">
        <ele>626</ele>
        <time>2016-12-08T10:38:27Z</time>
      </trkpt>
      <trkpt lat="45.98697" lon="4.55919">
        <ele>626</ele>
        <time>2016-12-08T10:38:28Z</time>
      </trkpt>
      <trkpt lat="45.9869" lon="4.55915">
        <ele>616</ele>
        <time>2016-12-08T10:38:34Z</time>
      </trkpt>
      <trkpt lat="45.98689" lon="4.55913">
        <ele>616</ele>
        <time>2016-12-08T10:38:35Z</time>
      </trkpt>
      <trkpt lat="45.98681" lon="4.55909">
        <ele>617</ele>
        <time>2016-12-08T10:38:42Z</time>
      </trkpt>
      <trkpt lat="45.9868" lon="4.55908">
        <ele>618</ele>
        <time>2016-12-08T10:38:43Z</time>
      </trkpt>
      <trkpt lat="45.98672" lon="4.55905">
        <ele>618</ele>
        <time>2016-12-08T10:38:49Z</time>
      </trkpt>
      <trkpt lat="45.98671" lon="4.55904">
        <ele>618</ele>
        <time>2016-12-08T10:38:50Z</time>
      </trkpt>
      <trkpt lat="45.98663" lon="4.55903">
        <ele>617</ele>
        <time>2016-12-08T10:38:55Z</time>
      </trkpt>
      <trkpt lat="45.98662" lon="4.55902">
        <ele>617</ele>
        <time>2016-12-08T10:38:56Z</time>
      </trkpt>
      <trkpt lat="45.98654" lon="4.55896">
        <ele>615</ele>
        <time>2016-12-08T10:39:02Z</time>
      </trkpt>
      <trkpt lat="45.98653" lon="4.55896">
        <ele>614</ele>
        <time>2016-12-08T10:39:03Z</time>
      </trkpt>
      <trkpt lat="45.98645" lon="4.55892">
        <ele>613</ele>
        <time>2016-12-08T10:39:11Z</time>
      </trkpt>
      <trkpt lat="45.98644" lon="4.55892">
        <ele>613</ele>
        <time>2016-12-08T10:39:12Z</time>
      </trkpt>
      <trkpt lat="45.98635" lon="4.55891">
        <ele>612</ele>
        <time>2016-12-08T10:39:19Z</time>
      </trkpt>
      <trkpt lat="45.98634" lon="4.55892">
        <ele>612</ele>
        <time>2016-12-08T10:39:20Z</time>
      </trkpt>
      <trkpt lat="45.98626" lon="4.55895">
        <ele>611</ele>
        <time>2016-12-08T10:39:27Z</time>
      </trkpt>
      <trkpt lat="45.98624" lon="4.55895">
        <ele>611</ele>
        <time>2016-12-08T10:39:28Z</time>
      </trkpt>
      <trkpt lat="45.98617" lon="4.55899">
        <ele>611</ele>
        <time>2016-12-08T10:39:34Z</time>
      </trkpt>
      <trkpt lat="45.98616" lon="4.559">
        <ele>611</ele>
        <time>2016-12-08T10:39:35Z</time>
      </trkpt>
      <trkpt lat="45.98608" lon="4.55905">
        <ele>611</ele>
        <time>2016-12-08T10:39:41Z</time>
      </trkpt>
      <trkpt lat="45.98607" lon="4.55905">
        <ele>611</ele>
        <time>2016-12-08T10:39:42Z</time>
      </trkpt>
      <trkpt lat="45.986" lon="4.5591">
        <ele>611</ele>
        <time>2016-12-08T10:39:48Z</time>
      </trkpt>
      <trkpt lat="45.98598" lon="4.55911">
        <ele>611</ele>
        <time>2016-12-08T10:39:49Z</time>
      </trkpt>
      <trkpt lat="45.9859" lon="4.55917">
        <ele>615</ele>
        <time>2016-12-08T10:39:56Z</time>
      </trkpt>
      <trkpt lat="45.98589" lon="4.55918">
        <ele>615</ele>
        <time>2016-12-08T10:39:57Z</time>
      </trkpt>
      <trkpt lat="45.98582" lon="4.55924">
        <ele>612</ele>
        <time>2016-12-08T10:40:04Z</time>
      </trkpt>
      <trkpt lat="45.9858" lon="4.55925">
        <ele>612</ele>
        <time>2016-12-08T10:40:05Z</time>
      </trkpt>
      <trkpt lat="45.98573" lon="4.55931">
        <ele>611</ele>
        <time>2016-12-08T10:40:11Z</time>
      </trkpt>
      <trkpt lat="45.98572" lon="4.55932">
        <ele>611</ele>
        <time>2016-12-08T10:40:12Z</time>
      </trkpt>
      <trkpt lat="45.98566" lon="4.5594">
        <ele>611</ele>
        <time>2016-12-08T10:40:18Z</time>
      </trkpt>
      <trkpt lat="45.98565" lon="4.55941">
        <ele>611</ele>
        <time>2016-12-08T10:40:19Z</time>
      </trkpt>
      <trkpt lat="45.98559" lon="4.55949">
        <ele>611</ele>
        <time>2016-12-08T10:40:25Z</time>
      </trkpt>
      <trkpt lat="45.98558" lon="4.5595">
        <ele>611</ele>
        <time>2016-12-08T10:40:26Z</time>
      </trkpt>
      <trkpt lat="45.98552" lon="4.55959">
        <ele>611</ele>
        <time>2016-12-08T10:40:33Z</time>
      </trkpt>
      <trkpt lat="45.98551" lon="4.5596">
        <ele>611</ele>
        <time>2016-12-08T10:40:34Z</time>
      </trkpt>
      <trkpt lat="45.98546" lon="4.55969">
        <ele>612</ele>
        <time>2016-12-08T10:40:41Z</time>
      </trkpt>
      <trkpt lat="45.98545" lon="4.5597">
        <ele>612</ele>
        <time>2016-12-08T10:40:42Z</time>
      </trkpt>
      <trkpt lat="45.98542" lon="4.55981">
        <ele>612</ele>
        <time>2016-12-08T10:40:49Z</time>
      </trkpt>
      <trkpt lat="45.98542" lon="4.55983">
        <ele>612</ele>
        <time>2016-12-08T10:40:50Z</time>
      </trkpt>
      <trkpt lat="45.98538" lon="4.55993">
        <ele>612</ele>
        <time>2016-12-08T10:40:57Z</time>
      </trkpt>
      <trkpt lat="45.98537" lon="4.55994">
        <ele>612</ele>
        <time>2016-12-08T10:40:58Z</time>
      </trkpt>
      <trkpt lat="45.98533" lon="4.56003">
        <ele>621</ele>
        <time>2016-12-08T10:41:05Z</time>
      </trkpt>
      <trkpt lat="45.98532" lon="4.56005">
        <ele>621</ele>
        <time>2016-12-08T10:41:06Z</time>
      </trkpt>
      <trkpt lat="45.98527" lon="4.56015">
        <ele>621</ele>
        <time>2016-12-08T10:41:13Z</time>
      </trkpt>
      <trkpt lat="45.98526" lon="4.56016">
        <ele>621</ele>
        <time>2016-12-08T10:41:14Z</time>
      </trkpt>
      <trkpt lat="45.98518" lon="4.56014">
        <ele>619</ele>
        <time>2016-12-08T10:41:20Z</time>
      </trkpt>
      <trkpt lat="45.98517" lon="4.56013">
        <ele>619</ele>
        <time>2016-12-08T10:41:21Z</time>
      </trkpt>
      <trkpt lat="45.98509" lon="4.56012">
        <ele>617</ele>
        <time>2016-12-08T10:41:28Z</time>
      </trkpt>
      <trkpt lat="45.98508" lon="4.56011">
        <ele>616</ele>
        <time>2016-12-08T10:41:29Z</time>
      </trkpt>
      <trkpt lat="45.985" lon="4.56008">
        <ele>612</ele>
        <time>2016-12-08T10:41:35Z</time>
      </trkpt>
      <trkpt lat="45.98499" lon="4.56007">
        <ele>612</ele>
        <time>2016-12-08T10:41:36Z</time>
      </trkpt>
      <trkpt lat="45.98491" lon="4.56001">
        <ele>612</ele>
        <time>2016-12-08T10:41:42Z</time>
      </trkpt>
      <trkpt lat="45.9849" lon="4.56">
        <ele>612</ele>
        <time>2016-12-08T10:41:43Z</time>
      </trkpt>
      <trkpt lat="45.98483" lon="4.55994">
        <ele>605</ele>
        <time>2016-12-08T10:41:49Z</time>
      </trkpt>
      <trkpt lat="45.98482" lon="4.55993">
        <ele>605</ele>
        <time>2016-12-08T10:41:50Z</time>
      </trkpt>
      <trkpt lat="45.98476" lon="4.55986">
        <ele>604</ele>
        <time>2016-12-08T10:41:56Z</time>
      </trkpt>
      <trkpt lat="45.98475" lon="4.55984">
        <ele>603</ele>
        <time>2016-12-08T10:41:57Z</time>
      </trkpt>
      <trkpt lat="45.98469" lon="4.55975">
        <ele>602</ele>
        <time>2016-12-08T10:42:03Z</time>
      </trkpt>
      <trkpt lat="45.98468" lon="4.55974">
        <ele>602</ele>
        <time>2016-12-08T10:42:04Z</time>
      </trkpt>
      <trkpt lat="45.98462" lon="4.55967">
        <ele>601</ele>
        <time>2016-12-08T10:42:10Z</time>
      </trkpt>
      <trkpt lat="45.98461" lon="4.55965">
        <ele>601</ele>
        <time>2016-12-08T10:42:11Z</time>
      </trkpt>
      <trkpt lat="45.98455" lon="4.55955">
        <ele>600</ele>
        <time>2016-12-08T10:42:18Z</time>
      </trkpt>
      <trkpt lat="45.98455" lon="4.55954">
        <ele>600</ele>
        <time>2016-12-08T10:42:19Z</time>
      </trkpt>
      <trkpt lat="45.98448" lon="4.55945">
        <ele>599</ele>
        <time>2016-12-08T10:42:25Z</time>
      </trkpt>
      <trkpt lat="45.98447" lon="4.55944">
        <ele>599</ele>
        <time>2016-12-08T10:42:26Z</time>
      </trkpt>
      <trkpt lat="45.98441" lon="4.55937">
        <ele>598</ele>
        <time>2016-12-08T10:42:32Z</time>
      </trkpt>
      <trkpt lat="45.9844" lon="4.55936">
        <ele>598</ele>
        <time>2016-12-08T10:42:33Z</time>
      </trkpt>
      <trkpt lat="45.98432" lon="4.5593">
        <ele>597</ele>
        <time>2016-12-08T10:42:39Z</time>
      </trkpt>
      <trkpt lat="45.98431" lon="4.55929">
        <ele>597</ele>
        <time>2016-12-08T10:42:40Z</time>
      </trkpt>
      <trkpt lat="45.98423" lon="4.55925">
        <ele>595</ele>
        <time>2016-12-08T10:42:47Z</time>
      </trkpt>
      <trkpt lat="45.98422" lon="4.55925">
        <ele>595</ele>
        <time>2016-12-08T10:42:48Z</time>
      </trkpt>
      <trkpt lat="45.98415" lon="4.55918">
        <ele>593</ele>
        <time>2016-12-08T10:43:00Z</time>
      </trkpt>
      <trkpt lat="45.98414" lon="4.55918">
        <ele>593</ele>
        <time>2016-12-08T10:43:01Z</time>
      </trkpt>
      <trkpt lat="45.98406" lon="4.55921">
        <ele>592</ele>
        <time>2016-12-08T10:48:52Z</time>
      </trkpt>
      <trkpt lat="45.98405" lon="4.55922">
        <ele>592</ele>
        <time>2016-12-08T10:48:53Z</time>
      </trkpt>
      <trkpt lat="45.98398" lon="4.55928">
        <ele>592</ele>
        <time>2016-12-08T10:49:01Z</time>
      </trkpt>
      <trkpt lat="45.98397" lon="4.55928">
        <ele>592</ele>
        <time>2016-12-08T10:49:02Z</time>
      </trkpt>
      <trkpt lat="45.98389" lon="4.55934">
        <ele>592</ele>
        <time>2016-12-08T10:49:11Z</time>
      </trkpt>
      <trkpt lat="45.98388" lon="4.55935">
        <ele>592</ele>
        <time>2016-12-08T10:49:12Z</time>
      </trkpt>
      <trkpt lat="45.98382" lon="4.55941">
        <ele>591</ele>
        <time>2016-12-08T10:49:19Z</time>
      </trkpt>
      <trkpt lat="45.98381" lon="4.55943">
        <ele>591</ele>
        <time>2016-12-08T10:49:20Z</time>
      </trkpt>
      <trkpt lat="45.98375" lon="4.55952">
        <ele>592</ele>
        <time>2016-12-08T10:49:28Z</time>
      </trkpt>
      <trkpt lat="45.98374" lon="4.55953">
        <ele>592</ele>
        <time>2016-12-08T10:49:29Z</time>
      </trkpt>
      <trkpt lat="45.98368" lon="4.55961">
        <ele>592</ele>
        <time>2016-12-08T10:49:38Z</time>
      </trkpt>
      <trkpt lat="45.98367" lon="4.55962">
        <ele>592</ele>
        <time>2016-12-08T10:49:39Z</time>
      </trkpt>
      <trkpt lat="45.98361" lon="4.55971">
        <ele>592</ele>
        <time>2016-12-08T10:49:46Z</time>
      </trkpt>
      <trkpt lat="45.9836" lon="4.55972">
        <ele>592</ele>
        <time>2016-12-08T10:49:47Z</time>
      </trkpt>
      <trkpt lat="45.98355" lon="4.5598">
        <ele>593</ele>
        <time>2016-12-08T10:49:53Z</time>
      </trkpt>
      <trkpt lat="45.98354" lon="4.55981">
        <ele>593</ele>
        <time>2016-12-08T10:49:54Z</time>
      </trkpt>
      <trkpt lat="45.98349" lon="4.55991">
        <ele>593</ele>
        <time>2016-12-08T10:50:01Z</time>
      </trkpt>
      <trkpt lat="45.98348" lon="4.55992">
        <ele>593</ele>
        <time>2016-12-08T10:50:02Z</time>
      </trkpt>
      <trkpt lat="45.98339" lon="4.55994">
        <ele>593</ele>
        <time>2016-12-08T10:50:08Z</time>
      </trkpt>
      <trkpt lat="45.98338" lon="4.55994">
        <ele>593</ele>
        <time>2016-12-08T10:50:09Z</time>
      </trkpt>
      <trkpt lat="45.9833" lon="4.55994">
        <ele>593</ele>
        <time>2016-12-08T10:50:14Z</time>
      </trkpt>
      <trkpt lat="45.98329" lon="4.55994">
        <ele>593</ele>
        <time>2016-12-08T10:50:15Z</time>
      </trkpt>
      <trkpt lat="45.9832" lon="4.55991">
        <ele>592</ele>
        <time>2016-12-08T10:50:22Z</time>
      </trkpt>
      <trkpt lat="45.98319" lon="4.5599">
        <ele>591</ele>
        <time>2016-12-08T10:50:23Z</time>
      </trkpt>
      <trkpt lat="45.98312" lon="4.55983">
        <ele>591</ele>
        <time>2016-12-08T10:50:29Z</time>
      </trkpt>
      <trkpt lat="45.98311" lon="4.55982">
        <ele>590</ele>
        <time>2016-12-08T10:50:30Z</time>
      </trkpt>
      <trkpt lat="45.98304" lon="4.55974">
        <ele>590</ele>
        <time>2016-12-08T10:50:36Z</time>
      </trkpt>
      <trkpt lat="45.98303" lon="4.55974">
        <ele>590</ele>
        <time>2016-12-08T10:50:37Z</time>
      </trkpt>
      <trkpt lat="45.98296" lon="4.5597">
        <ele>590</ele>
        <time>2016-12-08T10:50:43Z</time>
      </trkpt>
      <trkpt lat="45.98294" lon="4.55969">
        <ele>589</ele>
        <time>2016-12-08T10:50:44Z</time>
      </trkpt>
      <trkpt lat="45.98286" lon="4.55967">
        <ele>590</ele>
        <time>2016-12-08T10:50:52Z</time>
      </trkpt>
      <trkpt lat="45.98285" lon="4.55967">
        <ele>590</ele>
        <time>2016-12-08T10:50:53Z</time>
      </trkpt>
      <trkpt lat="45.98277" lon="4.55968">
        <ele>590</ele>
        <time>2016-12-08T10:50:59Z</time>
      </trkpt>
      <trkpt lat="45.98276" lon="4.55968">
        <ele>590</ele>
        <time>2016-12-08T10:51:00Z</time>
      </trkpt>
      <trkpt lat="45.98268" lon="4.55967">
        <ele>591</ele>
        <time>2016-12-08T10:51:06Z</time>
      </trkpt>
      <trkpt lat="45.98266" lon="4.55966">
        <ele>591</ele>
        <time>2016-12-08T10:51:07Z</time>
      </trkpt>
      <trkpt lat="45.98258" lon="4.55966">
        <ele>591</ele>
        <time>2016-12-08T10:51:13Z</time>
      </trkpt>
      <trkpt lat="45.98257" lon="4.55966">
        <ele>591</ele>
        <time>2016-12-08T10:51:14Z</time>
      </trkpt>
      <trkpt lat="45.98249" lon="4.55963">
        <ele>593</ele>
        <time>2016-12-08T10:51:21Z</time>
      </trkpt>
      <trkpt lat="45.98247" lon="4.55961">
        <ele>593</ele>
        <time>2016-12-08T10:51:22Z</time>
      </trkpt>
      <trkpt lat="45.98239" lon="4.55959">
        <ele>593</ele>
        <time>2016-12-08T10:51:28Z</time>
      </trkpt>
      <trkpt lat="45.98238" lon="4.55959">
        <ele>593</ele>
        <time>2016-12-08T10:51:29Z</time>
      </trkpt>
      <trkpt lat="45.98229" lon="4.55959">
        <ele>593</ele>
        <time>2016-12-08T10:51:36Z</time>
      </trkpt>
      <trkpt lat="45.98228" lon="4.55959">
        <ele>593</ele>
        <time>2016-12-08T10:51:37Z</time>
      </trkpt>
      <trkpt lat="45.9822" lon="4.55955">
        <ele>593</ele>
        <time>2016-12-08T10:51:45Z</time>
      </trkpt>
      <trkpt lat="45.98219" lon="4.55955">
        <ele>593</ele>
        <time>2016-12-08T10:51:46Z</time>
      </trkpt>
      <trkpt lat="45.98211" lon="4.5595">
        <ele>592</ele>
        <time>2016-12-08T10:51:52Z</time>
      </trkpt>
      <trkpt lat="45.98209" lon="4.5595">
        <ele>592</ele>
        <time>2016-12-08T10:51:53Z</time>
      </trkpt>
      <trkpt lat="45.98201" lon="4.55945">
        <ele>592</ele>
        <time>2016-12-08T10:51:59Z</time>
      </trkpt>
      <trkpt lat="45.98201" lon="4.55945">
        <ele>592</ele>
        <time>2016-12-08T10:52:00Z</time>
      </trkpt>
      <trkpt lat="45.98193" lon="4.55942">
        <ele>592</ele>
        <time>2016-12-08T10:52:06Z</time>
      </trkpt>
      <trkpt lat="45.98191" lon="4.55942">
        <ele>592</ele>
        <time>2016-12-08T10:52:07Z</time>
      </trkpt>
      <trkpt lat="45.98183" lon="4.55941">
        <ele>591</ele>
        <time>2016-12-08T10:52:13Z</time>
      </trkpt>
      <trkpt lat="45.98182" lon="4.55941">
        <ele>591</ele>
        <time>2016-12-08T10:52:14Z</time>
      </trkpt>
      <trkpt lat="45.98173" lon="4.5594">
        <ele>591</ele>
        <time>2016-12-08T10:52:20Z</time>
      </trkpt>
      <trkpt lat="45.98172" lon="4.55939">
        <ele>591</ele>
        <time>2016-12-08T10:52:21Z</time>
      </trkpt>
      <trkpt lat="45.98163" lon="4.5594">
        <ele>589</ele>
        <time>2016-12-08T10:52:27Z</time>
      </trkpt>
      <trkpt lat="45.98162" lon="4.5594">
        <ele>590</ele>
        <time>2016-12-08T10:52:28Z</time>
      </trkpt>
      <trkpt lat="45.98154" lon="4.55944">
        <ele>590</ele>
        <time>2016-12-08T10:52:34Z</time>
      </trkpt>
      <trkpt lat="45.98153" lon="4.55944">
        <ele>590</ele>
        <time>2016-12-08T10:52:35Z</time>
      </trkpt>
      <trkpt lat="45.98144" lon="4.55947">
        <ele>590</ele>
        <time>2016-12-08T10:52:41Z</time>
      </trkpt>
      <trkpt lat="45.98143" lon="4.55947">
        <ele>590</ele>
        <time>2016-12-08T10:52:42Z</time>
      </trkpt>
      <trkpt lat="45.98135" lon="4.55949">
        <ele>590</ele>
        <time>2016-12-08T10:52:48Z</time>
      </trkpt>
      <trkpt lat="45.98133" lon="4.55949">
        <ele>590</ele>
        <time>2016-12-08T10:52:49Z</time>
      </trkpt>
      <trkpt lat="45.98125" lon="4.55949">
        <ele>590</ele>
        <time>2016-12-08T10:52:55Z</time>
      </trkpt>
      <trkpt lat="45.98123" lon="4.55949">
        <ele>590</ele>
        <time>2016-12-08T10:52:56Z</time>
      </trkpt>
      <trkpt lat="45.98115" lon="4.55954">
        <ele>590</ele>
        <time>2016-12-08T10:53:03Z</time>
      </trkpt>
      <trkpt lat="45.98114" lon="4.55955">
        <ele>590</ele>
        <time>2016-12-08T10:53:04Z</time>
      </trkpt>
      <trkpt lat="45.98106" lon="4.55959">
        <ele>590</ele>
        <time>2016-12-08T10:53:11Z</time>
      </trkpt>
      <trkpt lat="45.98104" lon="4.55959">
        <ele>590</ele>
        <time>2016-12-08T10:53:12Z</time>
      </trkpt>
      <trkpt lat="45.98098" lon="4.55965">
        <ele>590</ele>
        <time>2016-12-08T10:53:17Z</time>
      </trkpt>
      <trkpt lat="45.98097" lon="4.55967">
        <ele>590</ele>
        <time>2016-12-08T10:53:18Z</time>
      </trkpt>
      <trkpt lat="45.98091" lon="4.55974">
        <ele>590</ele>
        <time>2016-12-08T10:53:23Z</time>
      </trkpt>
      <trkpt lat="45.9809" lon="4.55975">
        <ele>590</ele>
        <time>2016-12-08T10:53:24Z</time>
      </trkpt>
      <trkpt lat="45.98083" lon="4.55981">
        <ele>583</ele>
        <time>2016-12-08T10:53:29Z</time>
      </trkpt>
      <trkpt lat="45.98082" lon="4.55982">
        <ele>583</ele>
        <time>2016-12-08T10:53:30Z</time>
      </trkpt>
      <trkpt lat="45.98074" lon="4.55987">
        <ele>584</ele>
        <time>2016-12-08T10:53:36Z</time>
      </trkpt>
      <trkpt lat="45.98073" lon="4.55988">
        <ele>584</ele>
        <time>2016-12-08T10:53:37Z</time>
      </trkpt>
      <trkpt lat="45.98066" lon="4.55995">
        <ele>583</ele>
        <time>2016-12-08T10:53:43Z</time>
      </trkpt>
      <trkpt lat="45.98065" lon="4.55996">
        <ele>583</ele>
        <time>2016-12-08T10:53:44Z</time>
      </trkpt>
      <trkpt lat="45.9806" lon="4.56007">
        <ele>586</ele>
        <time>2016-12-08T10:53:50Z</time>
      </trkpt>
      <trkpt lat="45.98059" lon="4.56009">
        <ele>586</ele>
        <time>2016-12-08T10:53:51Z</time>
      </trkpt>
      <trkpt lat="45.98053" lon="4.56017">
        <ele>585</ele>
        <time>2016-12-08T10:53:57Z</time>
      </trkpt>
      <trkpt lat="45.98052" lon="4.56017">
        <ele>584</ele>
        <time>2016-12-08T10:53:58Z</time>
      </trkpt>
      <trkpt lat="45.98046" lon="4.56024">
        <ele>583</ele>
        <time>2016-12-08T10:54:04Z</time>
      </trkpt>
      <trkpt lat="45.98045" lon="4.56026">
        <ele>583</ele>
        <time>2016-12-08T10:54:05Z</time>
      </trkpt>
      <trkpt lat="45.98042" lon="4.56037">
        <ele>583</ele>
        <time>2016-12-08T10:54:11Z</time>
      </trkpt>
      <trkpt lat="45.98042" lon="4.56039">
        <ele>583</ele>
        <time>2016-12-08T10:54:12Z</time>
      </trkpt>
      <trkpt lat="45.98039" lon="4.56051">
        <ele>583</ele>
        <time>2016-12-08T10:54:18Z</time>
      </trkpt>
      <trkpt lat="45.98038" lon="4.56053">
        <ele>583</ele>
        <time>2016-12-08T10:54:19Z</time>
      </trkpt>
      <trkpt lat="45.98036" lon="4.56065">
        <ele>583</ele>
        <time>2016-12-08T10:54:25Z</time>
      </trkpt>
      <trkpt lat="45.98036" lon="4.56067">
        <ele>583</ele>
        <time>2016-12-08T10:54:26Z</time>
      </trkpt>
      <trkpt lat="45.98033" lon="4.56079">
        <ele>583</ele>
        <time>2016-12-08T10:54:33Z</time>
      </trkpt>
      <trkpt lat="45.98033" lon="4.56081">
        <ele>583</ele>
        <time>2016-12-08T10:54:34Z</time>
      </trkpt>
      <trkpt lat="45.98036" lon="4.56092">
        <ele>589</ele>
        <time>2016-12-08T10:54:42Z</time>
      </trkpt>
      <trkpt lat="45.98036" lon="4.56094">
        <ele>589</ele>
        <time>2016-12-08T10:54:43Z</time>
      </trkpt>
      <trkpt lat="45.98037" lon="4.56106">
        <ele>590</ele>
        <time>2016-12-08T10:54:50Z</time>
      </trkpt>
      <trkpt lat="45.98037" lon="4.56107">
        <ele>590</ele>
        <time>2016-12-08T10:54:51Z</time>
      </trkpt>
      <trkpt lat="45.98032" lon="4.56116">
        <ele>590</ele>
        <time>2016-12-08T10:54:58Z</time>
      </trkpt>
      <trkpt lat="45.98031" lon="4.56118">
        <ele>590</ele>
        <time>2016-12-08T10:54:59Z</time>
      </trkpt>
      <trkpt lat="45.98028" lon="4.56128">
        <ele>590</ele>
        <time>2016-12-08T10:55:05Z</time>
      </trkpt>
      <trkpt lat="45.98028" lon="4.5613">
        <ele>590</ele>
        <time>2016-12-08T10:55:06Z</time>
      </trkpt>
      <trkpt lat="45.98023" lon="4.5614">
        <ele>589</ele>
        <time>2016-12-08T10:55:13Z</time>
      </trkpt>
      <trkpt lat="45.98022" lon="4.56141">
        <ele>589</ele>
        <time>2016-12-08T10:55:14Z</time>
      </trkpt>
      <trkpt lat="45.98015" lon="4.56146">
        <ele>587</ele>
        <time>2016-12-08T10:55:20Z</time>
      </trkpt>
      <trkpt lat="45.98013" lon="4.56147">
        <ele>587</ele>
        <time>2016-12-08T10:55:21Z</time>
      </trkpt>
      <trkpt lat="45.98006" lon="4.56154">
        <ele>585</ele>
        <time>2016-12-08T10:55:29Z</time>
      </trkpt>
      <trkpt lat="45.98005" lon="4.56155">
        <ele>585</ele>
        <time>2016-12-08T10:55:30Z</time>
      </trkpt>
      <trkpt lat="45.97998" lon="4.56163">
        <ele>579</ele>
        <time>2016-12-08T10:55:37Z</time>
      </trkpt>
      <trkpt lat="45.97997" lon="4.56164">
        <ele>579</ele>
        <time>2016-12-08T10:55:38Z</time>
      </trkpt>
      <trkpt lat="45.97992" lon="4.56173">
        <ele>582</ele>
        <time>2016-12-08T10:55:44Z</time>
      </trkpt>
      <trkpt lat="45.97991" lon="4.56175">
        <ele>582</ele>
        <time>2016-12-08T10:55:45Z</time>
      </trkpt>
      <trkpt lat="45.97985" lon="4.56184">
        <ele>582</ele>
        <time>2016-12-08T10:55:52Z</time>
      </trkpt>
      <trkpt lat="45.97984" lon="4.56185">
        <ele>582</ele>
        <time>2016-12-08T10:55:53Z</time>
      </trkpt>
      <trkpt lat="45.97976" lon="4.5619">
        <ele>582</ele>
        <time>2016-12-08T10:56:02Z</time>
      </trkpt>
      <trkpt lat="45.97975" lon="4.5619">
        <ele>582</ele>
        <time>2016-12-08T10:56:03Z</time>
      </trkpt>
      <trkpt lat="45.97967" lon="4.56193">
        <ele>582</ele>
        <time>2016-12-08T10:56:11Z</time>
      </trkpt>
      <trkpt lat="45.97966" lon="4.56193">
        <ele>582</ele>
        <time>2016-12-08T10:56:12Z</time>
      </trkpt>
      <trkpt lat="45.97958" lon="4.56193">
        <ele>581</ele>
        <time>2016-12-08T10:56:19Z</time>
      </trkpt>
      <trkpt lat="45.97957" lon="4.56193">
        <ele>581</ele>
        <time>2016-12-08T10:56:20Z</time>
      </trkpt>
      <trkpt lat="45.97948" lon="4.56196">
        <ele>581</ele>
        <time>2016-12-08T10:56:27Z</time>
      </trkpt>
      <trkpt lat="45.97947" lon="4.56196">
        <ele>581</ele>
        <time>2016-12-08T10:56:28Z</time>
      </trkpt>
      <trkpt lat="45.97939" lon="4.56199">
        <ele>580</ele>
        <time>2016-12-08T10:56:34Z</time>
      </trkpt>
      <trkpt lat="45.97938" lon="4.56199">
        <ele>580</ele>
        <time>2016-12-08T10:56:35Z</time>
      </trkpt>
      <trkpt lat="45.9793" lon="4.56203">
        <ele>580</ele>
        <time>2016-12-08T10:56:42Z</time>
      </trkpt>
      <trkpt lat="45.97929" lon="4.56204">
        <ele>580</ele>
        <time>2016-12-08T10:56:43Z</time>
      </trkpt>
      <trkpt lat="45.97921" lon="4.56208">
        <ele>581</ele>
        <time>2016-12-08T10:59:01Z</time>
      </trkpt>
      <trkpt lat="45.9792" lon="4.56209">
        <ele>581</ele>
        <time>2016-12-08T10:59:02Z</time>
      </trkpt>
      <trkpt lat="45.97913" lon="4.56214">
        <ele>573</ele>
        <time>2016-12-08T10:59:10Z</time>
      </trkpt>
      <trkpt lat="45.97912" lon="4.56215">
        <ele>573</ele>
        <time>2016-12-08T10:59:11Z</time>
      </trkpt>
      <trkpt lat="45.97905" lon="4.56219">
        <ele>574</ele>
        <time>2016-12-08T10:59:17Z</time>
      </trkpt>
      <trkpt lat="45.97904" lon="4.56221">
        <ele>574</ele>
        <time>2016-12-08T10:59:18Z</time>
      </trkpt>
      <trkpt lat="45.97897" lon="4.56226">
        <ele>574</ele>
        <time>2016-12-08T10:59:24Z</time>
      </trkpt>
      <trkpt lat="45.97896" lon="4.56227">
        <ele>574</ele>
        <time>2016-12-08T10:59:25Z</time>
      </trkpt>
      <trkpt lat="45.97891" lon="4.56237">
        <ele>575</ele>
        <time>2016-12-08T10:59:33Z</time>
      </trkpt>
      <trkpt lat="45.97891" lon="4.56238">
        <ele>575</ele>
        <time>2016-12-08T10:59:34Z</time>
      </trkpt>
      <trkpt lat="45.97885" lon="4.56248">
        <ele>575</ele>
        <time>2016-12-08T10:59:42Z</time>
      </trkpt>
      <trkpt lat="45.97885" lon="4.56249">
        <ele>575</ele>
        <time>2016-12-08T10:59:43Z</time>
      </trkpt>
      <trkpt lat="45.97879" lon="4.56258">
        <ele>586</ele>
        <time>2016-12-08T10:59:50Z</time>
      </trkpt>
      <trkpt lat="45.97878" lon="4.5626">
        <ele>586</ele>
        <time>2016-12-08T10:59:51Z</time>
      </trkpt>
      <trkpt lat="45.97873" lon="4.56267">
        <ele>586</ele>
        <time>2016-12-08T10:59:56Z</time>
      </trkpt>
      <trkpt lat="45.97871" lon="4.56269">
        <ele>586</ele>
        <time>2016-12-08T10:59:57Z</time>
      </trkpt>
      <trkpt lat="45.97866" lon="4.56277">
        <ele>586</ele>
        <time>2016-12-08T11:00:03Z</time>
      </trkpt>
      <trkpt lat="45.97865" lon="4.56279">
        <ele>586</ele>
        <time>2016-12-08T11:00:04Z</time>
      </trkpt>
      <trkpt lat="45.97859" lon="4.56286">
        <ele>587</ele>
        <time>2016-12-08T11:00:10Z</time>
      </trkpt>
      <trkpt lat="45.97857" lon="4.56287">
        <ele>587</ele>
        <time>2016-12-08T11:00:11Z</time>
      </trkpt>
      <trkpt lat="45.97851" lon="4.56293">
        <ele>587</ele>
        <time>2016-12-08T11:00:18Z</time>
      </trkpt>
      <trkpt lat="45.9785" lon="4.56294">
        <ele>587</ele>
        <time>2016-12-08T11:00:19Z</time>
      </trkpt>
      <trkpt lat="45.97842" lon="4.56301">
        <ele>588</ele>
        <time>2016-12-08T11:00:26Z</time>
      </trkpt>
      <trkpt lat="45.97841" lon="4.56302">
        <ele>588</ele>
        <time>2016-12-08T11:00:27Z</time>
      </trkpt>
      <trkpt lat="45.97834" lon="4.56308">
        <ele>589</ele>
        <time>2016-12-08T11:00:34Z</time>
      </trkpt>
      <trkpt lat="45.97832" lon="4.56309">
        <ele>583</ele>
        <time>2016-12-08T11:00:35Z</time>
      </trkpt>
      <trkpt lat="45.97824" lon="4.56314">
        <ele>583</ele>
        <time>2016-12-08T11:00:42Z</time>
      </trkpt>
      <trkpt lat="45.97823" lon="4.56314">
        <ele>583</ele>
        <time>2016-12-08T11:00:43Z</time>
      </trkpt>
      <trkpt lat="45.97816" lon="4.56319">
        <ele>583</ele>
        <time>2016-12-08T11:00:50Z</time>
      </trkpt>
      <trkpt lat="45.97815" lon="4.5632">
        <ele>583</ele>
        <time>2016-12-08T11:00:51Z</time>
      </trkpt>
      <trkpt lat="45.97807" lon="4.56324">
        <ele>582</ele>
        <time>2016-12-08T11:00:58Z</time>
      </trkpt>
      <trkpt lat="45.97805" lon="4.56324">
        <ele>582</ele>
        <time>2016-12-08T11:00:59Z</time>
      </trkpt>
      <trkpt lat="45.97797" lon="4.56326">
        <ele>581</ele>
        <time>2016-12-08T11:01:05Z</time>
      </trkpt>
      <trkpt lat="45.97795" lon="4.56327">
        <ele>581</ele>
        <time>2016-12-08T11:01:06Z</time>
      </trkpt>
      <trkpt lat="45.97786" lon="4.56328">
        <ele>581</ele>
        <time>2016-12-08T11:01:12Z</time>
      </trkpt>
      <trkpt lat="45.97785" lon="4.56328">
        <ele>580</ele>
        <time>2016-12-08T11:01:13Z</time>
      </trkpt>
      <trkpt lat="45.97776" lon="4.56328">
        <ele>580</ele>
        <time>2016-12-08T11:01:19Z</time>
      </trkpt>
      <trkpt lat="45.97774" lon="4.56328">
        <ele>580</ele>
        <time>2016-12-08T11:01:20Z</time>
      </trkpt>
      <trkpt lat="45.97765" lon="4.56326">
        <ele>580</ele>
        <time>2016-12-08T11:01:26Z</time>
      </trkpt>
      <trkpt lat="45.97764" lon="4.56325">
        <ele>580</ele>
        <time>2016-12-08T11:01:27Z</time>
      </trkpt>
      <trkpt lat="45.97755" lon="4.56321">
        <ele>580</ele>
        <time>2016-12-08T11:01:33Z</time>
      </trkpt>
      <trkpt lat="45.97754" lon="4.56321">
        <ele>580</ele>
        <time>2016-12-08T11:01:34Z</time>
      </trkpt>
      <trkpt lat="45.97745" lon="4.56319">
        <ele>580</ele>
        <time>2016-12-08T11:01:40Z</time>
      </trkpt>
      <trkpt lat="45.97744" lon="4.56319">
        <ele>580</ele>
        <time>2016-12-08T11:01:41Z</time>
      </trkpt>
      <trkpt lat="45.97736" lon="4.56317">
        <ele>579</ele>
        <time>2016-12-08T11:01:47Z</time>
      </trkpt>
      <trkpt lat="45.97735" lon="4.56316">
        <ele>579</ele>
        <time>2016-12-08T11:01:48Z</time>
      </trkpt>
      <trkpt lat="45.97728" lon="4.5631">
        <ele>578</ele>
        <time>2016-12-08T11:01:54Z</time>
      </trkpt>
      <trkpt lat="45.97727" lon="4.56309">
        <ele>578</ele>
        <time>2016-12-08T11:01:55Z</time>
      </trkpt>
      <trkpt lat="45.97719" lon="4.56302">
        <ele>577</ele>
        <time>2016-12-08T11:02:02Z</time>
      </trkpt>
      <trkpt lat="45.97718" lon="4.56301">
        <ele>577</ele>
        <time>2016-12-08T11:02:03Z</time>
      </trkpt>
      <trkpt lat="45.97711" lon="4.56296">
        <ele>577</ele>
        <time>2016-12-08T11:02:10Z</time>
      </trkpt>
      <trkpt lat="45.97709" lon="4.56296">
        <ele>577</ele>
        <time>2016-12-08T11:02:11Z</time>
      </trkpt>
      <trkpt lat="45.97702" lon="4.56293">
        <ele>577</ele>
        <time>2016-12-08T11:02:17Z</time>
      </trkpt>
      <trkpt lat="45.977" lon="4.56292">
        <ele>577</ele>
        <time>2016-12-08T11:02:18Z</time>
      </trkpt>
      <trkpt lat="45.97693" lon="4.56286">
        <ele>576</ele>
        <time>2016-12-08T11:02:25Z</time>
      </trkpt>
      <trkpt lat="45.97692" lon="4.56285">
        <ele>576</ele>
        <time>2016-12-08T11:02:26Z</time>
      </trkpt>
      <trkpt lat="45.97684" lon="4.5628">
        <ele>576</ele>
        <time>2016-12-08T11:02:32Z</time>
      </trkpt>
      <trkpt lat="45.97683" lon="4.5628">
        <ele>576</ele>
        <time>2016-12-08T11:02:33Z</time>
      </trkpt>
      <trkpt lat="45.97676" lon="4.56275">
        <ele>575</ele>
        <time>2016-12-08T11:02:39Z</time>
      </trkpt>
      <trkpt lat="45.97675" lon="4.56275">
        <ele>575</ele>
        <time>2016-12-08T11:02:40Z</time>
      </trkpt>
      <trkpt lat="45.97666" lon="4.56274">
        <ele>577</ele>
        <time>2016-12-08T11:02:46Z</time>
      </trkpt>
      <trkpt lat="45.97665" lon="4.56274">
        <ele>577</ele>
        <time>2016-12-08T11:02:47Z</time>
      </trkpt>
      <trkpt lat="45.97657" lon="4.56269">
        <ele>576</ele>
        <time>2016-12-08T11:02:54Z</time>
      </trkpt>
      <trkpt lat="45.97656" lon="4.56268">
        <ele>576</ele>
        <time>2016-12-08T11:02:55Z</time>
      </trkpt>
      <trkpt lat="45.97648" lon="4.56262">
        <ele>576</ele>
        <time>2016-12-08T11:03:01Z</time>
      </trkpt>
      <trkpt lat="45.97646" lon="4.56262">
        <ele>576</ele>
        <time>2016-12-08T11:03:02Z</time>
      </trkpt>
      <trkpt lat="45.97639" lon="4.5626">
        <ele>577</ele>
        <time>2016-12-08T11:03:08Z</time>
      </trkpt>
      <trkpt lat="45.97637" lon="4.5626">
        <ele>577</ele>
        <time>2016-12-08T11:03:09Z</time>
      </trkpt>
      <trkpt lat="45.97629" lon="4.56261">
        <ele>577</ele>
        <time>2016-12-08T11:03:16Z</time>
      </trkpt>
      <trkpt lat="45.97627" lon="4.56261">
        <ele>577</ele>
        <time>2016-12-08T11:03:17Z</time>
      </trkpt>
      <trkpt lat="45.9762" lon="4.56266">
        <ele>577</ele>
        <time>2016-12-08T11:03:23Z</time>
      </trkpt>
      <trkpt lat="45.97619" lon="4.56267">
        <ele>578</ele>
        <time>2016-12-08T11:03:24Z</time>
      </trkpt>
      <trkpt lat="45.97612" lon="4.56273">
        <ele>578</ele>
        <time>2016-12-08T11:03:30Z</time>
      </trkpt>
      <trkpt lat="45.97611" lon="4.56274">
        <ele>578</ele>
        <time>2016-12-08T11:03:31Z</time>
      </trkpt>
      <trkpt lat="45.97603" lon="4.56277">
        <ele>578</ele>
        <time>2016-12-08T11:03:37Z</time>
      </trkpt>
      <trkpt lat="45.97602" lon="4.56277">
        <ele>578</ele>
        <time>2016-12-08T11:03:38Z</time>
      </trkpt>
      <trkpt lat="45.97594" lon="4.56279">
        <ele>578</ele>
        <time>2016-12-08T11:03:44Z</time>
      </trkpt>
      <trkpt lat="45.97592" lon="4.5628">
        <ele>578</ele>
        <time>2016-12-08T11:03:45Z</time>
      </trkpt>
      <trkpt lat="45.97584" lon="4.56283">
        <ele>579</ele>
        <time>2016-12-08T11:03:52Z</time>
      </trkpt>
      <trkpt lat="45.97582" lon="4.56283">
        <ele>576</ele>
        <time>2016-12-08T11:03:53Z</time>
      </trkpt>
      <trkpt lat="45.97575" lon="4.56287">
        <ele>577</ele>
        <time>2016-12-08T11:03:59Z</time>
      </trkpt>
      <trkpt lat="45.97574" lon="4.56288">
        <ele>577</ele>
        <time>2016-12-08T11:04:00Z</time>
      </trkpt>
      <trkpt lat="45.97567" lon="4.56292">
        <ele>577</ele>
        <time>2016-12-08T11:04:05Z</time>
      </trkpt>
      <trkpt lat="45.97565" lon="4.56293">
        <ele>577</ele>
        <time>2016-12-08T11:04:06Z</time>
      </trkpt>
      <trkpt lat="45.97558" lon="4.56297">
        <ele>577</ele>
        <time>2016-12-08T11:04:11Z</time>
      </trkpt>
      <trkpt lat="45.97557" lon="4.56297">
        <ele>577</ele>
        <time>2016-12-08T11:04:12Z</time>
      </trkpt>
      <trkpt lat="45.97548" lon="4.56296">
        <ele>577</ele>
        <time>2016-12-08T11:04:17Z</time>
      </trkpt>
      <trkpt lat="45.97547" lon="4.56297">
        <ele>577</ele>
        <time>2016-12-08T11:04:18Z</time>
      </trkpt>
      <trkpt lat="45.97539" lon="4.56301">
        <ele>577</ele>
        <time>2016-12-08T11:04:24Z</time>
      </trkpt>
      <trkpt lat="45.97537" lon="4.56301">
        <ele>577</ele>
        <time>2016-12-08T11:04:25Z</time>
      </trkpt>
      <trkpt lat="45.97529" lon="4.56307">
        <ele>577</ele>
        <time>2016-12-08T11:04:31Z</time>
      </trkpt>
      <trkpt lat="45.97528" lon="4.56307">
        <ele>577</ele>
        <time>2016-12-08T11:04:32Z</time>
      </trkpt>
      <trkpt lat="45.9752" lon="4.56311">
        <ele>577</ele>
        <time>2016-12-08T11:04:38Z</time>
      </trkpt>
      <trkpt lat="45.97519" lon="4.56311">
        <ele>577</ele>
        <time>2016-12-08T11:04:39Z</time>
      </trkpt>
      <trkpt lat="45.97511" lon="4.56314">
        <ele>578</ele>
        <time>2016-12-08T11:04:45Z</time>
      </trkpt>
      <trkpt lat="45.97509" lon="4.56315">
        <ele>578</ele>
        <time>2016-12-08T11:04:46Z</time>
      </trkpt>
      <trkpt lat="45.97502" lon="4.56321">
        <ele>579</ele>
        <time>2016-12-08T11:04:52Z</time>
      </trkpt>
      <trkpt lat="45.975" lon="4.56322">
        <ele>579</ele>
        <time>2016-12-08T11:04:53Z</time>
      </trkpt>
      <trkpt lat="45.97493" lon="4.56326">
        <ele>577</ele>
        <time>2016-12-08T11:04:58Z</time>
      </trkpt>
      <trkpt lat="45.97491" lon="4.56326">
        <ele>576</ele>
        <time>2016-12-08T11:04:59Z</time>
      </trkpt>
      <trkpt lat="45.97483" lon="4.56325">
        <ele>575</ele>
        <time>2016-12-08T11:05:05Z</time>
      </trkpt>
      <trkpt lat="45.97482" lon="4.56326">
        <ele>574</ele>
        <time>2016-12-08T11:05:06Z</time>
      </trkpt>
      <trkpt lat="45.97473" lon="4.5633">
        <ele>573</ele>
        <time>2016-12-08T11:05:13Z</time>
      </trkpt>
      <trkpt lat="45.97472" lon="4.5633">
        <ele>573</ele>
        <time>2016-12-08T11:05:14Z</time>
      </trkpt>
      <trkpt lat="45.97464" lon="4.56337">
        <ele>579</ele>
        <time>2016-12-08T11:05:20Z</time>
      </trkpt>
      <trkpt lat="45.97463" lon="4.56337">
        <ele>579</ele>
        <time>2016-12-08T11:05:21Z</time>
      </trkpt>
      <trkpt lat="45.97456" lon="4.56341">
        <ele>579</ele>
        <time>2016-12-08T11:05:27Z</time>
      </trkpt>
      <trkpt lat="45.97454" lon="4.56341">
        <ele>579</ele>
        <time>2016-12-08T11:05:28Z</time>
      </trkpt>
      <trkpt lat="45.97446" lon="4.5634">
        <ele>578</ele>
        <time>2016-12-08T11:05:34Z</time>
      </trkpt>
      <trkpt lat="45.97444" lon="4.5634">
        <ele>578</ele>
        <time>2016-12-08T11:05:35Z</time>
      </trkpt>
      <trkpt lat="45.97437" lon="4.56339">
        <ele>577</ele>
        <time>2016-12-08T11:05:41Z</time>
      </trkpt>
      <trkpt lat="45.97435" lon="4.56339">
        <ele>577</ele>
        <time>2016-12-08T11:05:42Z</time>
      </trkpt>
      <trkpt lat="45.97426" lon="4.56342">
        <ele>576</ele>
        <time>2016-12-08T11:05:48Z</time>
      </trkpt>
      <trkpt lat="45.97425" lon="4.56342">
        <ele>576</ele>
        <time>2016-12-08T11:05:49Z</time>
      </trkpt>
      <trkpt lat="45.97417" lon="4.56342">
        <ele>576</ele>
        <time>2016-12-08T11:05:54Z</time>
      </trkpt>
      <trkpt lat="45.97416" lon="4.56342">
        <ele>574</ele>
        <time>2016-12-08T11:05:55Z</time>
      </trkpt>
      <trkpt lat="45.97407" lon="4.56342">
        <ele>574</ele>
        <time>2016-12-08T11:06:01Z</time>
      </trkpt>
      <trkpt lat="45.97406" lon="4.56342">
        <ele>574</ele>
        <time>2016-12-08T11:06:02Z</time>
      </trkpt>
      <trkpt lat="45.97398" lon="4.5634">
        <ele>573</ele>
        <time>2016-12-08T11:06:08Z</time>
      </trkpt>
      <trkpt lat="45.97397" lon="4.56339">
        <ele>573</ele>
        <time>2016-12-08T11:06:09Z</time>
      </trkpt>
      <trkpt lat="45.97388" lon="4.5634">
        <ele>573</ele>
        <time>2016-12-08T11:06:16Z</time>
      </trkpt>
      <trkpt lat="45.97387" lon="4.5634">
        <ele>573</ele>
        <time>2016-12-08T11:06:17Z</time>
      </trkpt>
      <trkpt lat="45.97379" lon="4.56343">
        <ele>572</ele>
        <time>2016-12-08T11:06:24Z</time>
      </trkpt>
      <trkpt lat="45.97377" lon="4.56344">
        <ele>572</ele>
        <time>2016-12-08T11:06:25Z</time>
      </trkpt>
      <trkpt lat="45.97369" lon="4.56348">
        <ele>572</ele>
        <time>2016-12-08T11:06:31Z</time>
      </trkpt>
      <trkpt lat="45.97368" lon="4.56349">
        <ele>572</ele>
        <time>2016-12-08T11:06:32Z</time>
      </trkpt>
      <trkpt lat="45.97361" lon="4.56355">
        <ele>572</ele>
        <time>2016-12-08T11:06:37Z</time>
      </trkpt>
      <trkpt lat="45.97359" lon="4.56356">
        <ele>572</ele>
        <time>2016-12-08T11:06:38Z</time>
      </trkpt>
      <trkpt lat="45.97351" lon="4.56359">
        <ele>571</ele>
        <time>2016-12-08T11:06:44Z</time>
      </trkpt>
      <trkpt lat="45.97349" lon="4.56359">
        <ele>571</ele>
        <time>2016-12-08T11:06:45Z</time>
      </trkpt>
      <trkpt lat="45.97341" lon="4.56361">
        <ele>571</ele>
        <time>2016-12-08T11:06:51Z</time>
      </trkpt>
      <trkpt lat="45.9734" lon="4.56361">
        <ele>571</ele>
        <time>2016-12-08T11:06:52Z</time>
      </trkpt>
      <trkpt lat="45.97331" lon="4.56364">
        <ele>566</ele>
        <time>2016-12-08T11:06:58Z</time>
      </trkpt>
      <trkpt lat="45.9733" lon="4.56364">
        <ele>566</ele>
        <time>2016-12-08T11:06:59Z</time>
      </trkpt>
      <trkpt lat="45.97323" lon="4.5637">
        <ele>566</ele>
        <time>2016-12-08T11:07:05Z</time>
      </trkpt>
      <trkpt lat="45.97322" lon="4.56371">
        <ele>566</ele>
        <time>2016-12-08T11:07:06Z</time>
      </trkpt>
      <trkpt lat="45.97313" lon="4.56372">
        <ele>565</ele>
        <time>2016-12-08T11:07:12Z</time>
      </trkpt>
      <trkpt lat="45.97312" lon="4.56373">
        <ele>565</ele>
        <time>2016-12-08T11:07:13Z</time>
      </trkpt>
      <trkpt lat="45.97305" lon="4.56376">
        <ele>565</ele>
        <time>2016-12-08T11:07:19Z</time>
      </trkpt>
      <trkpt lat="45.97303" lon="4.56377">
        <ele>565</ele>
        <time>2016-12-08T11:07:20Z</time>
      </trkpt>
      <trkpt lat="45.97296" lon="4.56384">
        <ele>565</ele>
        <time>2016-12-08T11:07:26Z</time>
      </trkpt>
      <trkpt lat="45.97295" lon="4.56385">
        <ele>565</ele>
        <time>2016-12-08T11:07:27Z</time>
      </trkpt>
      <trkpt lat="45.97287" lon="4.56391">
        <ele>564</ele>
        <time>2016-12-08T11:07:33Z</time>
      </trkpt>
      <trkpt lat="45.97285" lon="4.56391">
        <ele>564</ele>
        <time>2016-12-08T11:07:34Z</time>
      </trkpt>
      <trkpt lat="45.97277" lon="4.56394">
        <ele>564</ele>
        <time>2016-12-08T11:07:40Z</time>
      </trkpt>
      <trkpt lat="45.97275" lon="4.56394">
        <ele>564</ele>
        <time>2016-12-08T11:07:41Z</time>
      </trkpt>
      <trkpt lat="45.97268" lon="4.56399">
        <ele>564</ele>
        <time>2016-12-08T11:07:47Z</time>
      </trkpt>
      <trkpt lat="45.97267" lon="4.56401">
        <ele>564</ele>
        <time>2016-12-08T11:07:48Z</time>
      </trkpt>
      <trkpt lat="45.97259" lon="4.56406">
        <ele>563</ele>
        <time>2016-12-08T11:07:53Z</time>
      </trkpt>
      <trkpt lat="45.97258" lon="4.56407">
        <ele>563</ele>
        <time>2016-12-08T11:07:54Z</time>
      </trkpt>
      <trkpt lat="45.9725" lon="4.56409">
        <ele>561</ele>
        <time>2016-12-08T11:08:00Z</time>
      </trkpt>
      <trkpt lat="45.97249" lon="4.5641">
        <ele>561</ele>
        <time>2016-12-08T11:08:01Z</time>
      </trkpt>
      <trkpt lat="45.97241" lon="4.56415">
        <ele>561</ele>
        <time>2016-12-08T11:08:07Z</time>
      </trkpt>
      <trkpt lat="45.9724" lon="4.56416">
        <ele>560</ele>
        <time>2016-12-08T11:08:08Z</time>
      </trkpt>
      <trkpt lat="45.97232" lon="4.56418">
        <ele>561</ele>
        <time>2016-12-08T11:08:13Z</time>
      </trkpt>
      <trkpt lat="45.97231" lon="4.56418">
        <ele>561</ele>
        <time>2016-12-08T11:08:14Z</time>
      </trkpt>
      <trkpt lat="45.97222" lon="4.5642">
        <ele>561</ele>
        <time>2016-12-08T11:08:20Z</time>
      </trkpt>
      <trkpt lat="45.97221" lon="4.5642">
        <ele>561</ele>
        <time>2016-12-08T11:08:21Z</time>
      </trkpt>
      <trkpt lat="45.97213" lon="4.56426">
        <ele>560</ele>
        <time>2016-12-08T11:08:27Z</time>
      </trkpt>
      <trkpt lat="45.97212" lon="4.56427">
        <ele>560</ele>
        <time>2016-12-08T11:08:28Z</time>
      </trkpt>
      <trkpt lat="45.97203" lon="4.56428">
        <ele>560</ele>
        <time>2016-12-08T11:08:34Z</time>
      </trkpt>
      <trkpt lat="45.97202" lon="4.56429">
        <ele>560</ele>
        <time>2016-12-08T11:08:35Z</time>
      </trkpt>
      <trkpt lat="45.97194" lon="4.56432">
        <ele>559</ele>
        <time>2016-12-08T11:08:41Z</time>
      </trkpt>
      <trkpt lat="45.97193" lon="4.56432">
        <ele>559</ele>
        <time>2016-12-08T11:08:42Z</time>
      </trkpt>
      <trkpt lat="45.97184" lon="4.56438">
        <ele>559</ele>
        <time>2016-12-08T11:08:48Z</time>
      </trkpt>
      <trkpt lat="45.97183" lon="4.56438">
        <ele>559</ele>
        <time>2016-12-08T11:08:49Z</time>
      </trkpt>
      <trkpt lat="45.97175" lon="4.5644">
        <ele>559</ele>
        <time>2016-12-08T11:08:55Z</time>
      </trkpt>
      <trkpt lat="45.97174" lon="4.5644">
        <ele>559</ele>
        <time>2016-12-08T11:08:56Z</time>
      </trkpt>
      <trkpt lat="45.97166" lon="4.56443">
        <ele>556</ele>
        <time>2016-12-08T11:09:02Z</time>
      </trkpt>
      <trkpt lat="45.97165" lon="4.56444">
        <ele>556</ele>
        <time>2016-12-08T11:09:03Z</time>
      </trkpt>
      <trkpt lat="45.97158" lon="4.56449">
        <ele>556</ele>
        <time>2016-12-08T11:09:08Z</time>
      </trkpt>
      <trkpt lat="45.97156" lon="4.56449">
        <ele>556</ele>
        <time>2016-12-08T11:09:09Z</time>
      </trkpt>
      <trkpt lat="45.97148" lon="4.56451">
        <ele>556</ele>
        <time>2016-12-08T11:09:15Z</time>
      </trkpt>
      <trkpt lat="45.97147" lon="4.56451">
        <ele>556</ele>
        <time>2016-12-08T11:09:16Z</time>
      </trkpt>
      <trkpt lat="45.97138" lon="4.56451">
        <ele>556</ele>
        <time>2016-12-08T11:09:22Z</time>
      </trkpt>
      <trkpt lat="45.97137" lon="4.56451">
        <ele>556</ele>
        <time>2016-12-08T11:09:23Z</time>
      </trkpt>
      <trkpt lat="45.97129" lon="4.56451">
        <ele>556</ele>
        <time>2016-12-08T11:09:29Z</time>
      </trkpt>
      <trkpt lat="45.97128" lon="4.56451">
        <ele>556</ele>
        <time>2016-12-08T11:09:30Z</time>
      </trkpt>
      <trkpt lat="45.97119" lon="4.56452">
        <ele>556</ele>
        <time>2016-12-08T11:09:36Z</time>
      </trkpt>
      <trkpt lat="45.97118" lon="4.56452">
        <ele>556</ele>
        <time>2016-12-08T11:09:37Z</time>
      </trkpt>
      <trkpt lat="45.9711" lon="4.56453">
        <ele>556</ele>
        <time>2016-12-08T11:09:43Z</time>
      </trkpt>
      <trkpt lat="45.97109" lon="4.56453">
        <ele>556</ele>
        <time>2016-12-08T11:09:44Z</time>
      </trkpt>
      <trkpt lat="45.971" lon="4.56456">
        <ele>556</ele>
        <time>2016-12-08T11:09:51Z</time>
      </trkpt>
      <trkpt lat="45.97099" lon="4.56456">
        <ele>556</ele>
        <time>2016-12-08T11:09:52Z</time>
      </trkpt>
      <trkpt lat="45.97091" lon="4.5646">
        <ele>556</ele>
        <time>2016-12-08T11:09:58Z</time>
      </trkpt>
      <trkpt lat="45.9709" lon="4.5646">
        <ele>556</ele>
        <time>2016-12-08T11:09:59Z</time>
      </trkpt>
      <trkpt lat="45.97082" lon="4.56465">
        <ele>554</ele>
        <time>2016-12-08T11:10:05Z</time>
      </trkpt>
      <trkpt lat="45.97081" lon="4.56465">
        <ele>554</ele>
        <time>2016-12-08T11:10:06Z</time>
      </trkpt>
      <trkpt lat="45.97073" lon="4.56466">
        <ele>554</ele>
        <time>2016-12-08T11:10:12Z</time>
      </trkpt>
      <trkpt lat="45.97071" lon="4.56466">
        <ele>554</ele>
        <time>2016-12-08T11:10:13Z</time>
      </trkpt>
      <trkpt lat="45.97063" lon="4.56467">
        <ele>554</ele>
        <time>2016-12-08T11:10:20Z</time>
      </trkpt>
      <trkpt lat="45.97062" lon="4.56467">
        <ele>554</ele>
        <time>2016-12-08T11:10:21Z</time>
      </trkpt>
      <trkpt lat="45.97053" lon="4.56467">
        <ele>554</ele>
        <time>2016-12-08T11:10:28Z</time>
      </trkpt>
      <trkpt lat="45.97052" lon="4.56467">
        <ele>554</ele>
        <time>2016-12-08T11:10:29Z</time>
      </trkpt>
      <trkpt lat="45.97043" lon="4.56465">
        <ele>553</ele>
        <time>2016-12-08T11:10:36Z</time>
      </trkpt>
      <trkpt lat="45.97042" lon="4.56465">
        <ele>553</ele>
        <time>2016-12-08T11:10:37Z</time>
      </trkpt>
      <trkpt lat="45.97034" lon="4.56461">
        <ele>553</ele>
        <time>2016-12-08T11:10:44Z</time>
      </trkpt>
      <trkpt lat="45.97033" lon="4.56461">
        <ele>553</ele>
        <time>2016-12-08T11:10:45Z</time>
      </trkpt>
      <trkpt lat="45.97024" lon="4.56458">
        <ele>553</ele>
        <time>2016-12-08T11:10:52Z</time>
      </trkpt>
      <trkpt lat="45.97023" lon="4.56458">
        <ele>553</ele>
        <time>2016-12-08T11:10:53Z</time>
      </trkpt>
      <trkpt lat="45.97015" lon="4.56458">
        <ele>553</ele>
        <time>2016-12-08T11:10:59Z</time>
      </trkpt>
      <trkpt lat="45.97013" lon="4.56458">
        <ele>553</ele>
        <time>2016-12-08T11:11:00Z</time>
      </trkpt>
      <trkpt lat="45.97004" lon="4.56457">
        <ele>553</ele>
        <time>2016-12-08T11:11:06Z</time>
      </trkpt>
      <trkpt lat="45.97003" lon="4.56456">
        <ele>553</ele>
        <time>2016-12-08T11:11:07Z</time>
      </trkpt>
      <trkpt lat="45.96994" lon="4.56453">
        <ele>553</ele>
        <time>2016-12-08T11:11:13Z</time>
      </trkpt>
      <trkpt lat="45.96993" lon="4.56452">
        <ele>553</ele>
        <time>2016-12-08T11:11:14Z</time>
      </trkpt>
      <trkpt lat="45.96986" lon="4.56447">
        <ele>552</ele>
        <time>2016-12-08T11:11:20Z</time>
      </trkpt>
      <trkpt lat="45.96985" lon="4.56446">
        <ele>552</ele>
        <time>2016-12-08T11:11:21Z</time>
      </trkpt>
      <trkpt lat="45.96979" lon="4.56438">
        <ele>552</ele>
        <time>2016-12-08T11:11:27Z</time>
      </trkpt>
      <trkpt lat="45.96978" lon="4.56437">
        <ele>552</ele>
        <time>2016-12-08T11:11:28Z</time>
      </trkpt>
      <trkpt lat="45.96969" lon="4.56431">
        <ele>552</ele>
        <time>2016-12-08T11:11:35Z</time>
      </trkpt>
      <trkpt lat="45.96968" lon="4.56431">
        <ele>552</ele>
        <time>2016-12-08T11:11:36Z</time>
      </trkpt>
      <trkpt lat="45.96961" lon="4.56424">
        <ele>552</ele>
        <time>2016-12-08T11:11:42Z</time>
      </trkpt>
      <trkpt lat="45.9696" lon="4.56423">
        <ele>552</ele>
        <time>2016-12-08T11:11:43Z</time>
      </trkpt>
      <trkpt lat="45.96954" lon="4.56417">
        <ele>553</ele>
        <time>2016-12-08T11:11:49Z</time>
      </trkpt>
      <trkpt lat="45.96952" lon="4.56416">
        <ele>549</ele>
        <time>2016-12-08T11:11:50Z</time>
      </trkpt>
      <trkpt lat="45.96946" lon="4.56407">
        <ele>549</ele>
        <time>2016-12-08T11:11:56Z</time>
      </trkpt>
      <trkpt lat="45.96945" lon="4.56405">
        <ele>549</ele>
        <time>2016-12-08T11:11:57Z</time>
      </trkpt>
      <trkpt lat="45.96939" lon="4.56397">
        <ele>549</ele>
        <time>2016-12-08T11:12:03Z</time>
      </trkpt>
      <trkpt lat="45.96938" lon="4.56396">
        <ele>549</ele>
        <time>2016-12-08T11:12:04Z</time>
      </trkpt>
      <trkpt lat="45.96931" lon="4.56391">
        <ele>549</ele>
        <time>2016-12-08T11:12:10Z</time>
      </trkpt>
      <trkpt lat="45.9693" lon="4.5639">
        <ele>549</ele>
        <time>2016-12-08T11:12:11Z</time>
      </trkpt>
      <trkpt lat="45.96921" lon="4.56387">
        <ele>549</ele>
        <time>2016-12-08T11:12:17Z</time>
      </trkpt>
      <trkpt lat="45.9692" lon="4.56386">
        <ele>549</ele>
        <time>2016-12-08T11:12:18Z</time>
      </trkpt>
      <trkpt lat="45.96913" lon="4.56382">
        <ele>552</ele>
        <time>2016-12-08T11:12:24Z</time>
      </trkpt>
      <trkpt lat="45.96911" lon="4.56382">
        <ele>552</ele>
        <time>2016-12-08T11:12:25Z</time>
      </trkpt>
      <trkpt lat="45.96904" lon="4.56377">
        <ele>552</ele>
        <time>2016-12-08T11:12:31Z</time>
      </trkpt>
      <trkpt lat="45.96903" lon="4.56376">
        <ele>552</ele>
        <time>2016-12-08T11:12:32Z</time>
      </trkpt>
      <trkpt lat="45.96895" lon="4.5637">
        <ele>552</ele>
        <time>2016-12-08T11:12:38Z</time>
      </trkpt>
      <trkpt lat="45.96894" lon="4.56369">
        <ele>552</ele>
        <time>2016-12-08T11:12:39Z</time>
      </trkpt>
      <trkpt lat="45.96887" lon="4.56364">
        <ele>552</ele>
        <time>2016-12-08T11:12:45Z</time>
      </trkpt>
      <trkpt lat="45.96885" lon="4.56364">
        <ele>552</ele>
        <time>2016-12-08T11:12:46Z</time>
      </trkpt>
      <trkpt lat="45.96877" lon="4.56361">
        <ele>552</ele>
        <time>2016-12-08T11:12:53Z</time>
      </trkpt>
      <trkpt lat="45.96876" lon="4.5636">
        <ele>552</ele>
        <time>2016-12-08T11:12:54Z</time>
      </trkpt>
      <trkpt lat="45.96867" lon="4.56358">
        <ele>552</ele>
        <time>2016-12-08T11:13:01Z</time>
      </trkpt>
      <trkpt lat="45.96866" lon="4.56358">
        <ele>552</ele>
        <time>2016-12-08T11:13:02Z</time>
      </trkpt>
      <trkpt lat="45.96858" lon="4.56356">
        <ele>553</ele>
        <time>2016-12-08T11:13:09Z</time>
      </trkpt>
      <trkpt lat="45.96856" lon="4.56355">
        <ele>553</ele>
        <time>2016-12-08T11:13:10Z</time>
      </trkpt>
      <trkpt lat="45.96848" lon="4.56354">
        <ele>553</ele>
        <time>2016-12-08T11:13:17Z</time>
      </trkpt>
      <trkpt lat="45.96846" lon="4.56353">
        <ele>553</ele>
        <time>2016-12-08T11:13:18Z</time>
      </trkpt>
      <trkpt lat="45.96839" lon="4.56352">
        <ele>553</ele>
        <time>2016-12-08T11:13:24Z</time>
      </trkpt>
      <trkpt lat="45.96837" lon="4.56352">
        <ele>553</ele>
        <time>2016-12-08T11:13:25Z</time>
      </trkpt>
      <trkpt lat="45.9683" lon="4.5635">
        <ele>554</ele>
        <time>2016-12-08T11:13:31Z</time>
      </trkpt>
      <trkpt lat="45.96828" lon="4.56349">
        <ele>554</ele>
        <time>2016-12-08T11:13:32Z</time>
      </trkpt>
      <trkpt lat="45.9682" lon="4.56345">
        <ele>554</ele>
        <time>2016-12-08T11:15:21Z</time>
      </trkpt>
      <trkpt lat="45.96819" lon="4.56345">
        <ele>554</ele>
        <time>2016-12-08T11:15:22Z</time>
      </trkpt>
      <trkpt lat="45.96811" lon="4.56344">
        <ele>554</ele>
        <time>2016-12-08T11:15:31Z</time>
      </trkpt>
      <trkpt lat="45.96809" lon="4.56345">
        <ele>554</ele>
        <time>2016-12-08T11:15:32Z</time>
      </trkpt>
      <trkpt lat="45.968" lon="4.56345">
        <ele>555</ele>
        <time>2016-12-08T11:15:38Z</time>
      </trkpt>
      <trkpt lat="45.96799" lon="4.56345">
        <ele>555</ele>
        <time>2016-12-08T11:15:39Z</time>
      </trkpt>
      <trkpt lat="45.9679" lon="4.56344">
        <ele>555</ele>
        <time>2016-12-08T11:15:46Z</time>
      </trkpt>
      <trkpt lat="45.9679" lon="4.56343">
        <ele>555</ele>
        <time>2016-12-08T11:15:47Z</time>
      </trkpt>
      <trkpt lat="45.96781" lon="4.56343">
        <ele>555</ele>
        <time>2016-12-08T11:15:57Z</time>
      </trkpt>
      <trkpt lat="45.96779" lon="4.56342">
        <ele>555</ele>
        <time>2016-12-08T11:15:58Z</time>
      </trkpt>
      <trkpt lat="45.96771" lon="4.56341">
        <ele>556</ele>
        <time>2016-12-08T11:16:04Z</time>
      </trkpt>
      <trkpt lat="45.96769" lon="4.56341">
        <ele>556</ele>
        <time>2016-12-08T11:16:05Z</time>
      </trkpt>
      <trkpt lat="45.96761" lon="4.56341">
        <ele>556</ele>
        <time>2016-12-08T11:16:12Z</time>
      </trkpt>
      <trkpt lat="45.9676" lon="4.56341">
        <ele>556</ele>
        <time>2016-12-08T11:16:13Z</time>
      </trkpt>
      <trkpt lat="45.96753" lon="4.56335">
        <ele>557</ele>
        <time>2016-12-08T11:16:20Z</time>
      </trkpt>
      <trkpt lat="45.96751" lon="4.56335">
        <ele>557</ele>
        <time>2016-12-08T11:16:21Z</time>
      </trkpt>
      <trkpt lat="45.96743" lon="4.56333">
        <ele>558</ele>
        <time>2016-12-08T11:16:28Z</time>
      </trkpt>
      <trkpt lat="45.96742" lon="4.56333">
        <ele>558</ele>
        <time>2016-12-08T11:16:29Z</time>
      </trkpt>
      <trkpt lat="45.96734" lon="4.56333">
        <ele>558</ele>
        <time>2016-12-08T11:16:36Z</time>
      </trkpt>
      <trkpt lat="45.96732" lon="4.56332">
        <ele>558</ele>
        <time>2016-12-08T11:16:37Z</time>
      </trkpt>
      <trkpt lat="45.96724" lon="4.56332">
        <ele>558</ele>
        <time>2016-12-08T11:16:43Z</time>
      </trkpt>
      <trkpt lat="45.96723" lon="4.56334">
        <ele>556</ele>
        <time>2016-12-08T11:16:44Z</time>
      </trkpt>
      <trkpt lat="45.96714" lon="4.56335">
        <ele>556</ele>
        <time>2016-12-08T11:16:50Z</time>
      </trkpt>
      <trkpt lat="45.96713" lon="4.56334">
        <ele>556</ele>
        <time>2016-12-08T11:16:51Z</time>
      </trkpt>
      <trkpt lat="45.96704" lon="4.56336">
        <ele>556</ele>
        <time>2016-12-08T11:16:58Z</time>
      </trkpt>
      <trkpt lat="45.96703" lon="4.56337">
        <ele>556</ele>
        <time>2016-12-08T11:16:59Z</time>
      </trkpt>
      <trkpt lat="45.96696" lon="4.56342">
        <ele>556</ele>
        <time>2016-12-08T11:17:06Z</time>
      </trkpt>
      <trkpt lat="45.96694" lon="4.56342">
        <ele>556</ele>
        <time>2016-12-08T11:17:07Z</time>
      </trkpt>
      <trkpt lat="45.96686" lon="4.56345">
        <ele>556</ele>
        <time>2016-12-08T11:17:14Z</time>
      </trkpt>
      <trkpt lat="45.96684" lon="4.56345">
        <ele>556</ele>
        <time>2016-12-08T11:17:15Z</time>
      </trkpt>
      <trkpt lat="45.96676" lon="4.56346">
        <ele>557</ele>
        <time>2016-12-08T11:17:21Z</time>
      </trkpt>
      <trkpt lat="45.96675" lon="4.56346">
        <ele>557</ele>
        <time>2016-12-08T11:17:22Z</time>
      </trkpt>
      <trkpt lat="45.96666" lon="4.56348">
        <ele>556</ele>
        <time>2016-12-08T11:17:29Z</time>
      </trkpt>
      <trkpt lat="45.96665" lon="4.56348">
        <ele>555</ele>
        <time>2016-12-08T11:17:30Z</time>
      </trkpt>
      <trkpt lat="45.96656" lon="4.56349">
        <ele>555</ele>
        <time>2016-12-08T11:17:38Z</time>
      </trkpt>
      <trkpt lat="45.96655" lon="4.5635">
        <ele>555</ele>
        <time>2016-12-08T11:17:39Z</time>
      </trkpt>
      <trkpt lat="45.96646" lon="4.56351">
        <ele>554</ele>
        <time>2016-12-08T11:17:46Z</time>
      </trkpt>
      <trkpt lat="45.96645" lon="4.56351">
        <ele>554</ele>
        <time>2016-12-08T11:17:47Z</time>
      </trkpt>
      <trkpt lat="45.96637" lon="4.56348">
        <ele>553</ele>
        <time>2016-12-08T11:17:53Z</time>
      </trkpt>
      <trkpt lat="45.96636" lon="4.56348">
        <ele>553</ele>
        <time>2016-12-08T11:17:54Z</time>
      </trkpt>
      <trkpt lat="45.96628" lon="4.56344">
        <ele>553</ele>
        <time>2016-12-08T11:18:02Z</time>
      </trkpt>
      <trkpt lat="45.96627" lon="4.56344">
        <ele>553</ele>
        <time>2016-12-08T11:18:03Z</time>
      </trkpt>
      <trkpt lat="45.96618" lon="4.56345">
        <ele>553</ele>
        <time>2016-12-08T11:18:37Z</time>
      </trkpt>
      <trkpt lat="45.96617" lon="4.56344">
        <ele>553</ele>
        <time>2016-12-08T11:18:38Z</time>
      </trkpt>
      <trkpt lat="45.96608" lon="4.56339">
        <ele>553</ele>
        <time>2016-12-08T11:18:45Z</time>
      </trkpt>
      <trkpt lat="45.96607" lon="4.56338">
        <ele>553</ele>
        <time>2016-12-08T11:18:46Z</time>
      </trkpt>
      <trkpt lat="45.96601" lon="4.56332">
        <ele>556</ele>
        <time>2016-12-08T11:18:53Z</time>
      </trkpt>
      <trkpt lat="45.966" lon="4.56332">
        <ele>556</ele>
        <time>2016-12-08T11:18:54Z</time>
      </trkpt>
      <trkpt lat="45.96592" lon="4.56326">
        <ele>556</ele>
        <time>2016-12-08T11:19:02Z</time>
      </trkpt>
      <trkpt lat="45.96591" lon="4.56325">
        <ele>556</ele>
        <time>2016-12-08T11:19:03Z</time>
      </trkpt>
      <trkpt lat="45.96584" lon="4.5632">
        <ele>556</ele>
        <time>2016-12-08T11:19:11Z</time>
      </trkpt>
      <trkpt lat="45.96583" lon="4.56318">
        <ele>554</ele>
        <time>2016-12-08T11:19:12Z</time>
      </trkpt>
      <trkpt lat="45.96576" lon="4.56311">
        <ele>554</ele>
        <time>2016-12-08T11:19:19Z</time>
      </trkpt>
      <trkpt lat="45.96575" lon="4.56311">
        <ele>554</ele>
        <time>2016-12-08T11:19:20Z</time>
      </trkpt>
      <trkpt lat="45.96567" lon="4.56305">
        <ele>554</ele>
        <time>2016-12-08T11:19:27Z</time>
      </trkpt>
      <trkpt lat="45.96566" lon="4.56304">
        <ele>554</ele>
        <time>2016-12-08T11:19:28Z</time>
      </trkpt>
      <trkpt lat="45.96559" lon="4.56298">
        <ele>554</ele>
        <time>2016-12-08T11:19:34Z</time>
      </trkpt>
      <trkpt lat="45.96558" lon="4.56296">
        <ele>554</ele>
        <time>2016-12-08T11:19:35Z</time>
      </trkpt>
      <trkpt lat="45.9655" lon="4.5629">
        <ele>554</ele>
        <time>2016-12-08T11:19:42Z</time>
      </trkpt>
      <trkpt lat="45.96549" lon="4.56289">
        <ele>554</ele>
        <time>2016-12-08T11:19:43Z</time>
      </trkpt>
      <trkpt lat="45.96542" lon="4.56284">
        <ele>553</ele>
        <time>2016-12-08T11:19:50Z</time>
      </trkpt>
      <trkpt lat="45.96541" lon="4.56283">
        <ele>553</ele>
        <time>2016-12-08T11:19:51Z</time>
      </trkpt>
      <trkpt lat="45.96533" lon="4.56277">
        <ele>553</ele>
        <time>2016-12-08T11:19:58Z</time>
      </trkpt>
      <trkpt lat="45.96532" lon="4.56277">
        <ele>553</ele>
        <time>2016-12-08T11:19:59Z</time>
      </trkpt>
      <trkpt lat="45.96524" lon="4.56274">
        <ele>553</ele>
        <time>2016-12-08T11:20:05Z</time>
      </trkpt>
      <trkpt lat="45.96523" lon="4.56274">
        <ele>553</ele>
        <time>2016-12-08T11:20:06Z</time>
      </trkpt>
      <trkpt lat="45.96515" lon="4.56273">
        <ele>553</ele>
        <time>2016-12-08T11:20:13Z</time>
      </trkpt>
      <trkpt lat="45.96514" lon="4.56273">
        <ele>553</ele>
        <time>2016-12-08T11:20:14Z</time>
      </trkpt>
      <trkpt lat="45.96505" lon="4.56275">
        <ele>552</ele>
        <time>2016-12-08T11:20:20Z</time>
      </trkpt>
      <trkpt lat="45.96504" lon="4.56275">
        <ele>552</ele>
        <time>2016-12-08T11:20:21Z</time>
      </trkpt>
      <trkpt lat="45.96496" lon="4.56276">
        <ele>549</ele>
        <time>2016-12-08T11:20:27Z</time>
      </trkpt>
      <trkpt lat="45.96494" lon="4.56277">
        <ele>549</ele>
        <time>2016-12-08T11:20:28Z</time>
      </trkpt>
      <trkpt lat="45.96486" lon="4.56279">
        <ele>549</ele>
        <time>2016-12-08T11:20:34Z</time>
      </trkpt>
      <trkpt lat="45.96485" lon="4.5628">
        <ele>549</ele>
        <time>2016-12-08T11:20:35Z</time>
      </trkpt>
      <trkpt lat="45.96477" lon="4.56285">
        <ele>548</ele>
        <time>2016-12-08T11:20:42Z</time>
      </trkpt>
      <trkpt lat="45.96476" lon="4.56286">
        <ele>548</ele>
        <time>2016-12-08T11:20:43Z</time>
      </trkpt>
      <trkpt lat="45.96468" lon="4.5629">
        <ele>548</ele>
        <time>2016-12-08T11:20:49Z</time>
      </trkpt>
      <trkpt lat="45.96467" lon="4.56291">
        <ele>548</ele>
        <time>2016-12-08T11:20:50Z</time>
      </trkpt>
      <trkpt lat="45.96458" lon="4.56294">
        <ele>548</ele>
        <time>2016-12-08T11:20:57Z</time>
      </trkpt>
      <trkpt lat="45.96457" lon="4.56294">
        <ele>548</ele>
        <time>2016-12-08T11:20:58Z</time>
      </trkpt>
      <trkpt lat="45.9645" lon="4.56298">
        <ele>547</ele>
        <time>2016-12-08T11:21:05Z</time>
      </trkpt>
      <trkpt lat="45.96448" lon="4.56298">
        <ele>547</ele>
        <time>2016-12-08T11:21:06Z</time>
      </trkpt>
      <trkpt lat="45.96441" lon="4.56301">
        <ele>547</ele>
        <time>2016-12-08T11:21:12Z</time>
      </trkpt>
      <trkpt lat="45.96439" lon="4.56302">
        <ele>547</ele>
        <time>2016-12-08T11:21:13Z</time>
      </trkpt>
      <trkpt lat="45.96431" lon="4.56307">
        <ele>547</ele>
        <time>2016-12-08T11:21:20Z</time>
      </trkpt>
      <trkpt lat="45.9643" lon="4.56307">
        <ele>547</ele>
        <time>2016-12-08T11:21:21Z</time>
      </trkpt>
      <trkpt lat="45.96423" lon="4.56312">
        <ele>546</ele>
        <time>2016-12-08T11:21:27Z</time>
      </trkpt>
      <trkpt lat="45.96422" lon="4.56313">
        <ele>546</ele>
        <time>2016-12-08T11:21:28Z</time>
      </trkpt>
      <trkpt lat="45.96414" lon="4.56319">
        <ele>543</ele>
        <time>2016-12-08T11:21:35Z</time>
      </trkpt>
      <trkpt lat="45.96413" lon="4.56319">
        <ele>543</ele>
        <time>2016-12-08T11:21:36Z</time>
      </trkpt>
      <trkpt lat="45.96406" lon="4.56325">
        <ele>543</ele>
        <time>2016-12-08T11:21:43Z</time>
      </trkpt>
      <trkpt lat="45.96405" lon="4.56326">
        <ele>543</ele>
        <time>2016-12-08T11:21:44Z</time>
      </trkpt>
      <trkpt lat="45.96398" lon="4.56332">
        <ele>543</ele>
        <time>2016-12-08T11:21:50Z</time>
      </trkpt>
      <trkpt lat="45.96396" lon="4.56333">
        <ele>543</ele>
        <time>2016-12-08T11:21:51Z</time>
      </trkpt>
      <trkpt lat="45.9639" lon="4.56339">
        <ele>542</ele>
        <time>2016-12-08T11:21:56Z</time>
      </trkpt>
      <trkpt lat="45.96389" lon="4.5634">
        <ele>542</ele>
        <time>2016-12-08T11:21:57Z</time>
      </trkpt>
      <trkpt lat="45.96381" lon="4.56346">
        <ele>541</ele>
        <time>2016-12-08T11:22:03Z</time>
      </trkpt>
      <trkpt lat="45.9638" lon="4.56346">
        <ele>541</ele>
        <time>2016-12-08T11:22:04Z</time>
      </trkpt>
      <trkpt lat="45.96372" lon="4.56351">
        <ele>540</ele>
        <time>2016-12-08T11:22:10Z</time>
      </trkpt>
      <trkpt lat="45.96371" lon="4.56352">
        <ele>540</ele>
        <time>2016-12-08T11:22:11Z</time>
      </trkpt>
      <trkpt lat="45.96363" lon="4.56354">
        <ele>540</ele>
        <time>2016-12-08T11:22:18Z</time>
      </trkpt>
      <trkpt lat="45.96362" lon="4.56354">
        <ele>540</ele>
        <time>2016-12-08T11:22:19Z</time>
      </trkpt>
      <trkpt lat="45.96353" lon="4.56357">
        <ele>540</ele>
        <time>2016-12-08T11:22:26Z</time>
      </trkpt>
      <trkpt lat="45.96352" lon="4.56357">
        <ele>540</ele>
        <time>2016-12-08T11:22:27Z</time>
      </trkpt>
      <trkpt lat="45.96344" lon="4.56356">
        <ele>539</ele>
        <time>2016-12-08T11:22:34Z</time>
      </trkpt>
      <trkpt lat="45.96342" lon="4.56356">
        <ele>539</ele>
        <time>2016-12-08T11:22:35Z</time>
      </trkpt>
      <trkpt lat="45.96334" lon="4.56354">
        <ele>539</ele>
        <time>2016-12-08T11:22:41Z</time>
      </trkpt>
      <trkpt lat="45.96333" lon="4.56354">
        <ele>534</ele>
        <time>2016-12-08T11:22:42Z</time>
      </trkpt>
      <trkpt lat="45.96324" lon="4.56354">
        <ele>533</ele>
        <time>2016-12-08T11:22:48Z</time>
      </trkpt>
      <trkpt lat="45.96323" lon="4.56355">
        <ele>533</ele>
        <time>2016-12-08T11:22:49Z</time>
      </trkpt>
      <trkpt lat="45.96315" lon="4.56361">
        <ele>532</ele>
        <time>2016-12-08T11:22:56Z</time>
      </trkpt>
      <trkpt lat="45.96314" lon="4.56362">
        <ele>532</ele>
        <time>2016-12-08T11:22:57Z</time>
      </trkpt>
      <trkpt lat="45.96311" lon="4.56372">
        <ele>531</ele>
        <time>2016-12-08T11:23:05Z</time>
      </trkpt>
      <trkpt lat="45.9631" lon="4.56374">
        <ele>531</ele>
        <time>2016-12-08T11:23:06Z</time>
      </trkpt>
      <trkpt lat="45.96307" lon="4.56385">
        <ele>531</ele>
        <time>2016-12-08T11:23:13Z</time>
      </trkpt>
      <trkpt lat="45.96307" lon="4.56387">
        <ele>531</ele>
        <time>2016-12-08T11:23:14Z</time>
      </trkpt>
      <trkpt lat="45.96304" lon="4.56399">
        <ele>531</ele>
        <time>2016-12-08T11:23:20Z</time>
      </trkpt>
      <trkpt lat="45.96303" lon="4.564">
        <ele>531</ele>
        <time>2016-12-08T11:23:21Z</time>
      </trkpt>
      <trkpt lat="45.96299" lon="4.56411">
        <ele>531</ele>
        <time>2016-12-08T11:23:27Z</time>
      </trkpt>
      <trkpt lat="45.96298" lon="4.56412">
        <ele>531</ele>
        <time>2016-12-08T11:23:28Z</time>
      </trkpt>
      <trkpt lat="45.96295" lon="4.56422">
        <ele>529</ele>
        <time>2016-12-08T11:23:34Z</time>
      </trkpt>
      <trkpt lat="45.96294" lon="4.56423">
        <ele>529</ele>
        <time>2016-12-08T11:23:35Z</time>
      </trkpt>
      <trkpt lat="45.96289" lon="4.56434">
        <ele>528</ele>
        <time>2016-12-08T11:23:42Z</time>
      </trkpt>
      <trkpt lat="45.96289" lon="4.56436">
        <ele>528</ele>
        <time>2016-12-08T11:23:43Z</time>
      </trkpt>
      <trkpt lat="45.96286" lon="4.56447">
        <ele>528</ele>
        <time>2016-12-08T11:23:50Z</time>
      </trkpt>
      <trkpt lat="45.96286" lon="4.56448">
        <ele>528</ele>
        <time>2016-12-08T11:23:51Z</time>
      </trkpt>
      <trkpt lat="45.96284" lon="4.5646">
        <ele>528</ele>
        <time>2016-12-08T11:23:58Z</time>
      </trkpt>
      <trkpt lat="45.96283" lon="4.56462">
        <ele>528</ele>
        <time>2016-12-08T11:23:59Z</time>
      </trkpt>
      <trkpt lat="45.96281" lon="4.56474">
        <ele>527</ele>
        <time>2016-12-08T11:24:05Z</time>
      </trkpt>
      <trkpt lat="45.96281" lon="4.56475">
        <ele>527</ele>
        <time>2016-12-08T11:24:06Z</time>
      </trkpt>
      <trkpt lat="45.96281" lon="4.56488">
        <ele>527</ele>
        <time>2016-12-08T11:24:13Z</time>
      </trkpt>
      <trkpt lat="45.96281" lon="4.56489">
        <ele>527</ele>
        <time>2016-12-08T11:24:14Z</time>
      </trkpt>
      <trkpt lat="45.9628" lon="4.56502">
        <ele>525</ele>
        <time>2016-12-08T11:24:21Z</time>
      </trkpt>
      <trkpt lat="45.96279" lon="4.56503">
        <ele>525</ele>
        <time>2016-12-08T11:24:22Z</time>
      </trkpt>
      <trkpt lat="45.96277" lon="4.56515">
        <ele>524</ele>
        <time>2016-12-08T11:24:29Z</time>
      </trkpt>
      <trkpt lat="45.96276" lon="4.56517">
        <ele>524</ele>
        <time>2016-12-08T11:24:30Z</time>
      </trkpt>
      <trkpt lat="45.96268" lon="4.5652">
        <ele>524</ele>
        <time>2016-12-08T11:24:38Z</time>
      </trkpt>
      <trkpt lat="45.96267" lon="4.56519">
        <ele>524</ele>
        <time>2016-12-08T11:24:39Z</time>
      </trkpt>
      <trkpt lat="45.96259" lon="4.56515">
        <ele>523</ele>
        <time>2016-12-08T11:24:46Z</time>
      </trkpt>
      <trkpt lat="45.96258" lon="4.56515">
        <ele>523</ele>
        <time>2016-12-08T11:24:47Z</time>
      </trkpt>
      <trkpt lat="45.96252" lon="4.56507">
        <ele>523</ele>
        <time>2016-12-08T11:24:54Z</time>
      </trkpt>
      <trkpt lat="45.96251" lon="4.56506">
        <ele>523</ele>
        <time>2016-12-08T11:24:55Z</time>
      </trkpt>
      <trkpt lat="45.96242" lon="4.56502">
        <ele>520</ele>
        <time>2016-12-08T11:25:02Z</time>
      </trkpt>
      <trkpt lat="45.96241" lon="4.56501">
        <ele>520</ele>
        <time>2016-12-08T11:25:03Z</time>
      </trkpt>
      <trkpt lat="45.96233" lon="4.56497">
        <ele>518</ele>
        <time>2016-12-08T11:25:10Z</time>
      </trkpt>
      <trkpt lat="45.96232" lon="4.56497">
        <ele>517</ele>
        <time>2016-12-08T11:25:11Z</time>
      </trkpt>
      <trkpt lat="45.96223" lon="4.56495">
        <ele>516</ele>
        <time>2016-12-08T11:25:19Z</time>
      </trkpt>
      <trkpt lat="45.96222" lon="4.56494">
        <ele>516</ele>
        <time>2016-12-08T11:25:20Z</time>
      </trkpt>
      <trkpt lat="45.96214" lon="4.56491">
        <ele>515</ele>
        <time>2016-12-08T11:25:27Z</time>
      </trkpt>
      <trkpt lat="45.96213" lon="4.5649">
        <ele>515</ele>
        <time>2016-12-08T11:25:28Z</time>
      </trkpt>
      <trkpt lat="45.96206" lon="4.56484">
        <ele>514</ele>
        <time>2016-12-08T11:26:30Z</time>
      </trkpt>
      <trkpt lat="45.96205" lon="4.56484">
        <ele>514</ele>
        <time>2016-12-08T11:26:31Z</time>
      </trkpt>
      <trkpt lat="45.96198" lon="4.56491">
        <ele>513</ele>
        <time>2016-12-08T11:26:39Z</time>
      </trkpt>
      <trkpt lat="45.96197" lon="4.56492">
        <ele>513</ele>
        <time>2016-12-08T11:26:40Z</time>
      </trkpt>
      <trkpt lat="45.96189" lon="4.56496">
        <ele>512</ele>
        <time>2016-12-08T11:26:50Z</time>
      </trkpt>
      <trkpt lat="45.96188" lon="4.56497">
        <ele>512</ele>
        <time>2016-12-08T11:26:51Z</time>
      </trkpt>
      <trkpt lat="45.9618" lon="4.56502">
        <ele>513</ele>
        <time>2016-12-08T11:27:00Z</time>
      </trkpt>
      <trkpt lat="45.96179" lon="4.56503">
        <ele>513</ele>
        <time>2016-12-08T11:27:01Z</time>
      </trkpt>
      <trkpt lat="45.96171" lon="4.56507">
        <ele>512</ele>
        <time>2016-12-08T11:27:09Z</time>
      </trkpt>
      <trkpt lat="45.9617" lon="4.56507">
        <ele>512</ele>
        <time>2016-12-08T11:27:10Z</time>
      </trkpt>
      <trkpt lat="45.96162" lon="4.56509">
        <ele>510</ele>
        <time>2016-12-08T11:27:18Z</time>
      </trkpt>
      <trkpt lat="45.9616" lon="4.5651">
        <ele>510</ele>
        <time>2016-12-08T11:27:19Z</time>
      </trkpt>
      <trkpt lat="45.96153" lon="4.56515">
        <ele>509</ele>
        <time>2016-12-08T11:27:27Z</time>
      </trkpt>
      <trkpt lat="45.96152" lon="4.56515">
        <ele>509</ele>
        <time>2016-12-08T11:27:28Z</time>
      </trkpt>
      <trkpt lat="45.96144" lon="4.56518">
        <ele>509</ele>
        <time>2016-12-08T11:27:35Z</time>
      </trkpt>
      <trkpt lat="45.96143" lon="4.56519">
        <ele>509</ele>
        <time>2016-12-08T11:27:36Z</time>
      </trkpt>
      <trkpt lat="45.96136" lon="4.56524">
        <ele>508</ele>
        <time>2016-12-08T11:27:43Z</time>
      </trkpt>
      <trkpt lat="45.96135" lon="4.56524">
        <ele>508</ele>
        <time>2016-12-08T11:27:44Z</time>
      </trkpt>
      <trkpt lat="45.96126" lon="4.56526">
        <ele>508</ele>
        <time>2016-12-08T11:27:52Z</time>
      </trkpt>
      <trkpt lat="45.96125" lon="4.56527">
        <ele>508</ele>
        <time>2016-12-08T11:27:53Z</time>
      </trkpt>
      <trkpt lat="45.96117" lon="4.5653">
        <ele>508</ele>
        <time>2016-12-08T11:28:07Z</time>
      </trkpt>
      <trkpt lat="45.96116" lon="4.56531">
        <ele>508</ele>
        <time>2016-12-08T11:28:08Z</time>
      </trkpt>
      <trkpt lat="45.96109" lon="4.56539">
        <ele>507</ele>
        <time>2016-12-08T11:28:22Z</time>
      </trkpt>
      <trkpt lat="45.96109" lon="4.5654">
        <ele>508</ele>
        <time>2016-12-08T11:28:23Z</time>
      </trkpt>
      <trkpt lat="45.96108" lon="4.56552">
        <ele>508</ele>
        <time>2016-12-08T11:30:02Z</time>
      </trkpt>
      <trkpt lat="45.96108" lon="4.56553">
        <ele>508</ele>
        <time>2016-12-08T11:30:03Z</time>
      </trkpt>
      <trkpt lat="45.961" lon="4.56548">
        <ele>507</ele>
        <time>2016-12-08T12:15:09Z</time>
      </trkpt>
      <trkpt lat="45.96099" lon="4.56548">
        <ele>507</ele>
        <time>2016-12-08T12:15:10Z</time>
      </trkpt>
      <trkpt lat="45.96091" lon="4.56545">
        <ele>507</ele>
        <time>2016-12-08T12:15:37Z</time>
      </trkpt>
      <trkpt lat="45.9609" lon="4.56545">
        <ele>507</ele>
        <time>2016-12-08T12:15:38Z</time>
      </trkpt>
      <trkpt lat="45.96082" lon="4.56548">
        <ele>502</ele>
        <time>2016-12-08T12:15:47Z</time>
      </trkpt>
      <trkpt lat="45.96081" lon="4.56549">
        <ele>502</ele>
        <time>2016-12-08T12:15:48Z</time>
      </trkpt>
      <trkpt lat="45.96074" lon="4.56556">
        <ele>502</ele>
        <time>2016-12-08T12:15:56Z</time>
      </trkpt>
      <trkpt lat="45.96073" lon="4.56557">
        <ele>502</ele>
        <time>2016-12-08T12:15:57Z</time>
      </trkpt>
      <trkpt lat="45.96067" lon="4.56564">
        <ele>502</ele>
        <time>2016-12-08T12:16:06Z</time>
      </trkpt>
      <trkpt lat="45.96066" lon="4.56565">
        <ele>502</ele>
        <time>2016-12-08T12:16:07Z</time>
      </trkpt>
      <trkpt lat="45.96057" lon="4.56567">
        <ele>502</ele>
        <time>2016-12-08T12:16:13Z</time>
      </trkpt>
      <trkpt lat="45.96056" lon="4.56567">
        <ele>501</ele>
        <time>2016-12-08T12:16:14Z</time>
      </trkpt>
      <trkpt lat="45.96047" lon="4.56567">
        <ele>501</ele>
        <time>2016-12-08T12:16:23Z</time>
      </trkpt>
      <trkpt lat="45.96046" lon="4.56567">
        <ele>501</ele>
        <time>2016-12-08T12:16:24Z</time>
      </trkpt>
      <trkpt lat="45.9604" lon="4.56577">
        <ele>500</ele>
        <time>2016-12-08T12:16:31Z</time>
      </trkpt>
      <trkpt lat="45.9604" lon="4.56578">
        <ele>500</ele>
        <time>2016-12-08T12:16:32Z</time>
      </trkpt>
      <trkpt lat="45.96035" lon="4.56588">
        <ele>501</ele>
        <time>2016-12-08T12:16:43Z</time>
      </trkpt>
      <trkpt lat="45.96034" lon="4.56589">
        <ele>501</ele>
        <time>2016-12-08T12:16:44Z</time>
      </trkpt>
      <trkpt lat="45.9603" lon="4.56598">
        <ele>500</ele>
        <time>2016-12-08T12:16:50Z</time>
      </trkpt>
      <trkpt lat="45.96029" lon="4.56599">
        <ele>500</ele>
        <time>2016-12-08T12:16:51Z</time>
      </trkpt>
      <trkpt lat="45.96023" lon="4.56608">
        <ele>500</ele>
        <time>2016-12-08T12:16:59Z</time>
      </trkpt>
      <trkpt lat="45.96022" lon="4.56609">
        <ele>500</ele>
        <time>2016-12-08T12:17:00Z</time>
      </trkpt>
      <trkpt lat="45.96017" lon="4.56619">
        <ele>500</ele>
        <time>2016-12-08T12:17:08Z</time>
      </trkpt>
      <trkpt lat="45.96016" lon="4.5662">
        <ele>500</ele>
        <time>2016-12-08T12:17:09Z</time>
      </trkpt>
      <trkpt lat="45.96009" lon="4.56628">
        <ele>500</ele>
        <time>2016-12-08T12:17:15Z</time>
      </trkpt>
      <trkpt lat="45.96008" lon="4.56629">
        <ele>500</ele>
        <time>2016-12-08T12:17:16Z</time>
      </trkpt>
      <trkpt lat="45.96002" lon="4.56637">
        <ele>500</ele>
        <time>2016-12-08T12:17:23Z</time>
      </trkpt>
      <trkpt lat="45.96001" lon="4.56638">
        <ele>500</ele>
        <time>2016-12-08T12:17:24Z</time>
      </trkpt>
      <trkpt lat="45.95994" lon="4.56647">
        <ele>496</ele>
        <time>2016-12-08T12:17:32Z</time>
      </trkpt>
      <trkpt lat="45.95993" lon="4.56648">
        <ele>496</ele>
        <time>2016-12-08T12:17:33Z</time>
      </trkpt>
      <trkpt lat="45.95988" lon="4.56658">
        <ele>497</ele>
        <time>2016-12-08T12:17:49Z</time>
      </trkpt>
      <trkpt lat="45.95988" lon="4.5666">
        <ele>497</ele>
        <time>2016-12-08T12:17:50Z</time>
      </trkpt>
      <trkpt lat="45.95988" lon="4.56673">
        <ele>497</ele>
        <time>2016-12-08T12:17:57Z</time>
      </trkpt>
      <trkpt lat="45.95988" lon="4.56675">
        <ele>497</ele>
        <time>2016-12-08T12:17:58Z</time>
      </trkpt>
      <trkpt lat="45.95987" lon="4.56687">
        <ele>495</ele>
        <time>2016-12-08T12:18:05Z</time>
      </trkpt>
      <trkpt lat="45.95987" lon="4.56689">
        <ele>494</ele>
        <time>2016-12-08T12:18:06Z</time>
      </trkpt>
      <trkpt lat="45.95981" lon="4.56699">
        <ele>493</ele>
        <time>2016-12-08T12:18:16Z</time>
      </trkpt>
      <trkpt lat="45.9598" lon="4.56699">
        <ele>493</ele>
        <time>2016-12-08T12:18:17Z</time>
      </trkpt>
      <trkpt lat="45.95973" lon="4.56706">
        <ele>492</ele>
        <time>2016-12-08T12:18:25Z</time>
      </trkpt>
      <trkpt lat="45.95972" lon="4.56707">
        <ele>492</ele>
        <time>2016-12-08T12:18:26Z</time>
      </trkpt>
      <trkpt lat="45.95966" lon="4.56716">
        <ele>491</ele>
        <time>2016-12-08T12:18:34Z</time>
      </trkpt>
      <trkpt lat="45.95965" lon="4.56717">
        <ele>491</ele>
        <time>2016-12-08T12:18:35Z</time>
      </trkpt>
      <trkpt lat="45.9596" lon="4.56726">
        <ele>491</ele>
        <time>2016-12-08T12:18:42Z</time>
      </trkpt>
      <trkpt lat="45.95959" lon="4.56728">
        <ele>490</ele>
        <time>2016-12-08T12:18:43Z</time>
      </trkpt>
      <trkpt lat="45.95953" lon="4.56735">
        <ele>490</ele>
        <time>2016-12-08T12:18:51Z</time>
      </trkpt>
      <trkpt lat="45.95952" lon="4.56736">
        <ele>490</ele>
        <time>2016-12-08T12:18:52Z</time>
      </trkpt>
      <trkpt lat="45.95945" lon="4.56741">
        <ele>490</ele>
        <time>2016-12-08T12:19:01Z</time>
      </trkpt>
      <trkpt lat="45.95944" lon="4.56742">
        <ele>490</ele>
        <time>2016-12-08T12:19:02Z</time>
      </trkpt>
      <trkpt lat="45.95937" lon="4.56749">
        <ele>489</ele>
        <time>2016-12-08T12:19:09Z</time>
      </trkpt>
      <trkpt lat="45.95936" lon="4.56749">
        <ele>489</ele>
        <time>2016-12-08T12:19:10Z</time>
      </trkpt>
      <trkpt lat="45.95929" lon="4.56756">
        <ele>483</ele>
        <time>2016-12-08T12:19:20Z</time>
      </trkpt>
      <trkpt lat="45.95928" lon="4.56758">
        <ele>483</ele>
        <time>2016-12-08T12:19:21Z</time>
      </trkpt>
      <trkpt lat="45.95922" lon="4.56766">
        <ele>482</ele>
        <time>2016-12-08T12:19:28Z</time>
      </trkpt>
      <trkpt lat="45.95921" lon="4.56767">
        <ele>482</ele>
        <time>2016-12-08T12:19:29Z</time>
      </trkpt>
      <trkpt lat="45.95913" lon="4.56773">
        <ele>478</ele>
        <time>2016-12-08T12:19:37Z</time>
      </trkpt>
      <trkpt lat="45.95912" lon="4.56774">
        <ele>478</ele>
        <time>2016-12-08T12:19:38Z</time>
      </trkpt>
      <trkpt lat="45.95905" lon="4.56777">
        <ele>476</ele>
        <time>2016-12-08T12:19:44Z</time>
      </trkpt>
      <trkpt lat="45.95903" lon="4.56778">
        <ele>476</ele>
        <time>2016-12-08T12:19:45Z</time>
      </trkpt>
      <trkpt lat="45.95895" lon="4.56778">
        <ele>475</ele>
        <time>2016-12-08T12:19:52Z</time>
      </trkpt>
      <trkpt lat="45.95893" lon="4.56778">
        <ele>475</ele>
        <time>2016-12-08T12:19:53Z</time>
      </trkpt>
      <trkpt lat="45.95885" lon="4.56782">
        <ele>474</ele>
        <time>2016-12-08T12:20:01Z</time>
      </trkpt>
      <trkpt lat="45.95884" lon="4.56782">
        <ele>474</ele>
        <time>2016-12-08T12:20:02Z</time>
      </trkpt>
      <trkpt lat="45.9588" lon="4.56794">
        <ele>473</ele>
        <time>2016-12-08T12:20:10Z</time>
      </trkpt>
      <trkpt lat="45.95879" lon="4.56795">
        <ele>472</ele>
        <time>2016-12-08T12:20:11Z</time>
      </trkpt>
      <trkpt lat="45.95876" lon="4.56806">
        <ele>471</ele>
        <time>2016-12-08T12:20:18Z</time>
      </trkpt>
      <trkpt lat="45.95875" lon="4.56807">
        <ele>471</ele>
        <time>2016-12-08T12:20:19Z</time>
      </trkpt>
      <trkpt lat="45.95869" lon="4.56815">
        <ele>471</ele>
        <time>2016-12-08T12:20:27Z</time>
      </trkpt>
      <trkpt lat="45.95868" lon="4.56815">
        <ele>470</ele>
        <time>2016-12-08T12:20:28Z</time>
      </trkpt>
      <trkpt lat="45.95859" lon="4.56819">
        <ele>470</ele>
        <time>2016-12-08T12:20:38Z</time>
      </trkpt>
      <trkpt lat="45.95859" lon="4.56819">
        <ele>469</ele>
        <time>2016-12-08T12:20:39Z</time>
      </trkpt>
      <trkpt lat="45.95851" lon="4.56815">
        <ele>469</ele>
        <time>2016-12-08T12:20:48Z</time>
      </trkpt>
      <trkpt lat="45.9585" lon="4.56815">
        <ele>469</ele>
        <time>2016-12-08T12:20:49Z</time>
      </trkpt>
      <trkpt lat="45.95842" lon="4.56819">
        <ele>468</ele>
        <time>2016-12-08T12:20:58Z</time>
      </trkpt>
      <trkpt lat="45.95841" lon="4.5682">
        <ele>468</ele>
        <time>2016-12-08T12:20:59Z</time>
      </trkpt>
      <trkpt lat="45.95833" lon="4.5682">
        <ele>460</ele>
        <time>2016-12-08T12:21:11Z</time>
      </trkpt>
      <trkpt lat="45.95832" lon="4.5682">
        <ele>460</ele>
        <time>2016-12-08T12:21:12Z</time>
      </trkpt>
      <trkpt lat="45.95824" lon="4.56826">
        <ele>460</ele>
        <time>2016-12-08T12:21:21Z</time>
      </trkpt>
      <trkpt lat="45.95823" lon="4.56826">
        <ele>460</ele>
        <time>2016-12-08T12:21:22Z</time>
      </trkpt>
      <trkpt lat="45.95814" lon="4.56828">
        <ele>458</ele>
        <time>2016-12-08T12:21:34Z</time>
      </trkpt>
      <trkpt lat="45.95814" lon="4.56828">
        <ele>458</ele>
        <time>2016-12-08T12:21:35Z</time>
      </trkpt>
      <trkpt lat="45.95807" lon="4.56835">
        <ele>454</ele>
        <time>2016-12-08T12:21:56Z</time>
      </trkpt>
      <trkpt lat="45.95806" lon="4.56836">
        <ele>454</ele>
        <time>2016-12-08T12:21:57Z</time>
      </trkpt>
      <trkpt lat="45.95798" lon="4.56838">
        <ele>452</ele>
        <time>2016-12-08T12:22:46Z</time>
      </trkpt>
      <trkpt lat="45.95796" lon="4.56837">
        <ele>452</ele>
        <time>2016-12-08T12:22:47Z</time>
      </trkpt>
      <trkpt lat="45.95788" lon="4.56836">
        <ele>450</ele>
        <time>2016-12-08T12:22:55Z</time>
      </trkpt>
      <trkpt lat="45.95787" lon="4.56835">
        <ele>450</ele>
        <time>2016-12-08T12:22:56Z</time>
      </trkpt>
      <trkpt lat="45.95778" lon="4.56837">
        <ele>448</ele>
        <time>2016-12-08T12:23:05Z</time>
      </trkpt>
      <trkpt lat="45.95778" lon="4.56837">
        <ele>448</ele>
        <time>2016-12-08T12:23:06Z</time>
      </trkpt>
      <trkpt lat="45.9577" lon="4.56843">
        <ele>447</ele>
        <time>2016-12-08T12:23:15Z</time>
      </trkpt>
      <trkpt lat="45.95769" lon="4.56842">
        <ele>447</ele>
        <time>2016-12-08T12:23:16Z</time>
      </trkpt>
      <trkpt lat="45.9576" lon="4.56838">
        <ele>445</ele>
        <time>2016-12-08T12:23:27Z</time>
      </trkpt>
      <trkpt lat="45.95759" lon="4.56837">
        <ele>445</ele>
        <time>2016-12-08T12:23:28Z</time>
      </trkpt>
      <trkpt lat="45.95752" lon="4.56832">
        <ele>444</ele>
        <time>2016-12-08T12:23:39Z</time>
      </trkpt>
      <trkpt lat="45.95751" lon="4.56832">
        <ele>444</ele>
        <time>2016-12-08T12:23:40Z</time>
      </trkpt>
      <trkpt lat="45.95742" lon="4.56829">
        <ele>439</ele>
        <time>2016-12-08T12:23:50Z</time>
      </trkpt>
      <trkpt lat="45.95741" lon="4.56828">
        <ele>438</ele>
        <time>2016-12-08T12:23:51Z</time>
      </trkpt>
      <trkpt lat="45.95732" lon="4.56826">
        <ele>435</ele>
        <time>2016-12-08T12:23:58Z</time>
      </trkpt>
      <trkpt lat="45.95731" lon="4.56825">
        <ele>435</ele>
        <time>2016-12-08T12:23:59Z</time>
      </trkpt>
      <trkpt lat="45.95723" lon="4.56822">
        <ele>433</ele>
        <time>2016-12-08T12:24:05Z</time>
      </trkpt>
      <trkpt lat="45.95721" lon="4.56821">
        <ele>433</ele>
        <time>2016-12-08T12:24:06Z</time>
      </trkpt>
      <trkpt lat="45.95714" lon="4.56816">
        <ele>431</ele>
        <time>2016-12-08T12:24:15Z</time>
      </trkpt>
      <trkpt lat="45.95713" lon="4.56815">
        <ele>431</ele>
        <time>2016-12-08T12:24:16Z</time>
      </trkpt>
      <trkpt lat="45.95706" lon="4.56807">
        <ele>429</ele>
        <time>2016-12-08T12:24:23Z</time>
      </trkpt>
      <trkpt lat="45.95705" lon="4.56806">
        <ele>429</ele>
        <time>2016-12-08T12:24:24Z</time>
      </trkpt>
      <trkpt lat="45.957" lon="4.56797">
        <ele>428</ele>
        <time>2016-12-08T12:24:30Z</time>
      </trkpt>
      <trkpt lat="45.95699" lon="4.56795">
        <ele>428</ele>
        <time>2016-12-08T12:24:31Z</time>
      </trkpt>
      <trkpt lat="45.9569" lon="4.56793">
        <ele>427</ele>
        <time>2016-12-08T12:24:40Z</time>
      </trkpt>
      <trkpt lat="45.9569" lon="4.56793">
        <ele>427</ele>
        <time>2016-12-08T12:24:41Z</time>
      </trkpt>
      <trkpt lat="45.95682" lon="4.56794">
        <ele>426</ele>
        <time>2016-12-08T12:24:49Z</time>
      </trkpt>
      <trkpt lat="45.9568" lon="4.56794">
        <ele>426</ele>
        <time>2016-12-08T12:24:50Z</time>
      </trkpt>
      <trkpt lat="45.95672" lon="4.56796">
        <ele>425</ele>
        <time>2016-12-08T12:24:59Z</time>
      </trkpt>
      <trkpt lat="45.95671" lon="4.56796">
        <ele>425</ele>
        <time>2016-12-08T12:25:00Z</time>
      </trkpt>
      <trkpt lat="45.95663" lon="4.56797">
        <ele>411</ele>
        <time>2016-12-08T12:25:08Z</time>
      </trkpt>
      <trkpt lat="45.95662" lon="4.56797">
        <ele>411</ele>
        <time>2016-12-08T12:25:09Z</time>
      </trkpt>
      <trkpt lat="45.95653" lon="4.568">
        <ele>411</ele>
        <time>2016-12-08T12:25:17Z</time>
      </trkpt>
      <trkpt lat="45.95652" lon="4.568">
        <ele>411</ele>
        <time>2016-12-08T12:25:18Z</time>
      </trkpt>
      <trkpt lat="45.95645" lon="4.56805">
        <ele>410</ele>
        <time>2016-12-08T12:25:25Z</time>
      </trkpt>
      <trkpt lat="45.95644" lon="4.56806">
        <ele>410</ele>
        <time>2016-12-08T12:25:26Z</time>
      </trkpt>
      <trkpt lat="45.95636" lon="4.56808">
        <ele>409</ele>
        <time>2016-12-08T12:25:34Z</time>
      </trkpt>
      <trkpt lat="45.95635" lon="4.56808">
        <ele>409</ele>
        <time>2016-12-08T12:25:35Z</time>
      </trkpt>
      <trkpt lat="45.95627" lon="4.5681">
        <ele>408</ele>
        <time>2016-12-08T12:25:43Z</time>
      </trkpt>
      <trkpt lat="45.95626" lon="4.5681">
        <ele>408</ele>
        <time>2016-12-08T12:25:44Z</time>
      </trkpt>
      <trkpt lat="45.95617" lon="4.56809">
        <ele>407</ele>
        <time>2016-12-08T12:25:51Z</time>
      </trkpt>
      <trkpt lat="45.95616" lon="4.56809">
        <ele>407</ele>
        <time>2016-12-08T12:25:52Z</time>
      </trkpt>
      <trkpt lat="45.95608" lon="4.5681">
        <ele>406</ele>
        <time>2016-12-08T12:26:00Z</time>
      </trkpt>
      <trkpt lat="45.95607" lon="4.5681">
        <ele>405</ele>
        <time>2016-12-08T12:26:01Z</time>
      </trkpt>
      <trkpt lat="45.95598" lon="4.56811">
        <ele>404</ele>
        <time>2016-12-08T12:26:11Z</time>
      </trkpt>
      <trkpt lat="45.95597" lon="4.56811">
        <ele>404</ele>
        <time>2016-12-08T12:26:12Z</time>
      </trkpt>
      <trkpt lat="45.95589" lon="4.5681">
        <ele>404</ele>
        <time>2016-12-08T12:26:20Z</time>
      </trkpt>
      <trkpt lat="45.95588" lon="4.5681">
        <ele>404</ele>
        <time>2016-12-08T12:26:21Z</time>
      </trkpt>
      <trkpt lat="45.95579" lon="4.56812">
        <ele>394</ele>
        <time>2016-12-08T12:26:29Z</time>
      </trkpt>
      <trkpt lat="45.95578" lon="4.56812">
        <ele>394</ele>
        <time>2016-12-08T12:26:30Z</time>
      </trkpt>
      <trkpt lat="45.9557" lon="4.5681">
        <ele>394</ele>
        <time>2016-12-08T12:26:36Z</time>
      </trkpt>
      <trkpt lat="45.95569" lon="4.56809">
        <ele>393</ele>
        <time>2016-12-08T12:26:37Z</time>
      </trkpt>
      <trkpt lat="45.95562" lon="4.56803">
        <ele>393</ele>
        <time>2016-12-08T12:26:42Z</time>
      </trkpt>
      <trkpt lat="45.9556" lon="4.56802">
        <ele>392</ele>
        <time>2016-12-08T12:26:43Z</time>
      </trkpt>
      <trkpt lat="45.95552" lon="4.56801">
        <ele>392</ele>
        <time>2016-12-08T12:26:49Z</time>
      </trkpt>
      <trkpt lat="45.95551" lon="4.568">
        <ele>392</ele>
        <time>2016-12-08T12:26:50Z</time>
      </trkpt>
      <trkpt lat="45.95542" lon="4.56801">
        <ele>391</ele>
        <time>2016-12-08T12:26:57Z</time>
      </trkpt>
      <trkpt lat="45.95541" lon="4.56801">
        <ele>391</ele>
        <time>2016-12-08T12:26:58Z</time>
      </trkpt>
      <trkpt lat="45.95533" lon="4.56803">
        <ele>390</ele>
        <time>2016-12-08T12:27:06Z</time>
      </trkpt>
      <trkpt lat="45.95532" lon="4.56803">
        <ele>390</ele>
        <time>2016-12-08T12:27:07Z</time>
      </trkpt>
      <trkpt lat="45.95524" lon="4.56804">
        <ele>389</ele>
        <time>2016-12-08T12:27:15Z</time>
      </trkpt>
      <trkpt lat="45.95523" lon="4.56804">
        <ele>389</ele>
        <time>2016-12-08T12:27:16Z</time>
      </trkpt>
      <trkpt lat="45.95515" lon="4.56804">
        <ele>389</ele>
        <time>2016-12-08T12:27:23Z</time>
      </trkpt>
      <trkpt lat="45.95513" lon="4.56804">
        <ele>389</ele>
        <time>2016-12-08T12:27:24Z</time>
      </trkpt>
      <trkpt lat="45.95504" lon="4.56806">
        <ele>388</ele>
        <time>2016-12-08T12:27:32Z</time>
      </trkpt>
      <trkpt lat="45.95503" lon="4.56806">
        <ele>388</ele>
        <time>2016-12-08T12:27:33Z</time>
      </trkpt>
      <trkpt lat="45.95495" lon="4.56807">
        <ele>379</ele>
        <time>2016-12-08T12:27:42Z</time>
      </trkpt>
      <trkpt lat="45.95494" lon="4.56807">
        <ele>379</ele>
        <time>2016-12-08T12:27:43Z</time>
      </trkpt>
      <trkpt lat="45.95486" lon="4.56807">
        <ele>379</ele>
        <time>2016-12-08T12:27:52Z</time>
      </trkpt>
      <trkpt lat="45.95485" lon="4.56807">
        <ele>379</ele>
        <time>2016-12-08T12:27:53Z</time>
      </trkpt>
      <trkpt lat="45.95476" lon="4.56809">
        <ele>378</ele>
        <time>2016-12-08T12:28:01Z</time>
      </trkpt>
      <trkpt lat="45.95474" lon="4.56809">
        <ele>378</ele>
        <time>2016-12-08T12:28:02Z</time>
      </trkpt>
      <trkpt lat="45.95466" lon="4.56809">
        <ele>377</ele>
        <time>2016-12-08T12:28:09Z</time>
      </trkpt>
      <trkpt lat="45.95465" lon="4.56809">
        <ele>377</ele>
        <time>2016-12-08T12:28:10Z</time>
      </trkpt>
      <trkpt lat="45.95456" lon="4.56809">
        <ele>376</ele>
        <time>2016-12-08T12:28:17Z</time>
      </trkpt>
      <trkpt lat="45.95455" lon="4.56808">
        <ele>376</ele>
        <time>2016-12-08T12:28:18Z</time>
      </trkpt>
      <trkpt lat="45.95446" lon="4.56807">
        <ele>375</ele>
        <time>2016-12-08T12:28:25Z</time>
      </trkpt>
      <trkpt lat="45.95445" lon="4.56807">
        <ele>375</ele>
        <time>2016-12-08T12:28:26Z</time>
      </trkpt>
      <trkpt lat="45.95437" lon="4.56804">
        <ele>374</ele>
        <time>2016-12-08T12:28:33Z</time>
      </trkpt>
      <trkpt lat="45.95435" lon="4.56804">
        <ele>374</ele>
        <time>2016-12-08T12:28:34Z</time>
      </trkpt>
      <trkpt lat="45.95427" lon="4.56802">
        <ele>373</ele>
        <time>2016-12-08T12:28:40Z</time>
      </trkpt>
      <trkpt lat="45.95426" lon="4.56802">
        <ele>373</ele>
        <time>2016-12-08T12:28:41Z</time>
      </trkpt>
      <trkpt lat="45.95418" lon="4.568">
        <ele>373</ele>
        <time>2016-12-08T12:28:47Z</time>
      </trkpt>
      <trkpt lat="45.95417" lon="4.56799">
        <ele>365</ele>
        <time>2016-12-08T12:28:48Z</time>
      </trkpt>
      <trkpt lat="45.95409" lon="4.56796">
        <ele>364</ele>
        <time>2016-12-08T12:28:54Z</time>
      </trkpt>
      <trkpt lat="45.95408" lon="4.56796">
        <ele>364</ele>
        <time>2016-12-08T12:28:55Z</time>
      </trkpt>
      <trkpt lat="45.954" lon="4.56793">
        <ele>364</ele>
        <time>2016-12-08T12:29:04Z</time>
      </trkpt>
      <trkpt lat="45.95398" lon="4.56792">
        <ele>364</ele>
        <time>2016-12-08T12:29:05Z</time>
      </trkpt>
      <trkpt lat="45.95392" lon="4.56785">
        <ele>363</ele>
        <time>2016-12-08T12:29:11Z</time>
      </trkpt>
      <trkpt lat="45.9539" lon="4.56783">
        <ele>363</ele>
        <time>2016-12-08T12:29:12Z</time>
      </trkpt>
      <trkpt lat="45.95383" lon="4.56777">
        <ele>362</ele>
        <time>2016-12-08T12:29:18Z</time>
      </trkpt>
      <trkpt lat="45.95383" lon="4.56775">
        <ele>362</ele>
        <time>2016-12-08T12:29:19Z</time>
      </trkpt>
      <trkpt lat="45.95376" lon="4.56767">
        <ele>362</ele>
        <time>2016-12-08T12:29:29Z</time>
      </trkpt>
      <trkpt lat="45.95375" lon="4.56767">
        <ele>362</ele>
        <time>2016-12-08T12:29:30Z</time>
      </trkpt>
      <trkpt lat="45.95367" lon="4.56768">
        <ele>361</ele>
        <time>2016-12-08T12:29:44Z</time>
      </trkpt>
      <trkpt lat="45.95366" lon="4.56767">
        <ele>361</ele>
        <time>2016-12-08T12:29:45Z</time>
      </trkpt>
      <trkpt lat="45.95357" lon="4.56764">
        <ele>360</ele>
        <time>2016-12-08T12:29:56Z</time>
      </trkpt>
      <trkpt lat="45.95357" lon="4.56765">
        <ele>360</ele>
        <time>2016-12-08T12:29:57Z</time>
      </trkpt>
      <trkpt lat="45.95348" lon="4.56764">
        <ele>360</ele>
        <time>2016-12-08T12:30:07Z</time>
      </trkpt>
      <trkpt lat="45.95347" lon="4.56763">
        <ele>359</ele>
        <time>2016-12-08T12:30:08Z</time>
      </trkpt>
      <trkpt lat="45.95338" lon="4.56765">
        <ele>359</ele>
        <time>2016-12-08T12:30:51Z</time>
      </trkpt>
      <trkpt lat="45.95338" lon="4.56767">
        <ele>359</ele>
        <time>2016-12-08T12:30:52Z</time>
      </trkpt>
      <trkpt lat="45.9534" lon="4.56779">
        <ele>360</ele>
        <time>2016-12-08T12:31:08Z</time>
      </trkpt>
      <trkpt lat="45.9534" lon="4.5678">
        <ele>360</ele>
        <time>2016-12-08T12:31:09Z</time>
      </trkpt>
      <trkpt lat="45.95346" lon="4.5679">
        <ele>360</ele>
        <time>2016-12-08T12:31:16Z</time>
      </trkpt>
      <trkpt lat="45.95346" lon="4.56791">
        <ele>360</ele>
        <time>2016-12-08T12:31:17Z</time>
      </trkpt>
      <trkpt lat="45.95351" lon="4.56802">
        <ele>360</ele>
        <time>2016-12-08T12:31:27Z</time>
      </trkpt>
      <trkpt lat="45.95352" lon="4.56803">
        <ele>360</ele>
        <time>2016-12-08T12:31:28Z</time>
      </trkpt>
      <trkpt lat="45.95356" lon="4.56812">
        <ele>360</ele>
        <time>2016-12-08T12:31:34Z</time>
      </trkpt>
      <trkpt lat="45.95357" lon="4.56814">
        <ele>360</ele>
        <time>2016-12-08T12:31:35Z</time>
      </trkpt>
      <trkpt lat="45.95359" lon="4.56824">
        <ele>360</ele>
        <time>2016-12-08T12:31:39Z</time>
      </trkpt>
      <trkpt lat="45.9536" lon="4.56827">
        <ele>360</ele>
        <time>2016-12-08T12:31:40Z</time>
      </trkpt>
      <trkpt lat="45.95362" lon="4.56839">
        <ele>360</ele>
        <time>2016-12-08T12:31:46Z</time>
      </trkpt>
      <trkpt lat="45.95363" lon="4.56841">
        <ele>360</ele>
        <time>2016-12-08T12:31:47Z</time>
      </trkpt>
      <trkpt lat="45.95367" lon="4.56851">
        <ele>361</ele>
        <time>2016-12-08T12:31:56Z</time>
      </trkpt>
      <trkpt lat="45.95367" lon="4.56853">
        <ele>361</ele>
        <time>2016-12-08T12:31:57Z</time>
      </trkpt>
      <trkpt lat="45.95371" lon="4.56863">
        <ele>361</ele>
        <time>2016-12-08T12:32:02Z</time>
      </trkpt>
      <trkpt lat="45.95371" lon="4.56865">
        <ele>361</ele>
        <time>2016-12-08T12:32:03Z</time>
      </trkpt>
      <trkpt lat="45.95375" lon="4.56876">
        <ele>361</ele>
        <time>2016-12-08T12:32:08Z</time>
      </trkpt>
      <trkpt lat="45.95376" lon="4.56878">
        <ele>362</ele>
        <time>2016-12-08T12:32:09Z</time>
      </trkpt>
      <trkpt lat="45.95379" lon="4.56888">
        <ele>362</ele>
        <time>2016-12-08T12:32:15Z</time>
      </trkpt>
      <trkpt lat="45.9538" lon="4.5689">
        <ele>362</ele>
        <time>2016-12-08T12:32:16Z</time>
      </trkpt>
      <trkpt lat="45.95383" lon="4.56901">
        <ele>362</ele>
        <time>2016-12-08T12:32:22Z</time>
      </trkpt>
      <trkpt lat="45.95383" lon="4.56902">
        <ele>362</ele>
        <time>2016-12-08T12:32:23Z</time>
      </trkpt>
      <trkpt lat="45.95386" lon="4.56914">
        <ele>362</ele>
        <time>2016-12-08T12:32:29Z</time>
      </trkpt>
      <trkpt lat="45.95386" lon="4.56916">
        <ele>363</ele>
        <time>2016-12-08T12:32:30Z</time>
      </trkpt>
      <trkpt lat="45.95389" lon="4.56926">
        <ele>361</ele>
        <time>2016-12-08T12:32:36Z</time>
      </trkpt>
      <trkpt lat="45.9539" lon="4.56928">
        <ele>361</ele>
        <time>2016-12-08T12:32:37Z</time>
      </trkpt>
      <trkpt lat="45.95395" lon="4.56936">
        <ele>362</ele>
        <time>2016-12-08T12:32:43Z</time>
      </trkpt>
      <trkpt lat="45.95396" lon="4.56938">
        <ele>361</ele>
        <time>2016-12-08T12:32:44Z</time>
      </trkpt>
      <trkpt lat="45.95401" lon="4.56948">
        <ele>361</ele>
        <time>2016-12-08T12:32:51Z</time>
      </trkpt>
      <trkpt lat="45.95401" lon="4.5695">
        <ele>361</ele>
        <time>2016-12-08T12:32:52Z</time>
      </trkpt>
      <trkpt lat="45.95405" lon="4.5696">
        <ele>361</ele>
        <time>2016-12-08T12:32:59Z</time>
      </trkpt>
      <trkpt lat="45.95406" lon="4.56962">
        <ele>361</ele>
        <time>2016-12-08T12:33:00Z</time>
      </trkpt>
      <trkpt lat="45.95411" lon="4.56972">
        <ele>361</ele>
        <time>2016-12-08T12:33:07Z</time>
      </trkpt>
      <trkpt lat="45.95411" lon="4.56974">
        <ele>361</ele>
        <time>2016-12-08T12:33:08Z</time>
      </trkpt>
      <trkpt lat="45.95415" lon="4.56984">
        <ele>361</ele>
        <time>2016-12-08T12:33:15Z</time>
      </trkpt>
      <trkpt lat="45.95416" lon="4.56986">
        <ele>361</ele>
        <time>2016-12-08T12:33:16Z</time>
      </trkpt>
      <trkpt lat="45.9542" lon="4.56995">
        <ele>364</ele>
        <time>2016-12-08T12:33:22Z</time>
      </trkpt>
      <trkpt lat="45.9542" lon="4.56997">
        <ele>364</ele>
        <time>2016-12-08T12:33:23Z</time>
      </trkpt>
      <trkpt lat="45.95424" lon="4.57008">
        <ele>364</ele>
        <time>2016-12-08T12:33:30Z</time>
      </trkpt>
      <trkpt lat="45.95425" lon="4.5701">
        <ele>365</ele>
        <time>2016-12-08T12:33:31Z</time>
      </trkpt>
      <trkpt lat="45.95429" lon="4.57019">
        <ele>366</ele>
        <time>2016-12-08T12:33:37Z</time>
      </trkpt>
      <trkpt lat="45.9543" lon="4.57022">
        <ele>366</ele>
        <time>2016-12-08T12:33:38Z</time>
      </trkpt>
      <trkpt lat="45.95433" lon="4.57032">
        <ele>366</ele>
        <time>2016-12-08T12:33:44Z</time>
      </trkpt>
      <trkpt lat="45.95433" lon="4.57034">
        <ele>366</ele>
        <time>2016-12-08T12:33:45Z</time>
      </trkpt>
      <trkpt lat="45.95438" lon="4.57044">
        <ele>367</ele>
        <time>2016-12-08T12:33:57Z</time>
      </trkpt>
      <trkpt lat="45.95439" lon="4.57045">
        <ele>367</ele>
        <time>2016-12-08T12:33:58Z</time>
      </trkpt>
      <trkpt lat="45.95443" lon="4.57056">
        <ele>366</ele>
        <time>2016-12-08T12:34:05Z</time>
      </trkpt>
      <trkpt lat="45.95443" lon="4.57058">
        <ele>366</ele>
        <time>2016-12-08T12:34:06Z</time>
      </trkpt>
      <trkpt lat="45.95449" lon="4.57066">
        <ele>367</ele>
        <time>2016-12-08T12:34:17Z</time>
      </trkpt>
      <trkpt lat="45.9545" lon="4.57067">
        <ele>367</ele>
        <time>2016-12-08T12:34:18Z</time>
      </trkpt>
      <trkpt lat="45.95457" lon="4.57075">
        <ele>367</ele>
        <time>2016-12-08T12:34:29Z</time>
      </trkpt>
      <trkpt lat="45.95458" lon="4.57075">
        <ele>368</ele>
        <time>2016-12-08T12:34:30Z</time>
      </trkpt>
      <trkpt lat="45.95462" lon="4.57087">
        <ele>366</ele>
        <time>2016-12-08T12:37:54Z</time>
      </trkpt>
      <trkpt lat="45.95462" lon="4.57087">
        <ele>366</ele>
        <time>2016-12-08T12:37:55Z</time>
      </trkpt>
      <trkpt lat="45.95467" lon="4.57098">
        <ele>366</ele>
        <time>2016-12-08T12:38:05Z</time>
      </trkpt>
      <trkpt lat="45.95468" lon="4.57099">
        <ele>366</ele>
        <time>2016-12-08T12:38:06Z</time>
      </trkpt>
      <trkpt lat="45.95473" lon="4.57107">
        <ele>367</ele>
        <time>2016-12-08T12:38:11Z</time>
      </trkpt>
      <trkpt lat="45.95474" lon="4.57109">
        <ele>367</ele>
        <time>2016-12-08T12:38:12Z</time>
      </trkpt>
      <trkpt lat="45.9548" lon="4.57117">
        <ele>367</ele>
        <time>2016-12-08T12:38:17Z</time>
      </trkpt>
      <trkpt lat="45.95481" lon="4.57119">
        <ele>367</ele>
        <time>2016-12-08T12:38:18Z</time>
      </trkpt>
      <trkpt lat="45.95486" lon="4.57127">
        <ele>366</ele>
        <time>2016-12-08T12:38:23Z</time>
      </trkpt>
      <trkpt lat="45.95487" lon="4.57129">
        <ele>366</ele>
        <time>2016-12-08T12:38:24Z</time>
      </trkpt>
      <trkpt lat="45.95492" lon="4.57138">
        <ele>366</ele>
        <time>2016-12-08T12:38:29Z</time>
      </trkpt>
      <trkpt lat="45.95493" lon="4.57139">
        <ele>366</ele>
        <time>2016-12-08T12:38:30Z</time>
      </trkpt>
      <trkpt lat="45.95499" lon="4.57148">
        <ele>366</ele>
        <time>2016-12-08T12:38:36Z</time>
      </trkpt>
      <trkpt lat="45.955" lon="4.57149">
        <ele>371</ele>
        <time>2016-12-08T12:38:37Z</time>
      </trkpt>
      <trkpt lat="45.95506" lon="4.57157">
        <ele>370</ele>
        <time>2016-12-08T12:38:43Z</time>
      </trkpt>
      <trkpt lat="45.95507" lon="4.57159">
        <ele>369</ele>
        <time>2016-12-08T12:38:44Z</time>
      </trkpt>
      <trkpt lat="45.95513" lon="4.57167">
        <ele>369</ele>
        <time>2016-12-08T12:38:50Z</time>
      </trkpt>
      <trkpt lat="45.95514" lon="4.57168">
        <ele>369</ele>
        <time>2016-12-08T12:38:51Z</time>
      </trkpt>
      <trkpt lat="45.9552" lon="4.57175">
        <ele>370</ele>
        <time>2016-12-08T12:38:57Z</time>
      </trkpt>
      <trkpt lat="45.95521" lon="4.57177">
        <ele>370</ele>
        <time>2016-12-08T12:38:58Z</time>
      </trkpt>
      <trkpt lat="45.95527" lon="4.57186">
        <ele>371</ele>
        <time>2016-12-08T12:39:04Z</time>
      </trkpt>
      <trkpt lat="45.95528" lon="4.57187">
        <ele>371</ele>
        <time>2016-12-08T12:39:05Z</time>
      </trkpt>
      <trkpt lat="45.95534" lon="4.57195">
        <ele>371</ele>
        <time>2016-12-08T12:39:11Z</time>
      </trkpt>
      <trkpt lat="45.95535" lon="4.57197">
        <ele>372</ele>
        <time>2016-12-08T12:39:12Z</time>
      </trkpt>
      <trkpt lat="45.9554" lon="4.57206">
        <ele>372</ele>
        <time>2016-12-08T12:39:18Z</time>
      </trkpt>
      <trkpt lat="45.95541" lon="4.57208">
        <ele>372</ele>
        <time>2016-12-08T12:39:19Z</time>
      </trkpt>
      <trkpt lat="45.95545" lon="4.57219">
        <ele>372</ele>
        <time>2016-12-08T12:39:26Z</time>
      </trkpt>
      <trkpt lat="45.95545" lon="4.5722">
        <ele>372</ele>
        <time>2016-12-08T12:39:27Z</time>
      </trkpt>
      <trkpt lat="45.95547" lon="4.57232">
        <ele>372</ele>
        <time>2016-12-08T12:39:38Z</time>
      </trkpt>
      <trkpt lat="45.95547" lon="4.57234">
        <ele>372</ele>
        <time>2016-12-08T12:39:39Z</time>
      </trkpt>
      <trkpt lat="45.95547" lon="4.57245">
        <ele>372</ele>
        <time>2016-12-08T12:39:47Z</time>
      </trkpt>
      <trkpt lat="45.95548" lon="4.57247">
        <ele>372</ele>
        <time>2016-12-08T12:39:48Z</time>
      </trkpt>
      <trkpt lat="45.9555" lon="4.57259">
        <ele>371</ele>
        <time>2016-12-08T12:39:56Z</time>
      </trkpt>
      <trkpt lat="45.9555" lon="4.57261">
        <ele>371</ele>
        <time>2016-12-08T12:39:57Z</time>
      </trkpt>
      <trkpt lat="45.95552" lon="4.57272">
        <ele>371</ele>
        <time>2016-12-08T12:40:05Z</time>
      </trkpt>
      <trkpt lat="45.95552" lon="4.57274">
        <ele>371</ele>
        <time>2016-12-08T12:40:06Z</time>
      </trkpt>
      <trkpt lat="45.95549" lon="4.57285">
        <ele>370</ele>
        <time>2016-12-08T12:40:16Z</time>
      </trkpt>
      <trkpt lat="45.95548" lon="4.57287">
        <ele>370</ele>
        <time>2016-12-08T12:40:17Z</time>
      </trkpt>
      <trkpt lat="45.95547" lon="4.573">
        <ele>370</ele>
        <time>2016-12-08T12:40:28Z</time>
      </trkpt>
      <trkpt lat="45.95547" lon="4.57301">
        <ele>370</ele>
        <time>2016-12-08T12:40:29Z</time>
      </trkpt>
      <trkpt lat="45.95551" lon="4.57311">
        <ele>370</ele>
        <time>2016-12-08T12:40:35Z</time>
      </trkpt>
      <trkpt lat="45.95551" lon="4.57313">
        <ele>370</ele>
        <time>2016-12-08T12:40:36Z</time>
      </trkpt>
      <trkpt lat="45.95557" lon="4.57323">
        <ele>370</ele>
        <time>2016-12-08T12:40:43Z</time>
      </trkpt>
      <trkpt lat="45.95558" lon="4.57324">
        <ele>370</ele>
        <time>2016-12-08T12:40:44Z</time>
      </trkpt>
      <trkpt lat="45.9555" lon="4.57328">
        <ele>370</ele>
        <time>2016-12-08T12:41:20Z</time>
      </trkpt>
      <trkpt lat="45.9555" lon="4.57327">
        <ele>370</ele>
        <time>2016-12-08T12:41:21Z</time>
      </trkpt>
      <trkpt lat="45.95558" lon="4.57328">
        <ele>370</ele>
        <time>2016-12-08T12:42:01Z</time>
      </trkpt>
      <trkpt lat="45.95559" lon="4.57328">
        <ele>370</ele>
        <time>2016-12-08T12:42:02Z</time>
      </trkpt>
      <trkpt lat="45.95567" lon="4.57326">
        <ele>370</ele>
        <time>2016-12-08T12:42:10Z</time>
      </trkpt>
      <trkpt lat="45.95568" lon="4.57326">
        <ele>370</ele>
        <time>2016-12-08T12:42:11Z</time>
      </trkpt>
      <trkpt lat="45.95576" lon="4.57327">
        <ele>370</ele>
        <time>2016-12-08T12:42:18Z</time>
      </trkpt>
      <trkpt lat="45.95578" lon="4.57327">
        <ele>370</ele>
        <time>2016-12-08T12:42:19Z</time>
      </trkpt>
      <trkpt lat="45.95586" lon="4.57329">
        <ele>371</ele>
        <time>2016-12-08T12:42:25Z</time>
      </trkpt>
      <trkpt lat="45.95587" lon="4.57329">
        <ele>371</ele>
        <time>2016-12-08T12:42:26Z</time>
      </trkpt>
      <trkpt lat="45.95595" lon="4.5733">
        <ele>372</ele>
        <time>2016-12-08T12:42:31Z</time>
      </trkpt>
      <trkpt lat="45.95597" lon="4.5733">
        <ele>373</ele>
        <time>2016-12-08T12:42:32Z</time>
      </trkpt>
      <trkpt lat="45.95605" lon="4.57332">
        <ele>374</ele>
        <time>2016-12-08T12:42:39Z</time>
      </trkpt>
      <trkpt lat="45.95606" lon="4.57333">
        <ele>374</ele>
        <time>2016-12-08T12:42:40Z</time>
      </trkpt>
      <trkpt lat="45.95614" lon="4.57338">
        <ele>375</ele>
        <time>2016-12-08T12:42:47Z</time>
      </trkpt>
      <trkpt lat="45.95615" lon="4.57339">
        <ele>375</ele>
        <time>2016-12-08T12:42:48Z</time>
      </trkpt>
      <trkpt lat="45.95623" lon="4.57342">
        <ele>375</ele>
        <time>2016-12-08T12:42:57Z</time>
      </trkpt>
      <trkpt lat="45.95624" lon="4.57342">
        <ele>375</ele>
        <time>2016-12-08T12:42:58Z</time>
      </trkpt>
      <trkpt lat="45.95632" lon="4.57345">
        <ele>376</ele>
        <time>2016-12-08T12:43:09Z</time>
      </trkpt>
      <trkpt lat="45.95633" lon="4.57346">
        <ele>376</ele>
        <time>2016-12-08T12:43:10Z</time>
      </trkpt>
      <trkpt lat="45.9564" lon="4.57352">
        <ele>376</ele>
        <time>2016-12-08T12:43:19Z</time>
      </trkpt>
      <trkpt lat="45.95641" lon="4.57352">
        <ele>376</ele>
        <time>2016-12-08T12:43:20Z</time>
      </trkpt>
      <trkpt lat="45.95648" lon="4.57358">
        <ele>376</ele>
        <time>2016-12-08T12:43:29Z</time>
      </trkpt>
      <trkpt lat="45.95649" lon="4.57359">
        <ele>377</ele>
        <time>2016-12-08T12:43:30Z</time>
      </trkpt>
      <trkpt lat="45.95655" lon="4.57367">
        <ele>377</ele>
        <time>2016-12-08T12:43:37Z</time>
      </trkpt>
      <trkpt lat="45.95656" lon="4.57369">
        <ele>377</ele>
        <time>2016-12-08T12:43:38Z</time>
      </trkpt>
      <trkpt lat="45.95663" lon="4.57375">
        <ele>378</ele>
        <time>2016-12-08T12:43:46Z</time>
      </trkpt>
      <trkpt lat="45.95664" lon="4.57376">
        <ele>378</ele>
        <time>2016-12-08T12:43:47Z</time>
      </trkpt>
      <trkpt lat="45.95671" lon="4.57383">
        <ele>380</ele>
        <time>2016-12-08T12:43:55Z</time>
      </trkpt>
      <trkpt lat="45.95673" lon="4.57382">
        <ele>380</ele>
        <time>2016-12-08T12:43:56Z</time>
      </trkpt>
      <trkpt lat="45.9568" lon="4.57389">
        <ele>380</ele>
        <time>2016-12-08T12:44:03Z</time>
      </trkpt>
      <trkpt lat="45.95682" lon="4.5739">
        <ele>380</ele>
        <time>2016-12-08T12:44:04Z</time>
      </trkpt>
      <trkpt lat="45.95687" lon="4.57398">
        <ele>380</ele>
        <time>2016-12-08T12:44:09Z</time>
      </trkpt>
      <trkpt lat="45.95689" lon="4.574">
        <ele>380</ele>
        <time>2016-12-08T12:44:10Z</time>
      </trkpt>
      <trkpt lat="45.95696" lon="4.57404">
        <ele>380</ele>
        <time>2016-12-08T12:44:16Z</time>
      </trkpt>
      <trkpt lat="45.95697" lon="4.57404">
        <ele>380</ele>
        <time>2016-12-08T12:44:17Z</time>
      </trkpt>
      <trkpt lat="45.95703" lon="4.57412">
        <ele>380</ele>
        <time>2016-12-08T12:44:23Z</time>
      </trkpt>
      <trkpt lat="45.95705" lon="4.57413">
        <ele>380</ele>
        <time>2016-12-08T12:44:24Z</time>
      </trkpt>
      <trkpt lat="45.95711" lon="4.57421">
        <ele>383</ele>
        <time>2016-12-08T12:44:30Z</time>
      </trkpt>
      <trkpt lat="45.95712" lon="4.57423">
        <ele>383</ele>
        <time>2016-12-08T12:44:31Z</time>
      </trkpt>
      <trkpt lat="45.95718" lon="4.57429">
        <ele>383</ele>
        <time>2016-12-08T12:44:37Z</time>
      </trkpt>
      <trkpt lat="45.95719" lon="4.57432">
        <ele>383</ele>
        <time>2016-12-08T12:44:38Z</time>
      </trkpt>
      <trkpt lat="45.95727" lon="4.57436">
        <ele>382</ele>
        <time>2016-12-08T12:44:45Z</time>
      </trkpt>
      <trkpt lat="45.95728" lon="4.57437">
        <ele>382</ele>
        <time>2016-12-08T12:44:46Z</time>
      </trkpt>
      <trkpt lat="45.95736" lon="4.57443">
        <ele>382</ele>
        <time>2016-12-08T12:44:55Z</time>
      </trkpt>
      <trkpt lat="45.95736" lon="4.57444">
        <ele>382</ele>
        <time>2016-12-08T12:44:56Z</time>
      </trkpt>
      <trkpt lat="45.95742" lon="4.57451">
        <ele>383</ele>
        <time>2016-12-08T12:45:03Z</time>
      </trkpt>
      <trkpt lat="45.95743" lon="4.57452">
        <ele>383</ele>
        <time>2016-12-08T12:45:04Z</time>
      </trkpt>
      <trkpt lat="45.95748" lon="4.57462">
        <ele>383</ele>
        <time>2016-12-08T12:45:10Z</time>
      </trkpt>
      <trkpt lat="45.95749" lon="4.57464">
        <ele>383</ele>
        <time>2016-12-08T12:45:11Z</time>
      </trkpt>
      <trkpt lat="45.95755" lon="4.57473">
        <ele>380</ele>
        <time>2016-12-08T12:45:18Z</time>
      </trkpt>
      <trkpt lat="45.95756" lon="4.57474">
        <ele>380</ele>
        <time>2016-12-08T12:45:19Z</time>
      </trkpt>
      <trkpt lat="45.95759" lon="4.57486">
        <ele>381</ele>
        <time>2016-12-08T12:45:26Z</time>
      </trkpt>
      <trkpt lat="45.95759" lon="4.57487">
        <ele>381</ele>
        <time>2016-12-08T12:45:27Z</time>
      </trkpt>
      <trkpt lat="45.95763" lon="4.57498">
        <ele>381</ele>
        <time>2016-12-08T12:45:33Z</time>
      </trkpt>
      <trkpt lat="45.95763" lon="4.575">
        <ele>381</ele>
        <time>2016-12-08T12:45:34Z</time>
      </trkpt>
      <trkpt lat="45.95766" lon="4.57511">
        <ele>383</ele>
        <time>2016-12-08T12:45:48Z</time>
      </trkpt>
      <trkpt lat="45.95767" lon="4.57512">
        <ele>383</ele>
        <time>2016-12-08T12:45:49Z</time>
      </trkpt>
      <trkpt lat="45.95773" lon="4.57519">
        <ele>384</ele>
        <time>2016-12-08T12:46:03Z</time>
      </trkpt>
      <trkpt lat="45.95774" lon="4.5752">
        <ele>384</ele>
        <time>2016-12-08T12:46:04Z</time>
      </trkpt>
      <trkpt lat="45.95778" lon="4.57529">
        <ele>384</ele>
        <time>2016-12-08T12:46:08Z</time>
      </trkpt>
      <trkpt lat="45.95779" lon="4.57532">
        <ele>385</ele>
        <time>2016-12-08T12:46:09Z</time>
      </trkpt>
      <trkpt lat="45.95782" lon="4.57541">
        <ele>385</ele>
        <time>2016-12-08T12:46:12Z</time>
      </trkpt>
      <trkpt lat="45.95784" lon="4.57543">
        <ele>385</ele>
        <time>2016-12-08T12:46:13Z</time>
      </trkpt>
      <trkpt lat="45.95789" lon="4.57554">
        <ele>385</ele>
        <time>2016-12-08T12:46:18Z</time>
      </trkpt>
      <trkpt lat="45.95789" lon="4.57555">
        <ele>385</ele>
        <time>2016-12-08T12:46:19Z</time>
      </trkpt>
      <trkpt lat="45.95796" lon="4.57562">
        <ele>385</ele>
        <time>2016-12-08T12:46:26Z</time>
      </trkpt>
      <trkpt lat="45.95797" lon="4.57564">
        <ele>385</ele>
        <time>2016-12-08T12:46:27Z</time>
      </trkpt>
      <trkpt lat="45.95802" lon="4.57572">
        <ele>385</ele>
        <time>2016-12-08T12:46:32Z</time>
      </trkpt>
      <trkpt lat="45.95803" lon="4.57573">
        <ele>384</ele>
        <time>2016-12-08T12:46:33Z</time>
      </trkpt>
      <trkpt lat="45.95809" lon="4.57583">
        <ele>384</ele>
        <time>2016-12-08T12:46:46Z</time>
      </trkpt>
      <trkpt lat="45.9581" lon="4.57585">
        <ele>388</ele>
        <time>2016-12-08T12:46:47Z</time>
      </trkpt>
      <trkpt lat="45.95814" lon="4.57594">
        <ele>388</ele>
        <time>2016-12-08T12:46:52Z</time>
      </trkpt>
      <trkpt lat="45.95815" lon="4.57596">
        <ele>388</ele>
        <time>2016-12-08T12:46:53Z</time>
      </trkpt>
      <trkpt lat="45.95822" lon="4.57603">
        <ele>388</ele>
        <time>2016-12-08T12:46:59Z</time>
      </trkpt>
      <trkpt lat="45.95823" lon="4.57604">
        <ele>388</ele>
        <time>2016-12-08T12:47:00Z</time>
      </trkpt>
      <trkpt lat="45.95828" lon="4.57613">
        <ele>388</ele>
        <time>2016-12-08T12:47:05Z</time>
      </trkpt>
      <trkpt lat="45.95829" lon="4.57617">
        <ele>389</ele>
        <time>2016-12-08T12:47:06Z</time>
      </trkpt>
      <trkpt lat="45.95832" lon="4.57628">
        <ele>389</ele>
        <time>2016-12-08T12:47:11Z</time>
      </trkpt>
      <trkpt lat="45.95834" lon="4.57632">
        <ele>383</ele>
        <time>2016-12-08T12:47:12Z</time>
      </trkpt>
      <trkpt lat="45.95838" lon="4.57642">
        <ele>383</ele>
        <time>2016-12-08T12:47:19Z</time>
      </trkpt>
      <trkpt lat="45.95839" lon="4.57643">
        <ele>383</ele>
        <time>2016-12-08T12:47:20Z</time>
      </trkpt>
      <trkpt lat="45.95843" lon="4.57652">
        <ele>384</ele>
        <time>2016-12-08T12:47:28Z</time>
      </trkpt>
      <trkpt lat="45.95844" lon="4.57654">
        <ele>384</ele>
        <time>2016-12-08T12:47:29Z</time>
      </trkpt>
      <trkpt lat="45.95849" lon="4.57665">
        <ele>384</ele>
        <time>2016-12-08T12:47:35Z</time>
      </trkpt>
      <trkpt lat="45.95849" lon="4.57667">
        <ele>386</ele>
        <time>2016-12-08T12:47:36Z</time>
      </trkpt>
      <trkpt lat="45.95852" lon="4.57677">
        <ele>386</ele>
        <time>2016-12-08T12:47:41Z</time>
      </trkpt>
      <trkpt lat="45.95853" lon="4.5768">
        <ele>386</ele>
        <time>2016-12-08T12:47:42Z</time>
      </trkpt>
      <trkpt lat="45.95855" lon="4.5769">
        <ele>386</ele>
        <time>2016-12-08T12:47:47Z</time>
      </trkpt>
      <trkpt lat="45.95856" lon="4.57692">
        <ele>386</ele>
        <time>2016-12-08T12:47:48Z</time>
      </trkpt>
      <trkpt lat="45.95855" lon="4.57705">
        <ele>387</ele>
        <time>2016-12-08T12:47:55Z</time>
      </trkpt>
      <trkpt lat="45.95855" lon="4.57707">
        <ele>387</ele>
        <time>2016-12-08T12:47:56Z</time>
      </trkpt>
      <trkpt lat="45.95852" lon="4.57718">
        <ele>388</ele>
        <time>2016-12-08T12:48:10Z</time>
      </trkpt>
      <trkpt lat="45.95852" lon="4.5772">
        <ele>388</ele>
        <time>2016-12-08T12:48:11Z</time>
      </trkpt>
      <trkpt lat="45.95851" lon="4.57732">
        <ele>389</ele>
        <time>2016-12-08T12:48:18Z</time>
      </trkpt>
      <trkpt lat="45.9585" lon="4.57733">
        <ele>389</ele>
        <time>2016-12-08T12:48:19Z</time>
      </trkpt>
      <trkpt lat="45.95848" lon="4.57745">
        <ele>390</ele>
        <time>2016-12-08T12:48:26Z</time>
      </trkpt>
      <trkpt lat="45.95847" lon="4.57746">
        <ele>390</ele>
        <time>2016-12-08T12:48:27Z</time>
      </trkpt>
      <trkpt lat="45.95843" lon="4.57756">
        <ele>393</ele>
        <time>2016-12-08T12:48:36Z</time>
      </trkpt>
      <trkpt lat="45.95842" lon="4.57757">
        <ele>393</ele>
        <time>2016-12-08T12:48:37Z</time>
      </trkpt>
      <trkpt lat="45.95839" lon="4.57768">
        <ele>393</ele>
        <time>2016-12-08T12:48:44Z</time>
      </trkpt>
      <trkpt lat="45.95838" lon="4.5777">
        <ele>393</ele>
        <time>2016-12-08T12:48:45Z</time>
      </trkpt>
      <trkpt lat="45.95834" lon="4.5778">
        <ele>394</ele>
        <time>2016-12-08T12:48:52Z</time>
      </trkpt>
      <trkpt lat="45.95833" lon="4.57782">
        <ele>401</ele>
        <time>2016-12-08T12:48:53Z</time>
      </trkpt>
      <trkpt lat="45.95828" lon="4.57792">
        <ele>402</ele>
        <time>2016-12-08T12:49:00Z</time>
      </trkpt>
      <trkpt lat="45.95827" lon="4.57794">
        <ele>403</ele>
        <time>2016-12-08T12:49:01Z</time>
      </trkpt>
      <trkpt lat="45.95823" lon="4.57804">
        <ele>403</ele>
        <time>2016-12-08T12:49:08Z</time>
      </trkpt>
      <trkpt lat="45.95822" lon="4.57805">
        <ele>403</ele>
        <time>2016-12-08T12:49:09Z</time>
      </trkpt>
      <trkpt lat="45.95822" lon="4.57817">
        <ele>403</ele>
        <time>2016-12-08T12:49:18Z</time>
      </trkpt>
      <trkpt lat="45.95822" lon="4.57818">
        <ele>402</ele>
        <time>2016-12-08T12:49:19Z</time>
      </trkpt>
      <trkpt lat="45.95829" lon="4.57826">
        <ele>401</ele>
        <time>2016-12-08T12:49:27Z</time>
      </trkpt>
      <trkpt lat="45.9583" lon="4.57827">
        <ele>401</ele>
        <time>2016-12-08T12:49:28Z</time>
      </trkpt>
      <trkpt lat="45.95838" lon="4.57831">
        <ele>398</ele>
        <time>2016-12-08T12:49:37Z</time>
      </trkpt>
      <trkpt lat="45.95839" lon="4.57831">
        <ele>398</ele>
        <time>2016-12-08T12:49:38Z</time>
      </trkpt>
      <trkpt lat="45.95835" lon="4.57842">
        <ele>400</ele>
        <time>2016-12-08T12:50:36Z</time>
      </trkpt>
      <trkpt lat="45.95834" lon="4.57842">
        <ele>400</ele>
        <time>2016-12-08T12:50:37Z</time>
      </trkpt>
      <trkpt lat="45.95826" lon="4.57846">
        <ele>404</ele>
        <time>2016-12-08T12:50:44Z</time>
      </trkpt>
      <trkpt lat="45.95825" lon="4.57846">
        <ele>404</ele>
        <time>2016-12-08T12:50:45Z</time>
      </trkpt>
      <trkpt lat="45.95817" lon="4.57844">
        <ele>405</ele>
        <time>2016-12-08T12:50:54Z</time>
      </trkpt>
      <trkpt lat="45.95816" lon="4.57843">
        <ele>405</ele>
        <time>2016-12-08T12:50:55Z</time>
      </trkpt>
      <trkpt lat="45.95812" lon="4.57833">
        <ele>403</ele>
        <time>2016-12-08T12:51:07Z</time>
      </trkpt>
      <trkpt lat="45.95812" lon="4.57832">
        <ele>404</ele>
        <time>2016-12-08T12:51:08Z</time>
      </trkpt>
      <trkpt lat="45.95809" lon="4.57819">
        <ele>404</ele>
        <time>2016-12-08T12:51:28Z</time>
      </trkpt>
      <trkpt lat="45.95808" lon="4.57819">
        <ele>404</ele>
        <time>2016-12-08T12:51:29Z</time>
      </trkpt>
      <trkpt lat="45.958" lon="4.57823">
        <ele>405</ele>
        <time>2016-12-08T12:51:37Z</time>
      </trkpt>
      <trkpt lat="45.95799" lon="4.57823">
        <ele>406</ele>
        <time>2016-12-08T12:51:38Z</time>
      </trkpt>
      <trkpt lat="45.95792" lon="4.57829">
        <ele>407</ele>
        <time>2016-12-08T12:51:46Z</time>
      </trkpt>
      <trkpt lat="45.9579" lon="4.57829">
        <ele>407</ele>
        <time>2016-12-08T12:51:47Z</time>
      </trkpt>
      <trkpt lat="45.95785" lon="4.57839">
        <ele>410</ele>
        <time>2016-12-08T12:51:57Z</time>
      </trkpt>
      <trkpt lat="45.95785" lon="4.5784">
        <ele>410</ele>
        <time>2016-12-08T12:51:58Z</time>
      </trkpt>
      <trkpt lat="45.95779" lon="4.5785">
        <ele>410</ele>
        <time>2016-12-08T12:52:10Z</time>
      </trkpt>
      <trkpt lat="45.95778" lon="4.57851">
        <ele>410</ele>
        <time>2016-12-08T12:52:11Z</time>
      </trkpt>
      <trkpt lat="45.95772" lon="4.57859">
        <ele>411</ele>
        <time>2016-12-08T12:52:22Z</time>
      </trkpt>
      <trkpt lat="45.95772" lon="4.5786">
        <ele>411</ele>
        <time>2016-12-08T12:52:23Z</time>
      </trkpt>
      <trkpt lat="45.95768" lon="4.57871">
        <ele>411</ele>
        <time>2016-12-08T12:52:38Z</time>
      </trkpt>
      <trkpt lat="45.95767" lon="4.57871">
        <ele>411</ele>
        <time>2016-12-08T12:52:39Z</time>
      </trkpt>
      <trkpt lat="45.9576" lon="4.57879">
        <ele>411</ele>
        <time>2016-12-08T12:52:50Z</time>
      </trkpt>
      <trkpt lat="45.95759" lon="4.5788">
        <ele>411</ele>
        <time>2016-12-08T12:52:51Z</time>
      </trkpt>
      <trkpt lat="45.95754" lon="4.57889">
        <ele>411</ele>
        <time>2016-12-08T12:53:02Z</time>
      </trkpt>
      <trkpt lat="45.95753" lon="4.5789">
        <ele>411</ele>
        <time>2016-12-08T12:53:03Z</time>
      </trkpt>
      <trkpt lat="45.95747" lon="4.57898">
        <ele>418</ele>
        <time>2016-12-08T12:53:14Z</time>
      </trkpt>
      <trkpt lat="45.95746" lon="4.57899">
        <ele>418</ele>
        <time>2016-12-08T12:53:15Z</time>
      </trkpt>
      <trkpt lat="45.95741" lon="4.57908">
        <ele>417</ele>
        <time>2016-12-08T12:53:24Z</time>
      </trkpt>
      <trkpt lat="45.9574" lon="4.57908">
        <ele>417</ele>
        <time>2016-12-08T12:53:25Z</time>
      </trkpt>
      <trkpt lat="45.95737" lon="4.57897">
        <ele>420</ele>
        <time>2016-12-08T12:53:49Z</time>
      </trkpt>
      <trkpt lat="45.95737" lon="4.57896">
        <ele>420</ele>
        <time>2016-12-08T12:53:50Z</time>
      </trkpt>
      <trkpt lat="45.95742" lon="4.57885">
        <ele>421</ele>
        <time>2016-12-08T12:54:02Z</time>
      </trkpt>
      <trkpt lat="45.95742" lon="4.57884">
        <ele>421</ele>
        <time>2016-12-08T12:54:03Z</time>
      </trkpt>
      <trkpt lat="45.95746" lon="4.57873">
        <ele>421</ele>
        <time>2016-12-08T12:54:16Z</time>
      </trkpt>
      <trkpt lat="45.95746" lon="4.57872">
        <ele>421</ele>
        <time>2016-12-08T12:54:17Z</time>
      </trkpt>
      <trkpt lat="45.95749" lon="4.57861">
        <ele>421</ele>
        <time>2016-12-08T12:54:28Z</time>
      </trkpt>
      <trkpt lat="45.95749" lon="4.5786">
        <ele>421</ele>
        <time>2016-12-08T12:54:29Z</time>
      </trkpt>
      <trkpt lat="45.95753" lon="4.57849">
        <ele>413</ele>
        <time>2016-12-08T12:54:38Z</time>
      </trkpt>
      <trkpt lat="45.95753" lon="4.57847">
        <ele>413</ele>
        <time>2016-12-08T12:54:39Z</time>
      </trkpt>
      <trkpt lat="45.95754" lon="4.57836">
        <ele>416</ele>
        <time>2016-12-08T12:54:47Z</time>
      </trkpt>
      <trkpt lat="45.95754" lon="4.57834">
        <ele>416</ele>
        <time>2016-12-08T12:54:48Z</time>
      </trkpt>
      <trkpt lat="45.95755" lon="4.57822">
        <ele>413</ele>
        <time>2016-12-08T12:54:59Z</time>
      </trkpt>
      <trkpt lat="45.95756" lon="4.57821">
        <ele>412</ele>
        <time>2016-12-08T12:55:00Z</time>
      </trkpt>
      <trkpt lat="45.95755" lon="4.57808">
        <ele>411</ele>
        <time>2016-12-08T12:55:09Z</time>
      </trkpt>
      <trkpt lat="45.95755" lon="4.57807">
        <ele>410</ele>
        <time>2016-12-08T12:55:10Z</time>
      </trkpt>
      <trkpt lat="45.95755" lon="4.57794">
        <ele>410</ele>
        <time>2016-12-08T12:55:17Z</time>
      </trkpt>
      <trkpt lat="45.95755" lon="4.57793">
        <ele>410</ele>
        <time>2016-12-08T12:55:18Z</time>
      </trkpt>
      <trkpt lat="45.95754" lon="4.5778">
        <ele>410</ele>
        <time>2016-12-08T12:55:28Z</time>
      </trkpt>
      <trkpt lat="45.95754" lon="4.57779">
        <ele>410</ele>
        <time>2016-12-08T12:55:29Z</time>
      </trkpt>
      <trkpt lat="45.95754" lon="4.57766">
        <ele>411</ele>
        <time>2016-12-08T12:58:05Z</time>
      </trkpt>
      <trkpt lat="45.95755" lon="4.57765">
        <ele>411</ele>
        <time>2016-12-08T12:58:06Z</time>
      </trkpt>
      <trkpt lat="45.95755" lon="4.57753">
        <ele>413</ele>
        <time>2016-12-08T12:58:13Z</time>
      </trkpt>
      <trkpt lat="45.95755" lon="4.57751">
        <ele>413</ele>
        <time>2016-12-08T12:58:14Z</time>
      </trkpt>
      <trkpt lat="45.95755" lon="4.57738">
        <ele>409</ele>
        <time>2016-12-08T12:58:20Z</time>
      </trkpt>
      <trkpt lat="45.95755" lon="4.57736">
        <ele>409</ele>
        <time>2016-12-08T12:58:21Z</time>
      </trkpt>
      <trkpt lat="45.95751" lon="4.57725">
        <ele>407</ele>
        <time>2016-12-08T12:58:28Z</time>
      </trkpt>
      <trkpt lat="45.9575" lon="4.57725">
        <ele>418</ele>
        <time>2016-12-08T12:58:29Z</time>
      </trkpt>
      <trkpt lat="45.95741" lon="4.57719">
        <ele>418</ele>
        <time>2016-12-08T12:58:41Z</time>
      </trkpt>
      <trkpt lat="45.95741" lon="4.57719">
        <ele>418</ele>
        <time>2016-12-08T12:58:42Z</time>
      </trkpt>
      <trkpt lat="45.95732" lon="4.57716">
        <ele>419</ele>
        <time>2016-12-08T12:58:53Z</time>
      </trkpt>
      <trkpt lat="45.95731" lon="4.57715">
        <ele>419</ele>
        <time>2016-12-08T12:58:54Z</time>
      </trkpt>
      <trkpt lat="45.95723" lon="4.57712">
        <ele>419</ele>
        <time>2016-12-08T12:59:04Z</time>
      </trkpt>
      <trkpt lat="45.95722" lon="4.57711">
        <ele>420</ele>
        <time>2016-12-08T12:59:05Z</time>
      </trkpt>
      <trkpt lat="45.95714" lon="4.57707">
        <ele>420</ele>
        <time>2016-12-08T12:59:16Z</time>
      </trkpt>
      <trkpt lat="45.95713" lon="4.57707">
        <ele>420</ele>
        <time>2016-12-08T12:59:17Z</time>
      </trkpt>
      <trkpt lat="45.95705" lon="4.57705">
        <ele>421</ele>
        <time>2016-12-08T12:59:29Z</time>
      </trkpt>
      <trkpt lat="45.95704" lon="4.57704">
        <ele>421</ele>
        <time>2016-12-08T12:59:30Z</time>
      </trkpt>
      <trkpt lat="45.95695" lon="4.57701">
        <ele>422</ele>
        <time>2016-12-08T12:59:42Z</time>
      </trkpt>
      <trkpt lat="45.95695" lon="4.57701">
        <ele>422</ele>
        <time>2016-12-08T12:59:43Z</time>
      </trkpt>
      <trkpt lat="45.95686" lon="4.57699">
        <ele>423</ele>
        <time>2016-12-08T13:00:00Z</time>
      </trkpt>
      <trkpt lat="45.95686" lon="4.57698">
        <ele>423</ele>
        <time>2016-12-08T13:00:01Z</time>
      </trkpt>
      <trkpt lat="45.9568" lon="4.57708">
        <ele>423</ele>
        <time>2016-12-08T13:00:14Z</time>
      </trkpt>
      <trkpt lat="45.9568" lon="4.5771">
        <ele>423</ele>
        <time>2016-12-08T13:00:15Z</time>
      </trkpt>
      <trkpt lat="45.95679" lon="4.57723">
        <ele>424</ele>
        <time>2016-12-08T13:00:24Z</time>
      </trkpt>
      <trkpt lat="45.95679" lon="4.57724">
        <ele>424</ele>
        <time>2016-12-08T13:00:25Z</time>
      </trkpt>
      <trkpt lat="45.95678" lon="4.57736">
        <ele>426</ele>
        <time>2016-12-08T13:00:35Z</time>
      </trkpt>
      <trkpt lat="45.95677" lon="4.57738">
        <ele>426</ele>
        <time>2016-12-08T13:00:36Z</time>
      </trkpt>
      <trkpt lat="45.95675" lon="4.57749">
        <ele>428</ele>
        <time>2016-12-08T13:00:45Z</time>
      </trkpt>
      <trkpt lat="45.95675" lon="4.5775">
        <ele>429</ele>
        <time>2016-12-08T13:00:46Z</time>
      </trkpt>
      <trkpt lat="45.95676" lon="4.57762">
        <ele>428</ele>
        <time>2016-12-08T13:00:54Z</time>
      </trkpt>
      <trkpt lat="45.95675" lon="4.57763">
        <ele>428</ele>
        <time>2016-12-08T13:00:55Z</time>
      </trkpt>
      <trkpt lat="45.95672" lon="4.57775">
        <ele>428</ele>
        <time>2016-12-08T13:01:06Z</time>
      </trkpt>
      <trkpt lat="45.95672" lon="4.57776">
        <ele>428</ele>
        <time>2016-12-08T13:01:07Z</time>
      </trkpt>
      <trkpt lat="45.95672" lon="4.57789">
        <ele>428</ele>
        <time>2016-12-08T13:01:19Z</time>
      </trkpt>
      <trkpt lat="45.95672" lon="4.5779">
        <ele>428</ele>
        <time>2016-12-08T13:01:20Z</time>
      </trkpt>
      <trkpt lat="45.95671" lon="4.57802">
        <ele>429</ele>
        <time>2016-12-08T13:01:31Z</time>
      </trkpt>
      <trkpt lat="45.95671" lon="4.57803">
        <ele>429</ele>
        <time>2016-12-08T13:01:32Z</time>
      </trkpt>
      <trkpt lat="45.95668" lon="4.57814">
        <ele>431</ele>
        <time>2016-12-08T13:01:43Z</time>
      </trkpt>
      <trkpt lat="45.95668" lon="4.57815">
        <ele>431</ele>
        <time>2016-12-08T13:01:44Z</time>
      </trkpt>
      <trkpt lat="45.95665" lon="4.57826">
        <ele>436</ele>
        <time>2016-12-08T13:01:56Z</time>
      </trkpt>
      <trkpt lat="45.95665" lon="4.57827">
        <ele>436</ele>
        <time>2016-12-08T13:01:57Z</time>
      </trkpt>
      <trkpt lat="45.95662" lon="4.57839">
        <ele>437</ele>
        <time>2016-12-08T13:02:08Z</time>
      </trkpt>
      <trkpt lat="45.95661" lon="4.5784">
        <ele>436</ele>
        <time>2016-12-08T13:02:09Z</time>
      </trkpt>
      <trkpt lat="45.95658" lon="4.57851">
        <ele>436</ele>
        <time>2016-12-08T13:02:19Z</time>
      </trkpt>
      <trkpt lat="45.95657" lon="4.57852">
        <ele>436</ele>
        <time>2016-12-08T13:02:20Z</time>
      </trkpt>
      <trkpt lat="45.95651" lon="4.57861">
        <ele>436</ele>
        <time>2016-12-08T13:02:29Z</time>
      </trkpt>
      <trkpt lat="45.9565" lon="4.57862">
        <ele>436</ele>
        <time>2016-12-08T13:02:30Z</time>
      </trkpt>
      <trkpt lat="45.95643" lon="4.57869">
        <ele>436</ele>
        <time>2016-12-08T13:02:39Z</time>
      </trkpt>
      <trkpt lat="45.95642" lon="4.57869">
        <ele>436</ele>
        <time>2016-12-08T13:02:40Z</time>
      </trkpt>
      <trkpt lat="45.95635" lon="4.57876">
        <ele>436</ele>
        <time>2016-12-08T13:02:49Z</time>
      </trkpt>
      <trkpt lat="45.95634" lon="4.57877">
        <ele>436</ele>
        <time>2016-12-08T13:02:50Z</time>
      </trkpt>
      <trkpt lat="45.95628" lon="4.57886">
        <ele>436</ele>
        <time>2016-12-08T13:02:58Z</time>
      </trkpt>
      <trkpt lat="45.95627" lon="4.57886">
        <ele>436</ele>
        <time>2016-12-08T13:02:59Z</time>
      </trkpt>
      <trkpt lat="45.95622" lon="4.57896">
        <ele>436</ele>
        <time>2016-12-08T13:03:06Z</time>
      </trkpt>
      <trkpt lat="45.95621" lon="4.57897">
        <ele>436</ele>
        <time>2016-12-08T13:03:07Z</time>
      </trkpt>
      <trkpt lat="45.95615" lon="4.57906">
        <ele>437</ele>
        <time>2016-12-08T13:03:15Z</time>
      </trkpt>
      <trkpt lat="45.95615" lon="4.57907">
        <ele>437</ele>
        <time>2016-12-08T13:03:16Z</time>
      </trkpt>
      <trkpt lat="45.95612" lon="4.5792">
        <ele>438</ele>
        <time>2016-12-08T13:03:25Z</time>
      </trkpt>
      <trkpt lat="45.95612" lon="4.57921">
        <ele>438</ele>
        <time>2016-12-08T13:03:26Z</time>
      </trkpt>
      <trkpt lat="45.95606" lon="4.5793">
        <ele>438</ele>
        <time>2016-12-08T13:03:33Z</time>
      </trkpt>
      <trkpt lat="45.95605" lon="4.57931">
        <ele>438</ele>
        <time>2016-12-08T13:03:34Z</time>
      </trkpt>
      <trkpt lat="45.95601" lon="4.57943">
        <ele>438</ele>
        <time>2016-12-08T13:03:41Z</time>
      </trkpt>
      <trkpt lat="45.956" lon="4.57944">
        <ele>438</ele>
        <time>2016-12-08T13:03:42Z</time>
      </trkpt>
      <trkpt lat="45.95593" lon="4.57951">
        <ele>439</ele>
        <time>2016-12-08T13:03:49Z</time>
      </trkpt>
      <trkpt lat="45.95592" lon="4.57951">
        <ele>439</ele>
        <time>2016-12-08T13:03:50Z</time>
      </trkpt>
      <trkpt lat="45.95587" lon="4.57961">
        <ele>439</ele>
        <time>2016-12-08T13:03:58Z</time>
      </trkpt>
      <trkpt lat="45.95586" lon="4.57963">
        <ele>439</ele>
        <time>2016-12-08T13:03:59Z</time>
      </trkpt>
      <trkpt lat="45.95583" lon="4.57973">
        <ele>442</ele>
        <time>2016-12-08T13:04:06Z</time>
      </trkpt>
      <trkpt lat="45.95582" lon="4.57975">
        <ele>442</ele>
        <time>2016-12-08T13:04:07Z</time>
      </trkpt>
      <trkpt lat="45.95576" lon="4.57983">
        <ele>443</ele>
        <time>2016-12-08T13:04:16Z</time>
      </trkpt>
      <trkpt lat="45.95575" lon="4.57984">
        <ele>443</ele>
        <time>2016-12-08T13:04:17Z</time>
      </trkpt>
      <trkpt lat="45.9557" lon="4.57994">
        <ele>444</ele>
        <time>2016-12-08T13:04:24Z</time>
      </trkpt>
      <trkpt lat="45.9557" lon="4.57996">
        <ele>444</ele>
        <time>2016-12-08T13:04:25Z</time>
      </trkpt>
      <trkpt lat="45.95564" lon="4.58004">
        <ele>448</ele>
        <time>2016-12-08T13:04:33Z</time>
      </trkpt>
      <trkpt lat="45.95563" lon="4.58005">
        <ele>448</ele>
        <time>2016-12-08T13:04:34Z</time>
      </trkpt>
      <trkpt lat="45.95558" lon="4.58014">
        <ele>448</ele>
        <time>2016-12-08T13:04:42Z</time>
      </trkpt>
      <trkpt lat="45.95557" lon="4.58015">
        <ele>448</ele>
        <time>2016-12-08T13:04:43Z</time>
      </trkpt>
      <trkpt lat="45.9555" lon="4.58023">
        <ele>448</ele>
        <time>2016-12-08T13:04:54Z</time>
      </trkpt>
      <trkpt lat="45.95549" lon="4.58024">
        <ele>449</ele>
        <time>2016-12-08T13:04:55Z</time>
      </trkpt>
      <trkpt lat="45.95542" lon="4.5803">
        <ele>449</ele>
        <time>2016-12-08T13:05:04Z</time>
      </trkpt>
      <trkpt lat="45.95542" lon="4.58031">
        <ele>449</ele>
        <time>2016-12-08T13:05:05Z</time>
      </trkpt>
      <trkpt lat="45.95536" lon="4.5804">
        <ele>450</ele>
        <time>2016-12-08T13:05:14Z</time>
      </trkpt>
      <trkpt lat="45.95535" lon="4.58041">
        <ele>450</ele>
        <time>2016-12-08T13:05:15Z</time>
      </trkpt>
      <trkpt lat="45.9553" lon="4.58051">
        <ele>451</ele>
        <time>2016-12-08T13:05:25Z</time>
      </trkpt>
      <trkpt lat="45.9553" lon="4.58053">
        <ele>451</ele>
        <time>2016-12-08T13:05:26Z</time>
      </trkpt>
      <trkpt lat="45.95525" lon="4.58062">
        <ele>452</ele>
        <time>2016-12-08T13:05:36Z</time>
      </trkpt>
      <trkpt lat="45.95524" lon="4.58063">
        <ele>452</ele>
        <time>2016-12-08T13:05:37Z</time>
      </trkpt>
      <trkpt lat="45.95521" lon="4.58075">
        <ele>454</ele>
        <time>2016-12-08T13:05:47Z</time>
      </trkpt>
      <trkpt lat="45.9552" lon="4.58076">
        <ele>454</ele>
        <time>2016-12-08T13:05:48Z</time>
      </trkpt>
      <trkpt lat="45.95515" lon="4.58086">
        <ele>458</ele>
        <time>2016-12-08T13:05:59Z</time>
      </trkpt>
      <trkpt lat="45.95514" lon="4.58087">
        <ele>458</ele>
        <time>2016-12-08T13:06:00Z</time>
      </trkpt>
      <trkpt lat="45.9551" lon="4.58098">
        <ele>458</ele>
        <time>2016-12-08T13:06:09Z</time>
      </trkpt>
      <trkpt lat="45.9551" lon="4.58099">
        <ele>458</ele>
        <time>2016-12-08T13:06:10Z</time>
      </trkpt>
      <trkpt lat="45.95505" lon="4.58109">
        <ele>458</ele>
        <time>2016-12-08T13:06:18Z</time>
      </trkpt>
      <trkpt lat="45.95505" lon="4.5811">
        <ele>458</ele>
        <time>2016-12-08T13:06:19Z</time>
      </trkpt>
      <trkpt lat="45.95497" lon="4.58116">
        <ele>466</ele>
        <time>2016-12-08T13:06:29Z</time>
      </trkpt>
      <trkpt lat="45.95497" lon="4.58117">
        <ele>466</ele>
        <time>2016-12-08T13:06:30Z</time>
      </trkpt>
      <trkpt lat="45.9549" lon="4.58124">
        <ele>466</ele>
        <time>2016-12-08T13:06:39Z</time>
      </trkpt>
      <trkpt lat="45.95489" lon="4.58125">
        <ele>467</ele>
        <time>2016-12-08T13:06:40Z</time>
      </trkpt>
      <trkpt lat="45.9548" lon="4.5813">
        <ele>467</ele>
        <time>2016-12-08T13:06:52Z</time>
      </trkpt>
      <trkpt lat="45.9548" lon="4.5813">
        <ele>467</ele>
        <time>2016-12-08T13:06:53Z</time>
      </trkpt>
      <trkpt lat="45.95472" lon="4.58137">
        <ele>468</ele>
        <time>2016-12-08T13:07:06Z</time>
      </trkpt>
      <trkpt lat="45.95472" lon="4.58138">
        <ele>468</ele>
        <time>2016-12-08T13:07:07Z</time>
      </trkpt>
      <trkpt lat="45.95466" lon="4.58147">
        <ele>468</ele>
        <time>2016-12-08T13:07:18Z</time>
      </trkpt>
      <trkpt lat="45.95465" lon="4.58148">
        <ele>468</ele>
        <time>2016-12-08T13:07:19Z</time>
      </trkpt>
      <trkpt lat="45.95459" lon="4.58156">
        <ele>469</ele>
        <time>2016-12-08T13:07:31Z</time>
      </trkpt>
      <trkpt lat="45.95458" lon="4.58157">
        <ele>469</ele>
        <time>2016-12-08T13:07:32Z</time>
      </trkpt>
      <trkpt lat="45.95452" lon="4.58166">
        <ele>470</ele>
        <time>2016-12-08T13:07:43Z</time>
      </trkpt>
      <trkpt lat="45.95452" lon="4.58168">
        <ele>476</ele>
        <time>2016-12-08T13:07:44Z</time>
      </trkpt>
      <trkpt lat="45.95446" lon="4.58176">
        <ele>476</ele>
        <time>2016-12-08T13:07:55Z</time>
      </trkpt>
      <trkpt lat="45.95445" lon="4.58177">
        <ele>476</ele>
        <time>2016-12-08T13:07:56Z</time>
      </trkpt>
      <trkpt lat="45.95441" lon="4.58188">
        <ele>477</ele>
        <time>2016-12-08T13:08:08Z</time>
      </trkpt>
      <trkpt lat="45.95441" lon="4.58189">
        <ele>477</ele>
        <time>2016-12-08T13:08:09Z</time>
      </trkpt>
      <trkpt lat="45.95436" lon="4.582">
        <ele>478</ele>
        <time>2016-12-08T13:08:20Z</time>
      </trkpt>
      <trkpt lat="45.95435" lon="4.58201">
        <ele>478</ele>
        <time>2016-12-08T13:08:21Z</time>
      </trkpt>
      <trkpt lat="45.95429" lon="4.5821">
        <ele>479</ele>
        <time>2016-12-08T13:08:33Z</time>
      </trkpt>
      <trkpt lat="45.95429" lon="4.58211">
        <ele>479</ele>
        <time>2016-12-08T13:08:34Z</time>
      </trkpt>
      <trkpt lat="45.95421" lon="4.58213">
        <ele>479</ele>
        <time>2016-12-08T13:09:54Z</time>
      </trkpt>
      <trkpt lat="45.9542" lon="4.58214">
        <ele>479</ele>
        <time>2016-12-08T13:09:55Z</time>
      </trkpt>
      <trkpt lat="45.95411" lon="4.58214">
        <ele>486</ele>
        <time>2016-12-08T13:10:03Z</time>
      </trkpt>
      <trkpt lat="45.9541" lon="4.58214">
        <ele>486</ele>
        <time>2016-12-08T13:10:04Z</time>
      </trkpt>
      <trkpt lat="45.95402" lon="4.58212">
        <ele>486</ele>
        <time>2016-12-08T13:10:11Z</time>
      </trkpt>
      <trkpt lat="45.95401" lon="4.58212">
        <ele>486</ele>
        <time>2016-12-08T13:10:12Z</time>
      </trkpt>
      <trkpt lat="45.95393" lon="4.58211">
        <ele>487</ele>
        <time>2016-12-08T13:10:19Z</time>
      </trkpt>
      <trkpt lat="45.95392" lon="4.58211">
        <ele>487</ele>
        <time>2016-12-08T13:10:20Z</time>
      </trkpt>
      <trkpt lat="45.95383" lon="4.5821">
        <ele>487</ele>
        <time>2016-12-08T13:10:28Z</time>
      </trkpt>
      <trkpt lat="45.95381" lon="4.5821">
        <ele>487</ele>
        <time>2016-12-08T13:10:29Z</time>
      </trkpt>
      <trkpt lat="45.95373" lon="4.58209">
        <ele>488</ele>
        <time>2016-12-08T13:10:37Z</time>
      </trkpt>
      <trkpt lat="45.95372" lon="4.58209">
        <ele>488</ele>
        <time>2016-12-08T13:10:38Z</time>
      </trkpt>
      <trkpt lat="45.95364" lon="4.58209">
        <ele>488</ele>
        <time>2016-12-08T13:10:46Z</time>
      </trkpt>
      <trkpt lat="45.95363" lon="4.58209">
        <ele>488</ele>
        <time>2016-12-08T13:10:47Z</time>
      </trkpt>
      <trkpt lat="45.95354" lon="4.58209">
        <ele>489</ele>
        <time>2016-12-08T13:10:55Z</time>
      </trkpt>
      <trkpt lat="45.95353" lon="4.58209">
        <ele>489</ele>
        <time>2016-12-08T13:10:56Z</time>
      </trkpt>
      <trkpt lat="45.95345" lon="4.58209">
        <ele>489</ele>
        <time>2016-12-08T13:11:04Z</time>
      </trkpt>
      <trkpt lat="45.95344" lon="4.58209">
        <ele>489</ele>
        <time>2016-12-08T13:11:05Z</time>
      </trkpt>
      <trkpt lat="45.95336" lon="4.58209">
        <ele>489</ele>
        <time>2016-12-08T13:11:23Z</time>
      </trkpt>
      <trkpt lat="45.95334" lon="4.58209">
        <ele>489</ele>
        <time>2016-12-08T13:11:24Z</time>
      </trkpt>
      <trkpt lat="45.95326" lon="4.5821">
        <ele>495</ele>
        <time>2016-12-08T13:11:31Z</time>
      </trkpt>
      <trkpt lat="45.95325" lon="4.5821">
        <ele>495</ele>
        <time>2016-12-08T13:11:32Z</time>
      </trkpt>
      <trkpt lat="45.95316" lon="4.5821">
        <ele>496</ele>
        <time>2016-12-08T13:11:39Z</time>
      </trkpt>
      <trkpt lat="45.95315" lon="4.5821">
        <ele>496</ele>
        <time>2016-12-08T13:11:40Z</time>
      </trkpt>
      <trkpt lat="45.95307" lon="4.58209">
        <ele>496</ele>
        <time>2016-12-08T13:11:46Z</time>
      </trkpt>
      <trkpt lat="45.95306" lon="4.58209">
        <ele>496</ele>
        <time>2016-12-08T13:11:47Z</time>
      </trkpt>
      <trkpt lat="45.95297" lon="4.58209">
        <ele>496</ele>
        <time>2016-12-08T13:11:54Z</time>
      </trkpt>
      <trkpt lat="45.95295" lon="4.58209">
        <ele>496</ele>
        <time>2016-12-08T13:11:55Z</time>
      </trkpt>
      <trkpt lat="45.95287" lon="4.58208">
        <ele>497</ele>
        <time>2016-12-08T13:12:02Z</time>
      </trkpt>
      <trkpt lat="45.95286" lon="4.58208">
        <ele>497</ele>
        <time>2016-12-08T13:12:03Z</time>
      </trkpt>
      <trkpt lat="45.95278" lon="4.58208">
        <ele>497</ele>
        <time>2016-12-08T13:12:10Z</time>
      </trkpt>
      <trkpt lat="45.95277" lon="4.58208">
        <ele>497</ele>
        <time>2016-12-08T13:12:11Z</time>
      </trkpt>
      <trkpt lat="45.95269" lon="4.58209">
        <ele>498</ele>
        <time>2016-12-08T13:12:18Z</time>
      </trkpt>
      <trkpt lat="45.95268" lon="4.58209">
        <ele>498</ele>
        <time>2016-12-08T13:12:19Z</time>
      </trkpt>
      <trkpt lat="45.95259" lon="4.58209">
        <ele>498</ele>
        <time>2016-12-08T13:12:26Z</time>
      </trkpt>
      <trkpt lat="45.95258" lon="4.58209">
        <ele>498</ele>
        <time>2016-12-08T13:12:27Z</time>
      </trkpt>
      <trkpt lat="45.95249" lon="4.58209">
        <ele>502</ele>
        <time>2016-12-08T13:12:35Z</time>
      </trkpt>
      <trkpt lat="45.95248" lon="4.5821">
        <ele>502</ele>
        <time>2016-12-08T13:12:36Z</time>
      </trkpt>
      <trkpt lat="45.95239" lon="4.5821">
        <ele>502</ele>
        <time>2016-12-08T13:12:44Z</time>
      </trkpt>
      <trkpt lat="45.95238" lon="4.5821">
        <ele>502</ele>
        <time>2016-12-08T13:12:45Z</time>
      </trkpt>
      <trkpt lat="45.95229" lon="4.5821">
        <ele>502</ele>
        <time>2016-12-08T13:12:52Z</time>
      </trkpt>
      <trkpt lat="45.95228" lon="4.5821">
        <ele>502</ele>
        <time>2016-12-08T13:12:53Z</time>
      </trkpt>
      <trkpt lat="45.9522" lon="4.5821">
        <ele>502</ele>
        <time>2016-12-08T13:13:00Z</time>
      </trkpt>
      <trkpt lat="45.95219" lon="4.58211">
        <ele>502</ele>
        <time>2016-12-08T13:13:01Z</time>
      </trkpt>
      <trkpt lat="45.95211" lon="4.58211">
        <ele>502</ele>
        <time>2016-12-08T13:13:08Z</time>
      </trkpt>
      <trkpt lat="45.9521" lon="4.58211">
        <ele>502</ele>
        <time>2016-12-08T13:13:09Z</time>
      </trkpt>
      <trkpt lat="45.95201" lon="4.58214">
        <ele>503</ele>
        <time>2016-12-08T13:13:17Z</time>
      </trkpt>
      <trkpt lat="45.952" lon="4.58215">
        <ele>503</ele>
        <time>2016-12-08T13:13:18Z</time>
      </trkpt>
      <trkpt lat="45.95192" lon="4.58217">
        <ele>503</ele>
        <time>2016-12-08T13:13:26Z</time>
      </trkpt>
      <trkpt lat="45.95191" lon="4.58217">
        <ele>503</ele>
        <time>2016-12-08T13:13:27Z</time>
      </trkpt>
      <trkpt lat="45.95183" lon="4.58219">
        <ele>504</ele>
        <time>2016-12-08T13:13:35Z</time>
      </trkpt>
      <trkpt lat="45.95182" lon="4.5822">
        <ele>504</ele>
        <time>2016-12-08T13:13:36Z</time>
      </trkpt>
      <trkpt lat="45.95173" lon="4.58222">
        <ele>504</ele>
        <time>2016-12-08T13:13:44Z</time>
      </trkpt>
      <trkpt lat="45.95172" lon="4.58222">
        <ele>504</ele>
        <time>2016-12-08T13:13:45Z</time>
      </trkpt>
      <trkpt lat="45.95164" lon="4.58224">
        <ele>507</ele>
        <time>2016-12-08T13:13:53Z</time>
      </trkpt>
      <trkpt lat="45.95163" lon="4.58224">
        <ele>507</ele>
        <time>2016-12-08T13:13:54Z</time>
      </trkpt>
      <trkpt lat="45.95155" lon="4.58227">
        <ele>507</ele>
        <time>2016-12-08T13:14:02Z</time>
      </trkpt>
      <trkpt lat="45.95154" lon="4.58227">
        <ele>507</ele>
        <time>2016-12-08T13:14:03Z</time>
      </trkpt>
      <trkpt lat="45.95145" lon="4.58229">
        <ele>508</ele>
        <time>2016-12-08T13:14:11Z</time>
      </trkpt>
      <trkpt lat="45.95144" lon="4.58229">
        <ele>508</ele>
        <time>2016-12-08T13:14:12Z</time>
      </trkpt>
      <trkpt lat="45.95136" lon="4.5823">
        <ele>508</ele>
        <time>2016-12-08T13:14:20Z</time>
      </trkpt>
      <trkpt lat="45.95135" lon="4.5823">
        <ele>508</ele>
        <time>2016-12-08T13:14:21Z</time>
      </trkpt>
      <trkpt lat="45.95127" lon="4.58228">
        <ele>508</ele>
        <time>2016-12-08T13:14:28Z</time>
      </trkpt>
      <trkpt lat="45.95126" lon="4.58228">
        <ele>508</ele>
        <time>2016-12-08T13:14:29Z</time>
      </trkpt>
      <trkpt lat="45.95118" lon="4.58223">
        <ele>508</ele>
        <time>2016-12-08T13:14:36Z</time>
      </trkpt>
      <trkpt lat="45.95117" lon="4.58222">
        <ele>508</ele>
        <time>2016-12-08T13:14:37Z</time>
      </trkpt>
      <trkpt lat="45.95109" lon="4.58216">
        <ele>508</ele>
        <time>2016-12-08T13:14:45Z</time>
      </trkpt>
      <trkpt lat="45.95108" lon="4.58216">
        <ele>508</ele>
        <time>2016-12-08T13:14:46Z</time>
      </trkpt>
      <trkpt lat="45.951" lon="4.58211">
        <ele>507</ele>
        <time>2016-12-08T13:14:54Z</time>
      </trkpt>
      <trkpt lat="45.95099" lon="4.58211">
        <ele>507</ele>
        <time>2016-12-08T13:14:55Z</time>
      </trkpt>
      <trkpt lat="45.95091" lon="4.58205">
        <ele>507</ele>
        <time>2016-12-08T13:15:02Z</time>
      </trkpt>
      <trkpt lat="45.9509" lon="4.58204">
        <ele>507</ele>
        <time>2016-12-08T13:15:03Z</time>
      </trkpt>
      <trkpt lat="45.95082" lon="4.58199">
        <ele>509</ele>
        <time>2016-12-08T13:15:11Z</time>
      </trkpt>
      <trkpt lat="45.95081" lon="4.58198">
        <ele>509</ele>
        <time>2016-12-08T13:15:12Z</time>
      </trkpt>
      <trkpt lat="45.95073" lon="4.58193">
        <ele>508</ele>
        <time>2016-12-08T13:15:19Z</time>
      </trkpt>
      <trkpt lat="45.95072" lon="4.58192">
        <ele>508</ele>
        <time>2016-12-08T13:15:20Z</time>
      </trkpt>
      <trkpt lat="45.95065" lon="4.58188">
        <ele>508</ele>
        <time>2016-12-08T13:15:25Z</time>
      </trkpt>
      <trkpt lat="45.95064" lon="4.58187">
        <ele>508</ele>
        <time>2016-12-08T13:15:26Z</time>
      </trkpt>
      <trkpt lat="45.95056" lon="4.58182">
        <ele>508</ele>
        <time>2016-12-08T13:15:32Z</time>
      </trkpt>
      <trkpt lat="45.95055" lon="4.58181">
        <ele>508</ele>
        <time>2016-12-08T13:15:33Z</time>
      </trkpt>
      <trkpt lat="45.95047" lon="4.58176">
        <ele>508</ele>
        <time>2016-12-08T13:15:39Z</time>
      </trkpt>
      <trkpt lat="45.95045" lon="4.58176">
        <ele>508</ele>
        <time>2016-12-08T13:15:40Z</time>
      </trkpt>
      <trkpt lat="45.95037" lon="4.58173">
        <ele>508</ele>
        <time>2016-12-08T13:15:46Z</time>
      </trkpt>
      <trkpt lat="45.95036" lon="4.58173">
        <ele>508</ele>
        <time>2016-12-08T13:15:47Z</time>
      </trkpt>
      <trkpt lat="45.95028" lon="4.58169">
        <ele>508</ele>
        <time>2016-12-08T13:15:57Z</time>
      </trkpt>
      <trkpt lat="45.95027" lon="4.58169">
        <ele>508</ele>
        <time>2016-12-08T13:15:58Z</time>
      </trkpt>
      <trkpt lat="45.95019" lon="4.58174">
        <ele>508</ele>
        <time>2016-12-08T13:16:05Z</time>
      </trkpt>
      <trkpt lat="45.95018" lon="4.58175">
        <ele>508</ele>
        <time>2016-12-08T13:16:06Z</time>
      </trkpt>
      <trkpt lat="45.95009" lon="4.58178">
        <ele>508</ele>
        <time>2016-12-08T13:16:49Z</time>
      </trkpt>
      <trkpt lat="45.95008" lon="4.58178">
        <ele>508</ele>
        <time>2016-12-08T13:16:50Z</time>
      </trkpt>
      <trkpt lat="45.94999" lon="4.5818">
        <ele>509</ele>
        <time>2016-12-08T13:16:56Z</time>
      </trkpt>
      <trkpt lat="45.94998" lon="4.58181">
        <ele>509</ele>
        <time>2016-12-08T13:16:57Z</time>
      </trkpt>
      <trkpt lat="45.9499" lon="4.58184">
        <ele>510</ele>
        <time>2016-12-08T13:17:06Z</time>
      </trkpt>
      <trkpt lat="45.94989" lon="4.58184">
        <ele>510</ele>
        <time>2016-12-08T13:17:07Z</time>
      </trkpt>
      <trkpt lat="45.9498" lon="4.58185">
        <ele>511</ele>
        <time>2016-12-08T13:17:15Z</time>
      </trkpt>
      <trkpt lat="45.94979" lon="4.58186">
        <ele>511</ele>
        <time>2016-12-08T13:17:16Z</time>
      </trkpt>
      <trkpt lat="45.9497" lon="4.58188">
        <ele>511</ele>
        <time>2016-12-08T13:17:23Z</time>
      </trkpt>
      <trkpt lat="45.94969" lon="4.58188">
        <ele>511</ele>
        <time>2016-12-08T13:17:24Z</time>
      </trkpt>
      <trkpt lat="45.94961" lon="4.58189">
        <ele>512</ele>
        <time>2016-12-08T13:17:30Z</time>
      </trkpt>
      <trkpt lat="45.94959" lon="4.5819">
        <ele>512</ele>
        <time>2016-12-08T13:17:31Z</time>
      </trkpt>
      <trkpt lat="45.94951" lon="4.5819">
        <ele>512</ele>
        <time>2016-12-08T13:17:38Z</time>
      </trkpt>
      <trkpt lat="45.9495" lon="4.5819">
        <ele>512</ele>
        <time>2016-12-08T13:17:39Z</time>
      </trkpt>
      <trkpt lat="45.94941" lon="4.5819">
        <ele>512</ele>
        <time>2016-12-08T13:17:48Z</time>
      </trkpt>
      <trkpt lat="45.9494" lon="4.5819">
        <ele>512</ele>
        <time>2016-12-08T13:17:49Z</time>
      </trkpt>
      <trkpt lat="45.94932" lon="4.58188">
        <ele>511</ele>
        <time>2016-12-08T13:17:57Z</time>
      </trkpt>
      <trkpt lat="45.94931" lon="4.58187">
        <ele>511</ele>
        <time>2016-12-08T13:17:58Z</time>
      </trkpt>
      <trkpt lat="45.94922" lon="4.58184">
        <ele>510</ele>
        <time>2016-12-08T13:18:09Z</time>
      </trkpt>
      <trkpt lat="45.94921" lon="4.58185">
        <ele>510</ele>
        <time>2016-12-08T13:18:10Z</time>
      </trkpt>
      <trkpt lat="45.94913" lon="4.58183">
        <ele>515</ele>
        <time>2016-12-08T13:18:17Z</time>
      </trkpt>
      <trkpt lat="45.94912" lon="4.58182">
        <ele>515</ele>
        <time>2016-12-08T13:18:18Z</time>
      </trkpt>
      <trkpt lat="45.94903" lon="4.58184">
        <ele>516</ele>
        <time>2016-12-08T13:18:30Z</time>
      </trkpt>
      <trkpt lat="45.94903" lon="4.58185">
        <ele>517</ele>
        <time>2016-12-08T13:18:31Z</time>
      </trkpt>
      <trkpt lat="45.94894" lon="4.58186">
        <ele>518</ele>
        <time>2016-12-08T13:18:44Z</time>
      </trkpt>
      <trkpt lat="45.94894" lon="4.58187">
        <ele>519</ele>
        <time>2016-12-08T13:18:45Z</time>
      </trkpt>
      <trkpt lat="45.94889" lon="4.58198">
        <ele>521</ele>
        <time>2016-12-08T13:19:04Z</time>
      </trkpt>
      <trkpt lat="45.94889" lon="4.58198">
        <ele>521</ele>
        <time>2016-12-08T13:19:05Z</time>
      </trkpt>
      <trkpt lat="45.94886" lon="4.5821">
        <ele>522</ele>
        <time>2016-12-08T13:19:22Z</time>
      </trkpt>
      <trkpt lat="45.94886" lon="4.58211">
        <ele>522</ele>
        <time>2016-12-08T13:19:23Z</time>
      </trkpt>
      <trkpt lat="45.94884" lon="4.58223">
        <ele>523</ele>
        <time>2016-12-08T13:19:41Z</time>
      </trkpt>
      <trkpt lat="45.94884" lon="4.58225">
        <ele>523</ele>
        <time>2016-12-08T13:19:42Z</time>
      </trkpt>
      <trkpt lat="45.94886" lon="4.58237">
        <ele>523</ele>
        <time>2016-12-08T13:19:48Z</time>
      </trkpt>
      <trkpt lat="45.94886" lon="4.58239">
        <ele>524</ele>
        <time>2016-12-08T13:19:49Z</time>
      </trkpt>
      <trkpt lat="45.94889" lon="4.5825">
        <ele>527</ele>
        <time>2016-12-08T13:19:57Z</time>
      </trkpt>
      <trkpt lat="45.94889" lon="4.58252">
        <ele>527</ele>
        <time>2016-12-08T13:19:58Z</time>
      </trkpt>
      <trkpt lat="45.94891" lon="4.58264">
        <ele>527</ele>
        <time>2016-12-08T13:20:06Z</time>
      </trkpt>
      <trkpt lat="45.94891" lon="4.58265">
        <ele>527</ele>
        <time>2016-12-08T13:20:07Z</time>
      </trkpt>
      <trkpt lat="45.94893" lon="4.58277">
        <ele>527</ele>
        <time>2016-12-08T13:20:15Z</time>
      </trkpt>
      <trkpt lat="45.94894" lon="4.58279">
        <ele>527</ele>
        <time>2016-12-08T13:20:16Z</time>
      </trkpt>
      <trkpt lat="45.94892" lon="4.58291">
        <ele>528</ele>
        <time>2016-12-08T13:20:35Z</time>
      </trkpt>
      <trkpt lat="45.94892" lon="4.58292">
        <ele>528</ele>
        <time>2016-12-08T13:20:36Z</time>
      </trkpt>
      <trkpt lat="45.94884" lon="4.58298">
        <ele>528</ele>
        <time>2016-12-08T13:20:43Z</time>
      </trkpt>
      <trkpt lat="45.94883" lon="4.58299">
        <ele>528</ele>
        <time>2016-12-08T13:20:44Z</time>
      </trkpt>
      <trkpt lat="45.94875" lon="4.58301">
        <ele>529</ele>
        <time>2016-12-08T13:21:19Z</time>
      </trkpt>
      <trkpt lat="45.94874" lon="4.58301">
        <ele>529</ele>
        <time>2016-12-08T13:21:20Z</time>
      </trkpt>
      <trkpt lat="45.94866" lon="4.583">
        <ele>529</ele>
        <time>2016-12-08T13:21:30Z</time>
      </trkpt>
      <trkpt lat="45.94865" lon="4.583">
        <ele>529</ele>
        <time>2016-12-08T13:21:31Z</time>
      </trkpt>
      <trkpt lat="45.94857" lon="4.58298">
        <ele>530</ele>
        <time>2016-12-08T13:22:34Z</time>
      </trkpt>
      <trkpt lat="45.94855" lon="4.58298">
        <ele>530</ele>
        <time>2016-12-08T13:22:35Z</time>
      </trkpt>
      <trkpt lat="45.94847" lon="4.58297">
        <ele>530</ele>
        <time>2016-12-08T13:22:42Z</time>
      </trkpt>
      <trkpt lat="45.94846" lon="4.58298">
        <ele>530</ele>
        <time>2016-12-08T13:22:43Z</time>
      </trkpt>
      <trkpt lat="45.94838" lon="4.58296">
        <ele>530</ele>
        <time>2016-12-08T13:22:53Z</time>
      </trkpt>
      <trkpt lat="45.94837" lon="4.58295">
        <ele>530</ele>
        <time>2016-12-08T13:22:54Z</time>
      </trkpt>
      <trkpt lat="45.94828" lon="4.58293">
        <ele>533</ele>
        <time>2016-12-08T13:24:53Z</time>
      </trkpt>
      <trkpt lat="45.94828" lon="4.58293">
        <ele>533</ele>
        <time>2016-12-08T13:24:54Z</time>
      </trkpt>
      <trkpt lat="45.9482" lon="4.5829">
        <ele>533</ele>
        <time>2016-12-08T13:25:34Z</time>
      </trkpt>
      <trkpt lat="45.94819" lon="4.5829">
        <ele>533</ele>
        <time>2016-12-08T13:25:35Z</time>
      </trkpt>
      <trkpt lat="45.94811" lon="4.58288">
        <ele>533</ele>
        <time>2016-12-08T13:26:11Z</time>
      </trkpt>
      <trkpt lat="45.9481" lon="4.58289">
        <ele>533</ele>
        <time>2016-12-08T13:26:12Z</time>
      </trkpt>
      <trkpt lat="45.94801" lon="4.58286">
        <ele>533</ele>
        <time>2016-12-08T13:26:20Z</time>
      </trkpt>
      <trkpt lat="45.948" lon="4.58285">
        <ele>533</ele>
        <time>2016-12-08T13:26:21Z</time>
      </trkpt>
      <trkpt lat="45.94792" lon="4.58284">
        <ele>533</ele>
        <time>2016-12-08T13:26:36Z</time>
      </trkpt>
      <trkpt lat="45.94791" lon="4.58284">
        <ele>533</ele>
        <time>2016-12-08T13:26:37Z</time>
      </trkpt>
      <trkpt lat="45.94782" lon="4.58284">
        <ele>533</ele>
        <time>2016-12-08T13:26:54Z</time>
      </trkpt>
      <trkpt lat="45.94782" lon="4.58284">
        <ele>533</ele>
        <time>2016-12-08T13:26:55Z</time>
      </trkpt>
      <trkpt lat="45.94775" lon="4.58276">
        <ele>533</ele>
        <time>2016-12-08T13:27:07Z</time>
      </trkpt>
      <trkpt lat="45.94774" lon="4.58276">
        <ele>533</ele>
        <time>2016-12-08T13:27:08Z</time>
      </trkpt>
      <trkpt lat="45.94767" lon="4.58272">
        <ele>534</ele>
        <time>2016-12-08T13:27:58Z</time>
      </trkpt>
      <trkpt lat="45.94765" lon="4.58272">
        <ele>534</ele>
        <time>2016-12-08T13:27:59Z</time>
      </trkpt>
      <trkpt lat="45.94756" lon="4.58271">
        <ele>534</ele>
        <time>2016-12-08T13:28:06Z</time>
      </trkpt>
      <trkpt lat="45.94755" lon="4.58271">
        <ele>534</ele>
        <time>2016-12-08T13:28:07Z</time>
      </trkpt>
      <trkpt lat="45.94747" lon="4.58267">
        <ele>532</ele>
        <time>2016-12-08T13:29:32Z</time>
      </trkpt>
      <trkpt lat="45.94746" lon="4.58267">
        <ele>532</ele>
        <time>2016-12-08T13:29:33Z</time>
      </trkpt>
      <trkpt lat="45.94737" lon="4.58267">
        <ele>532</ele>
        <time>2016-12-08T13:30:19Z</time>
      </trkpt>
      <trkpt lat="45.94737" lon="4.58267">
        <ele>532</ele>
        <time>2016-12-08T13:30:20Z</time>
      </trkpt>
      <trkpt lat="45.94728" lon="4.58267">
        <ele>531</ele>
        <time>2016-12-08T13:30:35Z</time>
      </trkpt>
      <trkpt lat="45.94727" lon="4.58267">
        <ele>531</ele>
        <time>2016-12-08T13:30:36Z</time>
      </trkpt>
      <trkpt lat="45.94719" lon="4.58268">
        <ele>530</ele>
        <time>2016-12-08T13:30:56Z</time>
      </trkpt>
      <trkpt lat="45.94718" lon="4.58268">
        <ele>530</ele>
        <time>2016-12-08T13:30:57Z</time>
      </trkpt>
      <trkpt lat="45.94709" lon="4.58267">
        <ele>529</ele>
        <time>2016-12-08T13:32:11Z</time>
      </trkpt>
      <trkpt lat="45.94708" lon="4.58267">
        <ele>529</ele>
        <time>2016-12-08T13:32:12Z</time>
      </trkpt>
      <trkpt lat="45.947" lon="4.58267">
        <ele>529</ele>
        <time>2016-12-08T13:32:24Z</time>
      </trkpt>
      <trkpt lat="45.94699" lon="4.58267">
        <ele>528</ele>
        <time>2016-12-08T13:32:25Z</time>
      </trkpt>
      <trkpt lat="45.9469" lon="4.58267">
        <ele>528</ele>
        <time>2016-12-08T13:32:36Z</time>
      </trkpt>
      <trkpt lat="45.94689" lon="4.58268">
        <ele>528</ele>
        <time>2016-12-08T13:32:37Z</time>
      </trkpt>
      <trkpt lat="45.94681" lon="4.5827">
        <ele>528</ele>
        <time>2016-12-08T13:32:46Z</time>
      </trkpt>
      <trkpt lat="45.9468" lon="4.5827">
        <ele>528</ele>
        <time>2016-12-08T13:32:47Z</time>
      </trkpt>
      <trkpt lat="45.94672" lon="4.58273">
        <ele>528</ele>
        <time>2016-12-08T13:32:59Z</time>
      </trkpt>
      <trkpt lat="45.94671" lon="4.58274">
        <ele>528</ele>
        <time>2016-12-08T13:33:00Z</time>
      </trkpt>
      <trkpt lat="45.94666" lon="4.58262">
        <ele>526</ele>
        <time>2016-12-08T13:34:40Z</time>
      </trkpt>
      <trkpt lat="45.94666" lon="4.58261">
        <ele>526</ele>
        <time>2016-12-08T13:34:41Z</time>
      </trkpt>
      <trkpt lat="45.94669" lon="4.58249">
        <ele>528</ele>
        <time>2016-12-08T13:34:49Z</time>
      </trkpt>
      <trkpt lat="45.94669" lon="4.58248">
        <ele>528</ele>
        <time>2016-12-08T13:34:50Z</time>
      </trkpt>
      <trkpt lat="45.94671" lon="4.58236">
        <ele>527</ele>
        <time>2016-12-08T13:34:58Z</time>
      </trkpt>
      <trkpt lat="45.94672" lon="4.58235">
        <ele>527</ele>
        <time>2016-12-08T13:34:59Z</time>
      </trkpt>
      <trkpt lat="45.94672" lon="4.58247">
        <ele>528</ele>
        <time>2016-12-08T13:36:10Z</time>
      </trkpt>
      <trkpt lat="45.94671" lon="4.58249">
        <ele>528</ele>
        <time>2016-12-08T13:36:11Z</time>
      </trkpt>
      <trkpt lat="45.94668" lon="4.5826">
        <ele>528</ele>
        <time>2016-12-08T13:36:22Z</time>
      </trkpt>
      <trkpt lat="45.94667" lon="4.5826">
        <ele>528</ele>
        <time>2016-12-08T13:36:23Z</time>
      </trkpt>
      <trkpt lat="45.94661" lon="4.58269">
        <ele>525</ele>
        <time>2016-12-08T13:36:35Z</time>
      </trkpt>
      <trkpt lat="45.9466" lon="4.5827">
        <ele>525</ele>
        <time>2016-12-08T13:36:36Z</time>
      </trkpt>
      <trkpt lat="45.94668" lon="4.58273">
        <ele>528</ele>
        <time>2016-12-08T13:36:51Z</time>
      </trkpt>
      <trkpt lat="45.94669" lon="4.58273">
        <ele>528</ele>
        <time>2016-12-08T13:36:52Z</time>
      </trkpt>
      <trkpt lat="45.94675" lon="4.58281">
        <ele>527</ele>
        <time>2016-12-08T13:37:01Z</time>
      </trkpt>
      <trkpt lat="45.94676" lon="4.58282">
        <ele>527</ele>
        <time>2016-12-08T13:37:02Z</time>
      </trkpt>
      <trkpt lat="45.94679" lon="4.58293">
        <ele>527</ele>
        <time>2016-12-08T13:37:13Z</time>
      </trkpt>
      <trkpt lat="45.94679" lon="4.58295">
        <ele>527</ele>
        <time>2016-12-08T13:37:14Z</time>
      </trkpt>
      <trkpt lat="45.94674" lon="4.58305">
        <ele>526</ele>
        <time>2016-12-08T13:37:25Z</time>
      </trkpt>
      <trkpt lat="45.94673" lon="4.58306">
        <ele>526</ele>
        <time>2016-12-08T13:37:26Z</time>
      </trkpt>
      <trkpt lat="45.94667" lon="4.58314">
        <ele>524</ele>
        <time>2016-12-08T13:37:35Z</time>
      </trkpt>
      <trkpt lat="45.94666" lon="4.58315">
        <ele>522</ele>
        <time>2016-12-08T13:37:36Z</time>
      </trkpt>
      <trkpt lat="45.94663" lon="4.58327">
        <ele>522</ele>
        <time>2016-12-08T13:37:46Z</time>
      </trkpt>
      <trkpt lat="45.94663" lon="4.58328">
        <ele>521</ele>
        <time>2016-12-08T13:37:47Z</time>
      </trkpt>
      <trkpt lat="45.94663" lon="4.58341">
        <ele>519</ele>
        <time>2016-12-08T13:37:58Z</time>
      </trkpt>
      <trkpt lat="45.94662" lon="4.58342">
        <ele>519</ele>
        <time>2016-12-08T13:37:59Z</time>
      </trkpt>
      <trkpt lat="45.94661" lon="4.58355">
        <ele>518</ele>
        <time>2016-12-08T13:38:08Z</time>
      </trkpt>
      <trkpt lat="45.94661" lon="4.58357">
        <ele>518</ele>
        <time>2016-12-08T13:38:09Z</time>
      </trkpt>
      <trkpt lat="45.94659" lon="4.58368">
        <ele>516</ele>
        <time>2016-12-08T13:38:16Z</time>
      </trkpt>
      <trkpt lat="45.94659" lon="4.58369">
        <ele>516</ele>
        <time>2016-12-08T13:38:17Z</time>
      </trkpt>
      <trkpt lat="45.94657" lon="4.58382">
        <ele>515</ele>
        <time>2016-12-08T13:38:25Z</time>
      </trkpt>
      <trkpt lat="45.94657" lon="4.58383">
        <ele>515</ele>
        <time>2016-12-08T13:38:26Z</time>
      </trkpt>
      <trkpt lat="45.94656" lon="4.58395">
        <ele>513</ele>
        <time>2016-12-08T13:38:37Z</time>
      </trkpt>
      <trkpt lat="45.94656" lon="4.58397">
        <ele>513</ele>
        <time>2016-12-08T13:38:38Z</time>
      </trkpt>
      <trkpt lat="45.94655" lon="4.58409">
        <ele>511</ele>
        <time>2016-12-08T13:38:46Z</time>
      </trkpt>
      <trkpt lat="45.94655" lon="4.5841">
        <ele>511</ele>
        <time>2016-12-08T13:38:47Z</time>
      </trkpt>
      <trkpt lat="45.94651" lon="4.58422">
        <ele>506</ele>
        <time>2016-12-08T13:38:54Z</time>
      </trkpt>
      <trkpt lat="45.9465" lon="4.58423">
        <ele>506</ele>
        <time>2016-12-08T13:38:55Z</time>
      </trkpt>
      <trkpt lat="45.94644" lon="4.58431">
        <ele>506</ele>
        <time>2016-12-08T13:39:07Z</time>
      </trkpt>
      <trkpt lat="45.94644" lon="4.58432">
        <ele>505</ele>
        <time>2016-12-08T13:39:08Z</time>
      </trkpt>
      <trkpt lat="45.94639" lon="4.58442">
        <ele>505</ele>
        <time>2016-12-08T13:39:18Z</time>
      </trkpt>
      <trkpt lat="45.94639" lon="4.58444">
        <ele>505</ele>
        <time>2016-12-08T13:39:19Z</time>
      </trkpt>
      <trkpt lat="45.94635" lon="4.58455">
        <ele>504</ele>
        <time>2016-12-08T13:39:27Z</time>
      </trkpt>
      <trkpt lat="45.94634" lon="4.58456">
        <ele>504</ele>
        <time>2016-12-08T13:39:28Z</time>
      </trkpt>
      <trkpt lat="45.94631" lon="4.58467">
        <ele>503</ele>
        <time>2016-12-08T13:39:36Z</time>
      </trkpt>
      <trkpt lat="45.9463" lon="4.58468">
        <ele>503</ele>
        <time>2016-12-08T13:39:37Z</time>
      </trkpt>
      <trkpt lat="45.94623" lon="4.58476">
        <ele>503</ele>
        <time>2016-12-08T13:39:45Z</time>
      </trkpt>
      <trkpt lat="45.94622" lon="4.58476">
        <ele>502</ele>
        <time>2016-12-08T13:39:46Z</time>
      </trkpt>
      <trkpt lat="45.94614" lon="4.58482">
        <ele>502</ele>
        <time>2016-12-08T13:39:54Z</time>
      </trkpt>
      <trkpt lat="45.94613" lon="4.58483">
        <ele>502</ele>
        <time>2016-12-08T13:39:55Z</time>
      </trkpt>
      <trkpt lat="45.94605" lon="4.58488">
        <ele>501</ele>
        <time>2016-12-08T13:40:03Z</time>
      </trkpt>
      <trkpt lat="45.94604" lon="4.58489">
        <ele>501</ele>
        <time>2016-12-08T13:40:04Z</time>
      </trkpt>
      <trkpt lat="45.94597" lon="4.58495">
        <ele>500</ele>
        <time>2016-12-08T13:40:12Z</time>
      </trkpt>
      <trkpt lat="45.94596" lon="4.58496">
        <ele>500</ele>
        <time>2016-12-08T13:40:13Z</time>
      </trkpt>
      <trkpt lat="45.9459" lon="4.58503">
        <ele>495</ele>
        <time>2016-12-08T13:40:21Z</time>
      </trkpt>
      <trkpt lat="45.94589" lon="4.58504">
        <ele>495</ele>
        <time>2016-12-08T13:40:22Z</time>
      </trkpt>
      <trkpt lat="45.94582" lon="4.58512">
        <ele>494</ele>
        <time>2016-12-08T13:40:29Z</time>
      </trkpt>
      <trkpt lat="45.94582" lon="4.58513">
        <ele>494</ele>
        <time>2016-12-08T13:40:30Z</time>
      </trkpt>
      <trkpt lat="45.94576" lon="4.58521">
        <ele>493</ele>
        <time>2016-12-08T13:40:37Z</time>
      </trkpt>
      <trkpt lat="45.94575" lon="4.58522">
        <ele>493</ele>
        <time>2016-12-08T13:40:38Z</time>
      </trkpt>
      <trkpt lat="45.94568" lon="4.5853">
        <ele>492</ele>
        <time>2016-12-08T13:40:46Z</time>
      </trkpt>
      <trkpt lat="45.94568" lon="4.58531">
        <ele>491</ele>
        <time>2016-12-08T13:40:47Z</time>
      </trkpt>
      <trkpt lat="45.94562" lon="4.5854">
        <ele>490</ele>
        <time>2016-12-08T13:40:55Z</time>
      </trkpt>
      <trkpt lat="45.94562" lon="4.58541">
        <ele>490</ele>
        <time>2016-12-08T13:40:56Z</time>
      </trkpt>
      <trkpt lat="45.94555" lon="4.58548">
        <ele>490</ele>
        <time>2016-12-08T13:41:05Z</time>
      </trkpt>
      <trkpt lat="45.94554" lon="4.58549">
        <ele>490</ele>
        <time>2016-12-08T13:41:06Z</time>
      </trkpt>
      <trkpt lat="45.94548" lon="4.58557">
        <ele>489</ele>
        <time>2016-12-08T13:41:17Z</time>
      </trkpt>
      <trkpt lat="45.94547" lon="4.58558">
        <ele>489</ele>
        <time>2016-12-08T13:41:18Z</time>
      </trkpt>
      <trkpt lat="45.94541" lon="4.58567">
        <ele>488</ele>
        <time>2016-12-08T13:41:30Z</time>
      </trkpt>
      <trkpt lat="45.9454" lon="4.58568">
        <ele>488</ele>
        <time>2016-12-08T13:41:31Z</time>
      </trkpt>
      <trkpt lat="45.94534" lon="4.58576">
        <ele>488</ele>
        <time>2016-12-08T13:41:39Z</time>
      </trkpt>
      <trkpt lat="45.94533" lon="4.58577">
        <ele>488</ele>
        <time>2016-12-08T13:41:40Z</time>
      </trkpt>
      <trkpt lat="45.94527" lon="4.58585">
        <ele>477</ele>
        <time>2016-12-08T13:41:49Z</time>
      </trkpt>
      <trkpt lat="45.94526" lon="4.58586">
        <ele>477</ele>
        <time>2016-12-08T13:41:50Z</time>
      </trkpt>
      <trkpt lat="45.94518" lon="4.58593">
        <ele>477</ele>
        <time>2016-12-08T13:41:59Z</time>
      </trkpt>
      <trkpt lat="45.94518" lon="4.58593">
        <ele>478</ele>
        <time>2016-12-08T13:42:00Z</time>
      </trkpt>
      <trkpt lat="45.9451" lon="4.586">
        <ele>477</ele>
        <time>2016-12-08T13:42:10Z</time>
      </trkpt>
      <trkpt lat="45.94509" lon="4.586">
        <ele>477</ele>
        <time>2016-12-08T13:42:11Z</time>
      </trkpt>
      <trkpt lat="45.94501" lon="4.58605">
        <ele>477</ele>
        <time>2016-12-08T13:42:19Z</time>
      </trkpt>
      <trkpt lat="45.945" lon="4.58606">
        <ele>476</ele>
        <time>2016-12-08T13:42:20Z</time>
      </trkpt>
      <trkpt lat="45.94492" lon="4.58611">
        <ele>475</ele>
        <time>2016-12-08T13:42:28Z</time>
      </trkpt>
      <trkpt lat="45.94492" lon="4.58612">
        <ele>475</ele>
        <time>2016-12-08T13:42:29Z</time>
      </trkpt>
      <trkpt lat="45.94484" lon="4.58618">
        <ele>474</ele>
        <time>2016-12-08T13:42:40Z</time>
      </trkpt>
      <trkpt lat="45.94483" lon="4.58618">
        <ele>474</ele>
        <time>2016-12-08T13:42:41Z</time>
      </trkpt>
      <trkpt lat="45.94475" lon="4.58624">
        <ele>473</ele>
        <time>2016-12-08T13:42:50Z</time>
      </trkpt>
      <trkpt lat="45.94475" lon="4.58625">
        <ele>473</ele>
        <time>2016-12-08T13:42:51Z</time>
      </trkpt>
      <trkpt lat="45.94466" lon="4.58629">
        <ele>472</ele>
        <time>2016-12-08T13:43:03Z</time>
      </trkpt>
      <trkpt lat="45.94466" lon="4.5863">
        <ele>472</ele>
        <time>2016-12-08T13:43:04Z</time>
      </trkpt>
      <trkpt lat="45.94458" lon="4.58636">
        <ele>472</ele>
        <time>2016-12-08T13:43:15Z</time>
      </trkpt>
      <trkpt lat="45.94457" lon="4.58636">
        <ele>472</ele>
        <time>2016-12-08T13:43:16Z</time>
      </trkpt>
      <trkpt lat="45.94449" lon="4.58642">
        <ele>471</ele>
        <time>2016-12-08T13:43:33Z</time>
      </trkpt>
      <trkpt lat="45.94449" lon="4.58642">
        <ele>471</ele>
        <time>2016-12-08T13:43:34Z</time>
      </trkpt>
      <trkpt lat="45.94441" lon="4.58649">
        <ele>470</ele>
        <time>2016-12-08T13:43:43Z</time>
      </trkpt>
      <trkpt lat="45.9444" lon="4.58649">
        <ele>470</ele>
        <time>2016-12-08T13:43:44Z</time>
      </trkpt>
      <trkpt lat="45.94433" lon="4.58656">
        <ele>469</ele>
        <time>2016-12-08T13:43:53Z</time>
      </trkpt>
      <trkpt lat="45.94432" lon="4.58657">
        <ele>469</ele>
        <time>2016-12-08T13:43:54Z</time>
      </trkpt>
      <trkpt lat="45.94428" lon="4.58666">
        <ele>468</ele>
        <time>2016-12-08T13:44:01Z</time>
      </trkpt>
      <trkpt lat="45.94427" lon="4.58667">
        <ele>463</ele>
        <time>2016-12-08T13:44:02Z</time>
      </trkpt>
      <trkpt lat="45.94422" lon="4.58676">
        <ele>463</ele>
        <time>2016-12-08T13:44:08Z</time>
      </trkpt>
      <trkpt lat="45.94421" lon="4.58678">
        <ele>463</ele>
        <time>2016-12-08T13:44:09Z</time>
      </trkpt>
      <trkpt lat="45.94416" lon="4.58688">
        <ele>463</ele>
        <time>2016-12-08T13:44:17Z</time>
      </trkpt>
      <trkpt lat="45.94416" lon="4.58689">
        <ele>463</ele>
        <time>2016-12-08T13:44:18Z</time>
      </trkpt>
      <trkpt lat="45.94411" lon="4.58699">
        <ele>462</ele>
        <time>2016-12-08T13:44:26Z</time>
      </trkpt>
      <trkpt lat="45.9441" lon="4.587">
        <ele>462</ele>
        <time>2016-12-08T13:44:27Z</time>
      </trkpt>
      <trkpt lat="45.94405" lon="4.5871">
        <ele>461</ele>
        <time>2016-12-08T13:44:35Z</time>
      </trkpt>
      <trkpt lat="45.94404" lon="4.58712">
        <ele>461</ele>
        <time>2016-12-08T13:44:36Z</time>
      </trkpt>
      <trkpt lat="45.94398" lon="4.58721">
        <ele>460</ele>
        <time>2016-12-08T13:44:44Z</time>
      </trkpt>
      <trkpt lat="45.94397" lon="4.58722">
        <ele>460</ele>
        <time>2016-12-08T13:44:45Z</time>
      </trkpt>
      <trkpt lat="45.94392" lon="4.58732">
        <ele>459</ele>
        <time>2016-12-08T13:44:53Z</time>
      </trkpt>
      <trkpt lat="45.94391" lon="4.58733">
        <ele>459</ele>
        <time>2016-12-08T13:44:54Z</time>
      </trkpt>
      <trkpt lat="45.94386" lon="4.58741">
        <ele>459</ele>
        <time>2016-12-08T13:45:01Z</time>
      </trkpt>
      <trkpt lat="45.94385" lon="4.58742">
        <ele>459</ele>
        <time>2016-12-08T13:45:02Z</time>
      </trkpt>
      <trkpt lat="45.94378" lon="4.58749">
        <ele>459</ele>
        <time>2016-12-08T13:45:09Z</time>
      </trkpt>
      <trkpt lat="45.94377" lon="4.58751">
        <ele>451</ele>
        <time>2016-12-08T13:45:10Z</time>
      </trkpt>
      <trkpt lat="45.9437" lon="4.58758">
        <ele>451</ele>
        <time>2016-12-08T13:45:18Z</time>
      </trkpt>
      <trkpt lat="45.9437" lon="4.58759">
        <ele>451</ele>
        <time>2016-12-08T13:45:19Z</time>
      </trkpt>
      <trkpt lat="45.94366" lon="4.58769">
        <ele>450</ele>
        <time>2016-12-08T13:45:41Z</time>
      </trkpt>
      <trkpt lat="45.94365" lon="4.58771">
        <ele>450</ele>
        <time>2016-12-08T13:45:42Z</time>
      </trkpt>
      <trkpt lat="45.94358" lon="4.58777">
        <ele>450</ele>
        <time>2016-12-08T13:45:49Z</time>
      </trkpt>
      <trkpt lat="45.94357" lon="4.58778">
        <ele>450</ele>
        <time>2016-12-08T13:45:50Z</time>
      </trkpt>
      <trkpt lat="45.9435" lon="4.58784">
        <ele>449</ele>
        <time>2016-12-08T13:45:59Z</time>
      </trkpt>
      <trkpt lat="45.94349" lon="4.58785">
        <ele>449</ele>
        <time>2016-12-08T13:46:00Z</time>
      </trkpt>
      <trkpt lat="45.94341" lon="4.58791">
        <ele>449</ele>
        <time>2016-12-08T13:46:08Z</time>
      </trkpt>
      <trkpt lat="45.9434" lon="4.58792">
        <ele>449</ele>
        <time>2016-12-08T13:46:09Z</time>
      </trkpt>
      <trkpt lat="45.94333" lon="4.588">
        <ele>449</ele>
        <time>2016-12-08T13:46:16Z</time>
      </trkpt>
      <trkpt lat="45.94332" lon="4.58801">
        <ele>449</ele>
        <time>2016-12-08T13:46:17Z</time>
      </trkpt>
      <trkpt lat="45.94326" lon="4.58809">
        <ele>448</ele>
        <time>2016-12-08T13:46:24Z</time>
      </trkpt>
      <trkpt lat="45.94325" lon="4.5881">
        <ele>448</ele>
        <time>2016-12-08T13:46:25Z</time>
      </trkpt>
      <trkpt lat="45.94319" lon="4.58817">
        <ele>447</ele>
        <time>2016-12-08T13:46:31Z</time>
      </trkpt>
      <trkpt lat="45.94318" lon="4.58818">
        <ele>447</ele>
        <time>2016-12-08T13:46:32Z</time>
      </trkpt>
      <trkpt lat="45.94312" lon="4.58825">
        <ele>447</ele>
        <time>2016-12-08T13:46:38Z</time>
      </trkpt>
      <trkpt lat="45.94311" lon="4.58826">
        <ele>448</ele>
        <time>2016-12-08T13:46:39Z</time>
      </trkpt>
      <trkpt lat="45.94304" lon="4.58835">
        <ele>441</ele>
        <time>2016-12-08T13:46:47Z</time>
      </trkpt>
      <trkpt lat="45.94304" lon="4.58836">
        <ele>441</ele>
        <time>2016-12-08T13:46:48Z</time>
      </trkpt>
      <trkpt lat="45.94297" lon="4.58843">
        <ele>441</ele>
        <time>2016-12-08T13:46:55Z</time>
      </trkpt>
      <trkpt lat="45.94296" lon="4.58844">
        <ele>441</ele>
        <time>2016-12-08T13:46:56Z</time>
      </trkpt>
      <trkpt lat="45.94291" lon="4.58853">
        <ele>441</ele>
        <time>2016-12-08T13:47:04Z</time>
      </trkpt>
      <trkpt lat="45.9429" lon="4.58854">
        <ele>441</ele>
        <time>2016-12-08T13:47:05Z</time>
      </trkpt>
      <trkpt lat="45.94283" lon="4.58861">
        <ele>441</ele>
        <time>2016-12-08T13:47:12Z</time>
      </trkpt>
      <trkpt lat="45.94281" lon="4.58862">
        <ele>441</ele>
        <time>2016-12-08T13:47:13Z</time>
      </trkpt>
      <trkpt lat="45.94274" lon="4.58866">
        <ele>441</ele>
        <time>2016-12-08T13:47:18Z</time>
      </trkpt>
      <trkpt lat="45.94272" lon="4.58867">
        <ele>441</ele>
        <time>2016-12-08T13:47:19Z</time>
      </trkpt>
      <trkpt lat="45.94265" lon="4.58872">
        <ele>441</ele>
        <time>2016-12-08T13:47:24Z</time>
      </trkpt>
      <trkpt lat="45.94264" lon="4.58873">
        <ele>441</ele>
        <time>2016-12-08T13:47:25Z</time>
      </trkpt>
      <trkpt lat="45.94256" lon="4.58879">
        <ele>440</ele>
        <time>2016-12-08T13:47:32Z</time>
      </trkpt>
      <trkpt lat="45.94256" lon="4.5888">
        <ele>440</ele>
        <time>2016-12-08T13:47:33Z</time>
      </trkpt>
      <trkpt lat="45.94249" lon="4.58888">
        <ele>440</ele>
        <time>2016-12-08T13:47:40Z</time>
      </trkpt>
      <trkpt lat="45.94248" lon="4.58889">
        <ele>440</ele>
        <time>2016-12-08T13:47:41Z</time>
      </trkpt>
      <trkpt lat="45.94241" lon="4.58895">
        <ele>439</ele>
        <time>2016-12-08T13:47:48Z</time>
      </trkpt>
      <trkpt lat="45.94239" lon="4.58896">
        <ele>439</ele>
        <time>2016-12-08T13:47:49Z</time>
      </trkpt>
      <trkpt lat="45.94232" lon="4.58901">
        <ele>439</ele>
        <time>2016-12-08T13:47:57Z</time>
      </trkpt>
      <trkpt lat="45.94231" lon="4.58902">
        <ele>439</ele>
        <time>2016-12-08T13:47:58Z</time>
      </trkpt>
      <trkpt lat="45.94226" lon="4.58911">
        <ele>439</ele>
        <time>2016-12-08T13:48:20Z</time>
      </trkpt>
      <trkpt lat="45.94225" lon="4.58912">
        <ele>439</ele>
        <time>2016-12-08T13:48:21Z</time>
      </trkpt>
      <trkpt lat="45.94217" lon="4.58917">
        <ele>434</ele>
        <time>2016-12-08T13:48:30Z</time>
      </trkpt>
      <trkpt lat="45.94217" lon="4.58917">
        <ele>434</ele>
        <time>2016-12-08T13:48:31Z</time>
      </trkpt>
      <trkpt lat="45.9421" lon="4.58925">
        <ele>434</ele>
        <time>2016-12-08T13:48:41Z</time>
      </trkpt>
      <trkpt lat="45.9421" lon="4.58926">
        <ele>434</ele>
        <time>2016-12-08T13:48:42Z</time>
      </trkpt>
      <trkpt lat="45.94202" lon="4.58931">
        <ele>434</ele>
        <time>2016-12-08T13:48:50Z</time>
      </trkpt>
      <trkpt lat="45.94201" lon="4.58931">
        <ele>434</ele>
        <time>2016-12-08T13:48:51Z</time>
      </trkpt>
      <trkpt lat="45.94193" lon="4.58938">
        <ele>434</ele>
        <time>2016-12-08T13:49:00Z</time>
      </trkpt>
      <trkpt lat="45.94193" lon="4.58939">
        <ele>434</ele>
        <time>2016-12-08T13:49:01Z</time>
      </trkpt>
      <trkpt lat="45.94184" lon="4.58942">
        <ele>435</ele>
        <time>2016-12-08T13:49:10Z</time>
      </trkpt>
      <trkpt lat="45.94183" lon="4.58943">
        <ele>434</ele>
        <time>2016-12-08T13:49:11Z</time>
      </trkpt>
      <trkpt lat="45.94176" lon="4.58946">
        <ele>434</ele>
        <time>2016-12-08T13:49:18Z</time>
      </trkpt>
      <trkpt lat="45.94174" lon="4.58946">
        <ele>434</ele>
        <time>2016-12-08T13:49:19Z</time>
      </trkpt>
      <trkpt lat="45.94166" lon="4.58947">
        <ele>434</ele>
        <time>2016-12-08T13:49:25Z</time>
      </trkpt>
      <trkpt lat="45.94164" lon="4.58947">
        <ele>434</ele>
        <time>2016-12-08T13:49:26Z</time>
      </trkpt>
      <trkpt lat="45.94156" lon="4.58946">
        <ele>434</ele>
        <time>2016-12-08T13:49:33Z</time>
      </trkpt>
      <trkpt lat="45.94154" lon="4.58946">
        <ele>434</ele>
        <time>2016-12-08T13:49:34Z</time>
      </trkpt>
      <trkpt lat="45.94146" lon="4.58944">
        <ele>434</ele>
        <time>2016-12-08T13:49:43Z</time>
      </trkpt>
      <trkpt lat="45.94145" lon="4.58944">
        <ele>434</ele>
        <time>2016-12-08T13:49:44Z</time>
      </trkpt>
      <trkpt lat="45.94137" lon="4.58942">
        <ele>434</ele>
        <time>2016-12-08T13:49:55Z</time>
      </trkpt>
      <trkpt lat="45.94136" lon="4.58941">
        <ele>434</ele>
        <time>2016-12-08T13:49:56Z</time>
      </trkpt>
      <trkpt lat="45.94128" lon="4.58938">
        <ele>434</ele>
        <time>2016-12-08T13:50:04Z</time>
      </trkpt>
      <trkpt lat="45.94127" lon="4.58937">
        <ele>434</ele>
        <time>2016-12-08T13:50:05Z</time>
      </trkpt>
      <trkpt lat="45.94119" lon="4.58932">
        <ele>434</ele>
        <time>2016-12-08T13:50:12Z</time>
      </trkpt>
      <trkpt lat="45.94118" lon="4.58932">
        <ele>434</ele>
        <time>2016-12-08T13:50:13Z</time>
      </trkpt>
      <trkpt lat="45.9411" lon="4.58927">
        <ele>435</ele>
        <time>2016-12-08T13:50:23Z</time>
      </trkpt>
      <trkpt lat="45.9411" lon="4.58927">
        <ele>435</ele>
        <time>2016-12-08T13:50:24Z</time>
      </trkpt>
      <trkpt lat="45.94102" lon="4.5892">
        <ele>436</ele>
        <time>2016-12-08T13:50:35Z</time>
      </trkpt>
      <trkpt lat="45.94101" lon="4.5892">
        <ele>436</ele>
        <time>2016-12-08T13:50:36Z</time>
      </trkpt>
      <trkpt lat="45.94094" lon="4.58914">
        <ele>443</ele>
        <time>2016-12-08T13:50:50Z</time>
      </trkpt>
      <trkpt lat="45.94093" lon="4.58913">
        <ele>443</ele>
        <time>2016-12-08T13:50:51Z</time>
      </trkpt>
      <trkpt lat="45.94086" lon="4.5891">
        <ele>442</ele>
        <time>2016-12-08T13:50:59Z</time>
      </trkpt>
      <trkpt lat="45.94085" lon="4.5891">
        <ele>442</ele>
        <time>2016-12-08T13:51:00Z</time>
      </trkpt>
      <trkpt lat="45.94076" lon="4.58908">
        <ele>443</ele>
        <time>2016-12-08T13:51:07Z</time>
      </trkpt>
      <trkpt lat="45.94075" lon="4.58908">
        <ele>443</ele>
        <time>2016-12-08T13:51:08Z</time>
      </trkpt>
      <trkpt lat="45.94066" lon="4.58908">
        <ele>445</ele>
        <time>2016-12-08T13:51:14Z</time>
      </trkpt>
      <trkpt lat="45.94065" lon="4.58908">
        <ele>445</ele>
        <time>2016-12-08T13:51:15Z</time>
      </trkpt>
      <trkpt lat="45.94057" lon="4.58907">
        <ele>445</ele>
        <time>2016-12-08T13:51:22Z</time>
      </trkpt>
      <trkpt lat="45.94055" lon="4.58907">
        <ele>446</ele>
        <time>2016-12-08T13:51:23Z</time>
      </trkpt>
      <trkpt lat="45.94047" lon="4.58908">
        <ele>446</ele>
        <time>2016-12-08T13:51:30Z</time>
      </trkpt>
      <trkpt lat="45.94045" lon="4.58908">
        <ele>446</ele>
        <time>2016-12-08T13:51:31Z</time>
      </trkpt>
      <trkpt lat="45.94037" lon="4.5891">
        <ele>446</ele>
        <time>2016-12-08T13:51:40Z</time>
      </trkpt>
      <trkpt lat="45.94036" lon="4.5891">
        <ele>446</ele>
        <time>2016-12-08T13:51:41Z</time>
      </trkpt>
      <trkpt lat="45.94027" lon="4.58911">
        <ele>445</ele>
        <time>2016-12-08T13:51:48Z</time>
      </trkpt>
      <trkpt lat="45.94026" lon="4.58911">
        <ele>445</ele>
        <time>2016-12-08T13:51:49Z</time>
      </trkpt>
      <trkpt lat="45.94017" lon="4.58912">
        <ele>444</ele>
        <time>2016-12-08T13:51:56Z</time>
      </trkpt>
      <trkpt lat="45.94016" lon="4.58912">
        <ele>444</ele>
        <time>2016-12-08T13:51:57Z</time>
      </trkpt>
      <trkpt lat="45.94007" lon="4.58911">
        <ele>442</ele>
        <time>2016-12-08T13:52:05Z</time>
      </trkpt>
      <trkpt lat="45.94006" lon="4.58911">
        <ele>442</ele>
        <time>2016-12-08T13:52:06Z</time>
      </trkpt>
      <trkpt lat="45.93998" lon="4.58909">
        <ele>441</ele>
        <time>2016-12-08T13:52:15Z</time>
      </trkpt>
      <trkpt lat="45.93997" lon="4.58908">
        <ele>442</ele>
        <time>2016-12-08T13:52:16Z</time>
      </trkpt>
      <trkpt lat="45.93989" lon="4.58905">
        <ele>443</ele>
        <time>2016-12-08T13:52:24Z</time>
      </trkpt>
      <trkpt lat="45.93988" lon="4.58904">
        <ele>443</ele>
        <time>2016-12-08T13:52:25Z</time>
      </trkpt>
      <trkpt lat="45.93981" lon="4.58898">
        <ele>445</ele>
        <time>2016-12-08T13:52:31Z</time>
      </trkpt>
      <trkpt lat="45.9398" lon="4.58897">
        <ele>445</ele>
        <time>2016-12-08T13:52:32Z</time>
      </trkpt>
      <trkpt lat="45.93973" lon="4.58889">
        <ele>446</ele>
        <time>2016-12-08T13:52:41Z</time>
      </trkpt>
      <trkpt lat="45.93973" lon="4.58888">
        <ele>446</ele>
        <time>2016-12-08T13:52:42Z</time>
      </trkpt>
      <trkpt lat="45.93968" lon="4.58878">
        <ele>447</ele>
        <time>2016-12-08T13:52:52Z</time>
      </trkpt>
      <trkpt lat="45.93967" lon="4.58877">
        <ele>447</ele>
        <time>2016-12-08T13:52:53Z</time>
      </trkpt>
      <trkpt lat="45.93962" lon="4.58867">
        <ele>448</ele>
        <time>2016-12-08T13:53:04Z</time>
      </trkpt>
      <trkpt lat="45.93962" lon="4.58866">
        <ele>448</ele>
        <time>2016-12-08T13:53:05Z</time>
      </trkpt>
      <trkpt lat="45.93956" lon="4.58857">
        <ele>449</ele>
        <time>2016-12-08T13:53:19Z</time>
      </trkpt>
      <trkpt lat="45.93955" lon="4.58857">
        <ele>449</ele>
        <time>2016-12-08T13:53:20Z</time>
      </trkpt>
      <trkpt lat="45.93949" lon="4.58849">
        <ele>449</ele>
        <time>2016-12-08T13:53:32Z</time>
      </trkpt>
      <trkpt lat="45.93948" lon="4.58847">
        <ele>449</ele>
        <time>2016-12-08T13:53:33Z</time>
      </trkpt>
      <trkpt lat="45.93944" lon="4.58838">
        <ele>450</ele>
        <time>2016-12-08T13:53:40Z</time>
      </trkpt>
      <trkpt lat="45.93943" lon="4.58836">
        <ele>450</ele>
        <time>2016-12-08T13:53:41Z</time>
      </trkpt>
      <trkpt lat="45.93938" lon="4.58827">
        <ele>456</ele>
        <time>2016-12-08T13:53:49Z</time>
      </trkpt>
      <trkpt lat="45.93938" lon="4.58826">
        <ele>456</ele>
        <time>2016-12-08T13:53:50Z</time>
      </trkpt>
      <trkpt lat="45.93932" lon="4.58816">
        <ele>457</ele>
        <time>2016-12-08T13:54:02Z</time>
      </trkpt>
      <trkpt lat="45.93931" lon="4.58816">
        <ele>457</ele>
        <time>2016-12-08T13:54:03Z</time>
      </trkpt>
      <trkpt lat="45.93925" lon="4.58809">
        <ele>457</ele>
        <time>2016-12-08T13:54:11Z</time>
      </trkpt>
      <trkpt lat="45.93924" lon="4.58808">
        <ele>457</ele>
        <time>2016-12-08T13:54:12Z</time>
      </trkpt>
      <trkpt lat="45.93917" lon="4.58801">
        <ele>457</ele>
        <time>2016-12-08T13:54:18Z</time>
      </trkpt>
      <trkpt lat="45.93916" lon="4.58799">
        <ele>451</ele>
        <time>2016-12-08T13:54:19Z</time>
      </trkpt>
      <trkpt lat="45.93911" lon="4.58792">
        <ele>451</ele>
        <time>2016-12-08T13:54:24Z</time>
      </trkpt>
      <trkpt lat="45.93909" lon="4.58791">
        <ele>451</ele>
        <time>2016-12-08T13:54:25Z</time>
      </trkpt>
      <trkpt lat="45.93903" lon="4.58782">
        <ele>451</ele>
        <time>2016-12-08T13:54:31Z</time>
      </trkpt>
      <trkpt lat="45.93902" lon="4.5878">
        <ele>451</ele>
        <time>2016-12-08T13:54:32Z</time>
      </trkpt>
      <trkpt lat="45.93898" lon="4.5877">
        <ele>452</ele>
        <time>2016-12-08T13:54:38Z</time>
      </trkpt>
      <trkpt lat="45.93897" lon="4.58768">
        <ele>452</ele>
        <time>2016-12-08T13:54:39Z</time>
      </trkpt>
      <trkpt lat="45.93897" lon="4.58755">
        <ele>453</ele>
        <time>2016-12-08T13:54:46Z</time>
      </trkpt>
      <trkpt lat="45.93898" lon="4.58753">
        <ele>453</ele>
        <time>2016-12-08T13:54:47Z</time>
      </trkpt>
      <trkpt lat="45.939" lon="4.58743">
        <ele>456</ele>
        <time>2016-12-08T13:54:54Z</time>
      </trkpt>
      <trkpt lat="45.93901" lon="4.58741">
        <ele>456</ele>
        <time>2016-12-08T13:54:55Z</time>
      </trkpt>
      <trkpt lat="45.93903" lon="4.5873">
        <ele>456</ele>
        <time>2016-12-08T13:55:02Z</time>
      </trkpt>
      <trkpt lat="45.93903" lon="4.58729">
        <ele>456</ele>
        <time>2016-12-08T13:55:03Z</time>
      </trkpt>
      <trkpt lat="45.93903" lon="4.58716">
        <ele>457</ele>
        <time>2016-12-08T13:55:13Z</time>
      </trkpt>
      <trkpt lat="45.93902" lon="4.58715">
        <ele>457</ele>
        <time>2016-12-08T13:55:14Z</time>
      </trkpt>
      <trkpt lat="45.93904" lon="4.58703">
        <ele>457</ele>
        <time>2016-12-08T13:55:22Z</time>
      </trkpt>
      <trkpt lat="45.93905" lon="4.58701">
        <ele>457</ele>
        <time>2016-12-08T13:55:23Z</time>
      </trkpt>
      <trkpt lat="45.93904" lon="4.58689">
        <ele>459</ele>
        <time>2016-12-08T13:55:45Z</time>
      </trkpt>
      <trkpt lat="45.93904" lon="4.58688">
        <ele>459</ele>
        <time>2016-12-08T13:55:46Z</time>
      </trkpt>
      <trkpt lat="45.93898" lon="4.58679">
        <ele>459</ele>
        <time>2016-12-08T13:57:23Z</time>
      </trkpt>
      <trkpt lat="45.93897" lon="4.58678">
        <ele>459</ele>
        <time>2016-12-08T13:57:24Z</time>
      </trkpt>
      <trkpt lat="45.93888" lon="4.58675">
        <ele>458</ele>
        <time>2016-12-08T13:57:35Z</time>
      </trkpt>
      <trkpt lat="45.93887" lon="4.58675">
        <ele>458</ele>
        <time>2016-12-08T13:57:36Z</time>
      </trkpt>
      <trkpt lat="45.93879" lon="4.58673">
        <ele>457</ele>
        <time>2016-12-08T13:57:42Z</time>
      </trkpt>
      <trkpt lat="45.93877" lon="4.58672">
        <ele>457</ele>
        <time>2016-12-08T13:57:43Z</time>
      </trkpt>
      <trkpt lat="45.93869" lon="4.5867">
        <ele>456</ele>
        <time>2016-12-08T13:57:58Z</time>
      </trkpt>
      <trkpt lat="45.93868" lon="4.5867">
        <ele>456</ele>
        <time>2016-12-08T13:57:59Z</time>
      </trkpt>
      <trkpt lat="45.93861" lon="4.58671">
        <ele>455</ele>
        <time>2016-12-08T13:58:16Z</time>
      </trkpt>
      <trkpt lat="45.93859" lon="4.58671">
        <ele>455</ele>
        <time>2016-12-08T13:58:17Z</time>
      </trkpt>
      <trkpt lat="45.9385" lon="4.58672">
        <ele>454</ele>
        <time>2016-12-08T13:58:20Z</time>
      </trkpt>
      <trkpt lat="45.93847" lon="4.58672">
        <ele>454</ele>
        <time>2016-12-08T13:58:21Z</time>
      </trkpt>
      <trkpt lat="45.93839" lon="4.58671">
        <ele>454</ele>
        <time>2016-12-08T13:58:24Z</time>
      </trkpt>
      <trkpt lat="45.93837" lon="4.58671">
        <ele>453</ele>
        <time>2016-12-08T13:58:25Z</time>
      </trkpt>
      <trkpt lat="45.93829" lon="4.58673">
        <ele>451</ele>
        <time>2016-12-08T13:58:36Z</time>
      </trkpt>
      <trkpt lat="45.93827" lon="4.58673">
        <ele>451</ele>
        <time>2016-12-08T13:58:37Z</time>
      </trkpt>
      <trkpt lat="45.93819" lon="4.58673">
        <ele>450</ele>
        <time>2016-12-08T13:58:41Z</time>
      </trkpt>
      <trkpt lat="45.93816" lon="4.58674">
        <ele>449</ele>
        <time>2016-12-08T13:58:42Z</time>
      </trkpt>
      <trkpt lat="45.93809" lon="4.58677">
        <ele>448</ele>
        <time>2016-12-08T13:58:45Z</time>
      </trkpt>
      <trkpt lat="45.93807" lon="4.58677">
        <ele>448</ele>
        <time>2016-12-08T13:58:46Z</time>
      </trkpt>
      <trkpt lat="45.93798" lon="4.5868">
        <ele>447</ele>
        <time>2016-12-08T13:58:51Z</time>
      </trkpt>
      <trkpt lat="45.93797" lon="4.58681">
        <ele>447</ele>
        <time>2016-12-08T13:58:52Z</time>
      </trkpt>
      <trkpt lat="45.9379" lon="4.58686">
        <ele>446</ele>
        <time>2016-12-08T13:58:56Z</time>
      </trkpt>
      <trkpt lat="45.93789" lon="4.58687">
        <ele>446</ele>
        <time>2016-12-08T13:58:57Z</time>
      </trkpt>
      <trkpt lat="45.93782" lon="4.58693">
        <ele>446</ele>
        <time>2016-12-08T13:59:02Z</time>
      </trkpt>
      <trkpt lat="45.93781" lon="4.58694">
        <ele>446</ele>
        <time>2016-12-08T13:59:03Z</time>
      </trkpt>
      <trkpt lat="45.93774" lon="4.587">
        <ele>445</ele>
        <time>2016-12-08T13:59:09Z</time>
      </trkpt>
      <trkpt lat="45.93773" lon="4.58701">
        <ele>445</ele>
        <time>2016-12-08T13:59:10Z</time>
      </trkpt>
      <trkpt lat="45.93765" lon="4.58705">
        <ele>445</ele>
        <time>2016-12-08T13:59:16Z</time>
      </trkpt>
      <trkpt lat="45.93763" lon="4.58705">
        <ele>445</ele>
        <time>2016-12-08T13:59:17Z</time>
      </trkpt>
      <trkpt lat="45.93755" lon="4.58708">
        <ele>444</ele>
        <time>2016-12-08T13:59:23Z</time>
      </trkpt>
      <trkpt lat="45.93754" lon="4.58708">
        <ele>444</ele>
        <time>2016-12-08T13:59:24Z</time>
      </trkpt>
      <trkpt lat="45.93747" lon="4.58715">
        <ele>441</ele>
        <time>2016-12-08T13:59:31Z</time>
      </trkpt>
      <trkpt lat="45.93746" lon="4.58716">
        <ele>441</ele>
        <time>2016-12-08T13:59:32Z</time>
      </trkpt>
      <trkpt lat="45.9374" lon="4.58725">
        <ele>440</ele>
        <time>2016-12-08T13:59:40Z</time>
      </trkpt>
      <trkpt lat="45.9374" lon="4.58727">
        <ele>440</ele>
        <time>2016-12-08T13:59:41Z</time>
      </trkpt>
      <trkpt lat="45.93733" lon="4.58735">
        <ele>440</ele>
        <time>2016-12-08T13:59:49Z</time>
      </trkpt>
      <trkpt lat="45.93732" lon="4.58736">
        <ele>440</ele>
        <time>2016-12-08T13:59:50Z</time>
      </trkpt>
      <trkpt lat="45.93725" lon="4.58743">
        <ele>440</ele>
        <time>2016-12-08T13:59:58Z</time>
      </trkpt>
      <trkpt lat="45.93724" lon="4.58744">
        <ele>440</ele>
        <time>2016-12-08T13:59:59Z</time>
      </trkpt>
      <trkpt lat="45.93716" lon="4.58748">
        <ele>440</ele>
        <time>2016-12-08T14:00:07Z</time>
      </trkpt>
      <trkpt lat="45.93715" lon="4.58749">
        <ele>440</ele>
        <time>2016-12-08T14:00:08Z</time>
      </trkpt>
      <trkpt lat="45.93707" lon="4.58753">
        <ele>435</ele>
        <time>2016-12-08T14:00:15Z</time>
      </trkpt>
      <trkpt lat="45.93706" lon="4.58754">
        <ele>435</ele>
        <time>2016-12-08T14:00:16Z</time>
      </trkpt>
      <trkpt lat="45.93699" lon="4.5876">
        <ele>435</ele>
        <time>2016-12-08T14:00:23Z</time>
      </trkpt>
      <trkpt lat="45.93696" lon="4.58759">
        <ele>435</ele>
        <time>2016-12-08T14:00:24Z</time>
      </trkpt>
      <trkpt lat="45.93689" lon="4.58765">
        <ele>434</ele>
        <time>2016-12-08T14:00:51Z</time>
      </trkpt>
      <trkpt lat="45.93688" lon="4.58765">
        <ele>434</ele>
        <time>2016-12-08T14:00:52Z</time>
      </trkpt>
      <trkpt lat="45.93682" lon="4.58774">
        <ele>434</ele>
        <time>2016-12-08T14:01:03Z</time>
      </trkpt>
      <trkpt lat="45.93682" lon="4.58775">
        <ele>434</ele>
        <time>2016-12-08T14:01:04Z</time>
      </trkpt>
      <trkpt lat="45.93675" lon="4.58782">
        <ele>434</ele>
        <time>2016-12-08T14:01:13Z</time>
      </trkpt>
      <trkpt lat="45.93674" lon="4.58783">
        <ele>434</ele>
        <time>2016-12-08T14:01:14Z</time>
      </trkpt>
      <trkpt lat="45.93667" lon="4.58788">
        <ele>434</ele>
        <time>2016-12-08T14:01:21Z</time>
      </trkpt>
      <trkpt lat="45.93665" lon="4.58788">
        <ele>432</ele>
        <time>2016-12-08T14:01:22Z</time>
      </trkpt>
      <trkpt lat="45.93657" lon="4.58792">
        <ele>431</ele>
        <time>2016-12-08T14:01:29Z</time>
      </trkpt>
      <trkpt lat="45.93656" lon="4.58793">
        <ele>431</ele>
        <time>2016-12-08T14:01:30Z</time>
      </trkpt>
      <trkpt lat="45.93648" lon="4.58796">
        <ele>431</ele>
        <time>2016-12-08T14:01:36Z</time>
      </trkpt>
      <trkpt lat="45.93647" lon="4.58796">
        <ele>431</ele>
        <time>2016-12-08T14:01:37Z</time>
      </trkpt>
      <trkpt lat="45.93639" lon="4.588">
        <ele>430</ele>
        <time>2016-12-08T14:01:43Z</time>
      </trkpt>
      <trkpt lat="45.93637" lon="4.58801">
        <ele>430</ele>
        <time>2016-12-08T14:01:44Z</time>
      </trkpt>
      <trkpt lat="45.9363" lon="4.58807">
        <ele>430</ele>
        <time>2016-12-08T14:01:51Z</time>
      </trkpt>
      <trkpt lat="45.93629" lon="4.58808">
        <ele>430</ele>
        <time>2016-12-08T14:01:52Z</time>
      </trkpt>
      <trkpt lat="45.93622" lon="4.58814">
        <ele>429</ele>
        <time>2016-12-08T14:02:00Z</time>
      </trkpt>
      <trkpt lat="45.93621" lon="4.58815">
        <ele>429</ele>
        <time>2016-12-08T14:02:01Z</time>
      </trkpt>
      <trkpt lat="45.93613" lon="4.58818">
        <ele>429</ele>
        <time>2016-12-08T14:02:08Z</time>
      </trkpt>
      <trkpt lat="45.93611" lon="4.58818">
        <ele>429</ele>
        <time>2016-12-08T14:02:09Z</time>
      </trkpt>
      <trkpt lat="45.93603" lon="4.58819">
        <ele>428</ele>
        <time>2016-12-08T14:02:14Z</time>
      </trkpt>
      <trkpt lat="45.93601" lon="4.5882">
        <ele>428</ele>
        <time>2016-12-08T14:02:15Z</time>
      </trkpt>
      <trkpt lat="45.93594" lon="4.58823">
        <ele>427</ele>
        <time>2016-12-08T14:02:20Z</time>
      </trkpt>
      <trkpt lat="45.93592" lon="4.58824">
        <ele>427</ele>
        <time>2016-12-08T14:02:21Z</time>
      </trkpt>
      <trkpt lat="45.93585" lon="4.58829">
        <ele>425</ele>
        <time>2016-12-08T14:02:25Z</time>
      </trkpt>
      <trkpt lat="45.93584" lon="4.5883">
        <ele>425</ele>
        <time>2016-12-08T14:02:26Z</time>
      </trkpt>
      <trkpt lat="45.93576" lon="4.58835">
        <ele>422</ele>
        <time>2016-12-08T14:02:36Z</time>
      </trkpt>
      <trkpt lat="45.93575" lon="4.58835">
        <ele>422</ele>
        <time>2016-12-08T14:02:37Z</time>
      </trkpt>
      <trkpt lat="45.93567" lon="4.58837">
        <ele>420</ele>
        <time>2016-12-08T14:02:46Z</time>
      </trkpt>
      <trkpt lat="45.93565" lon="4.58838">
        <ele>420</ele>
        <time>2016-12-08T14:02:47Z</time>
      </trkpt>
      <trkpt lat="45.93557" lon="4.58841">
        <ele>418</ele>
        <time>2016-12-08T14:02:53Z</time>
      </trkpt>
      <trkpt lat="45.93556" lon="4.58841">
        <ele>418</ele>
        <time>2016-12-08T14:02:54Z</time>
      </trkpt>
      <trkpt lat="45.93548" lon="4.58844">
        <ele>417</ele>
        <time>2016-12-08T14:03:02Z</time>
      </trkpt>
      <trkpt lat="45.93547" lon="4.58845">
        <ele>417</ele>
        <time>2016-12-08T14:03:03Z</time>
      </trkpt>
      <trkpt lat="45.93539" lon="4.58847">
        <ele>417</ele>
        <time>2016-12-08T14:03:13Z</time>
      </trkpt>
      <trkpt lat="45.93538" lon="4.58847">
        <ele>417</ele>
        <time>2016-12-08T14:03:14Z</time>
      </trkpt>
      <trkpt lat="45.9353" lon="4.58849">
        <ele>416</ele>
        <time>2016-12-08T14:03:23Z</time>
      </trkpt>
      <trkpt lat="45.93528" lon="4.58849">
        <ele>416</ele>
        <time>2016-12-08T14:03:24Z</time>
      </trkpt>
      <trkpt lat="45.9352" lon="4.58852">
        <ele>416</ele>
        <time>2016-12-08T14:03:30Z</time>
      </trkpt>
      <trkpt lat="45.93519" lon="4.58852">
        <ele>415</ele>
        <time>2016-12-08T14:03:31Z</time>
      </trkpt>
      <trkpt lat="45.93512" lon="4.58854">
        <ele>415</ele>
        <time>2016-12-08T14:03:35Z</time>
      </trkpt>
      <trkpt lat="45.93509" lon="4.58855">
        <ele>415</ele>
        <time>2016-12-08T14:03:36Z</time>
      </trkpt>
      <trkpt lat="45.93502" lon="4.5886">
        <ele>415</ele>
        <time>2016-12-08T14:03:39Z</time>
      </trkpt>
      <trkpt lat="45.935" lon="4.58861">
        <ele>415</ele>
        <time>2016-12-08T14:03:40Z</time>
      </trkpt>
      <trkpt lat="45.93494" lon="4.58869">
        <ele>410</ele>
        <time>2016-12-08T14:03:47Z</time>
      </trkpt>
      <trkpt lat="45.93494" lon="4.58871">
        <ele>410</ele>
        <time>2016-12-08T14:03:48Z</time>
      </trkpt>
      <trkpt lat="45.93491" lon="4.58882">
        <ele>409</ele>
        <time>2016-12-08T14:03:54Z</time>
      </trkpt>
      <trkpt lat="45.93491" lon="4.58884">
        <ele>409</ele>
        <time>2016-12-08T14:03:55Z</time>
      </trkpt>
      <trkpt lat="45.93486" lon="4.58893">
        <ele>409</ele>
        <time>2016-12-08T14:04:01Z</time>
      </trkpt>
      <trkpt lat="45.93485" lon="4.58895">
        <ele>409</ele>
        <time>2016-12-08T14:04:02Z</time>
      </trkpt>
      <trkpt lat="45.93481" lon="4.58905">
        <ele>408</ele>
        <time>2016-12-08T14:04:12Z</time>
      </trkpt>
      <trkpt lat="45.9348" lon="4.58906">
        <ele>408</ele>
        <time>2016-12-08T14:04:13Z</time>
      </trkpt>
      <trkpt lat="45.93473" lon="4.58908">
        <ele>408</ele>
        <time>2016-12-08T14:04:21Z</time>
      </trkpt>
      <trkpt lat="45.93471" lon="4.58909">
        <ele>408</ele>
        <time>2016-12-08T14:04:22Z</time>
      </trkpt>
      <trkpt lat="45.93463" lon="4.58913">
        <ele>408</ele>
        <time>2016-12-08T14:04:28Z</time>
      </trkpt>
      <trkpt lat="45.93462" lon="4.58913">
        <ele>408</ele>
        <time>2016-12-08T14:04:29Z</time>
      </trkpt>
      <trkpt lat="45.93454" lon="4.58916">
        <ele>407</ele>
        <time>2016-12-08T14:04:35Z</time>
      </trkpt>
      <trkpt lat="45.93452" lon="4.58918">
        <ele>401</ele>
        <time>2016-12-08T14:04:36Z</time>
      </trkpt>
      <trkpt lat="45.93445" lon="4.58922">
        <ele>401</ele>
        <time>2016-12-08T14:04:40Z</time>
      </trkpt>
      <trkpt lat="45.93443" lon="4.58923">
        <ele>401</ele>
        <time>2016-12-08T14:04:41Z</time>
      </trkpt>
      <trkpt lat="45.93435" lon="4.58928">
        <ele>401</ele>
        <time>2016-12-08T14:04:46Z</time>
      </trkpt>
      <trkpt lat="45.93433" lon="4.58929">
        <ele>401</ele>
        <time>2016-12-08T14:04:47Z</time>
      </trkpt>
      <trkpt lat="45.93426" lon="4.58935">
        <ele>400</ele>
        <time>2016-12-08T14:04:53Z</time>
      </trkpt>
      <trkpt lat="45.93425" lon="4.58936">
        <ele>400</ele>
        <time>2016-12-08T14:04:54Z</time>
      </trkpt>
      <trkpt lat="45.93418" lon="4.58942">
        <ele>400</ele>
        <time>2016-12-08T14:05:00Z</time>
      </trkpt>
      <trkpt lat="45.93417" lon="4.58943">
        <ele>400</ele>
        <time>2016-12-08T14:05:01Z</time>
      </trkpt>
      <trkpt lat="45.93411" lon="4.58951">
        <ele>399</ele>
        <time>2016-12-08T14:05:09Z</time>
      </trkpt>
      <trkpt lat="45.9341" lon="4.58952">
        <ele>399</ele>
        <time>2016-12-08T14:05:10Z</time>
      </trkpt>
      <trkpt lat="45.93405" lon="4.5896">
        <ele>398</ele>
        <time>2016-12-08T14:05:17Z</time>
      </trkpt>
      <trkpt lat="45.93404" lon="4.58961">
        <ele>398</ele>
        <time>2016-12-08T14:05:18Z</time>
      </trkpt>
      <trkpt lat="45.93398" lon="4.58968">
        <ele>398</ele>
        <time>2016-12-08T14:05:24Z</time>
      </trkpt>
      <trkpt lat="45.93397" lon="4.58969">
        <ele>398</ele>
        <time>2016-12-08T14:05:25Z</time>
      </trkpt>
      <trkpt lat="45.93389" lon="4.58976">
        <ele>398</ele>
        <time>2016-12-08T14:05:32Z</time>
      </trkpt>
      <trkpt lat="45.93389" lon="4.58977">
        <ele>398</ele>
        <time>2016-12-08T14:05:33Z</time>
      </trkpt>
      <trkpt lat="45.93383" lon="4.58986">
        <ele>397</ele>
        <time>2016-12-08T14:05:39Z</time>
      </trkpt>
      <trkpt lat="45.93382" lon="4.58987">
        <ele>397</ele>
        <time>2016-12-08T14:05:40Z</time>
      </trkpt>
      <trkpt lat="45.93376" lon="4.58995">
        <ele>397</ele>
        <time>2016-12-08T14:05:46Z</time>
      </trkpt>
      <trkpt lat="45.93375" lon="4.58997">
        <ele>397</ele>
        <time>2016-12-08T14:05:47Z</time>
      </trkpt>
      <trkpt lat="45.93371" lon="4.59007">
        <ele>390</ele>
        <time>2016-12-08T14:05:54Z</time>
      </trkpt>
      <trkpt lat="45.93371" lon="4.59009">
        <ele>390</ele>
        <time>2016-12-08T14:05:55Z</time>
      </trkpt>
      <trkpt lat="45.93367" lon="4.5902">
        <ele>389</ele>
        <time>2016-12-08T14:06:02Z</time>
      </trkpt>
      <trkpt lat="45.93366" lon="4.59021">
        <ele>389</ele>
        <time>2016-12-08T14:06:03Z</time>
      </trkpt>
      <trkpt lat="45.93363" lon="4.59033">
        <ele>388</ele>
        <time>2016-12-08T14:06:11Z</time>
      </trkpt>
      <trkpt lat="45.93362" lon="4.59034">
        <ele>388</ele>
        <time>2016-12-08T14:06:12Z</time>
      </trkpt>
      <trkpt lat="45.93356" lon="4.59044">
        <ele>387</ele>
        <time>2016-12-08T14:06:19Z</time>
      </trkpt>
      <trkpt lat="45.93355" lon="4.59045">
        <ele>387</ele>
        <time>2016-12-08T14:06:20Z</time>
      </trkpt>
      <trkpt lat="45.93349" lon="4.59053">
        <ele>386</ele>
        <time>2016-12-08T14:06:26Z</time>
      </trkpt>
      <trkpt lat="45.93348" lon="4.59054">
        <ele>386</ele>
        <time>2016-12-08T14:06:27Z</time>
      </trkpt>
      <trkpt lat="45.93343" lon="4.59064">
        <ele>385</ele>
        <time>2016-12-08T14:06:35Z</time>
      </trkpt>
      <trkpt lat="45.93342" lon="4.59064">
        <ele>385</ele>
        <time>2016-12-08T14:06:36Z</time>
      </trkpt>
      <trkpt lat="45.93335" lon="4.59073">
        <ele>383</ele>
        <time>2016-12-08T14:06:43Z</time>
      </trkpt>
      <trkpt lat="45.93334" lon="4.59074">
        <ele>383</ele>
        <time>2016-12-08T14:06:44Z</time>
      </trkpt>
      <trkpt lat="45.93327" lon="4.5908">
        <ele>383</ele>
        <time>2016-12-08T14:06:52Z</time>
      </trkpt>
      <trkpt lat="45.93326" lon="4.59082">
        <ele>383</ele>
        <time>2016-12-08T14:06:53Z</time>
      </trkpt>
      <trkpt lat="45.93319" lon="4.59086">
        <ele>379</ele>
        <time>2016-12-08T14:06:59Z</time>
      </trkpt>
      <trkpt lat="45.93317" lon="4.59086">
        <ele>378</ele>
        <time>2016-12-08T14:07:00Z</time>
      </trkpt>
      <trkpt lat="45.9331" lon="4.59093">
        <ele>378</ele>
        <time>2016-12-08T14:07:08Z</time>
      </trkpt>
      <trkpt lat="45.93309" lon="4.59094">
        <ele>377</ele>
        <time>2016-12-08T14:07:09Z</time>
      </trkpt>
      <trkpt lat="45.93302" lon="4.59099">
        <ele>377</ele>
        <time>2016-12-08T14:07:15Z</time>
      </trkpt>
      <trkpt lat="45.933" lon="4.59099">
        <ele>377</ele>
        <time>2016-12-08T14:07:16Z</time>
      </trkpt>
      <trkpt lat="45.93293" lon="4.59104">
        <ele>377</ele>
        <time>2016-12-08T14:07:22Z</time>
      </trkpt>
      <trkpt lat="45.93292" lon="4.59105">
        <ele>377</ele>
        <time>2016-12-08T14:07:23Z</time>
      </trkpt>
      <trkpt lat="45.93283" lon="4.59107">
        <ele>377</ele>
        <time>2016-12-08T14:07:36Z</time>
      </trkpt>
      <trkpt lat="45.93282" lon="4.59107">
        <ele>377</ele>
        <time>2016-12-08T14:07:37Z</time>
      </trkpt>
      <trkpt lat="45.93274" lon="4.5911">
        <ele>377</ele>
        <time>2016-12-08T14:07:44Z</time>
      </trkpt>
      <trkpt lat="45.93273" lon="4.5911">
        <ele>377</ele>
        <time>2016-12-08T14:07:45Z</time>
      </trkpt>
      <trkpt lat="45.93264" lon="4.59113">
        <ele>377</ele>
        <time>2016-12-08T14:07:54Z</time>
      </trkpt>
      <trkpt lat="45.93263" lon="4.59114">
        <ele>376</ele>
        <time>2016-12-08T14:07:55Z</time>
      </trkpt>
      <trkpt lat="45.93255" lon="4.59117">
        <ele>376</ele>
        <time>2016-12-08T14:08:04Z</time>
      </trkpt>
      <trkpt lat="45.93254" lon="4.59117">
        <ele>376</ele>
        <time>2016-12-08T14:08:05Z</time>
      </trkpt>
      <trkpt lat="45.93246" lon="4.59123">
        <ele>376</ele>
        <time>2016-12-08T14:08:13Z</time>
      </trkpt>
      <trkpt lat="45.93245" lon="4.59124">
        <ele>376</ele>
        <time>2016-12-08T14:08:14Z</time>
      </trkpt>
      <trkpt lat="45.9324" lon="4.5913">
        <ele>375</ele>
        <time>2016-12-08T14:08:20Z</time>
      </trkpt>
      <trkpt lat="45.93238" lon="4.59131">
        <ele>374</ele>
        <time>2016-12-08T14:08:21Z</time>
      </trkpt>
      <trkpt lat="45.93229" lon="4.59134">
        <ele>374</ele>
        <time>2016-12-08T14:08:25Z</time>
      </trkpt>
      <trkpt lat="45.93228" lon="4.59135">
        <ele>374</ele>
        <time>2016-12-08T14:08:26Z</time>
      </trkpt>
      <trkpt lat="45.93221" lon="4.59141">
        <ele>374</ele>
        <time>2016-12-08T14:08:31Z</time>
      </trkpt>
      <trkpt lat="45.93219" lon="4.59142">
        <ele>373</ele>
        <time>2016-12-08T14:08:32Z</time>
      </trkpt>
      <trkpt lat="45.93213" lon="4.59148">
        <ele>373</ele>
        <time>2016-12-08T14:08:37Z</time>
      </trkpt>
      <trkpt lat="45.93211" lon="4.59149">
        <ele>373</ele>
        <time>2016-12-08T14:08:38Z</time>
      </trkpt>
      <trkpt lat="45.93204" lon="4.59155">
        <ele>373</ele>
        <time>2016-12-08T14:08:44Z</time>
      </trkpt>
      <trkpt lat="45.93203" lon="4.59156">
        <ele>373</ele>
        <time>2016-12-08T14:08:45Z</time>
      </trkpt>
      <trkpt lat="45.93196" lon="4.59161">
        <ele>372</ele>
        <time>2016-12-08T14:08:51Z</time>
      </trkpt>
      <trkpt lat="45.93195" lon="4.59162">
        <ele>372</ele>
        <time>2016-12-08T14:08:52Z</time>
      </trkpt>
      <trkpt lat="45.93187" lon="4.59168">
        <ele>365</ele>
        <time>2016-12-08T14:08:59Z</time>
      </trkpt>
      <trkpt lat="45.93186" lon="4.59169">
        <ele>365</ele>
        <time>2016-12-08T14:09:00Z</time>
      </trkpt>
      <trkpt lat="45.93179" lon="4.59175">
        <ele>366</ele>
        <time>2016-12-08T14:09:07Z</time>
      </trkpt>
      <trkpt lat="45.93179" lon="4.59175">
        <ele>366</ele>
        <time>2016-12-08T14:09:08Z</time>
      </trkpt>
      <trkpt lat="45.9317" lon="4.5918">
        <ele>366</ele>
        <time>2016-12-08T14:09:16Z</time>
      </trkpt>
      <trkpt lat="45.9317" lon="4.59181">
        <ele>365</ele>
        <time>2016-12-08T14:09:17Z</time>
      </trkpt>
      <trkpt lat="45.93162" lon="4.59186">
        <ele>364</ele>
        <time>2016-12-08T14:09:26Z</time>
      </trkpt>
      <trkpt lat="45.93161" lon="4.59186">
        <ele>364</ele>
        <time>2016-12-08T14:09:27Z</time>
      </trkpt>
      <trkpt lat="45.93153" lon="4.59191">
        <ele>364</ele>
        <time>2016-12-08T14:09:35Z</time>
      </trkpt>
      <trkpt lat="45.93152" lon="4.59192">
        <ele>364</ele>
        <time>2016-12-08T14:09:36Z</time>
      </trkpt>
      <trkpt lat="45.93145" lon="4.59198">
        <ele>363</ele>
        <time>2016-12-08T14:09:48Z</time>
      </trkpt>
      <trkpt lat="45.93144" lon="4.59198">
        <ele>363</ele>
        <time>2016-12-08T14:09:49Z</time>
      </trkpt>
      <trkpt lat="45.93136" lon="4.59203">
        <ele>363</ele>
        <time>2016-12-08T14:09:57Z</time>
      </trkpt>
      <trkpt lat="45.93135" lon="4.59203">
        <ele>363</ele>
        <time>2016-12-08T14:09:58Z</time>
      </trkpt>
      <trkpt lat="45.93126" lon="4.59204">
        <ele>363</ele>
        <time>2016-12-08T14:10:13Z</time>
      </trkpt>
      <trkpt lat="45.93126" lon="4.59204">
        <ele>363</ele>
        <time>2016-12-08T14:10:14Z</time>
      </trkpt>
      <trkpt lat="45.93117" lon="4.59206">
        <ele>362</ele>
        <time>2016-12-08T14:10:53Z</time>
      </trkpt>
      <trkpt lat="45.93116" lon="4.59206">
        <ele>362</ele>
        <time>2016-12-08T14:10:54Z</time>
      </trkpt>
      <trkpt lat="45.93108" lon="4.59206">
        <ele>362</ele>
        <time>2016-12-08T14:11:18Z</time>
      </trkpt>
      <trkpt lat="45.93107" lon="4.59206">
        <ele>362</ele>
        <time>2016-12-08T14:11:19Z</time>
      </trkpt>
      <trkpt lat="45.93098" lon="4.59207">
        <ele>362</ele>
        <time>2016-12-08T14:11:33Z</time>
      </trkpt>
      <trkpt lat="45.93097" lon="4.59207">
        <ele>362</ele>
        <time>2016-12-08T14:11:34Z</time>
      </trkpt>
      <trkpt lat="45.93089" lon="4.59207">
        <ele>362</ele>
        <time>2016-12-08T14:11:45Z</time>
      </trkpt>
      <trkpt lat="45.93087" lon="4.59207">
        <ele>362</ele>
        <time>2016-12-08T14:11:46Z</time>
      </trkpt>
      <trkpt lat="45.93079" lon="4.59209">
        <ele>363</ele>
        <time>2016-12-08T14:11:51Z</time>
      </trkpt>
      <trkpt lat="45.93077" lon="4.59209">
        <ele>363</ele>
        <time>2016-12-08T14:11:52Z</time>
      </trkpt>
      <trkpt lat="45.93068" lon="4.5921">
        <ele>363</ele>
        <time>2016-12-08T14:12:01Z</time>
      </trkpt>
      <trkpt lat="45.93068" lon="4.5921">
        <ele>363</ele>
        <time>2016-12-08T14:12:02Z</time>
      </trkpt>
      <trkpt lat="45.93059" lon="4.59211">
        <ele>363</ele>
        <time>2016-12-08T14:12:13Z</time>
      </trkpt>
      <trkpt lat="45.93058" lon="4.59211">
        <ele>363</ele>
        <time>2016-12-08T14:12:14Z</time>
      </trkpt>
      <trkpt lat="45.9305" lon="4.59213">
        <ele>363</ele>
        <time>2016-12-08T14:12:29Z</time>
      </trkpt>
      <trkpt lat="45.93049" lon="4.59214">
        <ele>363</ele>
        <time>2016-12-08T14:12:30Z</time>
      </trkpt>
      <trkpt lat="45.9304" lon="4.59215">
        <ele>363</ele>
        <time>2016-12-08T14:12:34Z</time>
      </trkpt>
      <trkpt lat="45.93037" lon="4.59216">
        <ele>363</ele>
        <time>2016-12-08T14:12:35Z</time>
      </trkpt>
      <trkpt lat="45.93029" lon="4.59218">
        <ele>363</ele>
        <time>2016-12-08T14:12:44Z</time>
      </trkpt>
      <trkpt lat="45.93028" lon="4.59219">
        <ele>363</ele>
        <time>2016-12-08T14:12:45Z</time>
      </trkpt>
      <trkpt lat="45.9302" lon="4.59221">
        <ele>363</ele>
        <time>2016-12-08T14:12:58Z</time>
      </trkpt>
      <trkpt lat="45.93017" lon="4.59221">
        <ele>362</ele>
        <time>2016-12-08T14:12:59Z</time>
      </trkpt>
      <trkpt lat="45.93008" lon="4.59222">
        <ele>362</ele>
        <time>2016-12-08T14:13:05Z</time>
      </trkpt>
      <trkpt lat="45.93007" lon="4.59223">
        <ele>362</ele>
        <time>2016-12-08T14:13:06Z</time>
      </trkpt>
      <trkpt lat="45.93" lon="4.59223">
        <ele>364</ele>
        <time>2016-12-08T14:13:15Z</time>
      </trkpt>
      <trkpt lat="45.92998" lon="4.59223">
        <ele>364</ele>
        <time>2016-12-08T14:13:16Z</time>
      </trkpt>
      <trkpt lat="45.92989" lon="4.59225">
        <ele>364</ele>
        <time>2016-12-08T14:13:19Z</time>
      </trkpt>
      <trkpt lat="45.92987" lon="4.59225">
        <ele>364</ele>
        <time>2016-12-08T14:13:20Z</time>
      </trkpt>
      <trkpt lat="45.92979" lon="4.59226">
        <ele>364</ele>
        <time>2016-12-08T14:13:29Z</time>
      </trkpt>
      <trkpt lat="45.92977" lon="4.59226">
        <ele>364</ele>
        <time>2016-12-08T14:13:30Z</time>
      </trkpt>
      <trkpt lat="45.9297" lon="4.59225">
        <ele>365</ele>
        <time>2016-12-08T14:13:35Z</time>
      </trkpt>
      <trkpt lat="45.92967" lon="4.59225">
        <ele>365</ele>
        <time>2016-12-08T14:13:36Z</time>
      </trkpt>
      <trkpt lat="45.92961" lon="4.59225">
        <ele>365</ele>
        <time>2016-12-08T14:13:39Z</time>
      </trkpt>
      <trkpt lat="45.92958" lon="4.59226">
        <ele>365</ele>
        <time>2016-12-08T14:13:40Z</time>
      </trkpt>
      <trkpt lat="45.9295" lon="4.59228">
        <ele>365</ele>
        <time>2016-12-08T14:13:43Z</time>
      </trkpt>
      <trkpt lat="45.92947" lon="4.59228">
        <ele>365</ele>
        <time>2016-12-08T14:13:44Z</time>
      </trkpt>
      <trkpt lat="45.92939" lon="4.59229">
        <ele>365</ele>
        <time>2016-12-08T14:13:47Z</time>
      </trkpt>
      <trkpt lat="45.92938" lon="4.59229">
        <ele>365</ele>
        <time>2016-12-08T14:13:48Z</time>
      </trkpt>
      <trkpt lat="45.92929" lon="4.59228">
        <ele>364</ele>
        <time>2016-12-08T14:14:04Z</time>
      </trkpt>
      <trkpt lat="45.92927" lon="4.59228">
        <ele>364</ele>
        <time>2016-12-08T14:14:05Z</time>
      </trkpt>
      <trkpt lat="45.92918" lon="4.59231">
        <ele>363</ele>
        <time>2016-12-08T14:14:09Z</time>
      </trkpt>
      <trkpt lat="45.92916" lon="4.59231">
        <ele>362</ele>
        <time>2016-12-08T14:14:10Z</time>
      </trkpt>
      <trkpt lat="45.92908" lon="4.59233">
        <ele>362</ele>
        <time>2016-12-08T14:14:13Z</time>
      </trkpt>
      <trkpt lat="45.92906" lon="4.59233">
        <ele>362</ele>
        <time>2016-12-08T14:14:14Z</time>
      </trkpt>
      <trkpt lat="45.92898" lon="4.59231">
        <ele>363</ele>
        <time>2016-12-08T14:14:17Z</time>
      </trkpt>
      <trkpt lat="45.92896" lon="4.59231">
        <ele>363</ele>
        <time>2016-12-08T14:14:18Z</time>
      </trkpt>
      <trkpt lat="45.92888" lon="4.59228">
        <ele>364</ele>
        <time>2016-12-08T14:14:29Z</time>
      </trkpt>
      <trkpt lat="45.92887" lon="4.59227">
        <ele>364</ele>
        <time>2016-12-08T14:14:30Z</time>
      </trkpt>
      <trkpt lat="45.92879" lon="4.59223">
        <ele>364</ele>
        <time>2016-12-08T14:14:35Z</time>
      </trkpt>
      <trkpt lat="45.92877" lon="4.59222">
        <ele>364</ele>
        <time>2016-12-08T14:14:36Z</time>
      </trkpt>
      <trkpt lat="45.92869" lon="4.59222">
        <ele>364</ele>
        <time>2016-12-08T14:14:40Z</time>
      </trkpt>
      <trkpt lat="45.92867" lon="4.59222">
        <ele>364</ele>
        <time>2016-12-08T14:14:41Z</time>
      </trkpt>
      <trkpt lat="45.9286" lon="4.59222">
        <ele>363</ele>
        <time>2016-12-08T14:14:45Z</time>
      </trkpt>
      <trkpt lat="45.92858" lon="4.59221">
        <ele>363</ele>
        <time>2016-12-08T14:14:46Z</time>
      </trkpt>
      <trkpt lat="45.9285" lon="4.59218">
        <ele>363</ele>
        <time>2016-12-08T14:14:51Z</time>
      </trkpt>
      <trkpt lat="45.92849" lon="4.59218">
        <ele>363</ele>
        <time>2016-12-08T14:14:52Z</time>
      </trkpt>
      <trkpt lat="45.92841" lon="4.59218">
        <ele>363</ele>
        <time>2016-12-08T14:14:57Z</time>
      </trkpt>
      <trkpt lat="45.92839" lon="4.59218">
        <ele>363</ele>
        <time>2016-12-08T14:14:58Z</time>
      </trkpt>
      <trkpt lat="45.9283" lon="4.59216">
        <ele>359</ele>
        <time>2016-12-08T14:15:05Z</time>
      </trkpt>
      <trkpt lat="45.92829" lon="4.59215">
        <ele>359</ele>
        <time>2016-12-08T14:15:06Z</time>
      </trkpt>
      <trkpt lat="45.92821" lon="4.59212">
        <ele>359</ele>
        <time>2016-12-08T14:15:12Z</time>
      </trkpt>
      <trkpt lat="45.92819" lon="4.59212">
        <ele>359</ele>
        <time>2016-12-08T14:15:13Z</time>
      </trkpt>
      <trkpt lat="45.92812" lon="4.5921">
        <ele>359</ele>
        <time>2016-12-08T14:15:18Z</time>
      </trkpt>
      <trkpt lat="45.9281" lon="4.59209">
        <ele>359</ele>
        <time>2016-12-08T14:15:19Z</time>
      </trkpt>
      <trkpt lat="45.92802" lon="4.59206">
        <ele>359</ele>
        <time>2016-12-08T14:15:25Z</time>
      </trkpt>
      <trkpt lat="45.92801" lon="4.59205">
        <ele>360</ele>
        <time>2016-12-08T14:15:26Z</time>
      </trkpt>
      <trkpt lat="45.92793" lon="4.592">
        <ele>360</ele>
        <time>2016-12-08T14:15:40Z</time>
      </trkpt>
      <trkpt lat="45.92792" lon="4.592">
        <ele>360</ele>
        <time>2016-12-08T14:15:41Z</time>
      </trkpt>
      <trkpt lat="45.92784" lon="4.59198">
        <ele>360</ele>
        <time>2016-12-08T14:15:46Z</time>
      </trkpt>
      <trkpt lat="45.92782" lon="4.59197">
        <ele>360</ele>
        <time>2016-12-08T14:15:47Z</time>
      </trkpt>
      <trkpt lat="45.92774" lon="4.59192">
        <ele>360</ele>
        <time>2016-12-08T14:15:52Z</time>
      </trkpt>
      <trkpt lat="45.92772" lon="4.59191">
        <ele>360</ele>
        <time>2016-12-08T14:15:53Z</time>
      </trkpt>
      <trkpt lat="45.92764" lon="4.59187">
        <ele>360</ele>
        <time>2016-12-08T14:16:00Z</time>
      </trkpt>
      <trkpt lat="45.92763" lon="4.59187">
        <ele>360</ele>
        <time>2016-12-08T14:16:01Z</time>
      </trkpt>
      <trkpt lat="45.92755" lon="4.59182">
        <ele>361</ele>
        <time>2016-12-08T14:16:08Z</time>
      </trkpt>
      <trkpt lat="45.92754" lon="4.59182">
        <ele>361</ele>
        <time>2016-12-08T14:16:09Z</time>
      </trkpt>
      <trkpt lat="45.92746" lon="4.59179">
        <ele>359</ele>
        <time>2016-12-08T14:16:17Z</time>
      </trkpt>
      <trkpt lat="45.92745" lon="4.59179">
        <ele>359</ele>
        <time>2016-12-08T14:16:18Z</time>
      </trkpt>
      <trkpt lat="45.92736" lon="4.59176">
        <ele>359</ele>
        <time>2016-12-08T14:16:25Z</time>
      </trkpt>
      <trkpt lat="45.92735" lon="4.59175">
        <ele>358</ele>
        <time>2016-12-08T14:16:26Z</time>
      </trkpt>
      <trkpt lat="45.92727" lon="4.59178">
        <ele>357</ele>
        <time>2016-12-08T14:16:33Z</time>
      </trkpt>
      <trkpt lat="45.92726" lon="4.59178">
        <ele>357</ele>
        <time>2016-12-08T14:16:34Z</time>
      </trkpt>
      <trkpt lat="45.92718" lon="4.59179">
        <ele>356</ele>
        <time>2016-12-08T14:16:41Z</time>
      </trkpt>
      <trkpt lat="45.92717" lon="4.59179">
        <ele>356</ele>
        <time>2016-12-08T14:16:42Z</time>
      </trkpt>
      <trkpt lat="45.9271" lon="4.59172">
        <ele>357</ele>
        <time>2016-12-08T14:16:52Z</time>
      </trkpt>
      <trkpt lat="45.92709" lon="4.59171">
        <ele>357</ele>
        <time>2016-12-08T14:16:53Z</time>
      </trkpt>
      <trkpt lat="45.92703" lon="4.59169">
        <ele>357</ele>
        <time>2016-12-08T14:16:58Z</time>
      </trkpt>
      <trkpt lat="45.927" lon="4.59168">
        <ele>357</ele>
        <time>2016-12-08T14:16:59Z</time>
      </trkpt>
      <trkpt lat="45.92692" lon="4.59163">
        <ele>368</ele>
        <time>2016-12-08T14:17:16Z</time>
      </trkpt>
      <trkpt lat="45.92692" lon="4.59163">
        <ele>368</ele>
        <time>2016-12-08T14:17:17Z</time>
      </trkpt>
      <trkpt lat="45.92683" lon="4.59162">
        <ele>367</ele>
        <time>2016-12-08T14:17:28Z</time>
      </trkpt>
      <trkpt lat="45.92681" lon="4.59161">
        <ele>367</ele>
        <time>2016-12-08T14:17:29Z</time>
      </trkpt>
      <trkpt lat="45.92675" lon="4.59152">
        <ele>367</ele>
        <time>2016-12-08T14:17:33Z</time>
      </trkpt>
      <trkpt lat="45.92674" lon="4.59151">
        <ele>367</ele>
        <time>2016-12-08T14:17:34Z</time>
      </trkpt>
      <trkpt lat="45.92666" lon="4.59153">
        <ele>364</ele>
        <time>2016-12-08T14:17:48Z</time>
      </trkpt>
      <trkpt lat="45.92665" lon="4.59154">
        <ele>364</ele>
        <time>2016-12-08T14:17:49Z</time>
      </trkpt>
      <trkpt lat="45.92658" lon="4.5916">
        <ele>364</ele>
        <time>2016-12-08T14:17:55Z</time>
      </trkpt>
      <trkpt lat="45.92657" lon="4.59161">
        <ele>364</ele>
        <time>2016-12-08T14:17:56Z</time>
      </trkpt>
      <trkpt lat="45.92649" lon="4.59166">
        <ele>364</ele>
        <time>2016-12-08T14:18:04Z</time>
      </trkpt>
      <trkpt lat="45.92648" lon="4.59167">
        <ele>364</ele>
        <time>2016-12-08T14:18:05Z</time>
      </trkpt>
      <trkpt lat="45.92643" lon="4.59176">
        <ele>354</ele>
        <time>2016-12-08T14:18:19Z</time>
      </trkpt>
      <trkpt lat="45.92642" lon="4.59177">
        <ele>353</ele>
        <time>2016-12-08T14:18:20Z</time>
      </trkpt>
      <trkpt lat="45.92637" lon="4.59186">
        <ele>352</ele>
        <time>2016-12-08T14:18:32Z</time>
      </trkpt>
      <trkpt lat="45.92636" lon="4.59186">
        <ele>352</ele>
        <time>2016-12-08T14:18:33Z</time>
      </trkpt>
      <trkpt lat="45.92641" lon="4.59196">
        <ele>351</ele>
        <time>2016-12-08T14:18:52Z</time>
      </trkpt>
      <trkpt lat="45.92642" lon="4.59197">
        <ele>351</ele>
        <time>2016-12-08T14:18:53Z</time>
      </trkpt>
      <trkpt lat="45.92637" lon="4.59207">
        <ele>350</ele>
        <time>2016-12-08T14:19:03Z</time>
      </trkpt>
      <trkpt lat="45.92636" lon="4.59208">
        <ele>349</ele>
        <time>2016-12-08T14:19:04Z</time>
      </trkpt>
      <trkpt lat="45.92631" lon="4.59216">
        <ele>348</ele>
        <time>2016-12-08T14:19:15Z</time>
      </trkpt>
      <trkpt lat="45.9263" lon="4.59217">
        <ele>348</ele>
        <time>2016-12-08T14:19:16Z</time>
      </trkpt>
      <trkpt lat="45.92638" lon="4.59221">
        <ele>348</ele>
        <time>2016-12-08T14:19:28Z</time>
      </trkpt>
      <trkpt lat="45.92639" lon="4.59221">
        <ele>348</ele>
        <time>2016-12-08T14:19:29Z</time>
      </trkpt>
      <trkpt lat="45.92648" lon="4.59219">
        <ele>348</ele>
        <time>2016-12-08T14:19:41Z</time>
      </trkpt>
      <trkpt lat="45.92649" lon="4.59219">
        <ele>348</ele>
        <time>2016-12-08T14:19:42Z</time>
      </trkpt>
      <trkpt lat="45.92657" lon="4.59215">
        <ele>349</ele>
        <time>2016-12-08T14:19:51Z</time>
      </trkpt>
      <trkpt lat="45.92658" lon="4.59214">
        <ele>349</ele>
        <time>2016-12-08T14:19:52Z</time>
      </trkpt>
      <trkpt lat="45.92666" lon="4.59211">
        <ele>350</ele>
        <time>2016-12-08T14:20:05Z</time>
      </trkpt>
      <trkpt lat="45.92667" lon="4.59211">
        <ele>353</ele>
        <time>2016-12-08T14:20:06Z</time>
      </trkpt>
      <trkpt lat="45.92675" lon="4.59208">
        <ele>353</ele>
        <time>2016-12-08T14:20:11Z</time>
      </trkpt>
      <trkpt lat="45.92677" lon="4.59207">
        <ele>353</ele>
        <time>2016-12-08T14:20:12Z</time>
      </trkpt>
      <trkpt lat="45.92685" lon="4.59206">
        <ele>353</ele>
        <time>2016-12-08T14:20:17Z</time>
      </trkpt>
      <trkpt lat="45.92686" lon="4.59206">
        <ele>353</ele>
        <time>2016-12-08T14:20:18Z</time>
      </trkpt>
      <trkpt lat="45.92694" lon="4.59203">
        <ele>354</ele>
        <time>2016-12-08T14:20:25Z</time>
      </trkpt>
      <trkpt lat="45.92695" lon="4.59203">
        <ele>354</ele>
        <time>2016-12-08T14:20:26Z</time>
      </trkpt>
      <trkpt lat="45.92703" lon="4.59201">
        <ele>354</ele>
        <time>2016-12-08T14:20:31Z</time>
      </trkpt>
      <trkpt lat="45.92704" lon="4.59201">
        <ele>354</ele>
        <time>2016-12-08T14:20:32Z</time>
      </trkpt>
      <trkpt lat="45.92713" lon="4.592">
        <ele>354</ele>
        <time>2016-12-08T14:20:39Z</time>
      </trkpt>
      <trkpt lat="45.92715" lon="4.592">
        <ele>354</ele>
        <time>2016-12-08T14:20:40Z</time>
      </trkpt>
      <trkpt lat="45.92723" lon="4.59199">
        <ele>355</ele>
        <time>2016-12-08T14:20:47Z</time>
      </trkpt>
      <trkpt lat="45.92725" lon="4.59198">
        <ele>355</ele>
        <time>2016-12-08T14:20:48Z</time>
      </trkpt>
      <trkpt lat="45.92733" lon="4.59199">
        <ele>355</ele>
        <time>2016-12-08T14:20:54Z</time>
      </trkpt>
      <trkpt lat="45.92734" lon="4.59199">
        <ele>355</ele>
        <time>2016-12-08T14:20:55Z</time>
      </trkpt>
      <trkpt lat="45.92741" lon="4.59204">
        <ele>355</ele>
        <time>2016-12-08T14:21:04Z</time>
      </trkpt>
      <trkpt lat="45.92742" lon="4.59205">
        <ele>354</ele>
        <time>2016-12-08T14:21:05Z</time>
      </trkpt>
      <trkpt lat="45.92748" lon="4.59214">
        <ele>353</ele>
        <time>2016-12-08T14:21:14Z</time>
      </trkpt>
      <trkpt lat="45.9275" lon="4.59214">
        <ele>353</ele>
        <time>2016-12-08T14:21:15Z</time>
      </trkpt>
      <trkpt lat="45.92755" lon="4.59224">
        <ele>355</ele>
        <time>2016-12-08T14:21:26Z</time>
      </trkpt>
      <trkpt lat="45.92756" lon="4.59224">
        <ele>355</ele>
        <time>2016-12-08T14:21:27Z</time>
      </trkpt>
      <trkpt lat="45.92758" lon="4.59235">
        <ele>353</ele>
        <time>2016-12-08T14:21:35Z</time>
      </trkpt>
      <trkpt lat="45.92759" lon="4.59237">
        <ele>352</ele>
        <time>2016-12-08T14:21:36Z</time>
      </trkpt>
      <trkpt lat="45.92761" lon="4.59248">
        <ele>351</ele>
        <time>2016-12-08T14:21:46Z</time>
      </trkpt>
      <trkpt lat="45.92762" lon="4.5925">
        <ele>351</ele>
        <time>2016-12-08T14:21:47Z</time>
      </trkpt>
      <trkpt lat="45.92764" lon="4.59261">
        <ele>348</ele>
        <time>2016-12-08T14:21:53Z</time>
      </trkpt>
      <trkpt lat="45.92764" lon="4.59263">
        <ele>348</ele>
        <time>2016-12-08T14:21:54Z</time>
      </trkpt>
      <trkpt lat="45.92763" lon="4.59275">
        <ele>349</ele>
        <time>2016-12-08T14:22:03Z</time>
      </trkpt>
      <trkpt lat="45.92763" lon="4.59277">
        <ele>349</ele>
        <time>2016-12-08T14:22:04Z</time>
      </trkpt>
      <trkpt lat="45.92761" lon="4.59288">
        <ele>349</ele>
        <time>2016-12-08T14:22:11Z</time>
      </trkpt>
      <trkpt lat="45.92761" lon="4.5929">
        <ele>349</ele>
        <time>2016-12-08T14:22:12Z</time>
      </trkpt>
      <trkpt lat="45.92761" lon="4.59301">
        <ele>349</ele>
        <time>2016-12-08T14:22:28Z</time>
      </trkpt>
      <trkpt lat="45.92761" lon="4.59303">
        <ele>350</ele>
        <time>2016-12-08T14:22:29Z</time>
      </trkpt>
      <trkpt lat="45.92759" lon="4.59315">
        <ele>350</ele>
        <time>2016-12-08T14:22:35Z</time>
      </trkpt>
      <trkpt lat="45.92759" lon="4.59317">
        <ele>350</ele>
        <time>2016-12-08T14:22:36Z</time>
      </trkpt>
      <trkpt lat="45.92755" lon="4.59328">
        <ele>351</ele>
        <time>2016-12-08T14:22:43Z</time>
      </trkpt>
      <trkpt lat="45.92755" lon="4.59329">
        <ele>351</ele>
        <time>2016-12-08T14:22:44Z</time>
      </trkpt>
      <trkpt lat="45.9275" lon="4.59339">
        <ele>353</ele>
        <time>2016-12-08T14:22:53Z</time>
      </trkpt>
      <trkpt lat="45.92749" lon="4.5934">
        <ele>353</ele>
        <time>2016-12-08T14:22:54Z</time>
      </trkpt>
      <trkpt lat="45.92743" lon="4.59347">
        <ele>354</ele>
        <time>2016-12-08T14:23:02Z</time>
      </trkpt>
      <trkpt lat="45.92742" lon="4.59348">
        <ele>355</ele>
        <time>2016-12-08T14:23:03Z</time>
      </trkpt>
      <trkpt lat="45.92735" lon="4.59357">
        <ele>356</ele>
        <time>2016-12-08T14:23:19Z</time>
      </trkpt>
      <trkpt lat="45.92735" lon="4.59357">
        <ele>356</ele>
        <time>2016-12-08T14:23:20Z</time>
      </trkpt>
      <trkpt lat="45.92727" lon="4.59362">
        <ele>356</ele>
        <time>2016-12-08T14:23:29Z</time>
      </trkpt>
      <trkpt lat="45.92726" lon="4.59363">
        <ele>356</ele>
        <time>2016-12-08T14:23:30Z</time>
      </trkpt>
      <trkpt lat="45.92719" lon="4.59368">
        <ele>356</ele>
        <time>2016-12-08T14:23:42Z</time>
      </trkpt>
      <trkpt lat="45.92717" lon="4.59369">
        <ele>356</ele>
        <time>2016-12-08T14:23:43Z</time>
      </trkpt>
      <trkpt lat="45.92709" lon="4.59373">
        <ele>356</ele>
        <time>2016-12-08T14:23:49Z</time>
      </trkpt>
      <trkpt lat="45.92708" lon="4.59374">
        <ele>356</ele>
        <time>2016-12-08T14:23:50Z</time>
      </trkpt>
      <trkpt lat="45.927" lon="4.59379">
        <ele>356</ele>
        <time>2016-12-08T14:23:56Z</time>
      </trkpt>
      <trkpt lat="45.92698" lon="4.5938">
        <ele>356</ele>
        <time>2016-12-08T14:23:57Z</time>
      </trkpt>
      <trkpt lat="45.92691" lon="4.59386">
        <ele>356</ele>
        <time>2016-12-08T14:24:03Z</time>
      </trkpt>
      <trkpt lat="45.9269" lon="4.59386">
        <ele>356</ele>
        <time>2016-12-08T14:24:04Z</time>
      </trkpt>
      <trkpt lat="45.92683" lon="4.59393">
        <ele>357</ele>
        <time>2016-12-08T14:24:11Z</time>
      </trkpt>
      <trkpt lat="45.92682" lon="4.59394">
        <ele>357</ele>
        <time>2016-12-08T14:24:12Z</time>
      </trkpt>
      <trkpt lat="45.92675" lon="4.59402">
        <ele>357</ele>
        <time>2016-12-08T14:24:19Z</time>
      </trkpt>
      <trkpt lat="45.92674" lon="4.59404">
        <ele>357</ele>
        <time>2016-12-08T14:24:20Z</time>
      </trkpt>
      <trkpt lat="45.92667" lon="4.59411">
        <ele>357</ele>
        <time>2016-12-08T14:24:26Z</time>
      </trkpt>
      <trkpt lat="45.92666" lon="4.59412">
        <ele>355</ele>
        <time>2016-12-08T14:24:27Z</time>
      </trkpt>
      <trkpt lat="45.9266" lon="4.59419">
        <ele>358</ele>
        <time>2016-12-08T14:24:34Z</time>
      </trkpt>
      <trkpt lat="45.92659" lon="4.5942">
        <ele>358</ele>
        <time>2016-12-08T14:24:35Z</time>
      </trkpt>
      <trkpt lat="45.92654" lon="4.59429">
        <ele>358</ele>
        <time>2016-12-08T14:24:41Z</time>
      </trkpt>
      <trkpt lat="45.92654" lon="4.59431">
        <ele>358</ele>
        <time>2016-12-08T14:24:42Z</time>
      </trkpt>
      <trkpt lat="45.92648" lon="4.5944">
        <ele>359</ele>
        <time>2016-12-08T14:24:49Z</time>
      </trkpt>
      <trkpt lat="45.92647" lon="4.59442">
        <ele>359</ele>
        <time>2016-12-08T14:24:50Z</time>
      </trkpt>
      <trkpt lat="45.92643" lon="4.59451">
        <ele>360</ele>
        <time>2016-12-08T14:25:01Z</time>
      </trkpt>
      <trkpt lat="45.92642" lon="4.59452">
        <ele>360</ele>
        <time>2016-12-08T14:25:02Z</time>
      </trkpt>
      <trkpt lat="45.92636" lon="4.59459">
        <ele>360</ele>
        <time>2016-12-08T14:25:09Z</time>
      </trkpt>
      <trkpt lat="45.92635" lon="4.5946">
        <ele>360</ele>
        <time>2016-12-08T14:25:10Z</time>
      </trkpt>
      <trkpt lat="45.92627" lon="4.59467">
        <ele>360</ele>
        <time>2016-12-08T14:25:22Z</time>
      </trkpt>
      <trkpt lat="45.92626" lon="4.59468">
        <ele>360</ele>
        <time>2016-12-08T14:25:23Z</time>
      </trkpt>
      <trkpt lat="45.92618" lon="4.59472">
        <ele>360</ele>
        <time>2016-12-08T14:25:31Z</time>
      </trkpt>
      <trkpt lat="45.92617" lon="4.59472">
        <ele>360</ele>
        <time>2016-12-08T14:25:32Z</time>
      </trkpt>
      <trkpt lat="45.92608" lon="4.59473">
        <ele>361</ele>
        <time>2016-12-08T14:25:42Z</time>
      </trkpt>
      <trkpt lat="45.92607" lon="4.59474">
        <ele>361</ele>
        <time>2016-12-08T14:25:43Z</time>
      </trkpt>
      <trkpt lat="45.92599" lon="4.59473">
        <ele>361</ele>
        <time>2016-12-08T14:25:50Z</time>
      </trkpt>
      <trkpt lat="45.92598" lon="4.59473">
        <ele>361</ele>
        <time>2016-12-08T14:25:51Z</time>
      </trkpt>
      <trkpt lat="45.92591" lon="4.59471">
        <ele>361</ele>
        <time>2016-12-08T14:25:57Z</time>
      </trkpt>
      <trkpt lat="45.92589" lon="4.59471">
        <ele>361</ele>
        <time>2016-12-08T14:25:58Z</time>
      </trkpt>
      <trkpt lat="45.9258" lon="4.59469">
        <ele>361</ele>
        <time>2016-12-08T14:26:06Z</time>
      </trkpt>
      <trkpt lat="45.92579" lon="4.59468">
        <ele>361</ele>
        <time>2016-12-08T14:26:07Z</time>
      </trkpt>
      <trkpt lat="45.92571" lon="4.59464">
        <ele>360</ele>
        <time>2016-12-08T14:26:13Z</time>
      </trkpt>
      <trkpt lat="45.9257" lon="4.59464">
        <ele>360</ele>
        <time>2016-12-08T14:26:14Z</time>
      </trkpt>
      <trkpt lat="45.92562" lon="4.5946">
        <ele>360</ele>
        <time>2016-12-08T14:26:20Z</time>
      </trkpt>
      <trkpt lat="45.9256" lon="4.5946">
        <ele>360</ele>
        <time>2016-12-08T14:26:21Z</time>
      </trkpt>
      <trkpt lat="45.92552" lon="4.59456">
        <ele>360</ele>
        <time>2016-12-08T14:26:30Z</time>
      </trkpt>
      <trkpt lat="45.92551" lon="4.59455">
        <ele>360</ele>
        <time>2016-12-08T14:26:31Z</time>
      </trkpt>
      <trkpt lat="45.92543" lon="4.59454">
        <ele>360</ele>
        <time>2016-12-08T14:26:37Z</time>
      </trkpt>
      <trkpt lat="45.92541" lon="4.59454">
        <ele>360</ele>
        <time>2016-12-08T14:26:38Z</time>
      </trkpt>
      <trkpt lat="45.92533" lon="4.59453">
        <ele>360</ele>
        <time>2016-12-08T14:26:43Z</time>
      </trkpt>
      <trkpt lat="45.92532" lon="4.59453">
        <ele>360</ele>
        <time>2016-12-08T14:26:44Z</time>
      </trkpt>
      <trkpt lat="45.92524" lon="4.59452">
        <ele>360</ele>
        <time>2016-12-08T14:26:49Z</time>
      </trkpt>
      <trkpt lat="45.92522" lon="4.59451">
        <ele>360</ele>
        <time>2016-12-08T14:26:50Z</time>
      </trkpt>
      <trkpt lat="45.92514" lon="4.59451">
        <ele>360</ele>
        <time>2016-12-08T14:27:02Z</time>
      </trkpt>
      <trkpt lat="45.92513" lon="4.59451">
        <ele>360</ele>
        <time>2016-12-08T14:27:03Z</time>
      </trkpt>
      <trkpt lat="45.92504" lon="4.59451">
        <ele>360</ele>
        <time>2016-12-08T14:27:19Z</time>
      </trkpt>
      <trkpt lat="45.92504" lon="4.59451">
        <ele>360</ele>
        <time>2016-12-08T14:27:20Z</time>
      </trkpt>
      <trkpt lat="45.92496" lon="4.5945">
        <ele>363</ele>
        <time>2016-12-08T14:27:27Z</time>
      </trkpt>
      <trkpt lat="45.92494" lon="4.5945">
        <ele>363</ele>
        <time>2016-12-08T14:27:28Z</time>
      </trkpt>
      <trkpt lat="45.92485" lon="4.5945">
        <ele>363</ele>
        <time>2016-12-08T14:27:32Z</time>
      </trkpt>
      <trkpt lat="45.92484" lon="4.59449">
        <ele>363</ele>
        <time>2016-12-08T14:27:33Z</time>
      </trkpt>
      <trkpt lat="45.92475" lon="4.59447">
        <ele>363</ele>
        <time>2016-12-08T14:27:39Z</time>
      </trkpt>
      <trkpt lat="45.92474" lon="4.59446">
        <ele>363</ele>
        <time>2016-12-08T14:27:40Z</time>
      </trkpt>
      <trkpt lat="45.92466" lon="4.59442">
        <ele>363</ele>
        <time>2016-12-08T14:27:48Z</time>
      </trkpt>
      <trkpt lat="45.92465" lon="4.59442">
        <ele>363</ele>
        <time>2016-12-08T14:27:49Z</time>
      </trkpt>
      <trkpt lat="45.92457" lon="4.59437">
        <ele>363</ele>
        <time>2016-12-08T14:28:00Z</time>
      </trkpt>
      <trkpt lat="45.92456" lon="4.59437">
        <ele>363</ele>
        <time>2016-12-08T14:28:01Z</time>
      </trkpt>
      <trkpt lat="45.92447" lon="4.59437">
        <ele>363</ele>
        <time>2016-12-08T14:28:14Z</time>
      </trkpt>
      <trkpt lat="45.92446" lon="4.59437">
        <ele>363</ele>
        <time>2016-12-08T14:28:15Z</time>
      </trkpt>
      <trkpt lat="45.9244" lon="4.59428">
        <ele>363</ele>
        <time>2016-12-08T14:30:56Z</time>
      </trkpt>
      <trkpt lat="45.9244" lon="4.59428">
        <ele>363</ele>
        <time>2016-12-08T14:30:57Z</time>
      </trkpt>
      <trkpt lat="45.92432" lon="4.59427">
        <ele>362</ele>
        <time>2016-12-08T14:31:03Z</time>
      </trkpt>
      <trkpt lat="45.92429" lon="4.59427">
        <ele>362</ele>
        <time>2016-12-08T14:31:04Z</time>
      </trkpt>
      <trkpt lat="45.92422" lon="4.59426">
        <ele>362</ele>
        <time>2016-12-08T14:31:08Z</time>
      </trkpt>
      <trkpt lat="45.92419" lon="4.59426">
        <ele>362</ele>
        <time>2016-12-08T14:31:09Z</time>
      </trkpt>
      <trkpt lat="45.92411" lon="4.59423">
        <ele>363</ele>
        <time>2016-12-08T14:31:19Z</time>
      </trkpt>
      <trkpt lat="45.9241" lon="4.59423">
        <ele>363</ele>
        <time>2016-12-08T14:31:20Z</time>
      </trkpt>
      <trkpt lat="45.92402" lon="4.5942">
        <ele>365</ele>
        <time>2016-12-08T14:31:29Z</time>
      </trkpt>
      <trkpt lat="45.92401" lon="4.59419">
        <ele>365</ele>
        <time>2016-12-08T14:31:30Z</time>
      </trkpt>
      <trkpt lat="45.92393" lon="4.59418">
        <ele>367</ele>
        <time>2016-12-08T14:31:35Z</time>
      </trkpt>
      <trkpt lat="45.92391" lon="4.59417">
        <ele>367</ele>
        <time>2016-12-08T14:31:36Z</time>
      </trkpt>
      <trkpt lat="45.92384" lon="4.59414">
        <ele>355</ele>
        <time>2016-12-08T14:31:41Z</time>
      </trkpt>
      <trkpt lat="45.92382" lon="4.59414">
        <ele>355</ele>
        <time>2016-12-08T14:31:42Z</time>
      </trkpt>
      <trkpt lat="45.92373" lon="4.59413">
        <ele>356</ele>
        <time>2016-12-08T14:31:48Z</time>
      </trkpt>
      <trkpt lat="45.92372" lon="4.59413">
        <ele>356</ele>
        <time>2016-12-08T14:31:49Z</time>
      </trkpt>
      <trkpt lat="45.92364" lon="4.59412">
        <ele>356</ele>
        <time>2016-12-08T14:31:56Z</time>
      </trkpt>
      <trkpt lat="45.92363" lon="4.59412">
        <ele>357</ele>
        <time>2016-12-08T14:31:57Z</time>
      </trkpt>
      <trkpt lat="45.92355" lon="4.59412">
        <ele>358</ele>
        <time>2016-12-08T14:32:04Z</time>
      </trkpt>
      <trkpt lat="45.92354" lon="4.59412">
        <ele>358</ele>
        <time>2016-12-08T14:32:05Z</time>
      </trkpt>
      <trkpt lat="45.92345" lon="4.59411">
        <ele>360</ele>
        <time>2016-12-08T14:32:13Z</time>
      </trkpt>
      <trkpt lat="45.92344" lon="4.59411">
        <ele>360</ele>
        <time>2016-12-08T14:32:14Z</time>
      </trkpt>
      <trkpt lat="45.92336" lon="4.59414">
        <ele>364</ele>
        <time>2016-12-08T14:32:22Z</time>
      </trkpt>
      <trkpt lat="45.92335" lon="4.59414">
        <ele>364</ele>
        <time>2016-12-08T14:32:23Z</time>
      </trkpt>
      <trkpt lat="45.92327" lon="4.59415">
        <ele>362</ele>
        <time>2016-12-08T14:32:30Z</time>
      </trkpt>
      <trkpt lat="45.92325" lon="4.59415">
        <ele>362</ele>
        <time>2016-12-08T14:32:31Z</time>
      </trkpt>
      <trkpt lat="45.92317" lon="4.59417">
        <ele>369</ele>
        <time>2016-12-08T14:32:36Z</time>
      </trkpt>
      <trkpt lat="45.92316" lon="4.59417">
        <ele>369</ele>
        <time>2016-12-08T14:32:37Z</time>
      </trkpt>
      <trkpt lat="45.92308" lon="4.59419">
        <ele>369</ele>
        <time>2016-12-08T14:32:42Z</time>
      </trkpt>
      <trkpt lat="45.92307" lon="4.5942">
        <ele>370</ele>
        <time>2016-12-08T14:32:43Z</time>
      </trkpt>
      <trkpt lat="45.92299" lon="4.59423">
        <ele>370</ele>
        <time>2016-12-08T14:32:48Z</time>
      </trkpt>
      <trkpt lat="45.92298" lon="4.59423">
        <ele>370</ele>
        <time>2016-12-08T14:32:49Z</time>
      </trkpt>
      <trkpt lat="45.9229" lon="4.59424">
        <ele>370</ele>
        <time>2016-12-08T14:32:54Z</time>
      </trkpt>
      <trkpt lat="45.92289" lon="4.59425">
        <ele>370</ele>
        <time>2016-12-08T14:32:55Z</time>
      </trkpt>
      <trkpt lat="45.92281" lon="4.59426">
        <ele>369</ele>
        <time>2016-12-08T14:33:00Z</time>
      </trkpt>
      <trkpt lat="45.92279" lon="4.59426">
        <ele>369</ele>
        <time>2016-12-08T14:33:01Z</time>
      </trkpt>
      <trkpt lat="45.92272" lon="4.59428">
        <ele>368</ele>
        <time>2016-12-08T14:33:06Z</time>
      </trkpt>
      <trkpt lat="45.9227" lon="4.59428">
        <ele>368</ele>
        <time>2016-12-08T14:33:07Z</time>
      </trkpt>
      <trkpt lat="45.92262" lon="4.59428">
        <ele>367</ele>
        <time>2016-12-08T14:33:13Z</time>
      </trkpt>
      <trkpt lat="45.9226" lon="4.59428">
        <ele>367</ele>
        <time>2016-12-08T14:33:14Z</time>
      </trkpt>
      <trkpt lat="45.92252" lon="4.59429">
        <ele>366</ele>
        <time>2016-12-08T14:33:21Z</time>
      </trkpt>
      <trkpt lat="45.92251" lon="4.59429">
        <ele>366</ele>
        <time>2016-12-08T14:33:22Z</time>
      </trkpt>
      <trkpt lat="45.92243" lon="4.5943">
        <ele>365</ele>
        <time>2016-12-08T14:33:29Z</time>
      </trkpt>
      <trkpt lat="45.92242" lon="4.5943">
        <ele>365</ele>
        <time>2016-12-08T14:33:30Z</time>
      </trkpt>
      <trkpt lat="45.92233" lon="4.5943">
        <ele>366</ele>
        <time>2016-12-08T14:33:38Z</time>
      </trkpt>
      <trkpt lat="45.92232" lon="4.59431">
        <ele>366</ele>
        <time>2016-12-08T14:33:39Z</time>
      </trkpt>
      <trkpt lat="45.92224" lon="4.59432">
        <ele>367</ele>
        <time>2016-12-08T14:33:47Z</time>
      </trkpt>
      <trkpt lat="45.92223" lon="4.59432">
        <ele>367</ele>
        <time>2016-12-08T14:33:48Z</time>
      </trkpt>
      <trkpt lat="45.92214" lon="4.59434">
        <ele>367</ele>
        <time>2016-12-08T14:33:56Z</time>
      </trkpt>
      <trkpt lat="45.92213" lon="4.59435">
        <ele>367</ele>
        <time>2016-12-08T14:33:57Z</time>
      </trkpt>
      <trkpt lat="45.92205" lon="4.59436">
        <ele>367</ele>
        <time>2016-12-08T14:34:04Z</time>
      </trkpt>
      <trkpt lat="45.92204" lon="4.59436">
        <ele>367</ele>
        <time>2016-12-08T14:34:05Z</time>
      </trkpt>
      <trkpt lat="45.92195" lon="4.59437">
        <ele>367</ele>
        <time>2016-12-08T14:34:13Z</time>
      </trkpt>
      <trkpt lat="45.92194" lon="4.59437">
        <ele>367</ele>
        <time>2016-12-08T14:34:14Z</time>
      </trkpt>
      <trkpt lat="45.92186" lon="4.59439">
        <ele>366</ele>
        <time>2016-12-08T14:34:22Z</time>
      </trkpt>
      <trkpt lat="45.92184" lon="4.59439">
        <ele>366</ele>
        <time>2016-12-08T14:34:23Z</time>
      </trkpt>
      <trkpt lat="45.92176" lon="4.5944">
        <ele>366</ele>
        <time>2016-12-08T14:34:31Z</time>
      </trkpt>
      <trkpt lat="45.92175" lon="4.5944">
        <ele>366</ele>
        <time>2016-12-08T14:34:32Z</time>
      </trkpt>
      <trkpt lat="45.92166" lon="4.59443">
        <ele>362</ele>
        <time>2016-12-08T14:34:39Z</time>
      </trkpt>
      <trkpt lat="45.92165" lon="4.59444">
        <ele>362</ele>
        <time>2016-12-08T14:34:40Z</time>
      </trkpt>
      <trkpt lat="45.92157" lon="4.59447">
        <ele>362</ele>
        <time>2016-12-08T14:34:47Z</time>
      </trkpt>
      <trkpt lat="45.92156" lon="4.59448">
        <ele>362</ele>
        <time>2016-12-08T14:34:48Z</time>
      </trkpt>
      <trkpt lat="45.92149" lon="4.59455">
        <ele>363</ele>
        <time>2016-12-08T14:34:55Z</time>
      </trkpt>
      <trkpt lat="45.92148" lon="4.59456">
        <ele>363</ele>
        <time>2016-12-08T14:34:56Z</time>
      </trkpt>
      <trkpt lat="45.92141" lon="4.59463">
        <ele>363</ele>
        <time>2016-12-08T14:35:02Z</time>
      </trkpt>
      <trkpt lat="45.9214" lon="4.59465">
        <ele>363</ele>
        <time>2016-12-08T14:35:03Z</time>
      </trkpt>
      <trkpt lat="45.92135" lon="4.59473">
        <ele>363</ele>
        <time>2016-12-08T14:35:08Z</time>
      </trkpt>
      <trkpt lat="45.92134" lon="4.59475">
        <ele>363</ele>
        <time>2016-12-08T14:35:09Z</time>
      </trkpt>
      <trkpt lat="45.92128" lon="4.59484">
        <ele>363</ele>
        <time>2016-12-08T14:35:15Z</time>
      </trkpt>
      <trkpt lat="45.92127" lon="4.59486">
        <ele>363</ele>
        <time>2016-12-08T14:35:16Z</time>
      </trkpt>
      <trkpt lat="45.92123" lon="4.59495">
        <ele>363</ele>
        <time>2016-12-08T14:35:21Z</time>
      </trkpt>
      <trkpt lat="45.92122" lon="4.59496">
        <ele>363</ele>
        <time>2016-12-08T14:35:22Z</time>
      </trkpt>
      <trkpt lat="45.92119" lon="4.59506">
        <ele>368</ele>
        <time>2016-12-08T14:35:28Z</time>
      </trkpt>
      <trkpt lat="45.92118" lon="4.59508">
        <ele>368</ele>
        <time>2016-12-08T14:35:29Z</time>
      </trkpt>
      <trkpt lat="45.92116" lon="4.5952">
        <ele>368</ele>
        <time>2016-12-08T14:35:36Z</time>
      </trkpt>
      <trkpt lat="45.92116" lon="4.59522">
        <ele>368</ele>
        <time>2016-12-08T14:35:37Z</time>
      </trkpt>
      <trkpt lat="45.92114" lon="4.59534">
        <ele>368</ele>
        <time>2016-12-08T14:35:44Z</time>
      </trkpt>
      <trkpt lat="45.92113" lon="4.59536">
        <ele>368</ele>
        <time>2016-12-08T14:35:45Z</time>
      </trkpt>
      <trkpt lat="45.92113" lon="4.59548">
        <ele>369</ele>
        <time>2016-12-08T14:35:52Z</time>
      </trkpt>
      <trkpt lat="45.92113" lon="4.59549">
        <ele>369</ele>
        <time>2016-12-08T14:35:53Z</time>
      </trkpt>
      <trkpt lat="45.92112" lon="4.59562">
        <ele>369</ele>
        <time>2016-12-08T14:36:00Z</time>
      </trkpt>
      <trkpt lat="45.92112" lon="4.59564">
        <ele>369</ele>
        <time>2016-12-08T14:36:01Z</time>
      </trkpt>
      <trkpt lat="45.92112" lon="4.59576">
        <ele>369</ele>
        <time>2016-12-08T14:36:08Z</time>
      </trkpt>
      <trkpt lat="45.92112" lon="4.59577">
        <ele>369</ele>
        <time>2016-12-08T14:36:09Z</time>
      </trkpt>
      <trkpt lat="45.92109" lon="4.59588">
        <ele>372</ele>
        <time>2016-12-08T14:36:17Z</time>
      </trkpt>
      <trkpt lat="45.92109" lon="4.59589">
        <ele>372</ele>
        <time>2016-12-08T14:36:18Z</time>
      </trkpt>
      <trkpt lat="45.92106" lon="4.59601">
        <ele>372</ele>
        <time>2016-12-08T14:36:26Z</time>
      </trkpt>
      <trkpt lat="45.92105" lon="4.59601">
        <ele>372</ele>
        <time>2016-12-08T14:36:27Z</time>
      </trkpt>
      <trkpt lat="45.92104" lon="4.59614">
        <ele>373</ele>
        <time>2016-12-08T14:36:37Z</time>
      </trkpt>
      <trkpt lat="45.92104" lon="4.59615">
        <ele>373</ele>
        <time>2016-12-08T14:36:38Z</time>
      </trkpt>
      <trkpt lat="45.92101" lon="4.59627">
        <ele>374</ele>
        <time>2016-12-08T14:36:46Z</time>
      </trkpt>
      <trkpt lat="45.92101" lon="4.59628">
        <ele>374</ele>
        <time>2016-12-08T14:36:47Z</time>
      </trkpt>
      <trkpt lat="45.92101" lon="4.5964">
        <ele>374</ele>
        <time>2016-12-08T14:36:54Z</time>
      </trkpt>
      <trkpt lat="45.92102" lon="4.59642">
        <ele>374</ele>
        <time>2016-12-08T14:36:55Z</time>
      </trkpt>
      <trkpt lat="45.92099" lon="4.59653">
        <ele>374</ele>
        <time>2016-12-08T14:37:03Z</time>
      </trkpt>
      <trkpt lat="45.92098" lon="4.59654">
        <ele>374</ele>
        <time>2016-12-08T14:37:04Z</time>
      </trkpt>
      <trkpt lat="45.92095" lon="4.59666">
        <ele>374</ele>
        <time>2016-12-08T14:37:12Z</time>
      </trkpt>
      <trkpt lat="45.92094" lon="4.59667">
        <ele>377</ele>
        <time>2016-12-08T14:37:13Z</time>
      </trkpt>
      <trkpt lat="45.92093" lon="4.5968">
        <ele>377</ele>
        <time>2016-12-08T14:37:24Z</time>
      </trkpt>
      <trkpt lat="45.92093" lon="4.59681">
        <ele>378</ele>
        <time>2016-12-08T14:37:25Z</time>
      </trkpt>
      <trkpt lat="45.92096" lon="4.59692">
        <ele>379</ele>
        <time>2016-12-08T14:37:33Z</time>
      </trkpt>
      <trkpt lat="45.92096" lon="4.59694">
        <ele>379</ele>
        <time>2016-12-08T14:37:34Z</time>
      </trkpt>
      <trkpt lat="45.92096" lon="4.59706">
        <ele>380</ele>
        <time>2016-12-08T14:37:43Z</time>
      </trkpt>
      <trkpt lat="45.92097" lon="4.59707">
        <ele>380</ele>
        <time>2016-12-08T14:37:44Z</time>
      </trkpt>
      <trkpt lat="45.921" lon="4.59718">
        <ele>380</ele>
        <time>2016-12-08T14:37:52Z</time>
      </trkpt>
      <trkpt lat="45.92101" lon="4.59719">
        <ele>380</ele>
        <time>2016-12-08T14:37:53Z</time>
      </trkpt>
      <trkpt lat="45.92105" lon="4.5973">
        <ele>381</ele>
        <time>2016-12-08T14:38:04Z</time>
      </trkpt>
      <trkpt lat="45.92105" lon="4.59731">
        <ele>381</ele>
        <time>2016-12-08T14:38:05Z</time>
      </trkpt>
      <trkpt lat="45.92109" lon="4.59741">
        <ele>381</ele>
        <time>2016-12-08T14:38:15Z</time>
      </trkpt>
      <trkpt lat="45.9211" lon="4.59742">
        <ele>381</ele>
        <time>2016-12-08T14:38:16Z</time>
      </trkpt>
      <trkpt lat="45.92115" lon="4.59752">
        <ele>382</ele>
        <time>2016-12-08T14:38:23Z</time>
      </trkpt>
      <trkpt lat="45.92115" lon="4.59753">
        <ele>382</ele>
        <time>2016-12-08T14:38:24Z</time>
      </trkpt>
      <trkpt lat="45.9212" lon="4.59764">
        <ele>382</ele>
        <time>2016-12-08T14:38:32Z</time>
      </trkpt>
      <trkpt lat="45.92121" lon="4.59765">
        <ele>382</ele>
        <time>2016-12-08T14:38:33Z</time>
      </trkpt>
      <trkpt lat="45.92126" lon="4.59775">
        <ele>382</ele>
        <time>2016-12-08T14:38:40Z</time>
      </trkpt>
      <trkpt lat="45.92127" lon="4.59776">
        <ele>382</ele>
        <time>2016-12-08T14:38:41Z</time>
      </trkpt>
      <trkpt lat="45.92131" lon="4.59787">
        <ele>382</ele>
        <time>2016-12-08T14:38:56Z</time>
      </trkpt>
      <trkpt lat="45.92132" lon="4.59788">
        <ele>382</ele>
        <time>2016-12-08T14:38:57Z</time>
      </trkpt>
      <trkpt lat="45.92137" lon="4.59796">
        <ele>382</ele>
        <time>2016-12-08T14:39:05Z</time>
      </trkpt>
      <trkpt lat="45.92138" lon="4.59797">
        <ele>382</ele>
        <time>2016-12-08T14:39:06Z</time>
      </trkpt>
      <trkpt lat="45.92143" lon="4.59807">
        <ele>382</ele>
        <time>2016-12-08T14:39:13Z</time>
      </trkpt>
      <trkpt lat="45.92143" lon="4.59808">
        <ele>382</ele>
        <time>2016-12-08T14:39:14Z</time>
      </trkpt>
      <trkpt lat="45.92147" lon="4.59819">
        <ele>382</ele>
        <time>2016-12-08T14:39:22Z</time>
      </trkpt>
      <trkpt lat="45.92148" lon="4.59821">
        <ele>383</ele>
        <time>2016-12-08T14:39:23Z</time>
      </trkpt>
      <trkpt lat="45.92154" lon="4.59831">
        <ele>383</ele>
        <time>2016-12-08T14:39:30Z</time>
      </trkpt>
      <trkpt lat="45.92154" lon="4.59832">
        <ele>383</ele>
        <time>2016-12-08T14:39:31Z</time>
      </trkpt>
      <trkpt lat="45.92156" lon="4.59844">
        <ele>381</ele>
        <time>2016-12-08T14:39:40Z</time>
      </trkpt>
      <trkpt lat="45.92156" lon="4.59845">
        <ele>381</ele>
        <time>2016-12-08T14:39:41Z</time>
      </trkpt>
      <trkpt lat="45.92158" lon="4.59857">
        <ele>380</ele>
        <time>2016-12-08T14:39:50Z</time>
      </trkpt>
      <trkpt lat="45.92158" lon="4.59858">
        <ele>380</ele>
        <time>2016-12-08T14:39:51Z</time>
      </trkpt>
      <trkpt lat="45.9216" lon="4.59869">
        <ele>379</ele>
        <time>2016-12-08T14:39:59Z</time>
      </trkpt>
      <trkpt lat="45.92161" lon="4.5987">
        <ele>379</ele>
        <time>2016-12-08T14:40:00Z</time>
      </trkpt>
      <trkpt lat="45.92165" lon="4.5988">
        <ele>378</ele>
        <time>2016-12-08T14:40:07Z</time>
      </trkpt>
      <trkpt lat="45.92166" lon="4.59881">
        <ele>378</ele>
        <time>2016-12-08T14:40:08Z</time>
      </trkpt>
      <trkpt lat="45.92171" lon="4.59889">
        <ele>383</ele>
        <time>2016-12-08T14:40:13Z</time>
      </trkpt>
      <trkpt lat="45.92172" lon="4.5989">
        <ele>383</ele>
        <time>2016-12-08T14:40:14Z</time>
      </trkpt>
      <trkpt lat="45.92178" lon="4.59899">
        <ele>383</ele>
        <time>2016-12-08T14:40:20Z</time>
      </trkpt>
      <trkpt lat="45.92178" lon="4.59901">
        <ele>383</ele>
        <time>2016-12-08T14:40:21Z</time>
      </trkpt>
      <trkpt lat="45.92179" lon="4.59914">
        <ele>382</ele>
        <time>2016-12-08T14:40:29Z</time>
      </trkpt>
      <trkpt lat="45.92178" lon="4.59915">
        <ele>382</ele>
        <time>2016-12-08T14:40:30Z</time>
      </trkpt>
      <trkpt lat="45.92179" lon="4.59928">
        <ele>381</ele>
        <time>2016-12-08T14:40:39Z</time>
      </trkpt>
      <trkpt lat="45.9218" lon="4.5993">
        <ele>381</ele>
        <time>2016-12-08T14:40:40Z</time>
      </trkpt>
      <trkpt lat="45.92181" lon="4.59942">
        <ele>382</ele>
        <time>2016-12-08T14:40:46Z</time>
      </trkpt>
      <trkpt lat="45.92181" lon="4.59944">
        <ele>382</ele>
        <time>2016-12-08T14:40:47Z</time>
      </trkpt>
      <trkpt lat="45.92181" lon="4.59955">
        <ele>382</ele>
        <time>2016-12-08T14:40:53Z</time>
      </trkpt>
      <trkpt lat="45.92181" lon="4.59957">
        <ele>382</ele>
        <time>2016-12-08T14:40:54Z</time>
      </trkpt>
      <trkpt lat="45.92182" lon="4.59968">
        <ele>382</ele>
        <time>2016-12-08T14:41:00Z</time>
      </trkpt>
      <trkpt lat="45.92181" lon="4.59971">
        <ele>382</ele>
        <time>2016-12-08T14:41:01Z</time>
      </trkpt>
      <trkpt lat="45.92181" lon="4.59982">
        <ele>382</ele>
        <time>2016-12-08T14:41:06Z</time>
      </trkpt>
      <trkpt lat="45.92181" lon="4.59984">
        <ele>382</ele>
        <time>2016-12-08T14:41:07Z</time>
      </trkpt>
      <trkpt lat="45.9218" lon="4.59996">
        <ele>382</ele>
        <time>2016-12-08T14:41:13Z</time>
      </trkpt>
      <trkpt lat="45.9218" lon="4.59997">
        <ele>381</ele>
        <time>2016-12-08T14:41:14Z</time>
      </trkpt>
      <trkpt lat="45.92176" lon="4.60008">
        <ele>383</ele>
        <time>2016-12-08T14:41:20Z</time>
      </trkpt>
      <trkpt lat="45.92176" lon="4.60009">
        <ele>384</ele>
        <time>2016-12-08T14:41:21Z</time>
      </trkpt>
      <trkpt lat="45.9217" lon="4.60019">
        <ele>385</ele>
        <time>2016-12-08T14:41:27Z</time>
      </trkpt>
      <trkpt lat="45.9217" lon="4.6002">
        <ele>385</ele>
        <time>2016-12-08T14:41:28Z</time>
      </trkpt>
      <trkpt lat="45.92163" lon="4.6003">
        <ele>383</ele>
        <time>2016-12-08T14:41:35Z</time>
      </trkpt>
      <trkpt lat="45.92162" lon="4.60031">
        <ele>383</ele>
        <time>2016-12-08T14:41:36Z</time>
      </trkpt>
      <trkpt lat="45.92156" lon="4.60039">
        <ele>384</ele>
        <time>2016-12-08T14:41:42Z</time>
      </trkpt>
      <trkpt lat="45.92155" lon="4.6004">
        <ele>384</ele>
        <time>2016-12-08T14:41:43Z</time>
      </trkpt>
      <trkpt lat="45.92147" lon="4.60047">
        <ele>385</ele>
        <time>2016-12-08T14:41:49Z</time>
      </trkpt>
      <trkpt lat="45.92146" lon="4.60048">
        <ele>385</ele>
        <time>2016-12-08T14:41:50Z</time>
      </trkpt>
      <trkpt lat="45.92138" lon="4.60051">
        <ele>385</ele>
        <time>2016-12-08T14:41:56Z</time>
      </trkpt>
      <trkpt lat="45.92137" lon="4.60052">
        <ele>385</ele>
        <time>2016-12-08T14:41:57Z</time>
      </trkpt>
      <trkpt lat="45.92128" lon="4.60055">
        <ele>385</ele>
        <time>2016-12-08T14:42:04Z</time>
      </trkpt>
      <trkpt lat="45.92127" lon="4.60055">
        <ele>385</ele>
        <time>2016-12-08T14:42:05Z</time>
      </trkpt>
      <trkpt lat="45.92118" lon="4.60057">
        <ele>384</ele>
        <time>2016-12-08T14:42:12Z</time>
      </trkpt>
      <trkpt lat="45.92117" lon="4.60057">
        <ele>384</ele>
        <time>2016-12-08T14:42:13Z</time>
      </trkpt>
      <trkpt lat="45.92109" lon="4.6006">
        <ele>384</ele>
        <time>2016-12-08T14:42:19Z</time>
      </trkpt>
      <trkpt lat="45.92108" lon="4.6006">
        <ele>384</ele>
        <time>2016-12-08T14:42:20Z</time>
      </trkpt>
      <trkpt lat="45.921" lon="4.60062">
        <ele>384</ele>
        <time>2016-12-08T14:42:26Z</time>
      </trkpt>
      <trkpt lat="45.92098" lon="4.60063">
        <ele>384</ele>
        <time>2016-12-08T14:42:27Z</time>
      </trkpt>
      <trkpt lat="45.9209" lon="4.60067">
        <ele>385</ele>
        <time>2016-12-08T14:42:33Z</time>
      </trkpt>
      <trkpt lat="45.92089" lon="4.60068">
        <ele>385</ele>
        <time>2016-12-08T14:42:34Z</time>
      </trkpt>
      <trkpt lat="45.92082" lon="4.60074">
        <ele>385</ele>
        <time>2016-12-08T14:42:41Z</time>
      </trkpt>
      <trkpt lat="45.92081" lon="4.60074">
        <ele>385</ele>
        <time>2016-12-08T14:42:42Z</time>
      </trkpt>
      <trkpt lat="45.92073" lon="4.60079">
        <ele>385</ele>
        <time>2016-12-08T14:42:48Z</time>
      </trkpt>
      <trkpt lat="45.92072" lon="4.6008">
        <ele>384</ele>
        <time>2016-12-08T14:42:49Z</time>
      </trkpt>
      <trkpt lat="45.92065" lon="4.60088">
        <ele>386</ele>
        <time>2016-12-08T14:42:56Z</time>
      </trkpt>
      <trkpt lat="45.92064" lon="4.60089">
        <ele>386</ele>
        <time>2016-12-08T14:42:57Z</time>
      </trkpt>
      <trkpt lat="45.9206" lon="4.60099">
        <ele>386</ele>
        <time>2016-12-08T14:43:03Z</time>
      </trkpt>
      <trkpt lat="45.92059" lon="4.60101">
        <ele>386</ele>
        <time>2016-12-08T14:43:04Z</time>
      </trkpt>
      <trkpt lat="45.92055" lon="4.60112">
        <ele>385</ele>
        <time>2016-12-08T14:43:11Z</time>
      </trkpt>
      <trkpt lat="45.92054" lon="4.60113">
        <ele>385</ele>
        <time>2016-12-08T14:43:12Z</time>
      </trkpt>
      <trkpt lat="45.9205" lon="4.60123">
        <ele>385</ele>
        <time>2016-12-08T14:43:18Z</time>
      </trkpt>
      <trkpt lat="45.92049" lon="4.60124">
        <ele>385</ele>
        <time>2016-12-08T14:43:19Z</time>
      </trkpt>
      <trkpt lat="45.92048" lon="4.60136">
        <ele>385</ele>
        <time>2016-12-08T14:43:26Z</time>
      </trkpt>
      <trkpt lat="45.92047" lon="4.60138">
        <ele>385</ele>
        <time>2016-12-08T14:43:27Z</time>
      </trkpt>
      <trkpt lat="45.92047" lon="4.6015">
        <ele>386</ele>
        <time>2016-12-08T14:43:34Z</time>
      </trkpt>
      <trkpt lat="45.92047" lon="4.60152">
        <ele>386</ele>
        <time>2016-12-08T14:43:35Z</time>
      </trkpt>
      <trkpt lat="45.92047" lon="4.60164">
        <ele>386</ele>
        <time>2016-12-08T14:43:42Z</time>
      </trkpt>
      <trkpt lat="45.92047" lon="4.60165">
        <ele>386</ele>
        <time>2016-12-08T14:43:43Z</time>
      </trkpt>
      <trkpt lat="45.92049" lon="4.60177">
        <ele>384</ele>
        <time>2016-12-08T14:43:54Z</time>
      </trkpt>
      <trkpt lat="45.92049" lon="4.60178">
        <ele>384</ele>
        <time>2016-12-08T14:43:55Z</time>
      </trkpt>
      <trkpt lat="45.92054" lon="4.60188">
        <ele>384</ele>
        <time>2016-12-08T14:44:02Z</time>
      </trkpt>
      <trkpt lat="45.92054" lon="4.60189">
        <ele>384</ele>
        <time>2016-12-08T14:44:03Z</time>
      </trkpt>
      <trkpt lat="45.92059" lon="4.60201">
        <ele>383</ele>
        <time>2016-12-08T14:44:09Z</time>
      </trkpt>
      <trkpt lat="45.92059" lon="4.60202">
        <ele>383</ele>
        <time>2016-12-08T14:44:10Z</time>
      </trkpt>
      <trkpt lat="45.92065" lon="4.60212">
        <ele>383</ele>
        <time>2016-12-08T14:44:16Z</time>
      </trkpt>
      <trkpt lat="45.92066" lon="4.60213">
        <ele>383</ele>
        <time>2016-12-08T14:44:17Z</time>
      </trkpt>
      <trkpt lat="45.9207" lon="4.60223">
        <ele>383</ele>
        <time>2016-12-08T14:44:24Z</time>
      </trkpt>
      <trkpt lat="45.92071" lon="4.60224">
        <ele>383</ele>
        <time>2016-12-08T14:44:25Z</time>
      </trkpt>
      <trkpt lat="45.92079" lon="4.60231">
        <ele>384</ele>
        <time>2016-12-08T14:44:32Z</time>
      </trkpt>
      <trkpt lat="45.9208" lon="4.60231">
        <ele>384</ele>
        <time>2016-12-08T14:44:33Z</time>
      </trkpt>
      <trkpt lat="45.92087" lon="4.60238">
        <ele>389</ele>
        <time>2016-12-08T14:44:39Z</time>
      </trkpt>
      <trkpt lat="45.92088" lon="4.60239">
        <ele>389</ele>
        <time>2016-12-08T14:44:40Z</time>
      </trkpt>
      <trkpt lat="45.92096" lon="4.60245">
        <ele>389</ele>
        <time>2016-12-08T14:44:46Z</time>
      </trkpt>
      <trkpt lat="45.92097" lon="4.60246">
        <ele>389</ele>
        <time>2016-12-08T14:44:47Z</time>
      </trkpt>
      <trkpt lat="45.92103" lon="4.60254">
        <ele>388</ele>
        <time>2016-12-08T14:44:54Z</time>
      </trkpt>
      <trkpt lat="45.92104" lon="4.60255">
        <ele>388</ele>
        <time>2016-12-08T14:44:55Z</time>
      </trkpt>
      <trkpt lat="45.92111" lon="4.60262">
        <ele>388</ele>
        <time>2016-12-08T14:45:02Z</time>
      </trkpt>
      <trkpt lat="45.92112" lon="4.60263">
        <ele>388</ele>
        <time>2016-12-08T14:45:03Z</time>
      </trkpt>
      <trkpt lat="45.92118" lon="4.60272">
        <ele>389</ele>
        <time>2016-12-08T14:45:10Z</time>
      </trkpt>
      <trkpt lat="45.92119" lon="4.60273">
        <ele>389</ele>
        <time>2016-12-08T14:45:11Z</time>
      </trkpt>
      <trkpt lat="45.92124" lon="4.60281">
        <ele>389</ele>
        <time>2016-12-08T14:45:17Z</time>
      </trkpt>
      <trkpt lat="45.92125" lon="4.60283">
        <ele>389</ele>
        <time>2016-12-08T14:45:18Z</time>
      </trkpt>
      <trkpt lat="45.92129" lon="4.60292">
        <ele>389</ele>
        <time>2016-12-08T14:45:24Z</time>
      </trkpt>
      <trkpt lat="45.92131" lon="4.60294">
        <ele>389</ele>
        <time>2016-12-08T14:45:25Z</time>
      </trkpt>
      <trkpt lat="45.92137" lon="4.60301">
        <ele>389</ele>
        <time>2016-12-08T14:45:32Z</time>
      </trkpt>
      <trkpt lat="45.92138" lon="4.60302">
        <ele>389</ele>
        <time>2016-12-08T14:45:33Z</time>
      </trkpt>
      <trkpt lat="45.92144" lon="4.6031">
        <ele>390</ele>
        <time>2016-12-08T14:45:40Z</time>
      </trkpt>
      <trkpt lat="45.92145" lon="4.60311">
        <ele>390</ele>
        <time>2016-12-08T14:45:41Z</time>
      </trkpt>
      <trkpt lat="45.92151" lon="4.60319">
        <ele>390</ele>
        <time>2016-12-08T14:45:47Z</time>
      </trkpt>
      <trkpt lat="45.92152" lon="4.60321">
        <ele>390</ele>
        <time>2016-12-08T14:45:48Z</time>
      </trkpt>
      <trkpt lat="45.92157" lon="4.6033">
        <ele>391</ele>
        <time>2016-12-08T14:45:54Z</time>
      </trkpt>
      <trkpt lat="45.92158" lon="4.60332">
        <ele>392</ele>
        <time>2016-12-08T14:45:55Z</time>
      </trkpt>
      <trkpt lat="45.92162" lon="4.60342">
        <ele>390</ele>
        <time>2016-12-08T14:46:01Z</time>
      </trkpt>
      <trkpt lat="45.92163" lon="4.60344">
        <ele>389</ele>
        <time>2016-12-08T14:46:02Z</time>
      </trkpt>
      <trkpt lat="45.92169" lon="4.60353">
        <ele>395</ele>
        <time>2016-12-08T14:46:11Z</time>
      </trkpt>
      <trkpt lat="45.92169" lon="4.60354">
        <ele>395</ele>
        <time>2016-12-08T14:46:12Z</time>
      </trkpt>
      <trkpt lat="45.92174" lon="4.60364">
        <ele>395</ele>
        <time>2016-12-08T14:46:19Z</time>
      </trkpt>
      <trkpt lat="45.92175" lon="4.60365">
        <ele>395</ele>
        <time>2016-12-08T14:46:20Z</time>
      </trkpt>
      <trkpt lat="45.9218" lon="4.60374">
        <ele>395</ele>
        <time>2016-12-08T14:46:26Z</time>
      </trkpt>
      <trkpt lat="45.92181" lon="4.60376">
        <ele>395</ele>
        <time>2016-12-08T14:46:27Z</time>
      </trkpt>
      <trkpt lat="45.92186" lon="4.60384">
        <ele>395</ele>
        <time>2016-12-08T14:46:33Z</time>
      </trkpt>
      <trkpt lat="45.92187" lon="4.60385">
        <ele>395</ele>
        <time>2016-12-08T14:46:34Z</time>
      </trkpt>
      <trkpt lat="45.92192" lon="4.60393">
        <ele>395</ele>
        <time>2016-12-08T14:46:41Z</time>
      </trkpt>
      <trkpt lat="45.92194" lon="4.60395">
        <ele>395</ele>
        <time>2016-12-08T14:46:42Z</time>
      </trkpt>
      <trkpt lat="45.92201" lon="4.60401">
        <ele>395</ele>
        <time>2016-12-08T14:46:49Z</time>
      </trkpt>
      <trkpt lat="45.92202" lon="4.60402">
        <ele>395</ele>
        <time>2016-12-08T14:46:50Z</time>
      </trkpt>
      <trkpt lat="45.92208" lon="4.6041">
        <ele>396</ele>
        <time>2016-12-08T14:46:56Z</time>
      </trkpt>
      <trkpt lat="45.92209" lon="4.60412">
        <ele>396</ele>
        <time>2016-12-08T14:46:57Z</time>
      </trkpt>
      <trkpt lat="45.92215" lon="4.6042">
        <ele>392</ele>
        <time>2016-12-08T14:47:02Z</time>
      </trkpt>
      <trkpt lat="45.92216" lon="4.60421">
        <ele>393</ele>
        <time>2016-12-08T14:47:03Z</time>
      </trkpt>
      <trkpt lat="45.92222" lon="4.60428">
        <ele>393</ele>
        <time>2016-12-08T14:47:09Z</time>
      </trkpt>
      <trkpt lat="45.92223" lon="4.60429">
        <ele>393</ele>
        <time>2016-12-08T14:47:10Z</time>
      </trkpt>
      <trkpt lat="45.92229" lon="4.60437">
        <ele>394</ele>
        <time>2016-12-08T14:47:17Z</time>
      </trkpt>
      <trkpt lat="45.9223" lon="4.60438">
        <ele>394</ele>
        <time>2016-12-08T14:47:18Z</time>
      </trkpt>
      <trkpt lat="45.92237" lon="4.60443">
        <ele>394</ele>
        <time>2016-12-08T14:47:25Z</time>
      </trkpt>
      <trkpt lat="45.92238" lon="4.60444">
        <ele>394</ele>
        <time>2016-12-08T14:47:26Z</time>
      </trkpt>
      <trkpt lat="45.92244" lon="4.60452">
        <ele>393</ele>
        <time>2016-12-08T14:47:33Z</time>
      </trkpt>
      <trkpt lat="45.92245" lon="4.60453">
        <ele>393</ele>
        <time>2016-12-08T14:47:34Z</time>
      </trkpt>
      <trkpt lat="45.92251" lon="4.60462">
        <ele>401</ele>
        <time>2016-12-08T14:47:41Z</time>
      </trkpt>
      <trkpt lat="45.92252" lon="4.60464">
        <ele>401</ele>
        <time>2016-12-08T14:47:42Z</time>
      </trkpt>
      <trkpt lat="45.92258" lon="4.60472">
        <ele>400</ele>
        <time>2016-12-08T14:47:50Z</time>
      </trkpt>
      <trkpt lat="45.92259" lon="4.60473">
        <ele>400</ele>
        <time>2016-12-08T14:47:51Z</time>
      </trkpt>
      <trkpt lat="45.92265" lon="4.60481">
        <ele>400</ele>
        <time>2016-12-08T14:47:59Z</time>
      </trkpt>
      <trkpt lat="45.92266" lon="4.60482">
        <ele>400</ele>
        <time>2016-12-08T14:48:00Z</time>
      </trkpt>
      <trkpt lat="45.92273" lon="4.60487">
        <ele>400</ele>
        <time>2016-12-08T14:48:07Z</time>
      </trkpt>
      <trkpt lat="45.92274" lon="4.60488">
        <ele>400</ele>
        <time>2016-12-08T14:48:08Z</time>
      </trkpt>
      <trkpt lat="45.92281" lon="4.60494">
        <ele>401</ele>
        <time>2016-12-08T14:48:15Z</time>
      </trkpt>
      <trkpt lat="45.92282" lon="4.60495">
        <ele>401</ele>
        <time>2016-12-08T14:48:16Z</time>
      </trkpt>
      <trkpt lat="45.9229" lon="4.605">
        <ele>397</ele>
        <time>2016-12-08T14:48:24Z</time>
      </trkpt>
      <trkpt lat="45.92291" lon="4.60501">
        <ele>397</ele>
        <time>2016-12-08T14:48:25Z</time>
      </trkpt>
      <trkpt lat="45.92299" lon="4.60506">
        <ele>398</ele>
        <time>2016-12-08T14:48:32Z</time>
      </trkpt>
      <trkpt lat="45.923" lon="4.60506">
        <ele>399</ele>
        <time>2016-12-08T14:48:33Z</time>
      </trkpt>
      <trkpt lat="45.92308" lon="4.6051">
        <ele>400</ele>
        <time>2016-12-08T14:48:41Z</time>
      </trkpt>
      <trkpt lat="45.92309" lon="4.60511">
        <ele>400</ele>
        <time>2016-12-08T14:48:42Z</time>
      </trkpt>
      <trkpt lat="45.92318" lon="4.60515">
        <ele>401</ele>
        <time>2016-12-08T14:48:49Z</time>
      </trkpt>
      <trkpt lat="45.92319" lon="4.60515">
        <ele>401</ele>
        <time>2016-12-08T14:48:50Z</time>
      </trkpt>
      <trkpt lat="45.92326" lon="4.60521">
        <ele>401</ele>
        <time>2016-12-08T14:48:57Z</time>
      </trkpt>
      <trkpt lat="45.92327" lon="4.60523">
        <ele>401</ele>
        <time>2016-12-08T14:48:58Z</time>
      </trkpt>
      <trkpt lat="45.92333" lon="4.60531">
        <ele>400</ele>
        <time>2016-12-08T14:49:04Z</time>
      </trkpt>
      <trkpt lat="45.92334" lon="4.60532">
        <ele>409</ele>
        <time>2016-12-08T14:49:05Z</time>
      </trkpt>
      <trkpt lat="45.9234" lon="4.60541">
        <ele>408</ele>
        <time>2016-12-08T14:49:12Z</time>
      </trkpt>
      <trkpt lat="45.92341" lon="4.60542">
        <ele>408</ele>
        <time>2016-12-08T14:49:13Z</time>
      </trkpt>
      <trkpt lat="45.92347" lon="4.6055">
        <ele>408</ele>
        <time>2016-12-08T14:49:20Z</time>
      </trkpt>
      <trkpt lat="45.92348" lon="4.60552">
        <ele>408</ele>
        <time>2016-12-08T14:49:21Z</time>
      </trkpt>
      <trkpt lat="45.92352" lon="4.60562">
        <ele>407</ele>
        <time>2016-12-08T14:49:28Z</time>
      </trkpt>
      <trkpt lat="45.92353" lon="4.60563">
        <ele>407</ele>
        <time>2016-12-08T14:49:29Z</time>
      </trkpt>
      <trkpt lat="45.92356" lon="4.60573">
        <ele>407</ele>
        <time>2016-12-08T14:49:36Z</time>
      </trkpt>
      <trkpt lat="45.92357" lon="4.60575">
        <ele>407</ele>
        <time>2016-12-08T14:49:37Z</time>
      </trkpt>
      <trkpt lat="45.92361" lon="4.60585">
        <ele>405</ele>
        <time>2016-12-08T14:49:43Z</time>
      </trkpt>
      <trkpt lat="45.92362" lon="4.60586">
        <ele>405</ele>
        <time>2016-12-08T14:49:44Z</time>
      </trkpt>
      <trkpt lat="45.92365" lon="4.60598">
        <ele>406</ele>
        <time>2016-12-08T14:49:50Z</time>
      </trkpt>
      <trkpt lat="45.92366" lon="4.606">
        <ele>406</ele>
        <time>2016-12-08T14:49:51Z</time>
      </trkpt>
      <trkpt lat="45.9237" lon="4.6061">
        <ele>407</ele>
        <time>2016-12-08T14:49:58Z</time>
      </trkpt>
      <trkpt lat="45.92371" lon="4.60611">
        <ele>407</ele>
        <time>2016-12-08T14:49:59Z</time>
      </trkpt>
      <trkpt lat="45.92374" lon="4.60622">
        <ele>407</ele>
        <time>2016-12-08T14:50:07Z</time>
      </trkpt>
      <trkpt lat="45.92374" lon="4.60623">
        <ele>407</ele>
        <time>2016-12-08T14:50:08Z</time>
      </trkpt>
      <trkpt lat="45.92378" lon="4.60633">
        <ele>407</ele>
        <time>2016-12-08T14:50:18Z</time>
      </trkpt>
      <trkpt lat="45.92379" lon="4.60635">
        <ele>407</ele>
        <time>2016-12-08T14:50:19Z</time>
      </trkpt>
      <trkpt lat="45.92382" lon="4.60645">
        <ele>408</ele>
        <time>2016-12-08T14:50:24Z</time>
      </trkpt>
      <trkpt lat="45.92383" lon="4.60647">
        <ele>408</ele>
        <time>2016-12-08T14:50:25Z</time>
      </trkpt>
      <trkpt lat="45.92386" lon="4.60657">
        <ele>408</ele>
        <time>2016-12-08T14:50:31Z</time>
      </trkpt>
      <trkpt lat="45.92387" lon="4.60659">
        <ele>408</ele>
        <time>2016-12-08T14:50:32Z</time>
      </trkpt>
      <trkpt lat="45.9239" lon="4.60669">
        <ele>408</ele>
        <time>2016-12-08T14:50:38Z</time>
      </trkpt>
      <trkpt lat="45.9239" lon="4.60671">
        <ele>408</ele>
        <time>2016-12-08T14:50:39Z</time>
      </trkpt>
      <trkpt lat="45.92394" lon="4.60681">
        <ele>408</ele>
        <time>2016-12-08T14:50:45Z</time>
      </trkpt>
      <trkpt lat="45.92394" lon="4.60682">
        <ele>408</ele>
        <time>2016-12-08T14:50:46Z</time>
      </trkpt>
      <trkpt lat="45.92398" lon="4.60693">
        <ele>407</ele>
        <time>2016-12-08T14:50:53Z</time>
      </trkpt>
      <trkpt lat="45.92399" lon="4.60695">
        <ele>407</ele>
        <time>2016-12-08T14:50:54Z</time>
      </trkpt>
      <trkpt lat="45.92403" lon="4.60705">
        <ele>407</ele>
        <time>2016-12-08T14:51:02Z</time>
      </trkpt>
      <trkpt lat="45.92404" lon="4.60706">
        <ele>407</ele>
        <time>2016-12-08T14:51:03Z</time>
      </trkpt>
      <trkpt lat="45.92409" lon="4.60715">
        <ele>407</ele>
        <time>2016-12-08T14:51:11Z</time>
      </trkpt>
      <trkpt lat="45.9241" lon="4.60716">
        <ele>407</ele>
        <time>2016-12-08T14:51:12Z</time>
      </trkpt>
      <trkpt lat="45.92416" lon="4.60725">
        <ele>406</ele>
        <time>2016-12-08T14:51:19Z</time>
      </trkpt>
      <trkpt lat="45.92416" lon="4.60726">
        <ele>406</ele>
        <time>2016-12-08T14:51:20Z</time>
      </trkpt>
      <trkpt lat="45.92422" lon="4.60735">
        <ele>411</ele>
        <time>2016-12-08T14:51:27Z</time>
      </trkpt>
      <trkpt lat="45.92423" lon="4.60736">
        <ele>411</ele>
        <time>2016-12-08T14:51:28Z</time>
      </trkpt>
      <trkpt lat="45.9243" lon="4.60745">
        <ele>411</ele>
        <time>2016-12-08T14:51:35Z</time>
      </trkpt>
      <trkpt lat="45.92431" lon="4.60746">
        <ele>411</ele>
        <time>2016-12-08T14:51:36Z</time>
      </trkpt>
      <trkpt lat="45.92437" lon="4.60753">
        <ele>410</ele>
        <time>2016-12-08T14:51:43Z</time>
      </trkpt>
      <trkpt lat="45.92438" lon="4.60754">
        <ele>410</ele>
        <time>2016-12-08T14:51:44Z</time>
      </trkpt>
      <trkpt lat="45.92445" lon="4.60761">
        <ele>411</ele>
        <time>2016-12-08T14:51:51Z</time>
      </trkpt>
      <trkpt lat="45.92446" lon="4.60762">
        <ele>411</ele>
        <time>2016-12-08T14:51:52Z</time>
      </trkpt>
      <trkpt lat="45.92452" lon="4.60769">
        <ele>411</ele>
        <time>2016-12-08T14:51:59Z</time>
      </trkpt>
      <trkpt lat="45.92453" lon="4.6077">
        <ele>411</ele>
        <time>2016-12-08T14:52:00Z</time>
      </trkpt>
      <trkpt lat="45.92459" lon="4.60778">
        <ele>412</ele>
        <time>2016-12-08T14:52:07Z</time>
      </trkpt>
      <trkpt lat="45.9246" lon="4.60779">
        <ele>412</ele>
        <time>2016-12-08T14:52:08Z</time>
      </trkpt>
      <trkpt lat="45.92467" lon="4.60786">
        <ele>412</ele>
        <time>2016-12-08T14:52:15Z</time>
      </trkpt>
      <trkpt lat="45.92469" lon="4.60786">
        <ele>412</ele>
        <time>2016-12-08T14:52:16Z</time>
      </trkpt>
      <trkpt lat="45.92475" lon="4.60794">
        <ele>412</ele>
        <time>2016-12-08T14:52:23Z</time>
      </trkpt>
      <trkpt lat="45.92476" lon="4.60795">
        <ele>412</ele>
        <time>2016-12-08T14:52:24Z</time>
      </trkpt>
      <trkpt lat="45.92481" lon="4.60804">
        <ele>412</ele>
        <time>2016-12-08T14:52:31Z</time>
      </trkpt>
      <trkpt lat="45.92482" lon="4.60805">
        <ele>412</ele>
        <time>2016-12-08T14:52:32Z</time>
      </trkpt>
      <trkpt lat="45.92487" lon="4.60814">
        <ele>413</ele>
        <time>2016-12-08T14:52:38Z</time>
      </trkpt>
      <trkpt lat="45.92487" lon="4.60816">
        <ele>413</ele>
        <time>2016-12-08T14:52:39Z</time>
      </trkpt>
      <trkpt lat="45.92492" lon="4.60826">
        <ele>413</ele>
        <time>2016-12-08T14:52:46Z</time>
      </trkpt>
      <trkpt lat="45.92492" lon="4.60828">
        <ele>413</ele>
        <time>2016-12-08T14:52:47Z</time>
      </trkpt>
      <trkpt lat="45.92495" lon="4.60839">
        <ele>413</ele>
        <time>2016-12-08T14:52:53Z</time>
      </trkpt>
      <trkpt lat="45.92495" lon="4.60841">
        <ele>413</ele>
        <time>2016-12-08T14:52:54Z</time>
      </trkpt>
      <trkpt lat="45.92498" lon="4.60852">
        <ele>413</ele>
        <time>2016-12-08T14:53:00Z</time>
      </trkpt>
      <trkpt lat="45.92498" lon="4.60854">
        <ele>412</ele>
        <time>2016-12-08T14:53:01Z</time>
      </trkpt>
      <trkpt lat="45.92499" lon="4.60866">
        <ele>412</ele>
        <time>2016-12-08T14:53:07Z</time>
      </trkpt>
      <trkpt lat="45.925" lon="4.60868">
        <ele>412</ele>
        <time>2016-12-08T14:53:08Z</time>
      </trkpt>
      <trkpt lat="45.92501" lon="4.60881">
        <ele>416</ele>
        <time>2016-12-08T14:53:15Z</time>
      </trkpt>
      <trkpt lat="45.92501" lon="4.60882">
        <ele>416</ele>
        <time>2016-12-08T14:53:16Z</time>
      </trkpt>
      <trkpt lat="45.92501" lon="4.60894">
        <ele>415</ele>
        <time>2016-12-08T14:53:22Z</time>
      </trkpt>
      <trkpt lat="45.92501" lon="4.60896">
        <ele>415</ele>
        <time>2016-12-08T14:53:23Z</time>
      </trkpt>
      <trkpt lat="45.92501" lon="4.60908">
        <ele>414</ele>
        <time>2016-12-08T14:53:30Z</time>
      </trkpt>
      <trkpt lat="45.92501" lon="4.6091">
        <ele>414</ele>
        <time>2016-12-08T14:53:31Z</time>
      </trkpt>
      <trkpt lat="45.925" lon="4.60921">
        <ele>413</ele>
        <time>2016-12-08T14:53:38Z</time>
      </trkpt>
      <trkpt lat="45.92499" lon="4.60923">
        <ele>413</ele>
        <time>2016-12-08T14:53:39Z</time>
      </trkpt>
      <trkpt lat="45.92498" lon="4.60934">
        <ele>414</ele>
        <time>2016-12-08T14:53:46Z</time>
      </trkpt>
      <trkpt lat="45.92498" lon="4.60936">
        <ele>414</ele>
        <time>2016-12-08T14:53:47Z</time>
      </trkpt>
      <trkpt lat="45.92496" lon="4.60947">
        <ele>414</ele>
        <time>2016-12-08T14:53:54Z</time>
      </trkpt>
      <trkpt lat="45.92496" lon="4.60948">
        <ele>414</ele>
        <time>2016-12-08T14:53:55Z</time>
      </trkpt>
      <trkpt lat="45.92494" lon="4.60961">
        <ele>415</ele>
        <time>2016-12-08T14:54:03Z</time>
      </trkpt>
      <trkpt lat="45.92494" lon="4.60962">
        <ele>415</ele>
        <time>2016-12-08T14:54:04Z</time>
      </trkpt>
      <trkpt lat="45.92492" lon="4.60974">
        <ele>415</ele>
        <time>2016-12-08T14:54:12Z</time>
      </trkpt>
      <trkpt lat="45.92492" lon="4.60975">
        <ele>415</ele>
        <time>2016-12-08T14:54:13Z</time>
      </trkpt>
      <trkpt lat="45.92492" lon="4.60987">
        <ele>416</ele>
        <time>2016-12-08T14:54:22Z</time>
      </trkpt>
      <trkpt lat="45.92491" lon="4.60989">
        <ele>416</ele>
        <time>2016-12-08T14:54:23Z</time>
      </trkpt>
      <trkpt lat="45.92492" lon="4.61001">
        <ele>417</ele>
        <time>2016-12-08T14:54:31Z</time>
      </trkpt>
      <trkpt lat="45.92492" lon="4.61003">
        <ele>417</ele>
        <time>2016-12-08T14:54:32Z</time>
      </trkpt>
      <trkpt lat="45.92496" lon="4.61014">
        <ele>418</ele>
        <time>2016-12-08T14:54:39Z</time>
      </trkpt>
      <trkpt lat="45.92496" lon="4.61015">
        <ele>418</ele>
        <time>2016-12-08T14:54:40Z</time>
      </trkpt>
      <trkpt lat="45.92501" lon="4.61025">
        <ele>418</ele>
        <time>2016-12-08T14:54:47Z</time>
      </trkpt>
      <trkpt lat="45.92501" lon="4.61027">
        <ele>418</ele>
        <time>2016-12-08T14:54:48Z</time>
      </trkpt>
      <trkpt lat="45.92505" lon="4.61037">
        <ele>419</ele>
        <time>2016-12-08T14:54:55Z</time>
      </trkpt>
      <trkpt lat="45.92505" lon="4.61038">
        <ele>419</ele>
        <time>2016-12-08T14:54:56Z</time>
      </trkpt>
      <trkpt lat="45.92509" lon="4.61049">
        <ele>419</ele>
        <time>2016-12-08T14:55:04Z</time>
      </trkpt>
      <trkpt lat="45.92509" lon="4.61051">
        <ele>419</ele>
        <time>2016-12-08T14:55:05Z</time>
      </trkpt>
      <trkpt lat="45.92513" lon="4.61061">
        <ele>419</ele>
        <time>2016-12-08T14:55:11Z</time>
      </trkpt>
      <trkpt lat="45.92514" lon="4.61063">
        <ele>419</ele>
        <time>2016-12-08T14:55:12Z</time>
      </trkpt>
      <trkpt lat="45.92519" lon="4.61072">
        <ele>419</ele>
        <time>2016-12-08T14:55:18Z</time>
      </trkpt>
      <trkpt lat="45.9252" lon="4.61074">
        <ele>419</ele>
        <time>2016-12-08T14:55:19Z</time>
      </trkpt>
      <trkpt lat="45.92523" lon="4.61085">
        <ele>418</ele>
        <time>2016-12-08T14:55:25Z</time>
      </trkpt>
      <trkpt lat="45.92524" lon="4.61087">
        <ele>418</ele>
        <time>2016-12-08T14:55:26Z</time>
      </trkpt>
      <trkpt lat="45.92527" lon="4.61098">
        <ele>418</ele>
        <time>2016-12-08T14:55:34Z</time>
      </trkpt>
      <trkpt lat="45.92528" lon="4.61099">
        <ele>418</ele>
        <time>2016-12-08T14:55:35Z</time>
      </trkpt>
      <trkpt lat="45.92532" lon="4.6111">
        <ele>417</ele>
        <time>2016-12-08T14:55:42Z</time>
      </trkpt>
      <trkpt lat="45.92532" lon="4.61111">
        <ele>417</ele>
        <time>2016-12-08T14:55:43Z</time>
      </trkpt>
      <trkpt lat="45.92536" lon="4.61122">
        <ele>417</ele>
        <time>2016-12-08T14:55:51Z</time>
      </trkpt>
      <trkpt lat="45.92536" lon="4.61124">
        <ele>417</ele>
        <time>2016-12-08T14:55:52Z</time>
      </trkpt>
      <trkpt lat="45.92529" lon="4.61131">
        <ele>417</ele>
        <time>2016-12-08T14:56:00Z</time>
      </trkpt>
      <trkpt lat="45.92528" lon="4.61132">
        <ele>417</ele>
        <time>2016-12-08T14:56:01Z</time>
      </trkpt>
      <trkpt lat="45.9252" lon="4.61134">
        <ele>417</ele>
        <time>2016-12-08T14:56:08Z</time>
      </trkpt>
      <trkpt lat="45.92519" lon="4.61135">
        <ele>417</ele>
        <time>2016-12-08T14:56:09Z</time>
      </trkpt>
      <trkpt lat="45.92511" lon="4.61138">
        <ele>416</ele>
        <time>2016-12-08T14:56:16Z</time>
      </trkpt>
      <trkpt lat="45.9251" lon="4.61139">
        <ele>416</ele>
        <time>2016-12-08T14:56:17Z</time>
      </trkpt>
      <trkpt lat="45.92503" lon="4.61143">
        <ele>416</ele>
        <time>2016-12-08T14:56:24Z</time>
      </trkpt>
      <trkpt lat="45.92502" lon="4.61145">
        <ele>416</ele>
        <time>2016-12-08T14:56:25Z</time>
      </trkpt>
      <trkpt lat="45.92499" lon="4.61156">
        <ele>415</ele>
        <time>2016-12-08T14:56:33Z</time>
      </trkpt>
      <trkpt lat="45.92499" lon="4.61158">
        <ele>415</ele>
        <time>2016-12-08T14:56:34Z</time>
      </trkpt>
      <trkpt lat="45.92498" lon="4.6117">
        <ele>413</ele>
        <time>2016-12-08T14:56:42Z</time>
      </trkpt>
      <trkpt lat="45.92498" lon="4.61171">
        <ele>413</ele>
        <time>2016-12-08T14:56:43Z</time>
      </trkpt>
      <trkpt lat="45.92497" lon="4.61183">
        <ele>412</ele>
        <time>2016-12-08T14:56:50Z</time>
      </trkpt>
      <trkpt lat="45.92497" lon="4.61184">
        <ele>412</ele>
        <time>2016-12-08T14:56:51Z</time>
      </trkpt>
      <trkpt lat="45.92497" lon="4.61197">
        <ele>411</ele>
        <time>2016-12-08T14:56:58Z</time>
      </trkpt>
      <trkpt lat="45.92497" lon="4.61198">
        <ele>410</ele>
        <time>2016-12-08T14:56:59Z</time>
      </trkpt>
      <trkpt lat="45.92496" lon="4.6121">
        <ele>409</ele>
        <time>2016-12-08T14:57:06Z</time>
      </trkpt>
      <trkpt lat="45.92496" lon="4.61211">
        <ele>409</ele>
        <time>2016-12-08T14:57:07Z</time>
      </trkpt>
      <trkpt lat="45.92497" lon="4.61223">
        <ele>408</ele>
        <time>2016-12-08T14:57:14Z</time>
      </trkpt>
      <trkpt lat="45.92497" lon="4.61225">
        <ele>408</ele>
        <time>2016-12-08T14:57:15Z</time>
      </trkpt>
      <trkpt lat="45.92498" lon="4.61236">
        <ele>406</ele>
        <time>2016-12-08T14:57:22Z</time>
      </trkpt>
      <trkpt lat="45.92498" lon="4.61238">
        <ele>406</ele>
        <time>2016-12-08T14:57:23Z</time>
      </trkpt>
      <trkpt lat="45.92499" lon="4.6125">
        <ele>403</ele>
        <time>2016-12-08T14:57:30Z</time>
      </trkpt>
      <trkpt lat="45.92499" lon="4.61252">
        <ele>403</ele>
        <time>2016-12-08T14:57:31Z</time>
      </trkpt>
      <trkpt lat="45.92501" lon="4.61264">
        <ele>402</ele>
        <time>2016-12-08T14:57:38Z</time>
      </trkpt>
      <trkpt lat="45.92501" lon="4.61266">
        <ele>402</ele>
        <time>2016-12-08T14:57:39Z</time>
      </trkpt>
      <trkpt lat="45.92502" lon="4.61278">
        <ele>402</ele>
        <time>2016-12-08T14:57:46Z</time>
      </trkpt>
      <trkpt lat="45.92502" lon="4.6128">
        <ele>402</ele>
        <time>2016-12-08T14:57:47Z</time>
      </trkpt>
      <trkpt lat="45.92503" lon="4.61291">
        <ele>401</ele>
        <time>2016-12-08T14:57:54Z</time>
      </trkpt>
      <trkpt lat="45.92503" lon="4.61293">
        <ele>401</ele>
        <time>2016-12-08T14:57:55Z</time>
      </trkpt>
      <trkpt lat="45.92505" lon="4.61305">
        <ele>400</ele>
        <time>2016-12-08T14:58:03Z</time>
      </trkpt>
      <trkpt lat="45.92505" lon="4.61306">
        <ele>400</ele>
        <time>2016-12-08T14:58:04Z</time>
      </trkpt>
      <trkpt lat="45.92507" lon="4.61317">
        <ele>399</ele>
        <time>2016-12-08T14:58:11Z</time>
      </trkpt>
      <trkpt lat="45.92507" lon="4.61319">
        <ele>399</ele>
        <time>2016-12-08T14:58:12Z</time>
      </trkpt>
      <trkpt lat="45.92509" lon="4.6133">
        <ele>398</ele>
        <time>2016-12-08T14:58:19Z</time>
      </trkpt>
      <trkpt lat="45.92509" lon="4.61332">
        <ele>398</ele>
        <time>2016-12-08T14:58:20Z</time>
      </trkpt>
      <trkpt lat="45.9251" lon="4.61344">
        <ele>396</ele>
        <time>2016-12-08T14:58:27Z</time>
      </trkpt>
      <trkpt lat="45.9251" lon="4.61345">
        <ele>396</ele>
        <time>2016-12-08T14:58:28Z</time>
      </trkpt>
      <trkpt lat="45.9251" lon="4.61358">
        <ele>395</ele>
        <time>2016-12-08T14:58:36Z</time>
      </trkpt>
      <trkpt lat="45.9251" lon="4.6136">
        <ele>395</ele>
        <time>2016-12-08T14:58:37Z</time>
      </trkpt>
      <trkpt lat="45.9251" lon="4.61372">
        <ele>394</ele>
        <time>2016-12-08T14:58:44Z</time>
      </trkpt>
      <trkpt lat="45.9251" lon="4.61373">
        <ele>394</ele>
        <time>2016-12-08T14:58:45Z</time>
      </trkpt>
      <trkpt lat="45.9251" lon="4.61384">
        <ele>393</ele>
        <time>2016-12-08T14:58:52Z</time>
      </trkpt>
      <trkpt lat="45.9251" lon="4.61386">
        <ele>393</ele>
        <time>2016-12-08T14:58:53Z</time>
      </trkpt>
      <trkpt lat="45.92509" lon="4.61398">
        <ele>392</ele>
        <time>2016-12-08T14:59:00Z</time>
      </trkpt>
      <trkpt lat="45.92509" lon="4.614">
        <ele>391</ele>
        <time>2016-12-08T14:59:01Z</time>
      </trkpt>
      <trkpt lat="45.92508" lon="4.61412">
        <ele>389</ele>
        <time>2016-12-08T14:59:08Z</time>
      </trkpt>
      <trkpt lat="45.92507" lon="4.61413">
        <ele>389</ele>
        <time>2016-12-08T14:59:09Z</time>
      </trkpt>
      <trkpt lat="45.92507" lon="4.61426">
        <ele>387</ele>
        <time>2016-12-08T14:59:16Z</time>
      </trkpt>
      <trkpt lat="45.92507" lon="4.61427">
        <ele>387</ele>
        <time>2016-12-08T14:59:17Z</time>
      </trkpt>
      <trkpt lat="45.92507" lon="4.61439">
        <ele>387</ele>
        <time>2016-12-08T14:59:24Z</time>
      </trkpt>
      <trkpt lat="45.92507" lon="4.61441">
        <ele>387</ele>
        <time>2016-12-08T14:59:25Z</time>
      </trkpt>
      <trkpt lat="45.92508" lon="4.61452">
        <ele>387</ele>
        <time>2016-12-08T14:59:31Z</time>
      </trkpt>
      <trkpt lat="45.92508" lon="4.61454">
        <ele>387</ele>
        <time>2016-12-08T14:59:32Z</time>
      </trkpt>
      <trkpt lat="45.92509" lon="4.61465">
        <ele>387</ele>
        <time>2016-12-08T14:59:38Z</time>
      </trkpt>
      <trkpt lat="45.9251" lon="4.61467">
        <ele>387</ele>
        <time>2016-12-08T14:59:39Z</time>
      </trkpt>
      <trkpt lat="45.92512" lon="4.61478">
        <ele>386</ele>
        <time>2016-12-08T14:59:45Z</time>
      </trkpt>
      <trkpt lat="45.92512" lon="4.6148">
        <ele>386</ele>
        <time>2016-12-08T14:59:46Z</time>
      </trkpt>
      <trkpt lat="45.92515" lon="4.61491">
        <ele>385</ele>
        <time>2016-12-08T14:59:52Z</time>
      </trkpt>
      <trkpt lat="45.92515" lon="4.61492">
        <ele>385</ele>
        <time>2016-12-08T14:59:53Z</time>
      </trkpt>
      <trkpt lat="45.92518" lon="4.61504">
        <ele>383</ele>
        <time>2016-12-08T15:00:00Z</time>
      </trkpt>
      <trkpt lat="45.92519" lon="4.61505">
        <ele>383</ele>
        <time>2016-12-08T15:00:01Z</time>
      </trkpt>
      <trkpt lat="45.92524" lon="4.61516">
        <ele>383</ele>
        <time>2016-12-08T15:00:08Z</time>
      </trkpt>
      <trkpt lat="45.92525" lon="4.61517">
        <ele>383</ele>
        <time>2016-12-08T15:00:09Z</time>
      </trkpt>
      <trkpt lat="45.92529" lon="4.61527">
        <ele>383</ele>
        <time>2016-12-08T15:00:15Z</time>
      </trkpt>
      <trkpt lat="45.9253" lon="4.61528">
        <ele>383</ele>
        <time>2016-12-08T15:00:16Z</time>
      </trkpt>
      <trkpt lat="45.92535" lon="4.61539">
        <ele>382</ele>
        <time>2016-12-08T15:00:23Z</time>
      </trkpt>
      <trkpt lat="45.92535" lon="4.61539">
        <ele>382</ele>
        <time>2016-12-08T15:00:24Z</time>
      </trkpt>
      <trkpt lat="45.9254" lon="4.61548">
        <ele>382</ele>
        <time>2016-12-08T15:00:36Z</time>
      </trkpt>
      <trkpt lat="45.9254" lon="4.6155">
        <ele>382</ele>
        <time>2016-12-08T15:00:37Z</time>
      </trkpt>
      <trkpt lat="45.92546" lon="4.6156">
        <ele>382</ele>
        <time>2016-12-08T15:00:45Z</time>
      </trkpt>
      <trkpt lat="45.92546" lon="4.61561">
        <ele>382</ele>
        <time>2016-12-08T15:00:46Z</time>
      </trkpt>
      <trkpt lat="45.92551" lon="4.6157">
        <ele>382</ele>
        <time>2016-12-08T15:00:53Z</time>
      </trkpt>
      <trkpt lat="45.92552" lon="4.61572">
        <ele>382</ele>
        <time>2016-12-08T15:00:54Z</time>
      </trkpt>
      <trkpt lat="45.92557" lon="4.61581">
        <ele>382</ele>
        <time>2016-12-08T15:01:01Z</time>
      </trkpt>
      <trkpt lat="45.92558" lon="4.61582">
        <ele>382</ele>
        <time>2016-12-08T15:01:02Z</time>
      </trkpt>
      <trkpt lat="45.92563" lon="4.61591">
        <ele>378</ele>
        <time>2016-12-08T15:01:37Z</time>
      </trkpt>
      <trkpt lat="45.92564" lon="4.61593">
        <ele>378</ele>
        <time>2016-12-08T15:01:38Z</time>
      </trkpt>
      <trkpt lat="45.9257" lon="4.61602">
        <ele>378</ele>
        <time>2016-12-08T15:01:45Z</time>
      </trkpt>
      <trkpt lat="45.92571" lon="4.61603">
        <ele>377</ele>
        <time>2016-12-08T15:01:46Z</time>
      </trkpt>
      <trkpt lat="45.92576" lon="4.61613">
        <ele>377</ele>
        <time>2016-12-08T15:01:53Z</time>
      </trkpt>
      <trkpt lat="45.92576" lon="4.61615">
        <ele>376</ele>
        <time>2016-12-08T15:01:54Z</time>
      </trkpt>
      <trkpt lat="45.9258" lon="4.61626">
        <ele>375</ele>
        <time>2016-12-08T15:02:01Z</time>
      </trkpt>
      <trkpt lat="45.9258" lon="4.61627">
        <ele>375</ele>
        <time>2016-12-08T15:02:02Z</time>
      </trkpt>
      <trkpt lat="45.92581" lon="4.61638">
        <ele>374</ele>
        <time>2016-12-08T15:02:10Z</time>
      </trkpt>
      <trkpt lat="45.92581" lon="4.6164">
        <ele>374</ele>
        <time>2016-12-08T15:02:11Z</time>
      </trkpt>
      <trkpt lat="45.92581" lon="4.61652">
        <ele>373</ele>
        <time>2016-12-08T15:02:18Z</time>
      </trkpt>
      <trkpt lat="45.92581" lon="4.61654">
        <ele>373</ele>
        <time>2016-12-08T15:02:19Z</time>
      </trkpt>
      <trkpt lat="45.92581" lon="4.61666">
        <ele>371</ele>
        <time>2016-12-08T15:02:27Z</time>
      </trkpt>
      <trkpt lat="45.92581" lon="4.61668">
        <ele>371</ele>
        <time>2016-12-08T15:02:28Z</time>
      </trkpt>
      <trkpt lat="45.92582" lon="4.61679">
        <ele>370</ele>
        <time>2016-12-08T15:02:35Z</time>
      </trkpt>
      <trkpt lat="45.92582" lon="4.61681">
        <ele>370</ele>
        <time>2016-12-08T15:02:36Z</time>
      </trkpt>
      <trkpt lat="45.92583" lon="4.61693">
        <ele>370</ele>
        <time>2016-12-08T15:02:44Z</time>
      </trkpt>
      <trkpt lat="45.92583" lon="4.61695">
        <ele>372</ele>
        <time>2016-12-08T15:02:45Z</time>
      </trkpt>
      <trkpt lat="45.92584" lon="4.61707">
        <ele>372</ele>
        <time>2016-12-08T15:02:53Z</time>
      </trkpt>
      <trkpt lat="45.92585" lon="4.61708">
        <ele>372</ele>
        <time>2016-12-08T15:02:54Z</time>
      </trkpt>
      <trkpt lat="45.92587" lon="4.61719">
        <ele>372</ele>
        <time>2016-12-08T15:03:01Z</time>
      </trkpt>
      <trkpt lat="45.92587" lon="4.61721">
        <ele>372</ele>
        <time>2016-12-08T15:03:02Z</time>
      </trkpt>
      <trkpt lat="45.92588" lon="4.61732">
        <ele>372</ele>
        <time>2016-12-08T15:03:09Z</time>
      </trkpt>
      <trkpt lat="45.92588" lon="4.61734">
        <ele>372</ele>
        <time>2016-12-08T15:03:10Z</time>
      </trkpt>
      <trkpt lat="45.92586" lon="4.61745">
        <ele>371</ele>
        <time>2016-12-08T15:03:38Z</time>
      </trkpt>
      <trkpt lat="45.92586" lon="4.61746">
        <ele>371</ele>
        <time>2016-12-08T15:03:39Z</time>
      </trkpt>
      <trkpt lat="45.92583" lon="4.61758">
        <ele>369</ele>
        <time>2016-12-08T15:03:50Z</time>
      </trkpt>
      <trkpt lat="45.92583" lon="4.61759">
        <ele>369</ele>
        <time>2016-12-08T15:03:51Z</time>
      </trkpt>
      <trkpt lat="45.9258" lon="4.61771">
        <ele>368</ele>
        <time>2016-12-08T15:04:01Z</time>
      </trkpt>
      <trkpt lat="45.92581" lon="4.61772">
        <ele>368</ele>
        <time>2016-12-08T15:04:02Z</time>
      </trkpt>
      <trkpt lat="45.92583" lon="4.61783">
        <ele>368</ele>
        <time>2016-12-08T15:04:15Z</time>
      </trkpt>
      <trkpt lat="45.92582" lon="4.61785">
        <ele>368</ele>
        <time>2016-12-08T15:04:16Z</time>
      </trkpt>
      <trkpt lat="45.92578" lon="4.61796">
        <ele>368</ele>
        <time>2016-12-08T15:04:22Z</time>
      </trkpt>
      <trkpt lat="45.92578" lon="4.61797">
        <ele>368</ele>
        <time>2016-12-08T15:04:23Z</time>
      </trkpt>
      <trkpt lat="45.92574" lon="4.61808">
        <ele>367</ele>
        <time>2016-12-08T15:04:29Z</time>
      </trkpt>
      <trkpt lat="45.92573" lon="4.61809">
        <ele>367</ele>
        <time>2016-12-08T15:04:30Z</time>
      </trkpt>
      <trkpt lat="45.92567" lon="4.61817">
        <ele>367</ele>
        <time>2016-12-08T15:04:48Z</time>
      </trkpt>
      <trkpt lat="45.92565" lon="4.61818">
        <ele>367</ele>
        <time>2016-12-08T15:04:49Z</time>
      </trkpt>
      <trkpt lat="45.92557" lon="4.61824">
        <ele>367</ele>
        <time>2016-12-08T15:04:53Z</time>
      </trkpt>
      <trkpt lat="45.92555" lon="4.61825">
        <ele>367</ele>
        <time>2016-12-08T15:04:54Z</time>
      </trkpt>
      <trkpt lat="45.92547" lon="4.6183">
        <ele>367</ele>
        <time>2016-12-08T15:05:00Z</time>
      </trkpt>
      <trkpt lat="45.92546" lon="4.61831">
        <ele>367</ele>
        <time>2016-12-08T15:05:01Z</time>
      </trkpt>
      <trkpt lat="45.92537" lon="4.61835">
        <ele>365</ele>
        <time>2016-12-08T15:05:07Z</time>
      </trkpt>
      <trkpt lat="45.92536" lon="4.61837">
        <ele>365</ele>
        <time>2016-12-08T15:05:08Z</time>
      </trkpt>
      <trkpt lat="45.92528" lon="4.61843">
        <ele>364</ele>
        <time>2016-12-08T15:05:14Z</time>
      </trkpt>
      <trkpt lat="45.92527" lon="4.61844">
        <ele>364</ele>
        <time>2016-12-08T15:05:15Z</time>
      </trkpt>
      <trkpt lat="45.92519" lon="4.61847">
        <ele>364</ele>
        <time>2016-12-08T15:05:21Z</time>
      </trkpt>
      <trkpt lat="45.92518" lon="4.61848">
        <ele>364</ele>
        <time>2016-12-08T15:05:22Z</time>
      </trkpt>
      <trkpt lat="45.92511" lon="4.61854">
        <ele>364</ele>
        <time>2016-12-08T15:05:29Z</time>
      </trkpt>
      <trkpt lat="45.9251" lon="4.61855">
        <ele>364</ele>
        <time>2016-12-08T15:05:30Z</time>
      </trkpt>
      <trkpt lat="45.92503" lon="4.61858">
        <ele>364</ele>
        <time>2016-12-08T15:05:35Z</time>
      </trkpt>
      <trkpt lat="45.925" lon="4.61858">
        <ele>364</ele>
        <time>2016-12-08T15:05:36Z</time>
      </trkpt>
      <trkpt lat="45.92493" lon="4.61862">
        <ele>361</ele>
        <time>2016-12-08T15:05:40Z</time>
      </trkpt>
      <trkpt lat="45.92491" lon="4.61863">
        <ele>361</ele>
        <time>2016-12-08T15:05:41Z</time>
      </trkpt>
      <trkpt lat="45.92484" lon="4.6187">
        <ele>361</ele>
        <time>2016-12-08T15:05:47Z</time>
      </trkpt>
      <trkpt lat="45.92483" lon="4.61871">
        <ele>361</ele>
        <time>2016-12-08T15:05:48Z</time>
      </trkpt>
      <trkpt lat="45.92478" lon="4.6188">
        <ele>360</ele>
        <time>2016-12-08T15:06:08Z</time>
      </trkpt>
      <trkpt lat="45.92478" lon="4.61881">
        <ele>360</ele>
        <time>2016-12-08T15:06:09Z</time>
      </trkpt>
      <trkpt lat="45.92471" lon="4.61886">
        <ele>360</ele>
        <time>2016-12-08T15:06:19Z</time>
      </trkpt>
      <trkpt lat="45.9247" lon="4.61887">
        <ele>360</ele>
        <time>2016-12-08T15:06:20Z</time>
      </trkpt>
      <trkpt lat="45.92461" lon="4.61888">
        <ele>359</ele>
        <time>2016-12-08T15:06:31Z</time>
      </trkpt>
      <trkpt lat="45.9246" lon="4.61888">
        <ele>359</ele>
        <time>2016-12-08T15:06:32Z</time>
      </trkpt>
      <trkpt lat="45.92452" lon="4.6189">
        <ele>359</ele>
        <time>2016-12-08T15:06:40Z</time>
      </trkpt>
      <trkpt lat="45.92451" lon="4.61891">
        <ele>359</ele>
        <time>2016-12-08T15:06:41Z</time>
      </trkpt>
      <trkpt lat="45.92442" lon="4.61892">
        <ele>359</ele>
        <time>2016-12-08T15:06:56Z</time>
      </trkpt>
      <trkpt lat="45.92442" lon="4.61892">
        <ele>359</ele>
        <time>2016-12-08T15:06:57Z</time>
      </trkpt>
      <trkpt lat="45.92433" lon="4.61893">
        <ele>358</ele>
        <time>2016-12-08T15:07:33Z</time>
      </trkpt>
      <trkpt lat="45.92433" lon="4.61893">
        <ele>358</ele>
        <time>2016-12-08T15:07:34Z</time>
      </trkpt>
      <trkpt lat="45.92428" lon="4.61898">
        <ele>358</ele>
        <time>2016-12-08T15:08:45.742Z</time>
      </trkpt>
    </trkseg>
  </trk>
</gpx>